<?xml version='1.0' encoding='UTF-8'?><gpx version="1.1" creator="JPX - https://github.com/jenetics/jpx" xmlns="http://www.topografix.com/GPX/1/1"><trk><trkseg><trkpt lat="42.544988751621936" lon="12.651626745751278"><ele>162.0</ele><time>2026-04-26T09:13:36.067Z</time></trkpt><trkpt lat="42.54493947441916" lon="12.651763493732691"><ele>162.0</ele><time>2026-04-26T09:15:14.003Z</time></trkpt><trkpt lat="42.54488730311771" lon="12.651695574870775"><ele>162.0</ele><time>2026-04-26T09:15:18.003Z</time></trkpt><trkpt lat="42.544902203226975" lon="12.651808911986393"><ele>162.0</ele><time>2026-04-26T09:15:28.003Z</time></trkpt><trkpt lat="42.54493668618675" lon="12.651899586085298"><ele>162.0</ele><time>2026-04-26T09:15:29.003Z</time></trkpt><trkpt lat="42.544987437822336" lon="12.652019364810997"><ele>162.0</ele><time>2026-04-26T09:15:30.003Z</time></trkpt><trkpt lat="42.545050624938185" lon="12.652153087471158"><ele>162.5</ele><time>2026-04-26T09:15:31.003Z</time></trkpt><trkpt lat="42.54512547574609" lon="12.65230705700823"><ele>163.0</ele><time>2026-04-26T09:15:32.003Z</time></trkpt><trkpt lat="42.54521181181959" lon="12.652467527487433"><ele>163.5</ele><time>2026-04-26T09:15:33.003Z</time></trkpt><trkpt lat="42.54529968477737" lon="12.652625327614498"><ele>164.0</ele><time>2026-04-26T09:15:34.003Z</time></trkpt><trkpt lat="42.54539105277571" lon="12.652803656173477"><ele>164.0</ele><time>2026-04-26T09:15:35.004Z</time></trkpt><trkpt lat="42.5454915430421" lon="12.652988361364402"><ele>164.0</ele><time>2026-04-26T09:15:36.004Z</time></trkpt><trkpt lat="42.54559905010692" lon="12.653164696961111"><ele>164.0</ele><time>2026-04-26T09:15:37.004Z</time></trkpt><trkpt lat="42.54567547487659" lon="12.653332687031984"><ele>164.0</ele><time>2026-04-26T09:15:38.004Z</time></trkpt><trkpt lat="42.545754622546646" lon="12.653506713114652"><ele>164.0</ele><time>2026-04-26T09:15:39.004Z</time></trkpt><trkpt lat="42.54582375791366" lon="12.653700994716203"><ele>164.0</ele><time>2026-04-26T09:15:40.004Z</time></trkpt><trkpt lat="42.54588928157465" lon="12.653876154008834"><ele>164.0</ele><time>2026-04-26T09:15:41.004Z</time></trkpt><trkpt lat="42.545960734773544" lon="12.654035805599143"><ele>164.0</ele><time>2026-04-26T09:15:42.004Z</time></trkpt><trkpt lat="42.546016346790076" lon="12.65420693196567"><ele>164.0</ele><time>2026-04-26T09:15:43.004Z</time></trkpt><trkpt lat="42.54608387255959" lon="12.65435709292134"><ele>164.0</ele><time>2026-04-26T09:15:44.004Z</time></trkpt><trkpt lat="42.54614477553857" lon="12.654509910950733"><ele>164.2</ele><time>2026-04-26T09:15:45.004Z</time></trkpt><trkpt lat="42.54620380047124" lon="12.654666602441743"><ele>164.39999999999998</ele><time>2026-04-26T09:15:46.004Z</time></trkpt><trkpt lat="42.54626914603687" lon="12.654804869303124"><ele>164.6</ele><time>2026-04-26T09:15:47.004Z</time></trkpt><trkpt lat="42.546314422223865" lon="12.65493305561411"><ele>164.8</ele><time>2026-04-26T09:15:48.004Z</time></trkpt><trkpt lat="42.546345996335404" lon="12.655037445466402"><ele>165.0</ele><time>2026-04-26T09:15:49.004Z</time></trkpt><trkpt lat="42.54636967193454" lon="12.655124385732394"><ele>165.2</ele><time>2026-04-26T09:15:50.004Z</time></trkpt><trkpt lat="42.54638601086845" lon="12.655286008781541"><ele>165.4</ele><time>2026-04-26T09:15:52.004Z</time></trkpt><trkpt lat="42.54633779502922" lon="12.655358188871364"><ele>165.60000000000002</ele><time>2026-04-26T09:15:53.004Z</time></trkpt><trkpt lat="42.54624578914123" lon="12.655412194518622"><ele>165.8</ele><time>2026-04-26T09:15:54.004Z</time></trkpt><trkpt lat="42.54613037488225" lon="12.655470880051327"><ele>166.0</ele><time>2026-04-26T09:15:55.004Z</time></trkpt><trkpt lat="42.54601163395071" lon="12.655533612341149"><ele>166.0</ele><time>2026-04-26T09:15:56.004Z</time></trkpt><trkpt lat="42.545879954043784" lon="12.655613083576247"><ele>166.0</ele><time>2026-04-26T09:15:57.004Z</time></trkpt><trkpt lat="42.54575987888609" lon="12.655691696340936"><ele>166.0</ele><time>2026-04-26T09:15:58.004Z</time></trkpt><trkpt lat="42.5456256485482" lon="12.655752964892828"><ele>166.0</ele><time>2026-04-26T09:15:59.004Z</time></trkpt><trkpt lat="42.54549592354047" lon="12.65582101868831"><ele>166.75</ele><time>2026-04-26T09:16:00.004Z</time></trkpt><trkpt lat="42.54537060268245" lon="12.655896075210078"><ele>167.5</ele><time>2026-04-26T09:16:01.004Z</time></trkpt><trkpt lat="42.54524291342914" lon="12.655975740174826"><ele>168.25</ele><time>2026-04-26T09:16:02.004Z</time></trkpt><trkpt lat="42.54511716100325" lon="12.656051532655384"><ele>169.0</ele><time>2026-04-26T09:16:03.004Z</time></trkpt><trkpt lat="42.54499372319555" lon="12.656126125264528"><ele>169.25</ele><time>2026-04-26T09:16:04.004Z</time></trkpt><trkpt lat="42.54486712042106" lon="12.656207357086686"><ele>169.5</ele><time>2026-04-26T09:16:05.004Z</time></trkpt><trkpt lat="42.54475019925806" lon="12.65629539695751"><ele>169.75</ele><time>2026-04-26T09:16:06.004Z</time></trkpt><trkpt lat="42.54464358076334" lon="12.656372946637696"><ele>170.0</ele><time>2026-04-26T09:16:07.004Z</time></trkpt><trkpt lat="42.544528773289805" lon="12.656436308739067"><ele>171.0</ele><time>2026-04-26T09:16:08.005Z</time></trkpt><trkpt lat="42.54441582579629" lon="12.65645086855601"><ele>172.0</ele><time>2026-04-26T09:16:09.005Z</time></trkpt><trkpt lat="42.54430702636098" lon="12.6564710687064"><ele>173.0</ele><time>2026-04-26T09:16:10.005Z</time></trkpt><trkpt lat="42.544204262783424" lon="12.656506342633891"><ele>174.0</ele><time>2026-04-26T09:16:11.005Z</time></trkpt><trkpt lat="42.54407424575682" lon="12.656523550182696"><ele>174.0</ele><time>2026-04-26T09:16:12.005Z</time></trkpt><trkpt lat="42.54392161095035" lon="12.656554614543566"><ele>174.0</ele><time>2026-04-26T09:16:13.005Z</time></trkpt><trkpt lat="42.543775365033966" lon="12.656580410961999"><ele>174.0</ele><time>2026-04-26T09:16:14.005Z</time></trkpt><trkpt lat="42.543627764670845" lon="12.656613934835784"><ele>174.5</ele><time>2026-04-26T09:16:15.005Z</time></trkpt><trkpt lat="42.543488325092014" lon="12.656658059790361"><ele>175.0</ele><time>2026-04-26T09:16:16.005Z</time></trkpt><trkpt lat="42.54334897793019" lon="12.656702264585379"><ele>175.5</ele><time>2026-04-26T09:16:17.005Z</time></trkpt><trkpt lat="42.54320727873815" lon="12.656716659744363"><ele>176.0</ele><time>2026-04-26T09:16:18.005Z</time></trkpt><trkpt lat="42.543074739136365" lon="12.65674417349847"><ele>176.0</ele><time>2026-04-26T09:16:19.005Z</time></trkpt><trkpt lat="42.54294795966277" lon="12.65677490110636"><ele>176.0</ele><time>2026-04-26T09:16:20.005Z</time></trkpt><trkpt lat="42.54281898613267" lon="12.656806160558583"><ele>176.0</ele><time>2026-04-26T09:16:21.005Z</time></trkpt><trkpt lat="42.542695515166045" lon="12.656856014707339"><ele>176.0</ele><time>2026-04-26T09:16:22.005Z</time></trkpt><trkpt lat="42.542562228312896" lon="12.6568812495994"><ele>177.33333333333331</ele><time>2026-04-26T09:16:23.005Z</time></trkpt><trkpt lat="42.542414892804224" lon="12.656908027908186"><ele>178.66666666666666</ele><time>2026-04-26T09:16:24.005Z</time></trkpt><trkpt lat="42.54225382079471" lon="12.656942139425606"><ele>180.0</ele><time>2026-04-26T09:16:25.005Z</time></trkpt><trkpt lat="42.54208673892862" lon="12.656988772447537"><ele>181.66666666666666</ele><time>2026-04-26T09:16:26.005Z</time></trkpt><trkpt lat="42.54191943432438" lon="12.657044092220843"><ele>183.33333333333331</ele><time>2026-04-26T09:16:27.005Z</time></trkpt><trkpt lat="42.5417487280293" lon="12.657105418996533"><ele>185.0</ele><time>2026-04-26T09:16:28.005Z</time></trkpt><trkpt lat="42.54156810735423" lon="12.657159774230143"><ele>185.0</ele><time>2026-04-26T09:16:29.005Z</time></trkpt><trkpt lat="42.541399055105245" lon="12.657249892243295"><ele>185.0</ele><time>2026-04-26T09:16:30.005Z</time></trkpt><trkpt lat="42.54123755083688" lon="12.657325647112787"><ele>185.0</ele><time>2026-04-26T09:16:31.005Z</time></trkpt><trkpt lat="42.54108027350423" lon="12.657399210364842"><ele>185.66666666666666</ele><time>2026-04-26T09:16:32.005Z</time></trkpt><trkpt lat="42.540916832421054" lon="12.657455449059272"><ele>186.33333333333334</ele><time>2026-04-26T09:16:33.005Z</time></trkpt><trkpt lat="42.54075793092667" lon="12.657528301466384"><ele>187.0</ele><time>2026-04-26T09:16:34.005Z</time></trkpt><trkpt lat="42.540606205525016" lon="12.657587269089175"><ele>187.0</ele><time>2026-04-26T09:16:35.005Z</time></trkpt><trkpt lat="42.54047926517665" lon="12.657595437391521"><ele>187.0</ele><time>2026-04-26T09:16:36.005Z</time></trkpt><trkpt lat="42.54035250854751" lon="12.657559348098365"><ele>187.0</ele><time>2026-04-26T09:16:37.005Z</time></trkpt><trkpt lat="42.5402513647895" lon="12.657484324185202"><ele>187.0</ele><time>2026-04-26T09:16:38.005Z</time></trkpt><trkpt lat="42.54013521280195" lon="12.65740486969139"><ele>187.25</ele><time>2026-04-26T09:16:39.005Z</time></trkpt><trkpt lat="42.54000595784931" lon="12.657344885862548"><ele>187.5</ele><time>2026-04-26T09:16:40.005Z</time></trkpt><trkpt lat="42.539866680046266" lon="12.657268876522393"><ele>187.75</ele><time>2026-04-26T09:16:41.005Z</time></trkpt><trkpt lat="42.53971859531202" lon="12.65722866615646"><ele>188.0</ele><time>2026-04-26T09:16:42.006Z</time></trkpt><trkpt lat="42.53956936472754" lon="12.657241723871698"><ele>189.66666666666666</ele><time>2026-04-26T09:16:43.006Z</time></trkpt><trkpt lat="42.539419847200975" lon="12.65730459184514"><ele>191.33333333333331</ele><time>2026-04-26T09:16:44.006Z</time></trkpt><trkpt lat="42.53928620604053" lon="12.65741063266954"><ele>193.0</ele><time>2026-04-26T09:16:45.006Z</time></trkpt><trkpt lat="42.53913417698534" lon="12.65753008585683"><ele>193.0</ele><time>2026-04-26T09:16:46.006Z</time></trkpt><trkpt lat="42.53898454278245" lon="12.65763585966859"><ele>193.0</ele><time>2026-04-26T09:16:47.006Z</time></trkpt><trkpt lat="42.53883695539886" lon="12.657734194759518"><ele>193.0</ele><time>2026-04-26T09:16:48.006Z</time></trkpt><trkpt lat="42.5386890237937" lon="12.657834407021884"><ele>194.33333333333331</ele><time>2026-04-26T09:16:49.006Z</time></trkpt><trkpt lat="42.538534216570916" lon="12.657931413493909"><ele>195.66666666666669</ele><time>2026-04-26T09:16:50.006Z</time></trkpt><trkpt lat="42.538390848736185" lon="12.658031018009257"><ele>197.0</ele><time>2026-04-26T09:16:51.006Z</time></trkpt><trkpt lat="42.538245326575684" lon="12.658133130602133"><ele>197.0</ele><time>2026-04-26T09:16:52.006Z</time></trkpt><trkpt lat="42.538100459712716" lon="12.658244281898673"><ele>197.0</ele><time>2026-04-26T09:16:53.006Z</time></trkpt><trkpt lat="42.537962129567845" lon="12.658340158739856"><ele>197.0</ele><time>2026-04-26T09:16:54.006Z</time></trkpt><trkpt lat="42.537818022796365" lon="12.658437922288444"><ele>198.0</ele><time>2026-04-26T09:16:55.006Z</time></trkpt><trkpt lat="42.53767683645375" lon="12.658534832121076"><ele>199.0</ele><time>2026-04-26T09:16:56.006Z</time></trkpt><trkpt lat="42.537521024664635" lon="12.658626146123202"><ele>200.0</ele><time>2026-04-26T09:16:57.006Z</time></trkpt><trkpt lat="42.53736232846574" lon="12.658707227242795"><ele>200.33333333333334</ele><time>2026-04-26T09:16:58.006Z</time></trkpt><trkpt lat="42.53720343471112" lon="12.658785218014652"><ele>200.66666666666669</ele><time>2026-04-26T09:16:59.006Z</time></trkpt><trkpt lat="42.53704893385452" lon="12.658856038943417"><ele>201.0</ele><time>2026-04-26T09:17:00.006Z</time></trkpt><trkpt lat="42.53689045230609" lon="12.65893169340351"><ele>202.33333333333331</ele><time>2026-04-26T09:17:01.006Z</time></trkpt><trkpt lat="42.53673352578011" lon="12.659008082398524"><ele>203.66666666666666</ele><time>2026-04-26T09:17:02.006Z</time></trkpt><trkpt lat="42.5365789397652" lon="12.659083275819249"><ele>205.0</ele><time>2026-04-26T09:17:03.006Z</time></trkpt><trkpt lat="42.53642246794305" lon="12.659156010415245"><ele>205.0</ele><time>2026-04-26T09:17:04.006Z</time></trkpt><trkpt lat="42.53626747228736" lon="12.659225681024102"><ele>205.0</ele><time>2026-04-26T09:17:05.006Z</time></trkpt><trkpt lat="42.53610838787847" lon="12.659295372022106"><ele>205.0</ele><time>2026-04-26T09:17:06.006Z</time></trkpt><trkpt lat="42.53595604101506" lon="12.65937339915608"><ele>206.66666666666666</ele><time>2026-04-26T09:17:07.006Z</time></trkpt><trkpt lat="42.53579394023721" lon="12.659455835362934"><ele>208.33333333333331</ele><time>2026-04-26T09:17:08.006Z</time></trkpt><trkpt lat="42.535624383469184" lon="12.659548850907713"><ele>210.0</ele><time>2026-04-26T09:17:09.006Z</time></trkpt><trkpt lat="42.53546788812694" lon="12.659664451228325"><ele>210.66666666666669</ele><time>2026-04-26T09:17:10.006Z</time></trkpt><trkpt lat="42.53531392226209" lon="12.65979216479295"><ele>211.33333333333334</ele><time>2026-04-26T09:17:11.006Z</time></trkpt><trkpt lat="42.53516699937166" lon="12.659922484068654"><ele>212.0</ele><time>2026-04-26T09:17:12.006Z</time></trkpt><trkpt lat="42.5350200083975" lon="12.660060490915031"><ele>212.0</ele><time>2026-04-26T09:17:13.006Z</time></trkpt><trkpt lat="42.53486797131769" lon="12.660193001263915"><ele>212.0</ele><time>2026-04-26T09:17:14.006Z</time></trkpt><trkpt lat="42.5347211076536" lon="12.660325725441075"><ele>212.0</ele><time>2026-04-26T09:17:15.006Z</time></trkpt><trkpt lat="42.534572980791715" lon="12.660460801099722"><ele>213.33333333333334</ele><time>2026-04-26T09:17:16.007Z</time></trkpt><trkpt lat="42.534423996559454" lon="12.66060280560551"><ele>214.66666666666669</ele><time>2026-04-26T09:17:17.007Z</time></trkpt><trkpt lat="42.534286315660545" lon="12.66074823654092"><ele>216.0</ele><time>2026-04-26T09:17:18.007Z</time></trkpt><trkpt lat="42.53413628879311" lon="12.66090176555168"><ele>216.0</ele><time>2026-04-26T09:17:19.007Z</time></trkpt><trkpt lat="42.533981089871034" lon="12.661069852920255"><ele>216.0</ele><time>2026-04-26T09:17:20.007Z</time></trkpt><trkpt lat="42.53381823293596" lon="12.661239489342556"><ele>216.0</ele><time>2026-04-26T09:17:21.007Z</time></trkpt><trkpt lat="42.53367437890419" lon="12.661420215665725"><ele>218.0</ele><time>2026-04-26T09:17:22.007Z</time></trkpt><trkpt lat="42.53351834405422" lon="12.66158564355133"><ele>220.0</ele><time>2026-04-26T09:17:23.007Z</time></trkpt><trkpt lat="42.53338353530976" lon="12.661740435901628"><ele>222.0</ele><time>2026-04-26T09:17:24.007Z</time></trkpt><trkpt lat="42.53326506725338" lon="12.66190035286471"><ele>222.66666666666669</ele><time>2026-04-26T09:17:25.007Z</time></trkpt><trkpt lat="42.53314096172037" lon="12.66205037651559"><ele>223.33333333333334</ele><time>2026-04-26T09:17:26.007Z</time></trkpt><trkpt lat="42.533016526112206" lon="12.662201759928754"><ele>224.0</ele><time>2026-04-26T09:17:27.007Z</time></trkpt><trkpt lat="42.53288855574662" lon="12.66235176627106"><ele>224.0</ele><time>2026-04-26T09:17:28.007Z</time></trkpt><trkpt lat="42.532751501383736" lon="12.66248928114675"><ele>224.0</ele><time>2026-04-26T09:17:29.007Z</time></trkpt><trkpt lat="42.53264049532754" lon="12.662661615556631"><ele>224.0</ele><time>2026-04-26T09:17:30.007Z</time></trkpt><trkpt lat="42.53251775149724" lon="12.662809467651748"><ele>225.66666666666669</ele><time>2026-04-26T09:17:31.007Z</time></trkpt><trkpt lat="42.532391318108836" lon="12.662959877613876"><ele>227.33333333333331</ele><time>2026-04-26T09:17:32.007Z</time></trkpt><trkpt lat="42.53227674328123" lon="12.66312970583352"><ele>229.0</ele><time>2026-04-26T09:17:33.007Z</time></trkpt><trkpt lat="42.53217679327161" lon="12.663306931536653"><ele>229.0</ele><time>2026-04-26T09:17:34.007Z</time></trkpt><trkpt lat="42.53208639972579" lon="12.66348634566644"><ele>229.0</ele><time>2026-04-26T09:17:35.007Z</time></trkpt><trkpt lat="42.532015161766516" lon="12.66367642907714"><ele>229.0</ele><time>2026-04-26T09:17:36.007Z</time></trkpt><trkpt lat="42.53195280458278" lon="12.663886367361894"><ele>231.0</ele><time>2026-04-26T09:17:37.007Z</time></trkpt><trkpt lat="42.5318901116801" lon="12.664097839569198"><ele>233.0</ele><time>2026-04-26T09:17:38.007Z</time></trkpt><trkpt lat="42.53183008504916" lon="12.664312163852964"><ele>235.0</ele><time>2026-04-26T09:17:39.007Z</time></trkpt><trkpt lat="42.53176699113041" lon="12.664510382526611"><ele>236.33333333333331</ele><time>2026-04-26T09:17:40.007Z</time></trkpt><trkpt lat="42.53171208586049" lon="12.664703689286483"><ele>237.66666666666669</ele><time>2026-04-26T09:17:41.007Z</time></trkpt><trkpt lat="42.531652697950214" lon="12.664897705563252"><ele>239.0</ele><time>2026-04-26T09:17:42.007Z</time></trkpt><trkpt lat="42.53157168610161" lon="12.665082410760427"><ele>239.0</ele><time>2026-04-26T09:17:43.007Z</time></trkpt><trkpt lat="42.53150411358973" lon="12.66527870788932"><ele>239.0</ele><time>2026-04-26T09:17:44.007Z</time></trkpt><trkpt lat="42.531445702379344" lon="12.66546781360472"><ele>239.0</ele><time>2026-04-26T09:17:45.007Z</time></trkpt><trkpt lat="42.53137534454683" lon="12.665654222553636"><ele>240.0</ele><time>2026-04-26T09:17:46.007Z</time></trkpt><trkpt lat="42.5312904435433" lon="12.66583652556291"><ele>241.0</ele><time>2026-04-26T09:17:47.007Z</time></trkpt><trkpt lat="42.53118724158274" lon="12.666018191829648"><ele>242.0</ele><time>2026-04-26T09:17:48.007Z</time></trkpt><trkpt lat="42.531084990007" lon="12.666199282526637"><ele>243.0</ele><time>2026-04-26T09:17:49.008Z</time></trkpt><trkpt lat="42.53099756789257" lon="12.666404420082614"><ele>244.0</ele><time>2026-04-26T09:17:50.008Z</time></trkpt><trkpt lat="42.5308872029446" lon="12.666592554162671"><ele>245.0</ele><time>2026-04-26T09:17:51.008Z</time></trkpt><trkpt lat="42.530800406343936" lon="12.666769885164674"><ele>247.33333333333334</ele><time>2026-04-26T09:17:52.008Z</time></trkpt><trkpt lat="42.53073360829691" lon="12.666974422146748"><ele>249.66666666666669</ele><time>2026-04-26T09:17:53.008Z</time></trkpt><trkpt lat="42.53067936153183" lon="12.667181655388566"><ele>252.0</ele><time>2026-04-26T09:17:54.008Z</time></trkpt><trkpt lat="42.5306415176616" lon="12.667396548685721"><ele>252.0</ele><time>2026-04-26T09:17:55.008Z</time></trkpt><trkpt lat="42.53062369624319" lon="12.667599425239166"><ele>252.0</ele><time>2026-04-26T09:17:56.008Z</time></trkpt><trkpt lat="42.530639447548126" lon="12.66778064468156"><ele>252.0</ele><time>2026-04-26T09:17:57.008Z</time></trkpt><trkpt lat="42.53067062230128" lon="12.667933339601209"><ele>252.0</ele><time>2026-04-26T09:17:58.008Z</time></trkpt><trkpt lat="42.530716881748404" lon="12.668069238056708"><ele>253.0</ele><time>2026-04-26T09:17:59.008Z</time></trkpt><trkpt lat="42.53077973550159" lon="12.668181322937594"><ele>254.0</ele><time>2026-04-26T09:18:00.008Z</time></trkpt><trkpt lat="42.530867720757925" lon="12.66832538663673"><ele>255.0</ele><time>2026-04-26T09:18:01.008Z</time></trkpt><trkpt lat="42.5309497625088" lon="12.668494444703583"><ele>256.0</ele><time>2026-04-26T09:18:02.008Z</time></trkpt><trkpt lat="42.5310244172476" lon="12.668665697589052"><ele>257.0</ele><time>2026-04-26T09:18:03.008Z</time></trkpt><trkpt lat="42.53107903329937" lon="12.66883043402436"><ele>258.0</ele><time>2026-04-26T09:18:04.008Z</time></trkpt><trkpt lat="42.53110751425682" lon="12.669029558066107"><ele>259.0</ele><time>2026-04-26T09:18:05.008Z</time></trkpt><trkpt lat="42.53115309720661" lon="12.669232102449877"><ele>260.0</ele><time>2026-04-26T09:18:06.008Z</time></trkpt><trkpt lat="42.531216046068884" lon="12.669427860089256"><ele>264.0</ele><time>2026-04-26T09:18:07.008Z</time></trkpt><trkpt lat="42.53127310910779" lon="12.669636731041793"><ele>268.0</ele><time>2026-04-26T09:18:08.008Z</time></trkpt><trkpt lat="42.53132230824037" lon="12.66982838299507"><ele>272.0</ele><time>2026-04-26T09:18:09.008Z</time></trkpt><trkpt lat="42.53136477027567" lon="12.670001826139083"><ele>276.0</ele><time>2026-04-26T09:18:10.008Z</time></trkpt><trkpt lat="42.53140317103369" lon="12.670169551472764"><ele>276.0</ele><time>2026-04-26T09:18:11.008Z</time></trkpt><trkpt lat="42.531443480474586" lon="12.670318040149061"><ele>276.0</ele><time>2026-04-26T09:18:12.008Z</time></trkpt><trkpt lat="42.531510970859614" lon="12.670457745921023"><ele>276.0</ele><time>2026-04-26T09:18:13.008Z</time></trkpt><trkpt lat="42.531619016097885" lon="12.670601020085279"><ele>276.0</ele><time>2026-04-26T09:18:14.008Z</time></trkpt><trkpt lat="42.53174434772765" lon="12.670728244146389"><ele>276.0</ele><time>2026-04-26T09:18:15.008Z</time></trkpt><trkpt lat="42.53185435703384" lon="12.670842070785636"><ele>276.0</ele><time>2026-04-26T09:18:16.008Z</time></trkpt><trkpt lat="42.531956855999425" lon="12.670949305906216"><ele>276.0</ele><time>2026-04-26T09:18:17.008Z</time></trkpt><trkpt lat="42.53204468578004" lon="12.671049303214385"><ele>276.0</ele><time>2026-04-26T09:18:18.008Z</time></trkpt><trkpt lat="42.53211465325848" lon="12.67113939646217"><ele>278.75</ele><time>2026-04-26T09:18:19.008Z</time></trkpt><trkpt lat="42.53217858682341" lon="12.671217481992075"><ele>281.5</ele><time>2026-04-26T09:18:20.008Z</time></trkpt><trkpt lat="42.53225266498229" lon="12.67130795769117"><ele>284.25</ele><time>2026-04-26T09:18:22.008Z</time></trkpt><trkpt lat="42.532186320110924" lon="12.671307475682731"><ele>287.0</ele><time>2026-04-26T09:18:23.009Z</time></trkpt><trkpt lat="42.53220136857516" lon="12.671750863700101"><ele>287.0</ele><time>2026-04-26T09:18:24.009Z</time></trkpt><trkpt lat="42.53228960396523" lon="12.671836676391623"><ele>287.0</ele><time>2026-04-26T09:18:25.009Z</time></trkpt><trkpt lat="42.53237505864163" lon="12.67192398275587"><ele>287.0</ele><time>2026-04-26T09:18:26.009Z</time></trkpt><trkpt lat="42.53243655132156" lon="12.672003053598104"><ele>287.0</ele><time>2026-04-26T09:18:27.009Z</time></trkpt><trkpt lat="42.53246758371277" lon="12.672130012516858"><ele>287.0</ele><time>2026-04-26T09:18:28.009Z</time></trkpt><trkpt lat="42.53255987269323" lon="12.67229318203509"><ele>288.0</ele><time>2026-04-26T09:18:29.009Z</time></trkpt><trkpt lat="42.53266237978499" lon="12.6724665146216"><ele>289.0</ele><time>2026-04-26T09:18:30.009Z</time></trkpt><trkpt lat="42.53276987790818" lon="12.672620186503424"><ele>290.0</ele><time>2026-04-26T09:18:31.009Z</time></trkpt><trkpt lat="42.532840766336776" lon="12.672721344669513"><ele>291.0</ele><time>2026-04-26T09:18:32.009Z</time></trkpt><trkpt lat="42.53286906374814" lon="12.672860035504677"><ele>292.75</ele><time>2026-04-26T09:18:33.009Z</time></trkpt><trkpt lat="42.532886765251064" lon="12.673000260050124"><ele>294.5</ele><time>2026-04-26T09:18:34.009Z</time></trkpt><trkpt lat="42.53289646164749" lon="12.67317350595832"><ele>296.25</ele><time>2026-04-26T09:18:35.009Z</time></trkpt><trkpt lat="42.532896319719725" lon="12.673363334952493"><ele>298.0</ele><time>2026-04-26T09:18:36.009Z</time></trkpt><trkpt lat="42.53288160048983" lon="12.673555253692335"><ele>300.3333333333333</ele><time>2026-04-26T09:18:37.009Z</time></trkpt><trkpt lat="42.53286848684787" lon="12.673742966516295"><ele>302.6666666666667</ele><time>2026-04-26T09:18:38.009Z</time></trkpt><trkpt lat="42.53285552515843" lon="12.673952396977773"><ele>305.0</ele><time>2026-04-26T09:18:39.009Z</time></trkpt><trkpt lat="42.5328658808713" lon="12.674166791121328"><ele>309.0</ele><time>2026-04-26T09:18:40.009Z</time></trkpt><trkpt lat="42.53292720177133" lon="12.674367206074598"><ele>313.0</ele><time>2026-04-26T09:18:41.009Z</time></trkpt><trkpt lat="42.5329898844543" lon="12.674514852885844"><ele>317.0</ele><time>2026-04-26T09:18:42.009Z</time></trkpt><trkpt lat="42.53305951468358" lon="12.67468812604299"><ele>321.0</ele><time>2026-04-26T09:18:43.009Z</time></trkpt><trkpt lat="42.533115686772774" lon="12.674872302946204"><ele>322.3333333333333</ele><time>2026-04-26T09:18:44.009Z</time></trkpt><trkpt lat="42.53315737663914" lon="12.675091490631427"><ele>323.66666666666663</ele><time>2026-04-26T09:18:45.009Z</time></trkpt><trkpt lat="42.53320367508544" lon="12.675325410762209"><ele>325.0</ele><time>2026-04-26T09:18:46.009Z</time></trkpt><trkpt lat="42.53326399278066" lon="12.675544544415006"><ele>325.0</ele><time>2026-04-26T09:18:47.009Z</time></trkpt><trkpt lat="42.53331810919861" lon="12.675728745516933"><ele>325.0</ele><time>2026-04-26T09:18:48.009Z</time></trkpt><trkpt lat="42.53335540819223" lon="12.675892115182807"><ele>325.0</ele><time>2026-04-26T09:18:49.009Z</time></trkpt><trkpt lat="42.53337721828298" lon="12.676045437629599"><ele>325.0</ele><time>2026-04-26T09:18:50.009Z</time></trkpt><trkpt lat="42.533358314574635" lon="12.6761998253673"><ele>326.75</ele><time>2026-04-26T09:18:51.009Z</time></trkpt><trkpt lat="42.53331925346377" lon="12.676368656101964"><ele>328.5</ele><time>2026-04-26T09:18:52.009Z</time></trkpt><trkpt lat="42.533281787262574" lon="12.676580556272935"><ele>330.25</ele><time>2026-04-26T09:18:53.009Z</time></trkpt><trkpt lat="42.53325455697032" lon="12.676784204372474"><ele>332.0</ele><time>2026-04-26T09:18:54.009Z</time></trkpt><trkpt lat="42.533242412304276" lon="12.676978851892574"><ele>334.25</ele><time>2026-04-26T09:18:55.009Z</time></trkpt><trkpt lat="42.53323214975756" lon="12.677150153385757"><ele>336.5</ele><time>2026-04-26T09:18:56.01Z</time></trkpt><trkpt lat="42.53321815437574" lon="12.677326658062947"><ele>338.75</ele><time>2026-04-26T09:18:57.01Z</time></trkpt><trkpt lat="42.53322809948454" lon="12.677498969970177"><ele>341.0</ele><time>2026-04-26T09:18:58.01Z</time></trkpt><trkpt lat="42.53320256112292" lon="12.677635305074784"><ele>341.0</ele><time>2026-04-26T09:18:59.01Z</time></trkpt><trkpt lat="42.533184521120646" lon="12.677726447137266"><ele>341.0</ele><time>2026-04-26T09:19:00.01Z</time></trkpt><trkpt lat="42.53320393302218" lon="12.677830516938826"><ele>341.0</ele><time>2026-04-26T09:19:02.01Z</time></trkpt><trkpt lat="42.533275202875735" lon="12.67778896616919"><ele>341.0</ele><time>2026-04-26T09:19:05.01Z</time></trkpt><trkpt lat="42.53339784037517" lon="12.677662639428133"><ele>341.0</ele><time>2026-04-26T09:19:07.01Z</time></trkpt><trkpt lat="42.53347796276228" lon="12.677548286261588"><ele>341.0</ele><time>2026-04-26T09:19:08.01Z</time></trkpt><trkpt lat="42.53356358828934" lon="12.677437589090674"><ele>341.0</ele><time>2026-04-26T09:19:09.01Z</time></trkpt><trkpt lat="42.533652784892276" lon="12.6773641347519"><ele>341.0</ele><time>2026-04-26T09:19:10.01Z</time></trkpt><trkpt lat="42.533717552137595" lon="12.677304542728676"><ele>341.0</ele><time>2026-04-26T09:19:11.01Z</time></trkpt><trkpt lat="42.53375934038897" lon="12.677221685697251"><ele>341.0</ele><time>2026-04-26T09:19:12.01Z</time></trkpt><trkpt lat="42.53379613066934" lon="12.677114675220151"><ele>343.0</ele><time>2026-04-26T09:19:13.01Z</time></trkpt><trkpt lat="42.53391005832864" lon="12.677135743689755"><ele>345.0</ele><time>2026-04-26T09:19:15.01Z</time></trkpt><trkpt lat="42.53396565476157" lon="12.677227950934157"><ele>347.0</ele><time>2026-04-26T09:19:16.01Z</time></trkpt><trkpt lat="42.53403981743964" lon="12.677346867713927"><ele>349.0</ele><time>2026-04-26T09:19:17.01Z</time></trkpt><trkpt lat="42.53411467569268" lon="12.67746240352353"><ele>351.0</ele><time>2026-04-26T09:19:18.01Z</time></trkpt><trkpt lat="42.53420630669042" lon="12.677556155924123"><ele>351.0</ele><time>2026-04-26T09:19:19.01Z</time></trkpt><trkpt lat="42.534291359934016" lon="12.677668602654842"><ele>351.0</ele><time>2026-04-26T09:19:20.01Z</time></trkpt><trkpt lat="42.534364789584956" lon="12.677802664427885"><ele>351.0</ele><time>2026-04-26T09:19:21.01Z</time></trkpt><trkpt lat="42.534433466090306" lon="12.677965296437563"><ele>351.0</ele><time>2026-04-26T09:19:22.01Z</time></trkpt><trkpt lat="42.53450045742213" lon="12.678117567999939"><ele>351.4</ele><time>2026-04-26T09:19:23.01Z</time></trkpt><trkpt lat="42.53457761622972" lon="12.678239201953408"><ele>351.8</ele><time>2026-04-26T09:19:24.01Z</time></trkpt><trkpt lat="42.534638492176626" lon="12.678354493817661"><ele>352.2</ele><time>2026-04-26T09:19:25.01Z</time></trkpt><trkpt lat="42.53469675735332" lon="12.678476759736371"><ele>352.59999999999997</ele><time>2026-04-26T09:19:26.01Z</time></trkpt><trkpt lat="42.53474817254606" lon="12.67860780427084"><ele>353.0</ele><time>2026-04-26T09:19:27.01Z</time></trkpt><trkpt lat="42.53480396907939" lon="12.678750719876614"><ele>356.75</ele><time>2026-04-26T09:19:28.01Z</time></trkpt><trkpt lat="42.53487117259408" lon="12.678904300203138"><ele>360.5</ele><time>2026-04-26T09:19:29.01Z</time></trkpt><trkpt lat="42.534948358548384" lon="12.679064682435927"><ele>364.25</ele><time>2026-04-26T09:19:30.011Z</time></trkpt><trkpt lat="42.53502560318966" lon="12.679226247446739"><ele>368.0</ele><time>2026-04-26T09:19:31.011Z</time></trkpt><trkpt lat="42.53509433531235" lon="12.679385893487723"><ele>365.5</ele><time>2026-04-26T09:19:32.011Z</time></trkpt><trkpt lat="42.5351617965416" lon="12.679556916401127"><ele>363.0</ele><time>2026-04-26T09:19:33.011Z</time></trkpt><trkpt lat="42.53525553487915" lon="12.67972490850542"><ele>360.5</ele><time>2026-04-26T09:19:34.011Z</time></trkpt><trkpt lat="42.535346952181115" lon="12.67988469022597"><ele>358.0</ele><time>2026-04-26T09:19:35.011Z</time></trkpt><trkpt lat="42.53544194035956" lon="12.68003733107279"><ele>358.0</ele><time>2026-04-26T09:19:36.011Z</time></trkpt><trkpt lat="42.53554383070053" lon="12.680185207303822"><ele>358.0</ele><time>2026-04-26T09:19:37.011Z</time></trkpt><trkpt lat="42.53566428460379" lon="12.680324548667791"><ele>358.0</ele><time>2026-04-26T09:19:38.011Z</time></trkpt><trkpt lat="42.53575796069905" lon="12.680488962958302"><ele>361.75</ele><time>2026-04-26T09:19:39.011Z</time></trkpt><trkpt lat="42.535854789804965" lon="12.680618775680859"><ele>365.5</ele><time>2026-04-26T09:19:40.011Z</time></trkpt><trkpt lat="42.53594796608504" lon="12.680772912188994"><ele>369.25</ele><time>2026-04-26T09:19:41.011Z</time></trkpt><trkpt lat="42.53605164324404" lon="12.680946312296074"><ele>373.0</ele><time>2026-04-26T09:19:42.011Z</time></trkpt><trkpt lat="42.53616312554515" lon="12.681114853383336"><ele>369.3333333333333</ele><time>2026-04-26T09:19:43.011Z</time></trkpt><trkpt lat="42.536308779921896" lon="12.681232795851907"><ele>365.6666666666667</ele><time>2026-04-26T09:19:44.011Z</time></trkpt><trkpt lat="42.53643745474268" lon="12.681329484769106"><ele>362.0</ele><time>2026-04-26T09:19:45.011Z</time></trkpt><trkpt lat="42.536548186984916" lon="12.681432976798066"><ele>362.0</ele><time>2026-04-26T09:19:46.011Z</time></trkpt><trkpt lat="42.536657426466746" lon="12.681550149081279"><ele>362.0</ele><time>2026-04-26T09:19:47.011Z</time></trkpt><trkpt lat="42.536761313729144" lon="12.681671565856998"><ele>362.0</ele><time>2026-04-26T09:19:48.011Z</time></trkpt><trkpt lat="42.53687529013809" lon="12.681757547356792"><ele>362.0</ele><time>2026-04-26T09:19:49.011Z</time></trkpt><trkpt lat="42.5370207761765" lon="12.681779784814214"><ele>361.33333333333337</ele><time>2026-04-26T09:19:50.011Z</time></trkpt><trkpt lat="42.537194020820905" lon="12.681768146228661"><ele>360.6666666666667</ele><time>2026-04-26T09:19:51.011Z</time></trkpt><trkpt lat="42.53734816063141" lon="12.68180505999746"><ele>360.0</ele><time>2026-04-26T09:19:52.011Z</time></trkpt><trkpt lat="42.53747198416238" lon="12.681878559192238"><ele>363.3333333333333</ele><time>2026-04-26T09:19:53.011Z</time></trkpt><trkpt lat="42.537613841556286" lon="12.68197927037445"><ele>366.66666666666663</ele><time>2026-04-26T09:19:54.011Z</time></trkpt><trkpt lat="42.537767401870134" lon="12.682095977802469"><ele>370.0</ele><time>2026-04-26T09:19:55.011Z</time></trkpt><trkpt lat="42.53793060908077" lon="12.682188459055366"><ele>370.5</ele><time>2026-04-26T09:19:56.011Z</time></trkpt><trkpt lat="42.538084836846494" lon="12.682267043804034"><ele>371.0</ele><time>2026-04-26T09:19:57.011Z</time></trkpt><trkpt lat="42.5382152947756" lon="12.68232056939828"><ele>371.5</ele><time>2026-04-26T09:19:58.011Z</time></trkpt><trkpt lat="42.53830253643037" lon="12.682425186680106"><ele>372.0</ele><time>2026-04-26T09:19:59.011Z</time></trkpt><trkpt lat="42.53836295798302" lon="12.682547786553597"><ele>372.0</ele><time>2026-04-26T09:20:00.011Z</time></trkpt><trkpt lat="42.53841361602785" lon="12.682698262184303"><ele>372.0</ele><time>2026-04-26T09:20:01.011Z</time></trkpt><trkpt lat="42.538483170100896" lon="12.68287599944724"><ele>372.0</ele><time>2026-04-26T09:20:02.011Z</time></trkpt><trkpt lat="42.538567200174896" lon="12.68304584718137"><ele>372.0</ele><time>2026-04-26T09:20:03.011Z</time></trkpt><trkpt lat="42.53861854219989" lon="12.683240299231453"><ele>373.75</ele><time>2026-04-26T09:20:04.011Z</time></trkpt><trkpt lat="42.538685861251274" lon="12.683417022794345"><ele>375.5</ele><time>2026-04-26T09:20:05.011Z</time></trkpt><trkpt lat="42.538721766524255" lon="12.683610882935174"><ele>377.25</ele><time>2026-04-26T09:20:06.011Z</time></trkpt><trkpt lat="42.5387648881432" lon="12.683781149271788"><ele>379.0</ele><time>2026-04-26T09:20:07.011Z</time></trkpt><trkpt lat="42.538803557657104" lon="12.683931869830989"><ele>380.4</ele><time>2026-04-26T09:20:08.011Z</time></trkpt><trkpt lat="42.53885493251707" lon="12.684074314608432"><ele>381.79999999999995</ele><time>2026-04-26T09:20:09.011Z</time></trkpt><trkpt lat="42.53892049420481" lon="12.68418758464667"><ele>383.20000000000005</ele><time>2026-04-26T09:20:10.011Z</time></trkpt><trkpt lat="42.53897687649804" lon="12.684287012365516"><ele>384.6</ele><time>2026-04-26T09:20:11.011Z</time></trkpt><trkpt lat="42.53902769476587" lon="12.684372587132998"><ele>386.0</ele><time>2026-04-26T09:20:12.011Z</time></trkpt><trkpt lat="42.53910239465552" lon="12.68449007463198"><ele>386.0</ele><time>2026-04-26T09:20:14.011Z</time></trkpt><trkpt lat="42.539087771767896" lon="12.684578275999142"><ele>386.0</ele><time>2026-04-26T09:20:17.011Z</time></trkpt><trkpt lat="42.53897244133711" lon="12.684635598868908"><ele>386.0</ele><time>2026-04-26T09:20:18.011Z</time></trkpt><trkpt lat="42.538905502722834" lon="12.684716118436146"><ele>386.0</ele><time>2026-04-26T09:20:19.011Z</time></trkpt><trkpt lat="42.53883687403061" lon="12.684802234078063"><ele>386.0</ele><time>2026-04-26T09:20:20.012Z</time></trkpt><trkpt lat="42.538760045929166" lon="12.684888574072646"><ele>387.20000000000005</ele><time>2026-04-26T09:20:21.012Z</time></trkpt><trkpt lat="42.53867690912353" lon="12.684971203410978"><ele>388.40000000000003</ele><time>2026-04-26T09:20:22.012Z</time></trkpt><trkpt lat="42.5386128823967" lon="12.68502186973413"><ele>389.6</ele><time>2026-04-26T09:20:23.012Z</time></trkpt><trkpt lat="42.53855408958106" lon="12.685068502232566"><ele>390.8</ele><time>2026-04-26T09:20:24.012Z</time></trkpt><trkpt lat="42.53845977210104" lon="12.685143322916142"><ele>392.0</ele><time>2026-04-26T09:20:26.012Z</time></trkpt><trkpt lat="42.53838155199325" lon="12.685241523304946"><ele>395.16666666666663</ele><time>2026-04-26T09:21:17.013Z</time></trkpt><trkpt lat="42.5383256248759" lon="12.68529724727167"><ele>398.3333333333333</ele><time>2026-04-26T09:21:18.013Z</time></trkpt><trkpt lat="42.5382528051123" lon="12.685364855844373"><ele>401.5</ele><time>2026-04-26T09:21:19.013Z</time></trkpt><trkpt lat="42.53818895973257" lon="12.685433111947074"><ele>404.66666666666663</ele><time>2026-04-26T09:21:20.013Z</time></trkpt><trkpt lat="42.53813024153554" lon="12.685503946330254"><ele>407.8333333333333</ele><time>2026-04-26T09:21:21.013Z</time></trkpt><trkpt lat="42.538086882854195" lon="12.685623035966271"><ele>411.0</ele><time>2026-04-26T09:21:23.013Z</time></trkpt><trkpt lat="42.53807802331435" lon="12.685723688098468"><ele>411.0</ele><time>2026-04-26T09:21:25.013Z</time></trkpt><trkpt lat="42.53797688274174" lon="12.685719066159882"><ele>411.0</ele><time>2026-04-26T09:22:03.014Z</time></trkpt><trkpt lat="42.53786590798537" lon="12.685656713686193"><ele>411.0</ele><time>2026-04-26T09:22:05.015Z</time></trkpt><trkpt lat="42.53779330529215" lon="12.685574381921947"><ele>411.0</ele><time>2026-04-26T09:22:06.015Z</time></trkpt><trkpt lat="42.537706285988534" lon="12.685509357137411"><ele>411.0</ele><time>2026-04-26T09:22:07.015Z</time></trkpt><trkpt lat="42.53761464251468" lon="12.68545793934946"><ele>416.20000000000005</ele><time>2026-04-26T09:22:08.015Z</time></trkpt><trkpt lat="42.5375217063211" lon="12.68542919971893"><ele>421.40000000000003</ele><time>2026-04-26T09:22:09.015Z</time></trkpt><trkpt lat="42.53746306747142" lon="12.685373313045055"><ele>426.6</ele><time>2026-04-26T09:22:10.015Z</time></trkpt><trkpt lat="42.53736731538926" lon="12.685306709634812"><ele>431.8</ele><time>2026-04-26T09:22:12.015Z</time></trkpt><trkpt lat="42.537229319545524" lon="12.685310123472075"><ele>437.0</ele><time>2026-04-26T09:22:14.015Z</time></trkpt><trkpt lat="42.53714227118609" lon="12.685345330410298"><ele>436.99999999999994</ele><time>2026-04-26T09:22:15.015Z</time></trkpt><trkpt lat="42.537072689288905" lon="12.685374406445806"><ele>437.0</ele><time>2026-04-26T09:22:16.015Z</time></trkpt><trkpt lat="42.53698177722953" lon="12.685416052974258"><ele>437.0</ele><time>2026-04-26T09:22:17.015Z</time></trkpt><trkpt lat="42.53688311074093" lon="12.685463393818814"><ele>437.0</ele><time>2026-04-26T09:22:18.015Z</time></trkpt><trkpt lat="42.53680749454345" lon="12.685501663667411"><ele>436.99999999999994</ele><time>2026-04-26T09:22:19.015Z</time></trkpt><trkpt lat="42.53673050556821" lon="12.685540739084951"><ele>437.0</ele><time>2026-04-26T09:22:20.015Z</time></trkpt><trkpt lat="42.53666369239145" lon="12.685574650217163"><ele>437.0</ele><time>2026-04-26T09:22:21.015Z</time></trkpt><trkpt lat="42.53660259762067" lon="12.685658789685135"><ele>437.0</ele><time>2026-04-26T09:22:23.015Z</time></trkpt><trkpt lat="42.536814085285044" lon="12.68573955895735"><ele>437.0</ele><time>2026-04-26T09:22:27.015Z</time></trkpt><trkpt lat="42.536943493598656" lon="12.685726283273093"><ele>437.0</ele><time>2026-04-26T09:22:28.015Z</time></trkpt><trkpt lat="42.537056892673455" lon="12.685736033893122"><ele>437.0</ele><time>2026-04-26T09:22:29.015Z</time></trkpt><trkpt lat="42.53717833162392" lon="12.685778793346069"><ele>437.00000000000006</ele><time>2026-04-26T09:22:31.015Z</time></trkpt><trkpt lat="42.537221272451426" lon="12.68585569842189"><ele>437.00000000000006</ele><time>2026-04-26T09:22:32.015Z</time></trkpt><trkpt lat="42.53724755012799" lon="12.685941544620297"><ele>437.0</ele><time>2026-04-26T09:22:33.015Z</time></trkpt><trkpt lat="42.5373051228598" lon="12.686056073726855"><ele>437.0</ele><time>2026-04-26T09:22:34.015Z</time></trkpt><trkpt lat="42.53736507820007" lon="12.686132845452889"><ele>443.0</ele><time>2026-04-26T09:22:35.015Z</time></trkpt><trkpt lat="42.537410953536245" lon="12.686277071243692"><ele>449.00000000000006</ele><time>2026-04-26T09:22:36.015Z</time></trkpt><trkpt lat="42.53747455147426" lon="12.686369872431523"><ele>455.00000000000006</ele><time>2026-04-26T09:22:37.015Z</time></trkpt><trkpt lat="42.53753679479392" lon="12.686468045112319"><ele>461.0</ele><time>2026-04-26T09:22:38.015Z</time></trkpt><trkpt lat="42.53758649067915" lon="12.686546427889766"><ele>467.0</ele><time>2026-04-26T09:22:39.016Z</time></trkpt><trkpt lat="42.537651779524694" lon="12.686642892313532"><ele>466.99999999999994</ele><time>2026-04-26T09:22:40.016Z</time></trkpt><trkpt lat="42.53772171329297" lon="12.686734652808006"><ele>467.0</ele><time>2026-04-26T09:22:41.016Z</time></trkpt><trkpt lat="42.537781519286675" lon="12.686797251777643"><ele>467.0</ele><time>2026-04-26T09:22:42.016Z</time></trkpt><trkpt lat="42.53784178477838" lon="12.686865127263047"><ele>467.0</ele><time>2026-04-26T09:22:43.016Z</time></trkpt><trkpt lat="42.53789299118894" lon="12.686931365415406"><ele>466.99999999999994</ele><time>2026-04-26T09:22:44.016Z</time></trkpt><trkpt lat="42.53794772162351" lon="12.687002527251886"><ele>467.0</ele><time>2026-04-26T09:22:45.016Z</time></trkpt><trkpt lat="42.538027922750516" lon="12.687119516209796"><ele>468.25</ele><time>2026-04-26T09:22:46.016Z</time></trkpt><trkpt lat="42.53809458339338" lon="12.687217977713127"><ele>469.5</ele><time>2026-04-26T09:22:47.016Z</time></trkpt><trkpt lat="42.53813609395716" lon="12.687306361735168"><ele>470.75</ele><time>2026-04-26T09:22:48.016Z</time></trkpt><trkpt lat="42.538172011245955" lon="12.687445469891307"><ele>472.0</ele><time>2026-04-26T09:22:49.016Z</time></trkpt><trkpt lat="42.538284072031225" lon="12.68778259082588"><ele>472.0</ele><time>2026-04-26T09:22:50.016Z</time></trkpt><trkpt lat="42.53806505028584" lon="12.687510716126171"><ele>472.0</ele><time>2026-04-26T09:22:51.016Z</time></trkpt><trkpt lat="42.53794639290927" lon="12.687412940812537"><ele>472.0</ele><time>2026-04-26T09:22:58.016Z</time></trkpt><trkpt lat="42.53787579902007" lon="12.687378178828434"><ele>479.0</ele><time>2026-04-26T09:22:59.016Z</time></trkpt><trkpt lat="42.537788002733826" lon="12.68734133674707"><ele>486.0</ele><time>2026-04-26T09:23:00.016Z</time></trkpt><trkpt lat="42.53768218279952" lon="12.68730084532728"><ele>493.0</ele><time>2026-04-26T09:23:01.016Z</time></trkpt><trkpt lat="42.53756058615147" lon="12.687261095385871"><ele>500.0</ele><time>2026-04-26T09:23:02.016Z</time></trkpt><trkpt lat="42.53743072845947" lon="12.687228370809327"><ele>500.0</ele><time>2026-04-26T09:23:03.016Z</time></trkpt><trkpt lat="42.537309611897975" lon="12.687204154388112"><ele>500.0</ele><time>2026-04-26T09:23:04.016Z</time></trkpt><trkpt lat="42.537166052784535" lon="12.687180184493675"><ele>500.0</ele><time>2026-04-26T09:23:05.016Z</time></trkpt><trkpt lat="42.5370192868785" lon="12.687161257431528"><ele>500.0</ele><time>2026-04-26T09:23:06.016Z</time></trkpt><trkpt lat="42.53686684818919" lon="12.687134079063954"><ele>500.0</ele><time>2026-04-26T09:23:07.016Z</time></trkpt><trkpt lat="42.53708965787152" lon="12.687167867995333"><ele>500.0</ele><time>2026-04-26T09:23:08.016Z</time></trkpt><trkpt lat="42.536997824942986" lon="12.687181821738937"><ele>500.0</ele><time>2026-04-26T09:23:09.016Z</time></trkpt><trkpt lat="42.536891634082494" lon="12.68717546345959"><ele>500.0</ele><time>2026-04-26T09:23:10.016Z</time></trkpt><trkpt lat="42.536794531795074" lon="12.687185739997537"><ele>504.5</ele><time>2026-04-26T09:23:11.016Z</time></trkpt><trkpt lat="42.53667315833264" lon="12.687208843644934"><ele>509.0</ele><time>2026-04-26T09:23:12.016Z</time></trkpt><trkpt lat="42.53655764279466" lon="12.687271092362758"><ele>513.5</ele><time>2026-04-26T09:23:13.016Z</time></trkpt><trkpt lat="42.536458712575055" lon="12.687325951903524"><ele>518.0</ele><time>2026-04-26T09:23:14.017Z</time></trkpt><trkpt lat="42.53636826317395" lon="12.687373008867173"><ele>518.0</ele><time>2026-04-26T09:23:15.017Z</time></trkpt><trkpt lat="42.536274038482006" lon="12.687420962168568"><ele>518.0</ele><time>2026-04-26T09:23:16.017Z</time></trkpt><trkpt lat="42.5361867092545" lon="12.687465406193683"><ele>518.0</ele><time>2026-04-26T09:23:17.017Z</time></trkpt><trkpt lat="42.53609318059012" lon="12.68750468670421"><ele>518.0</ele><time>2026-04-26T09:23:18.017Z</time></trkpt><trkpt lat="42.5359798864148" lon="12.687535397102204"><ele>518.0</ele><time>2026-04-26T09:23:19.017Z</time></trkpt><trkpt lat="42.53586820767689" lon="12.687555707573534"><ele>519.4</ele><time>2026-04-26T09:23:20.017Z</time></trkpt><trkpt lat="42.53577421813166" lon="12.687559507599195"><ele>520.8</ele><time>2026-04-26T09:23:21.017Z</time></trkpt><trkpt lat="42.53568389566115" lon="12.687550637838154"><ele>522.2</ele><time>2026-04-26T09:23:22.017Z</time></trkpt><trkpt lat="42.53561628511039" lon="12.687530497565827"><ele>523.6</ele><time>2026-04-26T09:23:23.017Z</time></trkpt><trkpt lat="42.53549181663541" lon="12.68744088182025"><ele>525.0</ele><time>2026-04-26T09:23:25.017Z</time></trkpt><trkpt lat="42.53540614484474" lon="12.687394939977791"><ele>529.3333333333334</ele><time>2026-04-26T09:23:26.017Z</time></trkpt><trkpt lat="42.535328274227595" lon="12.687364605514606"><ele>533.6666666666666</ele><time>2026-04-26T09:23:27.017Z</time></trkpt><trkpt lat="42.53523620690016" lon="12.687333320776116"><ele>538.0</ele><time>2026-04-26T09:23:28.017Z</time></trkpt><trkpt lat="42.53514416320772" lon="12.68730791323345"><ele>542.3333333333333</ele><time>2026-04-26T09:23:29.017Z</time></trkpt><trkpt lat="42.53505877705643" lon="12.68729046786975"><ele>546.6666666666666</ele><time>2026-04-26T09:23:30.017Z</time></trkpt><trkpt lat="42.53497053873013" lon="12.687281392047423"><ele>551.0</ele><time>2026-04-26T09:23:31.017Z</time></trkpt><trkpt lat="42.534882516438635" lon="12.687290865260909"><ele>551.0</ele><time>2026-04-26T09:23:32.017Z</time></trkpt><trkpt lat="42.53478295264862" lon="12.687304325858044"><ele>551.0</ele><time>2026-04-26T09:23:33.017Z</time></trkpt><trkpt lat="42.53469726469054" lon="12.687309777126304"><ele>551.0</ele><time>2026-04-26T09:23:34.017Z</time></trkpt><trkpt lat="42.534597480026086" lon="12.687276112463369"><ele>551.0</ele><time>2026-04-26T09:23:36.017Z</time></trkpt><trkpt lat="42.53452936823577" lon="12.687157272706672"><ele>551.0</ele><time>2026-04-26T09:23:38.017Z</time></trkpt><trkpt lat="42.534517918337926" lon="12.687053856096266"><ele>548.4</ele><time>2026-04-26T09:23:39.017Z</time></trkpt><trkpt lat="42.534522236510625" lon="12.686942797580656"><ele>545.8</ele><time>2026-04-26T09:23:40.017Z</time></trkpt><trkpt lat="42.534514468293324" lon="12.686819037416422"><ele>543.1999999999999</ele><time>2026-04-26T09:23:41.017Z</time></trkpt><trkpt lat="42.53453184868565" lon="12.6866824403186"><ele>540.6</ele><time>2026-04-26T09:23:42.017Z</time></trkpt><trkpt lat="42.53455288242534" lon="12.686571214238782"><ele>538.0</ele><time>2026-04-26T09:23:43.017Z</time></trkpt><trkpt lat="42.53462116437937" lon="12.686411130624364"><ele>538.0</ele><time>2026-04-26T09:23:45.017Z</time></trkpt><trkpt lat="42.534659829514005" lon="12.68630848095098"><ele>538.0</ele><time>2026-04-26T09:23:46.017Z</time></trkpt><trkpt lat="42.53468034304198" lon="12.686191312308503"><ele>538.0</ele><time>2026-04-26T09:23:47.017Z</time></trkpt><trkpt lat="42.534706362919856" lon="12.686089291271049"><ele>538.0</ele><time>2026-04-26T09:23:48.017Z</time></trkpt><trkpt lat="42.534689613688684" lon="12.68595755441102"><ele>538.0</ele><time>2026-04-26T09:23:50.018Z</time></trkpt><trkpt lat="42.53455168452807" lon="12.68592584016957"><ele>543.8333333333334</ele><time>2026-04-26T09:23:52.018Z</time></trkpt><trkpt lat="42.53446629952028" lon="12.685865622551356"><ele>549.6666666666667</ele><time>2026-04-26T09:23:54.018Z</time></trkpt><trkpt lat="42.53441013908927" lon="12.68599164905146"><ele>555.5</ele><time>2026-04-26T09:24:13.018Z</time></trkpt><trkpt lat="42.5344114674056" lon="12.686085167501789"><ele>561.3333333333334</ele><time>2026-04-26T09:24:14.018Z</time></trkpt><trkpt lat="42.53440753971302" lon="12.68617637801259"><ele>567.1666666666666</ele><time>2026-04-26T09:24:15.018Z</time></trkpt><trkpt lat="42.53434701980468" lon="12.686247117137281"><ele>573.0</ele><time>2026-04-26T09:24:16.018Z</time></trkpt><trkpt lat="42.53425096459915" lon="12.686312783687507"><ele>573.1666666666666</ele><time>2026-04-26T09:24:17.018Z</time></trkpt><trkpt lat="42.53418677377176" lon="12.68635853853145"><ele>573.3333333333334</ele><time>2026-04-26T09:24:18.018Z</time></trkpt><trkpt lat="42.53410634566922" lon="12.686383422995826"><ele>573.5</ele><time>2026-04-26T09:24:19.018Z</time></trkpt><trkpt lat="42.534025432822006" lon="12.686408957406517"><ele>573.6666666666667</ele><time>2026-04-26T09:24:20.018Z</time></trkpt><trkpt lat="42.53394977882884" lon="12.686446529589599"><ele>573.8333333333334</ele><time>2026-04-26T09:24:21.018Z</time></trkpt><trkpt lat="42.53389699838354" lon="12.686502828530031"><ele>574.0</ele><time>2026-04-26T09:24:22.018Z</time></trkpt><trkpt lat="42.533887528631574" lon="12.686590924170178"><ele>574.0</ele><time>2026-04-26T09:24:23.018Z</time></trkpt><trkpt lat="42.53388688866272" lon="12.686679192958165"><ele>574.0</ele><time>2026-04-26T09:24:26.018Z</time></trkpt><trkpt lat="42.53384592006307" lon="12.686760854336558"><ele>574.0</ele><time>2026-04-26T09:24:29.018Z</time></trkpt><trkpt lat="42.53383490823669" lon="12.686938590418523"><ele>574.0</ele><time>2026-04-26T09:24:31.018Z</time></trkpt><trkpt lat="42.53382104866402" lon="12.687042036221195"><ele>574.0</ele><time>2026-04-26T09:24:32.018Z</time></trkpt><trkpt lat="42.5339107609845" lon="12.687145469533263"><ele>574.75</ele><time>2026-04-26T09:24:33.018Z</time></trkpt><trkpt lat="42.533738588821954" lon="12.68729661361379"><ele>575.5</ele><time>2026-04-26T09:24:34.019Z</time></trkpt><trkpt lat="42.533744649262346" lon="12.68743048105348"><ele>576.25</ele><time>2026-04-26T09:24:35.019Z</time></trkpt><trkpt lat="42.533727875868934" lon="12.687574947381991"><ele>577.0</ele><time>2026-04-26T09:24:36.019Z</time></trkpt><trkpt lat="42.53370091801863" lon="12.687706270999016"><ele>581.75</ele><time>2026-04-26T09:24:37.019Z</time></trkpt><trkpt lat="42.533629203017206" lon="12.68782267637907"><ele>586.5</ele><time>2026-04-26T09:24:38.019Z</time></trkpt><trkpt lat="42.533576743089164" lon="12.687941189618506"><ele>591.25</ele><time>2026-04-26T09:24:39.019Z</time></trkpt><trkpt lat="42.53351409799703" lon="12.68807680514273"><ele>596.0</ele><time>2026-04-26T09:24:40.019Z</time></trkpt><trkpt lat="42.533489342949586" lon="12.688256852350229"><ele>596.0</ele><time>2026-04-26T09:24:41.019Z</time></trkpt><trkpt lat="42.53343247866351" lon="12.688422003345115"><ele>596.0</ele><time>2026-04-26T09:24:42.019Z</time></trkpt><trkpt lat="42.533397252616716" lon="12.688594114154997"><ele>596.0</ele><time>2026-04-26T09:24:43.019Z</time></trkpt><trkpt lat="42.53337324767324" lon="12.688762767061592"><ele>596.0</ele><time>2026-04-26T09:24:44.019Z</time></trkpt><trkpt lat="42.533331790331275" lon="12.688924371987106"><ele>600.25</ele><time>2026-04-26T09:24:45.019Z</time></trkpt><trkpt lat="42.53327162908885" lon="12.689081661981977"><ele>604.5</ele><time>2026-04-26T09:24:46.019Z</time></trkpt><trkpt lat="42.533210769545846" lon="12.689245401294379"><ele>608.75</ele><time>2026-04-26T09:24:47.019Z</time></trkpt><trkpt lat="42.533151399529864" lon="12.689415164590386"><ele>613.0</ele><time>2026-04-26T09:24:48.019Z</time></trkpt><trkpt lat="42.53308962977221" lon="12.689563965624693"><ele>614.5</ele><time>2026-04-26T09:24:49.019Z</time></trkpt><trkpt lat="42.5330097252109" lon="12.689708572754814"><ele>616.0</ele><time>2026-04-26T09:24:50.019Z</time></trkpt><trkpt lat="42.53293452168952" lon="12.689854158227934"><ele>617.5</ele><time>2026-04-26T09:24:51.019Z</time></trkpt><trkpt lat="42.53288341767248" lon="12.689999854909829"><ele>619.0</ele><time>2026-04-26T09:24:52.019Z</time></trkpt><trkpt lat="42.53282940049618" lon="12.690148115975001"><ele>625.0</ele><time>2026-04-26T09:24:53.019Z</time></trkpt><trkpt lat="42.53279022855656" lon="12.6903108498189"><ele>631.0</ele><time>2026-04-26T09:24:54.019Z</time></trkpt><trkpt lat="42.53276515821462" lon="12.690471116534566"><ele>637.0</ele><time>2026-04-26T09:24:55.019Z</time></trkpt><trkpt lat="42.53270419639611" lon="12.690605091526189"><ele>643.0</ele><time>2026-04-26T09:24:56.019Z</time></trkpt><trkpt lat="42.53268896198864" lon="12.690766381052919"><ele>643.0</ele><time>2026-04-26T09:24:57.019Z</time></trkpt><trkpt lat="42.532667826735555" lon="12.690913810056035"><ele>643.0</ele><time>2026-04-26T09:24:58.019Z</time></trkpt><trkpt lat="42.53266401974527" lon="12.691067438311654"><ele>643.0</ele><time>2026-04-26T09:24:59.019Z</time></trkpt><trkpt lat="42.532680903181564" lon="12.691238540712737"><ele>643.0</ele><time>2026-04-26T09:25:00.019Z</time></trkpt><trkpt lat="42.5326777667072" lon="12.691392907097551"><ele>645.0</ele><time>2026-04-26T09:25:01.019Z</time></trkpt><trkpt lat="42.532656643950006" lon="12.691525637070663"><ele>647.0</ele><time>2026-04-26T09:25:02.019Z</time></trkpt><trkpt lat="42.53265578749605" lon="12.691672055060327"><ele>649.0</ele><time>2026-04-26T09:25:03.019Z</time></trkpt><trkpt lat="42.53266045636557" lon="12.691811458114817"><ele>651.0</ele><time>2026-04-26T09:25:04.019Z</time></trkpt><trkpt lat="42.53272967272283" lon="12.691938922977982"><ele>653.0</ele><time>2026-04-26T09:25:05.019Z</time></trkpt><trkpt lat="42.53270846843686" lon="12.692113555506115"><ele>654.0</ele><time>2026-04-26T09:25:06.019Z</time></trkpt><trkpt lat="42.53269875547293" lon="12.692239156176031"><ele>655.0</ele><time>2026-04-26T09:25:07.019Z</time></trkpt><trkpt lat="42.532682592377896" lon="12.69235446806668"><ele>656.0</ele><time>2026-04-26T09:25:08.019Z</time></trkpt><trkpt lat="42.532670850542786" lon="12.692493459425545"><ele>657.0</ele><time>2026-04-26T09:25:09.019Z</time></trkpt><trkpt lat="42.53265819953777" lon="12.692646630548328"><ele>658.0</ele><time>2026-04-26T09:25:10.02Z</time></trkpt><trkpt lat="42.53262133127574" lon="12.69278370756101"><ele>658.1666666666667</ele><time>2026-04-26T09:25:11.02Z</time></trkpt><trkpt lat="42.53260456681612" lon="12.692898682684534"><ele>658.3333333333334</ele><time>2026-04-26T09:25:12.02Z</time></trkpt><trkpt lat="42.532598702083824" lon="12.692994559485324"><ele>658.5</ele><time>2026-04-26T09:25:13.02Z</time></trkpt><trkpt lat="42.5325823111193" lon="12.693082029503929"><ele>658.6666666666666</ele><time>2026-04-26T09:25:14.02Z</time></trkpt><trkpt lat="42.53255319639117" lon="12.693182489058096"><ele>658.8333333333333</ele><time>2026-04-26T09:25:15.02Z</time></trkpt><trkpt lat="42.53251941509068" lon="12.693306313684513"><ele>659.0</ele><time>2026-04-26T09:25:16.02Z</time></trkpt><trkpt lat="42.53247966106584" lon="12.69343930311435"><ele>659.0</ele><time>2026-04-26T09:25:17.02Z</time></trkpt><trkpt lat="42.532445167114936" lon="12.693551711281966"><ele>659.0</ele><time>2026-04-26T09:25:18.02Z</time></trkpt><trkpt lat="42.53239411550649" lon="12.6936534323276"><ele>659.0</ele><time>2026-04-26T09:25:19.02Z</time></trkpt><trkpt lat="42.53230089820556" lon="12.693795964046748"><ele>659.0</ele><time>2026-04-26T09:25:21.02Z</time></trkpt><trkpt lat="42.532196393256235" lon="12.693866140404547"><ele>659.0</ele><time>2026-04-26T09:25:22.02Z</time></trkpt><trkpt lat="42.532106885594786" lon="12.693934837441095"><ele>661.8000000000001</ele><time>2026-04-26T09:25:23.02Z</time></trkpt><trkpt lat="42.53202008043246" lon="12.69401864212369"><ele>664.6</ele><time>2026-04-26T09:25:24.02Z</time></trkpt><trkpt lat="42.53193807927251" lon="12.69413115948088"><ele>667.4</ele><time>2026-04-26T09:25:25.02Z</time></trkpt><trkpt lat="42.53188659889377" lon="12.69422847000462"><ele>670.2</ele><time>2026-04-26T09:25:26.02Z</time></trkpt><trkpt lat="42.53184024668336" lon="12.694321546101273"><ele>673.0</ele><time>2026-04-26T09:25:27.02Z</time></trkpt><trkpt lat="42.53178702740544" lon="12.694379564004361"><ele>669.5</ele><time>2026-04-26T09:25:28.02Z</time></trkpt><trkpt lat="42.531689930175745" lon="12.694456338543711"><ele>666.0</ele><time>2026-04-26T09:25:30.02Z</time></trkpt><trkpt lat="42.5316225896869" lon="12.694481768271839"><ele>662.5</ele><time>2026-04-26T09:25:31.02Z</time></trkpt><trkpt lat="42.53154469953869" lon="12.694496854697757"><ele>659.0</ele><time>2026-04-26T09:25:32.02Z</time></trkpt><trkpt lat="42.53147799104295" lon="12.694499767096133"><ele>655.5</ele><time>2026-04-26T09:25:33.02Z</time></trkpt><trkpt lat="42.531415969261296" lon="12.694481843826772"><ele>652.0</ele><time>2026-04-26T09:25:34.02Z</time></trkpt><trkpt lat="42.531351753973546" lon="12.694519372554343"><ele>652.0</ele><time>2026-04-26T09:25:35.02Z</time></trkpt><trkpt lat="42.53130091815033" lon="12.69461630378124"><ele>652.0</ele><time>2026-04-26T09:25:36.02Z</time></trkpt><trkpt lat="42.53128718656528" lon="12.694700459722998"><ele>652.0</ele><time>2026-04-26T09:25:37.02Z</time></trkpt><trkpt lat="42.53130123981558" lon="12.694824055965674"><ele>652.0</ele><time>2026-04-26T09:26:17.022Z</time></trkpt><trkpt lat="42.531294828640824" lon="12.69494228699429"><ele>652.0</ele><time>2026-04-26T09:26:19.022Z</time></trkpt><trkpt lat="42.53120445315306" lon="12.695083739793416"><ele>650.8</ele><time>2026-04-26T09:26:21.022Z</time></trkpt><trkpt lat="42.531137175091004" lon="12.695164331164088"><ele>649.6</ele><time>2026-04-26T09:26:22.022Z</time></trkpt><trkpt lat="42.53106098903237" lon="12.695221922014976"><ele>648.4</ele><time>2026-04-26T09:26:23.022Z</time></trkpt><trkpt lat="42.530983154450894" lon="12.695274336114682"><ele>647.1999999999999</ele><time>2026-04-26T09:26:24.022Z</time></trkpt><trkpt lat="42.53092269798179" lon="12.695315662718874"><ele>646.0</ele><time>2026-04-26T09:26:25.022Z</time></trkpt><trkpt lat="42.53080636776881" lon="12.695384708121406"><ele>646.0</ele><time>2026-04-26T09:26:27.022Z</time></trkpt><trkpt lat="42.53073168535709" lon="12.695404298706759"><ele>646.0</ele><time>2026-04-26T09:26:28.022Z</time></trkpt><trkpt lat="42.53065160961945" lon="12.695406879262459"><ele>646.0</ele><time>2026-04-26T09:26:29.022Z</time></trkpt><trkpt lat="42.530551193823044" lon="12.69541619825084"><ele>646.0</ele><time>2026-04-26T09:26:30.022Z</time></trkpt><trkpt lat="42.530469895386894" lon="12.69543197224917"><ele>646.0</ele><time>2026-04-26T09:26:31.022Z</time></trkpt><trkpt lat="42.53037539867485" lon="12.695458602447317"><ele>646.0</ele><time>2026-04-26T09:26:32.022Z</time></trkpt><trkpt lat="42.530282624777215" lon="12.695489122638785"><ele>650.1999999999999</ele><time>2026-04-26T09:26:33.022Z</time></trkpt><trkpt lat="42.53017831312148" lon="12.695591149378277"><ele>654.4</ele><time>2026-04-26T09:26:34.022Z</time></trkpt><trkpt lat="42.53008515311323" lon="12.69567503480061"><ele>658.6</ele><time>2026-04-26T09:26:35.022Z</time></trkpt><trkpt lat="42.53001247645354" lon="12.695734867861878"><ele>662.8</ele><time>2026-04-26T09:26:36.022Z</time></trkpt><trkpt lat="42.529943171379955" lon="12.695826149481487"><ele>667.0</ele><time>2026-04-26T09:26:37.022Z</time></trkpt><trkpt lat="42.52987964976812" lon="12.695897760663863"><ele>667.0</ele><time>2026-04-26T09:26:38.022Z</time></trkpt><trkpt lat="42.529810441666186" lon="12.69598335480457"><ele>667.0</ele><time>2026-04-26T09:26:39.022Z</time></trkpt><trkpt lat="42.529752059130146" lon="12.696044743342817"><ele>667.0</ele><time>2026-04-26T09:26:40.022Z</time></trkpt><trkpt lat="42.52967808906449" lon="12.696114912721221"><ele>667.0</ele><time>2026-04-26T09:26:41.022Z</time></trkpt><trkpt lat="42.52961031558531" lon="12.696184460087434"><ele>667.0</ele><time>2026-04-26T09:26:42.022Z</time></trkpt><trkpt lat="42.52955470079004" lon="12.696231558807163"><ele>667.0</ele><time>2026-04-26T09:26:43.022Z</time></trkpt><trkpt lat="42.529484536737236" lon="12.69628008905762"><ele>668.1666666666667</ele><time>2026-04-26T09:26:44.022Z</time></trkpt><trkpt lat="42.52941159240457" lon="12.696322715345792"><ele>669.3333333333334</ele><time>2026-04-26T09:26:45.022Z</time></trkpt><trkpt lat="42.529342509949856" lon="12.696343537463555"><ele>670.5</ele><time>2026-04-26T09:26:46.022Z</time></trkpt><trkpt lat="42.52927292031594" lon="12.696341846644588"><ele>671.6666666666666</ele><time>2026-04-26T09:26:47.023Z</time></trkpt><trkpt lat="42.52919748660878" lon="12.696332650708436"><ele>672.8333333333333</ele><time>2026-04-26T09:26:48.023Z</time></trkpt><trkpt lat="42.52911546438686" lon="12.696319407127051"><ele>674.0</ele><time>2026-04-26T09:26:49.023Z</time></trkpt><trkpt lat="42.529029794966156" lon="12.696301146034818"><ele>674.0</ele><time>2026-04-26T09:26:50.023Z</time></trkpt><trkpt lat="42.528936667457835" lon="12.696262072768322"><ele>674.0</ele><time>2026-04-26T09:26:51.023Z</time></trkpt><trkpt lat="42.528845850833285" lon="12.696263917025465"><ele>674.0</ele><time>2026-04-26T09:26:52.023Z</time></trkpt><trkpt lat="42.528781695168696" lon="12.696308638865943"><ele>674.0</ele><time>2026-04-26T09:26:53.023Z</time></trkpt><trkpt lat="42.52869771674237" lon="12.696363605595495"><ele>674.0</ele><time>2026-04-26T09:26:54.023Z</time></trkpt><trkpt lat="42.52862823481329" lon="12.69639202361168"><ele>674.0</ele><time>2026-04-26T09:26:55.023Z</time></trkpt><trkpt lat="42.52856170526088" lon="12.696360099064236"><ele>675.8000000000001</ele><time>2026-04-26T09:26:56.023Z</time></trkpt><trkpt lat="42.52848672583278" lon="12.696312294715895"><ele>677.6</ele><time>2026-04-26T09:26:57.023Z</time></trkpt><trkpt lat="42.5283504771926" lon="12.696420088349836"><ele>679.4</ele><time>2026-04-26T09:26:58.023Z</time></trkpt><trkpt lat="42.52829103448378" lon="12.69636381282578"><ele>681.2</ele><time>2026-04-26T09:26:59.023Z</time></trkpt><trkpt lat="42.52822452686087" lon="12.69630084880492"><ele>683.0</ele><time>2026-04-26T09:27:00.023Z</time></trkpt><trkpt lat="42.528142965872554" lon="12.696255688703618"><ele>683.0</ele><time>2026-04-26T09:27:02.023Z</time></trkpt><trkpt lat="42.5280191835121" lon="12.696200416747361"><ele>683.0</ele><time>2026-04-26T09:27:04.023Z</time></trkpt><trkpt lat="42.527948559990165" lon="12.696192157053556"><ele>683.0</ele><time>2026-04-26T09:27:05.023Z</time></trkpt><trkpt lat="42.527861274128796" lon="12.696216635565886"><ele>683.0</ele><time>2026-04-26T09:27:06.023Z</time></trkpt><trkpt lat="42.527773642351434" lon="12.696313964142409"><ele>683.0</ele><time>2026-04-26T09:27:07.023Z</time></trkpt><trkpt lat="42.52767763436396" lon="12.696363058855821"><ele>685.4</ele><time>2026-04-26T09:27:08.023Z</time></trkpt><trkpt lat="42.52758270055865" lon="12.69642979990788"><ele>687.8</ele><time>2026-04-26T09:27:09.023Z</time></trkpt><trkpt lat="42.52749943244267" lon="12.696477462202418"><ele>690.2</ele><time>2026-04-26T09:27:10.023Z</time></trkpt><trkpt lat="42.52742087911714" lon="12.696513950745327"><ele>692.6</ele><time>2026-04-26T09:27:11.023Z</time></trkpt><trkpt lat="42.52733158035953" lon="12.696552345852355"><ele>695.0</ele><time>2026-04-26T09:27:12.023Z</time></trkpt><trkpt lat="42.527243189606146" lon="12.696596885990866"><ele>695.0</ele><time>2026-04-26T09:27:13.023Z</time></trkpt><trkpt lat="42.527094166545965" lon="12.696652410372907"><ele>695.0</ele><time>2026-04-26T09:27:14.023Z</time></trkpt><trkpt lat="42.527018885854794" lon="12.69667878560805"><ele>695.0</ele><time>2026-04-26T09:27:15.023Z</time></trkpt><trkpt lat="42.526924951618625" lon="12.696710821581476"><ele>695.0</ele><time>2026-04-26T09:27:16.023Z</time></trkpt><trkpt lat="42.52683549209884" lon="12.69673837620271"><ele>695.0</ele><time>2026-04-26T09:27:17.023Z</time></trkpt><trkpt lat="42.52673417642548" lon="12.696765301003387"><ele>695.6</ele><time>2026-04-26T09:27:18.023Z</time></trkpt><trkpt lat="42.52662317205949" lon="12.69679563859751"><ele>696.2</ele><time>2026-04-26T09:27:19.023Z</time></trkpt><trkpt lat="42.52651288925333" lon="12.696820336809276"><ele>696.8</ele><time>2026-04-26T09:27:20.023Z</time></trkpt><trkpt lat="42.52640437270677" lon="12.696845709906055"><ele>697.4</ele><time>2026-04-26T09:27:21.023Z</time></trkpt><trkpt lat="42.52630516063837" lon="12.696863665492591"><ele>698.0</ele><time>2026-04-26T09:27:22.024Z</time></trkpt><trkpt lat="42.5262111625387" lon="12.69686127456197"><ele>699.6666666666666</ele><time>2026-04-26T09:27:23.024Z</time></trkpt><trkpt lat="42.52612272292956" lon="12.69686229386633"><ele>701.3333333333333</ele><time>2026-04-26T09:27:24.024Z</time></trkpt><trkpt lat="42.52603613943808" lon="12.696855266403443"><ele>703.0</ele><time>2026-04-26T09:27:25.024Z</time></trkpt><trkpt lat="42.52595562017924" lon="12.696813701463675"><ele>704.6666666666666</ele><time>2026-04-26T09:27:26.024Z</time></trkpt><trkpt lat="42.52587912454595" lon="12.69676834022866"><ele>706.3333333333334</ele><time>2026-04-26T09:27:27.024Z</time></trkpt><trkpt lat="42.525798366892495" lon="12.69672851701402"><ele>708.0</ele><time>2026-04-26T09:27:28.024Z</time></trkpt><trkpt lat="42.52574228689115" lon="12.696668338212856"><ele>708.0</ele><time>2026-04-26T09:27:29.024Z</time></trkpt><trkpt lat="42.52565088829054" lon="12.696566353804325"><ele>708.0</ele><time>2026-04-26T09:27:31.024Z</time></trkpt><trkpt lat="42.52558548559129" lon="12.696504695613388"><ele>708.0</ele><time>2026-04-26T09:27:32.024Z</time></trkpt><trkpt lat="42.525500957988044" lon="12.696429802875803"><ele>708.0</ele><time>2026-04-26T09:27:33.024Z</time></trkpt><trkpt lat="42.5254380573388" lon="12.69636738464011"><ele>708.0</ele><time>2026-04-26T09:27:34.024Z</time></trkpt><trkpt lat="42.52532349994125" lon="12.69626944661432"><ele>711.2</ele><time>2026-04-26T09:27:36.024Z</time></trkpt><trkpt lat="42.52524796673165" lon="12.696225166036362"><ele>714.4</ele><time>2026-04-26T09:27:37.024Z</time></trkpt><trkpt lat="42.525121662975366" lon="12.69616558320586"><ele>717.6</ele><time>2026-04-26T09:27:38.024Z</time></trkpt><trkpt lat="42.52502073289363" lon="12.696137827998676"><ele>720.8000000000001</ele><time>2026-04-26T09:27:39.024Z</time></trkpt><trkpt lat="42.524912958081146" lon="12.69611687104315"><ele>724.0</ele><time>2026-04-26T09:27:40.024Z</time></trkpt><trkpt lat="42.52479952448047" lon="12.696111438050242"><ele>724.0</ele><time>2026-04-26T09:27:41.024Z</time></trkpt><trkpt lat="42.524725189046016" lon="12.696113503000408"><ele>724.0</ele><time>2026-04-26T09:27:42.024Z</time></trkpt><trkpt lat="42.52465242846151" lon="12.696120647962926"><ele>724.0</ele><time>2026-04-26T09:27:43.024Z</time></trkpt><trkpt lat="42.52454907692178" lon="12.696153414549327"><ele>724.0</ele><time>2026-04-26T09:27:44.024Z</time></trkpt><trkpt lat="42.52446092142996" lon="12.696186858991906"><ele>724.0</ele><time>2026-04-26T09:27:45.024Z</time></trkpt><trkpt lat="42.52437266834333" lon="12.696232997293153"><ele>724.0</ele><time>2026-04-26T09:27:46.024Z</time></trkpt><trkpt lat="42.524286195267685" lon="12.696306115349003"><ele>724.8333333333334</ele><time>2026-04-26T09:27:47.024Z</time></trkpt><trkpt lat="42.52420761318086" lon="12.696332552213711"><ele>725.6666666666667</ele><time>2026-04-26T09:27:48.024Z</time></trkpt><trkpt lat="42.52414775957353" lon="12.696381053044623"><ele>726.5</ele><time>2026-04-26T09:27:49.024Z</time></trkpt><trkpt lat="42.52407553060271" lon="12.696413128271324"><ele>727.3333333333334</ele><time>2026-04-26T09:27:50.024Z</time></trkpt><trkpt lat="42.52398468278813" lon="12.696469479428677"><ele>728.1666666666666</ele><time>2026-04-26T09:27:51.024Z</time></trkpt><trkpt lat="42.5238881345855" lon="12.696550367939206"><ele>729.0</ele><time>2026-04-26T09:27:52.024Z</time></trkpt><trkpt lat="42.52376899222995" lon="12.696604789216751"><ele>729.0</ele><time>2026-04-26T09:27:53.024Z</time></trkpt><trkpt lat="42.523677438149775" lon="12.696685165907489"><ele>729.0</ele><time>2026-04-26T09:27:54.024Z</time></trkpt><trkpt lat="42.523584285378064" lon="12.696754002095654"><ele>729.0</ele><time>2026-04-26T09:27:55.024Z</time></trkpt><trkpt lat="42.523490162236556" lon="12.69680509272616"><ele>729.0</ele><time>2026-04-26T09:27:56.024Z</time></trkpt><trkpt lat="42.52337346673714" lon="12.69684163627998"><ele>729.0</ele><time>2026-04-26T09:27:57.025Z</time></trkpt><trkpt lat="42.523257370058374" lon="12.696906067002471"><ele>729.5</ele><time>2026-04-26T09:27:58.025Z</time></trkpt><trkpt lat="42.52314478265505" lon="12.69696485631984"><ele>730.0</ele><time>2026-04-26T09:27:59.025Z</time></trkpt><trkpt lat="42.52304038625285" lon="12.697002079561488"><ele>730.5</ele><time>2026-04-26T09:28:00.025Z</time></trkpt><trkpt lat="42.522926915800355" lon="12.697033564051088"><ele>731.0</ele><time>2026-04-26T09:28:01.025Z</time></trkpt><trkpt lat="42.522821541003744" lon="12.697077194748656"><ele>731.0</ele><time>2026-04-26T09:28:02.025Z</time></trkpt><trkpt lat="42.52272210459598" lon="12.697147764562587"><ele>731.0</ele><time>2026-04-26T09:28:03.025Z</time></trkpt><trkpt lat="42.52260280639903" lon="12.697233984037565"><ele>731.0</ele><time>2026-04-26T09:28:04.025Z</time></trkpt><trkpt lat="42.522503143226615" lon="12.697312901415637"><ele>731.0</ele><time>2026-04-26T09:28:05.025Z</time></trkpt><trkpt lat="42.522421910711046" lon="12.697405819288461"><ele>731.0</ele><time>2026-04-26T09:28:06.025Z</time></trkpt><trkpt lat="42.52234195219343" lon="12.697516933091878"><ele>731.0</ele><time>2026-04-26T09:28:07.025Z</time></trkpt><trkpt lat="42.52224032363529" lon="12.697599799906866"><ele>731.0</ele><time>2026-04-26T09:28:08.025Z</time></trkpt><trkpt lat="42.522156638954186" lon="12.697683438231032"><ele>731.0</ele><time>2026-04-26T09:28:09.025Z</time></trkpt><trkpt lat="42.52206042086788" lon="12.697737582250696"><ele>731.0</ele><time>2026-04-26T09:28:10.025Z</time></trkpt><trkpt lat="42.521972400546076" lon="12.69778789752555"><ele>732.4</ele><time>2026-04-26T09:28:11.025Z</time></trkpt><trkpt lat="42.52189070859039" lon="12.697806897227986"><ele>733.8</ele><time>2026-04-26T09:28:12.025Z</time></trkpt><trkpt lat="42.521818974596144" lon="12.697804888034348"><ele>735.1999999999999</ele><time>2026-04-26T09:28:13.025Z</time></trkpt><trkpt lat="42.5217254714597" lon="12.697778728723273"><ele>736.5999999999999</ele><time>2026-04-26T09:28:14.025Z</time></trkpt><trkpt lat="42.52162136589889" lon="12.697760265480008"><ele>738.0</ele><time>2026-04-26T09:28:15.025Z</time></trkpt><trkpt lat="42.521525252262705" lon="12.69777471822335"><ele>738.0</ele><time>2026-04-26T09:28:16.025Z</time></trkpt><trkpt lat="42.5214347486627" lon="12.697786174648556"><ele>738.0</ele><time>2026-04-26T09:28:17.025Z</time></trkpt><trkpt lat="42.52132215582408" lon="12.697819080145662"><ele>738.0</ele><time>2026-04-26T09:28:18.025Z</time></trkpt><trkpt lat="42.521201936887586" lon="12.697819371441886"><ele>738.0</ele><time>2026-04-26T09:28:19.025Z</time></trkpt><trkpt lat="42.521122311325534" lon="12.697824051664725"><ele>738.0</ele><time>2026-04-26T09:28:20.025Z</time></trkpt><trkpt lat="42.52105875860246" lon="12.697822498634437"><ele>737.4</ele><time>2026-04-26T09:28:21.025Z</time></trkpt><trkpt lat="42.520957694851695" lon="12.697809991104625"><ele>736.8</ele><time>2026-04-26T09:28:23.025Z</time></trkpt><trkpt lat="42.5209050270705" lon="12.69775009180811"><ele>736.2</ele><time>2026-04-26T09:28:28.025Z</time></trkpt><trkpt lat="42.52092714648709" lon="12.697621462053222"><ele>735.6</ele><time>2026-04-26T09:28:30.025Z</time></trkpt><trkpt lat="42.520938439087736" lon="12.697509810563108"><ele>735.0</ele><time>2026-04-26T09:28:31.026Z</time></trkpt><trkpt lat="42.52095957645239" lon="12.697376373812197"><ele>735.0</ele><time>2026-04-26T09:28:32.026Z</time></trkpt><trkpt lat="42.5209816186186" lon="12.697206891321265"><ele>735.0</ele><time>2026-04-26T09:28:33.026Z</time></trkpt><trkpt lat="42.520999052828735" lon="12.697072262552542"><ele>735.0</ele><time>2026-04-26T09:28:34.026Z</time></trkpt><trkpt lat="42.52102572567284" lon="12.696933483667314"><ele>735.0</ele><time>2026-04-26T09:28:35.026Z</time></trkpt><trkpt lat="42.521060955292164" lon="12.696810862816438"><ele>735.0</ele><time>2026-04-26T09:28:36.026Z</time></trkpt><trkpt lat="42.52110470534455" lon="12.696680225008206"><ele>734.2</ele><time>2026-04-26T09:28:37.026Z</time></trkpt><trkpt lat="42.52116796800184" lon="12.696557280917608"><ele>733.4</ele><time>2026-04-26T09:28:38.026Z</time></trkpt><trkpt lat="42.5212352557097" lon="12.696437710927366"><ele>732.5999999999999</ele><time>2026-04-26T09:28:39.026Z</time></trkpt><trkpt lat="42.5213174945684" lon="12.696328580618047"><ele>731.8</ele><time>2026-04-26T09:28:40.026Z</time></trkpt><trkpt lat="42.52136202787308" lon="12.696213362439144"><ele>731.0</ele><time>2026-04-26T09:28:41.026Z</time></trkpt><trkpt lat="42.52140239741039" lon="12.696096037020485"><ele>733.1999999999999</ele><time>2026-04-26T09:28:42.026Z</time></trkpt><trkpt lat="42.5214441037037" lon="12.695993737032955"><ele>735.4</ele><time>2026-04-26T09:28:43.026Z</time></trkpt><trkpt lat="42.52146211770405" lon="12.695896056193256"><ele>737.6</ele><time>2026-04-26T09:28:44.026Z</time></trkpt><trkpt lat="42.52148801290448" lon="12.695781307203621"><ele>739.8</ele><time>2026-04-26T09:28:45.026Z</time></trkpt><trkpt lat="42.52152253188318" lon="12.695591818612028"><ele>742.0</ele><time>2026-04-26T09:28:47.026Z</time></trkpt><trkpt lat="42.52150495706022" lon="12.695461994775533"><ele>742.0</ele><time>2026-04-26T09:28:48.026Z</time></trkpt><trkpt lat="42.521386057254695" lon="12.695382948101525"><ele>742.0</ele><time>2026-04-26T09:28:49.026Z</time></trkpt><trkpt lat="42.52132107403319" lon="12.695277985757649"><ele>742.0</ele><time>2026-04-26T09:28:50.026Z</time></trkpt><trkpt lat="42.52124811742184" lon="12.695168434998248"><ele>742.0</ele><time>2026-04-26T09:28:51.026Z</time></trkpt><trkpt lat="42.52119391072574" lon="12.695057106026269"><ele>742.0</ele><time>2026-04-26T09:28:52.026Z</time></trkpt><trkpt lat="42.52115481202427" lon="12.694949135487002"><ele>744.2</ele><time>2026-04-26T09:28:53.026Z</time></trkpt><trkpt lat="42.52111656298983" lon="12.694848145001194"><ele>746.4000000000001</ele><time>2026-04-26T09:28:54.026Z</time></trkpt><trkpt lat="42.52108527689138" lon="12.694738620030696"><ele>748.5999999999999</ele><time>2026-04-26T09:28:55.026Z</time></trkpt><trkpt lat="42.52106361468593" lon="12.694629448905332"><ele>750.8</ele><time>2026-04-26T09:28:56.026Z</time></trkpt><trkpt lat="42.52103426812975" lon="12.694453824918844"><ele>753.0</ele><time>2026-04-26T09:28:57.026Z</time></trkpt><trkpt lat="42.52100327552836" lon="12.694315295440562"><ele>753.0</ele><time>2026-04-26T09:28:58.026Z</time></trkpt><trkpt lat="42.52095696481655" lon="12.694200281264274"><ele>753.0</ele><time>2026-04-26T09:28:59.026Z</time></trkpt><trkpt lat="42.52093055853014" lon="12.694085732313827"><ele>753.0</ele><time>2026-04-26T09:29:00.026Z</time></trkpt><trkpt lat="42.52089856959164" lon="12.693999563694017"><ele>753.0</ele><time>2026-04-26T09:29:01.026Z</time></trkpt><trkpt lat="42.520848239286174" lon="12.69391245353982"><ele>753.0</ele><time>2026-04-26T09:29:02.026Z</time></trkpt><trkpt lat="42.52077561062085" lon="12.693818602265786"><ele>753.0</ele><time>2026-04-26T09:29:03.026Z</time></trkpt><trkpt lat="42.52070638434017" lon="12.693703313538999"><ele>753.0</ele><time>2026-04-26T09:29:04.026Z</time></trkpt><trkpt lat="42.52065126440505" lon="12.693616173726106"><ele>753.0</ele><time>2026-04-26T09:29:05.027Z</time></trkpt><trkpt lat="42.520576110374655" lon="12.693551309691305"><ele>753.0</ele><time>2026-04-26T09:29:06.027Z</time></trkpt><trkpt lat="42.52049630575949" lon="12.693523967007879"><ele>753.0</ele><time>2026-04-26T09:29:07.027Z</time></trkpt><trkpt lat="42.520399214199344" lon="12.69350930237689"><ele>753.0</ele><time>2026-04-26T09:29:08.027Z</time></trkpt><trkpt lat="42.52030196916116" lon="12.693478964900349"><ele>753.5999999999999</ele><time>2026-04-26T09:29:09.027Z</time></trkpt><trkpt lat="42.52021984174295" lon="12.693419873269576"><ele>754.1999999999999</ele><time>2026-04-26T09:29:10.027Z</time></trkpt><trkpt lat="42.52014464863925" lon="12.693370432834701"><ele>754.8</ele><time>2026-04-26T09:29:11.027Z</time></trkpt><trkpt lat="42.52008186542847" lon="12.69330303309763"><ele>755.4</ele><time>2026-04-26T09:29:12.027Z</time></trkpt><trkpt lat="42.51996965331268" lon="12.693221058920827"><ele>756.0</ele><time>2026-04-26T09:29:14.027Z</time></trkpt><trkpt lat="42.519923569700325" lon="12.693142326019467"><ele>756.0</ele><time>2026-04-26T09:29:16.027Z</time></trkpt><trkpt lat="42.51985802448833" lon="12.693067150690325"><ele>756.0</ele><time>2026-04-26T09:29:18.027Z</time></trkpt><trkpt lat="42.51976273938562" lon="12.693005920009828"><ele>756.0</ele><time>2026-04-26T09:29:20.027Z</time></trkpt><trkpt lat="42.51968353822384" lon="12.692973218178858"><ele>756.0</ele><time>2026-04-26T09:29:21.027Z</time></trkpt><trkpt lat="42.519573657209456" lon="12.69290567756889"><ele>756.0</ele><time>2026-04-26T09:29:22.027Z</time></trkpt><trkpt lat="42.51948548401987" lon="12.692851537597534"><ele>758.1999999999999</ele><time>2026-04-26T09:29:23.027Z</time></trkpt><trkpt lat="42.51940046014898" lon="12.692799944783488"><ele>760.4</ele><time>2026-04-26T09:29:24.027Z</time></trkpt><trkpt lat="42.51930707210444" lon="12.692783563158988"><ele>762.6</ele><time>2026-04-26T09:29:25.027Z</time></trkpt><trkpt lat="42.51920778862084" lon="12.692781122202518"><ele>764.8</ele><time>2026-04-26T09:29:26.027Z</time></trkpt><trkpt lat="42.519107986498675" lon="12.692785563519413"><ele>767.0</ele><time>2026-04-26T09:29:27.027Z</time></trkpt><trkpt lat="42.518998777059274" lon="12.692759735163403"><ele>763.8</ele><time>2026-04-26T09:29:28.027Z</time></trkpt><trkpt lat="42.51890144624237" lon="12.692713031451317"><ele>760.6</ele><time>2026-04-26T09:29:29.027Z</time></trkpt><trkpt lat="42.518845192702365" lon="12.692647324104495"><ele>757.4</ele><time>2026-04-26T09:29:30.027Z</time></trkpt><trkpt lat="42.518768138856224" lon="12.692598456138125"><ele>754.1999999999999</ele><time>2026-04-26T09:29:32.027Z</time></trkpt><trkpt lat="42.51865388231692" lon="12.69253114104335"><ele>751.0</ele><time>2026-04-26T09:29:34.027Z</time></trkpt><trkpt lat="42.51858357601216" lon="12.69254223140997"><ele>751.0</ele><time>2026-04-26T09:29:35.027Z</time></trkpt><trkpt lat="42.51845840651369" lon="12.69257935406432"><ele>751.0</ele><time>2026-04-26T09:29:37.027Z</time></trkpt><trkpt lat="42.518369449114346" lon="12.6925961025376"><ele>751.0</ele><time>2026-04-26T09:29:39.027Z</time></trkpt><trkpt lat="42.51827814306386" lon="12.692630418097467"><ele>751.0</ele><time>2026-04-26T09:29:41.028Z</time></trkpt><trkpt lat="42.51822022883771" lon="12.692702027669467"><ele>751.0</ele><time>2026-04-26T09:29:43.028Z</time></trkpt><trkpt lat="42.51811039727703" lon="12.692779180201073"><ele>751.8333333333334</ele><time>2026-04-26T09:29:45.028Z</time></trkpt><trkpt lat="42.51803507392979" lon="12.692834156713682"><ele>752.6666666666667</ele><time>2026-04-26T09:29:46.028Z</time></trkpt><trkpt lat="42.51794419603801" lon="12.692870107159811"><ele>753.5</ele><time>2026-04-26T09:29:47.028Z</time></trkpt><trkpt lat="42.517868177032774" lon="12.692895094296528"><ele>754.3333333333334</ele><time>2026-04-26T09:29:48.028Z</time></trkpt><trkpt lat="42.51780227073851" lon="12.692952736000501"><ele>755.1666666666666</ele><time>2026-04-26T09:29:49.028Z</time></trkpt><trkpt lat="42.51773133496033" lon="12.69302303996561"><ele>756.0</ele><time>2026-04-26T09:29:50.028Z</time></trkpt><trkpt lat="42.51765475451148" lon="12.693085499983072"><ele>756.0</ele><time>2026-04-26T09:29:51.028Z</time></trkpt><trkpt lat="42.51757465698293" lon="12.69314882556343"><ele>756.0</ele><time>2026-04-26T09:29:52.028Z</time></trkpt><trkpt lat="42.5175074269699" lon="12.693191639968239"><ele>756.0</ele><time>2026-04-26T09:29:53.028Z</time></trkpt><trkpt lat="42.517436780357386" lon="12.693221051452412"><ele>756.0</ele><time>2026-04-26T09:29:54.028Z</time></trkpt><trkpt lat="42.517345558720216" lon="12.693292178938892"><ele>756.0</ele><time>2026-04-26T09:29:56.028Z</time></trkpt><trkpt lat="42.51726923777347" lon="12.693308656203378"><ele>756.0</ele><time>2026-04-26T09:29:58.028Z</time></trkpt><trkpt lat="42.517204395003894" lon="12.693296292859124"><ele>756.0</ele><time>2026-04-26T09:30:01.028Z</time></trkpt><trkpt lat="42.51708647490523" lon="12.693283893353934"><ele>756.0</ele><time>2026-04-26T09:30:35.029Z</time></trkpt><trkpt lat="42.51702048965533" lon="12.693159404636807"><ele>756.0</ele><time>2026-04-26T09:30:37.029Z</time></trkpt><trkpt lat="42.51697249696218" lon="12.69308831621046"><ele>756.0</ele><time>2026-04-26T09:30:38.029Z</time></trkpt><trkpt lat="42.51692516714371" lon="12.693014920225606"><ele>756.0</ele><time>2026-04-26T09:30:39.029Z</time></trkpt><trkpt lat="42.51687059324865" lon="12.692927689379285"><ele>756.1999999999999</ele><time>2026-04-26T09:30:40.029Z</time></trkpt><trkpt lat="42.51680916597654" lon="12.69284511104101"><ele>756.4</ele><time>2026-04-26T09:30:41.029Z</time></trkpt><trkpt lat="42.51674657524813" lon="12.692779310625312"><ele>756.6</ele><time>2026-04-26T09:30:42.029Z</time></trkpt><trkpt lat="42.51666464264058" lon="12.692656357218501"><ele>756.8</ele><time>2026-04-26T09:30:44.029Z</time></trkpt><trkpt lat="42.51661021256513" lon="12.692547372478822"><ele>757.0</ele><time>2026-04-26T09:30:46.029Z</time></trkpt><trkpt lat="42.516545165817476" lon="12.69242915529853"><ele>757.0</ele><time>2026-04-26T09:30:48.029Z</time></trkpt><trkpt lat="42.516445566725075" lon="12.692349541465523"><ele>757.0</ele><time>2026-04-26T09:30:50.029Z</time></trkpt><trkpt lat="42.51634976593748" lon="12.692257435536082"><ele>757.0</ele><time>2026-04-26T09:30:52.03Z</time></trkpt><trkpt lat="42.51627132072015" lon="12.692216291787513"><ele>757.0</ele><time>2026-04-26T09:30:54.03Z</time></trkpt><trkpt lat="42.51616930779279" lon="12.692180885625667"><ele>757.0</ele><time>2026-04-26T09:30:56.03Z</time></trkpt><trkpt lat="42.51607233970133" lon="12.692159087950436"><ele>757.6</ele><time>2026-04-26T09:30:58.03Z</time></trkpt><trkpt lat="42.515989522605096" lon="12.692152370311963"><ele>758.2</ele><time>2026-04-26T09:31:00.03Z</time></trkpt><trkpt lat="42.51592301385479" lon="12.692143338446552"><ele>758.8</ele><time>2026-04-26T09:31:02.03Z</time></trkpt><trkpt lat="42.5157973573459" lon="12.692119691517734"><ele>759.4</ele><time>2026-04-26T09:31:04.03Z</time></trkpt><trkpt lat="42.515696139310805" lon="12.692018896002198"><ele>760.0</ele><time>2026-04-26T09:31:06.03Z</time></trkpt><trkpt lat="42.515634720165515" lon="12.691973915459188"><ele>761.1666666666667</ele><time>2026-04-26T09:31:07.03Z</time></trkpt><trkpt lat="42.51556095414608" lon="12.691922648321796"><ele>762.3333333333334</ele><time>2026-04-26T09:31:08.03Z</time></trkpt><trkpt lat="42.51548563995041" lon="12.691869637162993"><ele>763.5</ele><time>2026-04-26T09:31:09.03Z</time></trkpt><trkpt lat="42.5154063996419" lon="12.691832461468206"><ele>764.6666666666666</ele><time>2026-04-26T09:31:10.03Z</time></trkpt><trkpt lat="42.51531331491543" lon="12.691798616036053"><ele>765.8333333333333</ele><time>2026-04-26T09:31:11.03Z</time></trkpt><trkpt lat="42.515229934589094" lon="12.691792423231206"><ele>767.0</ele><time>2026-04-26T09:31:12.03Z</time></trkpt><trkpt lat="42.51514897103468" lon="12.691801302507045"><ele>767.0</ele><time>2026-04-26T09:31:13.03Z</time></trkpt><trkpt lat="42.5150319786026" lon="12.691835604151064"><ele>767.0</ele><time>2026-04-26T09:31:15.03Z</time></trkpt><trkpt lat="42.514898700308635" lon="12.691794883489921"><ele>767.0</ele><time>2026-04-26T09:31:17.03Z</time></trkpt><trkpt lat="42.51481397261451" lon="12.691747768773133"><ele>767.0</ele><time>2026-04-26T09:31:18.03Z</time></trkpt><trkpt lat="42.5147474352878" lon="12.691694363531836"><ele>767.0</ele><time>2026-04-26T09:31:19.03Z</time></trkpt><trkpt lat="42.51466773689578" lon="12.691654738467255"><ele>767.0</ele><time>2026-04-26T09:31:20.03Z</time></trkpt><trkpt lat="42.51458228547897" lon="12.691616119854148"><ele>767.0</ele><time>2026-04-26T09:31:21.03Z</time></trkpt><trkpt lat="42.51451465633613" lon="12.691569657503209"><ele>767.0</ele><time>2026-04-26T09:31:22.03Z</time></trkpt><trkpt lat="42.51445810010619" lon="12.69152559304113"><ele>767.0</ele><time>2026-04-26T09:31:23.03Z</time></trkpt><trkpt lat="42.51437148741455" lon="12.6914574521779"><ele>767.0</ele><time>2026-04-26T09:31:24.03Z</time></trkpt><trkpt lat="42.51428746073548" lon="12.691371584035332"><ele>767.0</ele><time>2026-04-26T09:31:25.031Z</time></trkpt><trkpt lat="42.51421196452295" lon="12.691290924906651"><ele>765.8333333333333</ele><time>2026-04-26T09:31:26.031Z</time></trkpt><trkpt lat="42.51415815153043" lon="12.691194340855422"><ele>764.6666666666666</ele><time>2026-04-26T09:31:27.031Z</time></trkpt><trkpt lat="42.514105258349886" lon="12.691119726723162"><ele>763.5</ele><time>2026-04-26T09:31:28.031Z</time></trkpt><trkpt lat="42.51405441051992" lon="12.69106312907858"><ele>762.3333333333334</ele><time>2026-04-26T09:31:29.031Z</time></trkpt><trkpt lat="42.51400788406211" lon="12.69099887867031"><ele>761.1666666666667</ele><time>2026-04-26T09:31:30.031Z</time></trkpt><trkpt lat="42.51395088036153" lon="12.690896831397586"><ele>760.0</ele><time>2026-04-26T09:31:32.031Z</time></trkpt><trkpt lat="42.51390291078678" lon="12.690743776456353"><ele>760.0</ele><time>2026-04-26T09:31:34.031Z</time></trkpt><trkpt lat="42.51386556019562" lon="12.690658877633226"><ele>760.0</ele><time>2026-04-26T09:31:35.031Z</time></trkpt><trkpt lat="42.51382178681123" lon="12.69056657205177"><ele>760.0</ele><time>2026-04-26T09:31:36.031Z</time></trkpt><trkpt lat="42.51377011493116" lon="12.690485175262046"><ele>760.0</ele><time>2026-04-26T09:31:37.031Z</time></trkpt><trkpt lat="42.51368776303763" lon="12.690369833427592"><ele>760.0</ele><time>2026-04-26T09:31:39.031Z</time></trkpt><trkpt lat="42.513651274313276" lon="12.690247503489779"><ele>760.0</ele><time>2026-04-26T09:31:41.031Z</time></trkpt><trkpt lat="42.51367961327515" lon="12.690094712652778"><ele>759.8333333333334</ele><time>2026-04-26T09:31:43.031Z</time></trkpt><trkpt lat="42.513640407288044" lon="12.689983365613848"><ele>759.6666666666667</ele><time>2026-04-26T09:31:45.031Z</time></trkpt><trkpt lat="42.513593023486735" lon="12.689896442701464"><ele>759.5</ele><time>2026-04-26T09:32:10.032Z</time></trkpt><trkpt lat="42.513556104312315" lon="12.68977678474909"><ele>759.3333333333334</ele><time>2026-04-26T09:32:12.032Z</time></trkpt><trkpt lat="42.5134991801695" lon="12.689654161972463"><ele>759.1666666666666</ele><time>2026-04-26T09:32:14.032Z</time></trkpt><trkpt lat="42.51346605433305" lon="12.689561416801562"><ele>759.0</ele><time>2026-04-26T09:32:16.032Z</time></trkpt><trkpt lat="42.513380893242015" lon="12.689486597040181"><ele>759.2</ele><time>2026-04-26T09:32:19.032Z</time></trkpt><trkpt lat="42.51330237928042" lon="12.689412593258881"><ele>759.4000000000001</ele><time>2026-04-26T09:32:21.032Z</time></trkpt><trkpt lat="42.51320374746556" lon="12.689369043417996"><ele>759.6</ele><time>2026-04-26T09:32:23.032Z</time></trkpt><trkpt lat="42.5131068060041" lon="12.689373021062357"><ele>759.8</ele><time>2026-04-26T09:32:25.032Z</time></trkpt><trkpt lat="42.513013917744395" lon="12.689330717304877"><ele>760.0</ele><time>2026-04-26T09:32:27.032Z</time></trkpt><trkpt lat="42.51290095875985" lon="12.68932010587947"><ele>760.0</ele><time>2026-04-26T09:32:29.032Z</time></trkpt><trkpt lat="42.51282806189798" lon="12.689333227894716"><ele>760.0</ele><time>2026-04-26T09:32:30.032Z</time></trkpt><trkpt lat="42.51267661276389" lon="12.689364261307288"><ele>760.0</ele><time>2026-04-26T09:32:32.032Z</time></trkpt><trkpt lat="42.51259370746909" lon="12.689371822466692"><ele>760.0</ele><time>2026-04-26T09:32:33.032Z</time></trkpt><trkpt lat="42.51252310040216" lon="12.689360915751184"><ele>760.0</ele><time>2026-04-26T09:32:34.032Z</time></trkpt><trkpt lat="42.51246535165614" lon="12.689325227902806"><ele>760.0</ele><time>2026-04-26T09:32:35.032Z</time></trkpt><trkpt lat="42.51235671347956" lon="12.689272485785487"><ele>760.0</ele><time>2026-04-26T09:32:37.033Z</time></trkpt><trkpt lat="42.51227608328694" lon="12.68924161478037"><ele>760.0</ele><time>2026-04-26T09:32:39.033Z</time></trkpt><trkpt lat="42.51219399313407" lon="12.689213149675535"><ele>760.0</ele><time>2026-04-26T09:32:41.033Z</time></trkpt><trkpt lat="42.51212045557925" lon="12.689139862343954"><ele>760.0</ele><time>2026-04-26T09:32:43.033Z</time></trkpt><trkpt lat="42.51201545167663" lon="12.68911308141224"><ele>760.0</ele><time>2026-04-26T09:32:45.033Z</time></trkpt><trkpt lat="42.511910960730795" lon="12.689079150372173"><ele>760.8333333333334</ele><time>2026-04-26T09:32:47.033Z</time></trkpt><trkpt lat="42.5118326587242" lon="12.689068325744921"><ele>761.6666666666667</ele><time>2026-04-26T09:32:48.033Z</time></trkpt><trkpt lat="42.51174074754247" lon="12.68900943489482"><ele>762.5</ele><time>2026-04-26T09:32:49.033Z</time></trkpt><trkpt lat="42.51166145024998" lon="12.688956418334556"><ele>763.3333333333334</ele><time>2026-04-26T09:32:50.033Z</time></trkpt><trkpt lat="42.51159731946252" lon="12.688921596363988"><ele>764.1666666666666</ele><time>2026-04-26T09:32:51.033Z</time></trkpt><trkpt lat="42.511511987377546" lon="12.688903414199851"><ele>765.0</ele><time>2026-04-26T09:32:52.033Z</time></trkpt><trkpt lat="42.51144394096226" lon="12.688873820649727"><ele>765.0</ele><time>2026-04-26T09:32:53.033Z</time></trkpt><trkpt lat="42.51137685898354" lon="12.68883418790903"><ele>765.0</ele><time>2026-04-26T09:32:54.033Z</time></trkpt><trkpt lat="42.51127141502729" lon="12.688775891552108"><ele>765.0</ele><time>2026-04-26T09:32:56.033Z</time></trkpt><trkpt lat="42.511214281018376" lon="12.688728905486476"><ele>765.0</ele><time>2026-04-26T09:32:58.033Z</time></trkpt><trkpt lat="42.511156186595066" lon="12.688632621827178"><ele>765.0</ele><time>2026-04-26T09:33:00.033Z</time></trkpt><trkpt lat="42.51106723229415" lon="12.68853556188775"><ele>765.8</ele><time>2026-04-26T09:33:02.033Z</time></trkpt><trkpt lat="42.51096771472459" lon="12.688451946953819"><ele>766.6</ele><time>2026-04-26T09:33:04.033Z</time></trkpt><trkpt lat="42.51091646591196" lon="12.688378751624798"><ele>767.4000000000001</ele><time>2026-04-26T09:33:07.033Z</time></trkpt><trkpt lat="42.51081719050678" lon="12.688433067022801"><ele>768.2</ele><time>2026-04-26T09:43:49.061Z</time></trkpt><trkpt lat="42.51073768627595" lon="12.688430725431116"><ele>769.0</ele><time>2026-04-26T09:43:51.061Z</time></trkpt><trkpt lat="42.51066760552485" lon="12.68839341203075"><ele>768.9999999999999</ele><time>2026-04-26T09:43:53.061Z</time></trkpt><trkpt lat="42.5106378732429" lon="12.688318069212205"><ele>769.0</ele><time>2026-04-26T09:43:55.061Z</time></trkpt><trkpt lat="42.51057211543811" lon="12.68827112890953"><ele>769.0</ele><time>2026-04-26T09:43:58.061Z</time></trkpt><trkpt lat="42.5104791405428" lon="12.68828357399166"><ele>769.0</ele><time>2026-04-26T09:44:00.061Z</time></trkpt><trkpt lat="42.51040518533934" lon="12.688314025737206"><ele>768.9999999999999</ele><time>2026-04-26T09:44:01.061Z</time></trkpt><trkpt lat="42.51031330909916" lon="12.688341310325653"><ele>769.0</ele><time>2026-04-26T09:44:03.061Z</time></trkpt><trkpt lat="42.51022384176713" lon="12.688335743310624"><ele>770.4285714285714</ele><time>2026-04-26T09:44:05.061Z</time></trkpt><trkpt lat="42.510156593119994" lon="12.688352547281735"><ele>771.8571428571429</ele><time>2026-04-26T09:44:11.061Z</time></trkpt><trkpt lat="42.51009410245674" lon="12.68830895329005"><ele>773.2857142857143</ele><time>2026-04-26T09:44:25.062Z</time></trkpt><trkpt lat="42.510032090501376" lon="12.688285391068048"><ele>774.7142857142858</ele><time>2026-04-26T09:44:37.062Z</time></trkpt><trkpt lat="42.51000753008095" lon="12.688163619278955"><ele>776.1428571428571</ele><time>2026-04-26T09:44:40.062Z</time></trkpt><trkpt lat="42.51000806380872" lon="12.688077947265844"><ele>777.5714285714287</ele><time>2026-04-26T09:44:48.062Z</time></trkpt><trkpt lat="42.51000926732058" lon="12.687986404769775"><ele>779.0</ele><time>2026-04-26T09:46:13.065Z</time></trkpt><trkpt lat="42.50993528021715" lon="12.687917945249854"><ele>779.0000000000001</ele><time>2026-04-26T09:46:25.065Z</time></trkpt><trkpt lat="42.50987722597652" lon="12.687879259933018"><ele>779.0</ele><time>2026-04-26T09:46:27.065Z</time></trkpt><trkpt lat="42.50980794456723" lon="12.687851522931245"><ele>779.0</ele><time>2026-04-26T09:46:29.066Z</time></trkpt><trkpt lat="42.50973083359572" lon="12.687819147620587"><ele>779.0</ele><time>2026-04-26T09:46:32.066Z</time></trkpt><trkpt lat="42.50968087882675" lon="12.687758682543578"><ele>779.0</ele><time>2026-04-26T09:46:34.066Z</time></trkpt><trkpt lat="42.50963497265581" lon="12.687653628570644"><ele>779.0000000000001</ele><time>2026-04-26T09:46:36.066Z</time></trkpt><trkpt lat="42.50961074172257" lon="12.687564719977928"><ele>779.0</ele><time>2026-04-26T09:46:39.066Z</time></trkpt><trkpt lat="42.509605241249375" lon="12.687475558683971"><ele>779.0000000000001</ele><time>2026-04-26T09:46:42.066Z</time></trkpt><trkpt lat="42.50956428615303" lon="12.687388389208644"><ele>779.0</ele><time>2026-04-26T09:46:48.066Z</time></trkpt><trkpt lat="42.50956301961888" lon="12.687482154708098"><ele>779.0</ele><time>2026-04-26T09:47:17.068Z</time></trkpt><trkpt lat="42.50960977168219" lon="12.68756509407088"><ele>779.0</ele><time>2026-04-26T09:47:21.068Z</time></trkpt><trkpt lat="42.50964393488641" lon="12.687667047209473"><ele>779.0</ele><time>2026-04-26T09:47:26.068Z</time></trkpt><trkpt lat="42.50970187188689" lon="12.68770697430879"><ele>779.0000000000001</ele><time>2026-04-26T09:47:29.068Z</time></trkpt><trkpt lat="42.50976483171919" lon="12.687748465760569"><ele>779.0</ele><time>2026-04-26T09:47:33.069Z</time></trkpt><trkpt lat="42.50983030865231" lon="12.68779604620195"><ele>779.0000000000001</ele><time>2026-04-26T09:47:36.069Z</time></trkpt><trkpt lat="42.509886506460816" lon="12.68788251989117"><ele>779.0</ele><time>2026-04-26T09:47:39.069Z</time></trkpt><trkpt lat="42.50990676086233" lon="12.687982850925597"><ele>779.0</ele><time>2026-04-26T09:47:41.069Z</time></trkpt><trkpt lat="42.50994581127531" lon="12.68808852462144"><ele>779.0</ele><time>2026-04-26T09:47:43.069Z</time></trkpt><trkpt lat="42.5100115584998" lon="12.688138380772168"><ele>779.0000000000001</ele><time>2026-04-26T09:47:46.069Z</time></trkpt><trkpt lat="42.5100960432577" lon="12.68814978409418"><ele>779.0</ele><time>2026-04-26T09:47:48.069Z</time></trkpt><trkpt lat="42.51018517108779" lon="12.688159395133054"><ele>779.0000000000001</ele><time>2026-04-26T09:47:51.069Z</time></trkpt><trkpt lat="42.51027761083403" lon="12.68812231826857"><ele>779.0</ele><time>2026-04-26T09:47:53.069Z</time></trkpt><trkpt lat="42.51035359210361" lon="12.688119648906321"><ele>779.0</ele><time>2026-04-26T09:47:55.069Z</time></trkpt><trkpt lat="42.51043527967589" lon="12.688168910260382"><ele>779.0</ele><time>2026-04-26T09:47:57.069Z</time></trkpt><trkpt lat="42.510479651137175" lon="12.688234713392532"><ele>779.0000000000001</ele><time>2026-04-26T09:47:59.069Z</time></trkpt><trkpt lat="42.51053691693613" lon="12.688302660646439"><ele>779.0</ele><time>2026-04-26T09:48:01.069Z</time></trkpt><trkpt lat="42.51064505322581" lon="12.688309044227758"><ele>777.3333333333334</ele><time>2026-04-26T09:48:03.069Z</time></trkpt><trkpt lat="42.51073997667113" lon="12.688292793085278"><ele>775.6666666666667</ele><time>2026-04-26T09:48:05.069Z</time></trkpt><trkpt lat="42.51082560615532" lon="12.688370493200498"><ele>774.0</ele><time>2026-04-26T09:48:07.07Z</time></trkpt><trkpt lat="42.510880943197925" lon="12.688437102951184"><ele>772.3333333333333</ele><time>2026-04-26T09:48:08.07Z</time></trkpt><trkpt lat="42.51093436507565" lon="12.688487319831417"><ele>770.6666666666666</ele><time>2026-04-26T09:48:09.07Z</time></trkpt><trkpt lat="42.51099589984106" lon="12.688527392779372"><ele>769.0</ele><time>2026-04-26T09:48:10.07Z</time></trkpt><trkpt lat="42.51109565794107" lon="12.688594421040921"><ele>768.3333333333333</ele><time>2026-04-26T09:48:12.07Z</time></trkpt><trkpt lat="42.511169468252" lon="12.688674932733493"><ele>767.6666666666666</ele><time>2026-04-26T09:48:14.07Z</time></trkpt><trkpt lat="42.51128722923443" lon="12.68872963981262"><ele>767.0</ele><time>2026-04-26T09:48:16.07Z</time></trkpt><trkpt lat="42.51135462125727" lon="12.688750933052697"><ele>766.3333333333333</ele><time>2026-04-26T09:48:17.07Z</time></trkpt><trkpt lat="42.5114136938879" lon="12.688803941543375"><ele>765.6666666666666</ele><time>2026-04-26T09:48:18.07Z</time></trkpt><trkpt lat="42.5114793884713" lon="12.688844758909573"><ele>765.0</ele><time>2026-04-26T09:48:19.07Z</time></trkpt><trkpt lat="42.51154946402355" lon="12.688861257531263"><ele>765.0</ele><time>2026-04-26T09:48:20.07Z</time></trkpt><trkpt lat="42.511670764656046" lon="12.688938744902705"><ele>765.0</ele><time>2026-04-26T09:48:22.07Z</time></trkpt><trkpt lat="42.51174914653562" lon="12.688995877977499"><ele>765.0</ele><time>2026-04-26T09:48:23.07Z</time></trkpt><trkpt lat="42.511818386918236" lon="12.68904355047806"><ele>765.0</ele><time>2026-04-26T09:48:24.07Z</time></trkpt><trkpt lat="42.511891766321995" lon="12.689075818159639"><ele>765.0</ele><time>2026-04-26T09:48:25.07Z</time></trkpt><trkpt lat="42.51196399001357" lon="12.689109382137673"><ele>765.0</ele><time>2026-04-26T09:48:26.07Z</time></trkpt><trkpt lat="42.512059878829014" lon="12.689155057461207"><ele>765.0</ele><time>2026-04-26T09:48:28.07Z</time></trkpt><trkpt lat="42.51213652962907" lon="12.689167686964694"><ele>765.0</ele><time>2026-04-26T09:48:30.07Z</time></trkpt><trkpt lat="42.51221928092134" lon="12.689227395936305"><ele>765.0</ele><time>2026-04-26T09:48:32.07Z</time></trkpt><trkpt lat="42.51231291142702" lon="12.689290669216023"><ele>765.0</ele><time>2026-04-26T09:48:34.07Z</time></trkpt><trkpt lat="42.512432232980814" lon="12.68929428050304"><ele>764.1666666666666</ele><time>2026-04-26T09:48:37.07Z</time></trkpt><trkpt lat="42.51255203741285" lon="12.689339329391663"><ele>763.3333333333334</ele><time>2026-04-26T09:48:39.07Z</time></trkpt><trkpt lat="42.512621854746655" lon="12.68933300635371"><ele>762.5</ele><time>2026-04-26T09:48:40.07Z</time></trkpt><trkpt lat="42.512688489624985" lon="12.68930035112678"><ele>761.6666666666667</ele><time>2026-04-26T09:48:41.071Z</time></trkpt><trkpt lat="42.512767764768036" lon="12.689263766947114"><ele>760.8333333333334</ele><time>2026-04-26T09:48:42.071Z</time></trkpt><trkpt lat="42.51286270074027" lon="12.689261927520647"><ele>760.0</ele><time>2026-04-26T09:48:44.071Z</time></trkpt><trkpt lat="42.51295485124162" lon="12.689268966847095"><ele>759.8333333333334</ele><time>2026-04-26T09:48:45.071Z</time></trkpt><trkpt lat="42.51302179425408" lon="12.689288532564925"><ele>759.6666666666667</ele><time>2026-04-26T09:48:46.071Z</time></trkpt><trkpt lat="42.51311941422038" lon="12.689324981191003"><ele>759.5</ele><time>2026-04-26T09:48:48.071Z</time></trkpt><trkpt lat="42.51320095824972" lon="12.689330823590122"><ele>759.3333333333334</ele><time>2026-04-26T09:48:50.071Z</time></trkpt><trkpt lat="42.51328253055287" lon="12.689374384022686"><ele>759.1666666666666</ele><time>2026-04-26T09:48:52.071Z</time></trkpt><trkpt lat="42.513354884390175" lon="12.689471351475822"><ele>759.0</ele><time>2026-04-26T09:48:54.071Z</time></trkpt><trkpt lat="42.51342764676256" lon="12.689533548955211"><ele>759.0</ele><time>2026-04-26T09:48:57.071Z</time></trkpt><trkpt lat="42.513475874201085" lon="12.689649923460125"><ele>759.0</ele><time>2026-04-26T09:48:59.071Z</time></trkpt><trkpt lat="42.51355324406257" lon="12.689798017204957"><ele>759.0</ele><time>2026-04-26T09:49:01.071Z</time></trkpt><trkpt lat="42.51359931946018" lon="12.689923342242077"><ele>759.0</ele><time>2026-04-26T09:49:03.071Z</time></trkpt><trkpt lat="42.51365226156599" lon="12.690088401001425"><ele>759.0</ele><time>2026-04-26T09:49:05.071Z</time></trkpt><trkpt lat="42.513641394663146" lon="12.69018236327478"><ele>759.0</ele><time>2026-04-26T09:49:06.071Z</time></trkpt><trkpt lat="42.51365193996566" lon="12.690296412171348"><ele>759.0</ele><time>2026-04-26T09:49:08.071Z</time></trkpt><trkpt lat="42.513700036266265" lon="12.690351830334548"><ele>759.0</ele><time>2026-04-26T09:49:09.071Z</time></trkpt><trkpt lat="42.513769677787785" lon="12.690439252360422"><ele>759.0</ele><time>2026-04-26T09:49:10.071Z</time></trkpt><trkpt lat="42.51381673038224" lon="12.690504371341493"><ele>759.0</ele><time>2026-04-26T09:49:11.071Z</time></trkpt><trkpt lat="42.51388296926814" lon="12.690639548498735"><ele>759.0</ele><time>2026-04-26T09:49:13.072Z</time></trkpt><trkpt lat="42.513906284019804" lon="12.690726922078126"><ele>759.0</ele><time>2026-04-26T09:49:14.072Z</time></trkpt><trkpt lat="42.51393595558255" lon="12.69080344196734"><ele>759.0</ele><time>2026-04-26T09:49:15.072Z</time></trkpt><trkpt lat="42.51397144409956" lon="12.690880621358252"><ele>759.0</ele><time>2026-04-26T09:49:16.072Z</time></trkpt><trkpt lat="42.51406175830962" lon="12.691002233277816"><ele>759.0</ele><time>2026-04-26T09:49:18.072Z</time></trkpt><trkpt lat="42.51410504831927" lon="12.69107575527964"><ele>759.0</ele><time>2026-04-26T09:49:19.072Z</time></trkpt><trkpt lat="42.51416264893999" lon="12.691155465689803"><ele>759.0</ele><time>2026-04-26T09:49:20.072Z</time></trkpt><trkpt lat="42.51421707324623" lon="12.69121227333446"><ele>759.0</ele><time>2026-04-26T09:49:21.072Z</time></trkpt><trkpt lat="42.51427276700598" lon="12.691281548228606"><ele>759.0</ele><time>2026-04-26T09:49:22.072Z</time></trkpt><trkpt lat="42.51432759198437" lon="12.691335459683982"><ele>759.0</ele><time>2026-04-26T09:49:23.073Z</time></trkpt><trkpt lat="42.51437873021516" lon="12.69139836562743"><ele>759.0</ele><time>2026-04-26T09:49:24.072Z</time></trkpt><trkpt lat="42.51443426528924" lon="12.691458057043697"><ele>759.0</ele><time>2026-04-26T09:49:25.072Z</time></trkpt><trkpt lat="42.51451047274798" lon="12.691509006047106"><ele>759.0</ele><time>2026-04-26T09:49:26.072Z</time></trkpt><trkpt lat="42.51460080663086" lon="12.691551500956418"><ele>760.3333333333334</ele><time>2026-04-26T09:49:27.072Z</time></trkpt><trkpt lat="42.51468149994817" lon="12.691588457134014"><ele>761.6666666666666</ele><time>2026-04-26T09:49:28.072Z</time></trkpt><trkpt lat="42.51477880825645" lon="12.691631310879428"><ele>763.0</ele><time>2026-04-26T09:49:29.072Z</time></trkpt><trkpt lat="42.51485315618275" lon="12.691659881131812"><ele>764.3333333333333</ele><time>2026-04-26T09:49:30.072Z</time></trkpt><trkpt lat="42.5149377187131" lon="12.691683731352551"><ele>765.6666666666666</ele><time>2026-04-26T09:49:31.072Z</time></trkpt><trkpt lat="42.51501119947383" lon="12.691700740562162"><ele>767.0</ele><time>2026-04-26T09:49:32.072Z</time></trkpt><trkpt lat="42.51508596489394" lon="12.69168059967329"><ele>767.0</ele><time>2026-04-26T09:49:33.072Z</time></trkpt><trkpt lat="42.51517386349975" lon="12.691636402664505"><ele>767.0</ele><time>2026-04-26T09:49:34.072Z</time></trkpt><trkpt lat="42.515248203012085" lon="12.691642336601715"><ele>767.0</ele><time>2026-04-26T09:49:35.072Z</time></trkpt><trkpt lat="42.51531606429243" lon="12.691683196801357"><ele>767.0</ele><time>2026-04-26T09:49:36.072Z</time></trkpt><trkpt lat="42.515430872539476" lon="12.69177670960832"><ele>767.0</ele><time>2026-04-26T09:49:38.072Z</time></trkpt><trkpt lat="42.51548620884595" lon="12.69182272254755"><ele>767.0</ele><time>2026-04-26T09:49:39.072Z</time></trkpt><trkpt lat="42.51554405781625" lon="12.691859293582562"><ele>767.3333333333333</ele><time>2026-04-26T09:49:40.072Z</time></trkpt><trkpt lat="42.51559462970745" lon="12.691911383023951"><ele>767.6666666666666</ele><time>2026-04-26T09:49:41.072Z</time></trkpt><trkpt lat="42.51569912763893" lon="12.691963499924514"><ele>768.0</ele><time>2026-04-26T09:49:43.072Z</time></trkpt><trkpt lat="42.51576487255122" lon="12.691957367026594"><ele>768.3333333333333</ele><time>2026-04-26T09:49:44.072Z</time></trkpt><trkpt lat="42.515850018339506" lon="12.691988817777725"><ele>768.6666666666666</ele><time>2026-04-26T09:49:46.072Z</time></trkpt><trkpt lat="42.51593137620745" lon="12.692006874939334"><ele>769.0</ele><time>2026-04-26T09:49:48.072Z</time></trkpt><trkpt lat="42.51600032941341" lon="12.692018676249697"><ele>767.2</ele><time>2026-04-26T09:49:50.072Z</time></trkpt><trkpt lat="42.51607431692052" lon="12.6920425631079"><ele>765.4000000000001</ele><time>2026-04-26T09:49:52.073Z</time></trkpt><trkpt lat="42.51618139902296" lon="12.692116700486384"><ele>763.6</ele><time>2026-04-26T09:49:54.073Z</time></trkpt><trkpt lat="42.51627608262255" lon="12.692189360813288"><ele>761.8</ele><time>2026-04-26T09:49:56.073Z</time></trkpt><trkpt lat="42.5163734993539" lon="12.692254332083595"><ele>760.0</ele><time>2026-04-26T09:49:58.073Z</time></trkpt><trkpt lat="42.516424488968866" lon="12.692311991741507"><ele>759.4</ele><time>2026-04-26T09:49:59.073Z</time></trkpt><trkpt lat="42.5164784090985" lon="12.692384915903107"><ele>758.8</ele><time>2026-04-26T09:50:00.073Z</time></trkpt><trkpt lat="42.51651947835738" lon="12.692455693449654"><ele>758.2</ele><time>2026-04-26T09:50:01.073Z</time></trkpt><trkpt lat="42.51657645525457" lon="12.692532246212869"><ele>757.6</ele><time>2026-04-26T09:50:02.073Z</time></trkpt><trkpt lat="42.51665587903791" lon="12.692626545982138"><ele>757.0</ele><time>2026-04-26T09:50:04.073Z</time></trkpt><trkpt lat="42.51676298889429" lon="12.692770422399672"><ele>756.0</ele><time>2026-04-26T09:50:06.073Z</time></trkpt><trkpt lat="42.51681246837147" lon="12.692843243934725"><ele>755.0</ele><time>2026-04-26T09:50:07.073Z</time></trkpt><trkpt lat="42.51686032949795" lon="12.692905637879191"><ele>754.0</ele><time>2026-04-26T09:50:08.073Z</time></trkpt><trkpt lat="42.51691426156272" lon="12.692974332209753"><ele>753.0</ele><time>2026-04-26T09:50:09.073Z</time></trkpt><trkpt lat="42.516955375668466" lon="12.693039264217903"><ele>752.0</ele><time>2026-04-26T09:50:10.073Z</time></trkpt><trkpt lat="42.516981250807405" lon="12.693154213029409"><ele>751.0</ele><time>2026-04-26T09:50:12.073Z</time></trkpt><trkpt lat="42.51690119321055" lon="12.693182176578073"><ele>750.0</ele><time>2026-04-26T09:50:15.073Z</time></trkpt><trkpt lat="42.51682105276834" lon="12.69315668495962"><ele>750.0</ele><time>2026-04-26T09:50:16.073Z</time></trkpt><trkpt lat="42.51674820884002" lon="12.69313232205895"><ele>750.0</ele><time>2026-04-26T09:50:17.073Z</time></trkpt><trkpt lat="42.51667322617861" lon="12.693133703036166"><ele>750.0</ele><time>2026-04-26T09:50:18.073Z</time></trkpt><trkpt lat="42.51654402992046" lon="12.69316844147084"><ele>750.0</ele><time>2026-04-26T09:50:20.073Z</time></trkpt><trkpt lat="42.516478095399464" lon="12.69316818129056"><ele>750.0</ele><time>2026-04-26T09:50:21.073Z</time></trkpt><trkpt lat="42.51641219049444" lon="12.693180816419025"><ele>750.0</ele><time>2026-04-26T09:50:22.073Z</time></trkpt><trkpt lat="42.51634360949508" lon="12.693190660521259"><ele>750.0</ele><time>2026-04-26T09:50:23.073Z</time></trkpt><trkpt lat="42.516263791093444" lon="12.693229667258482"><ele>750.0</ele><time>2026-04-26T09:50:24.073Z</time></trkpt><trkpt lat="42.51617544284016" lon="12.693261089789686"><ele>750.0</ele><time>2026-04-26T09:50:25.073Z</time></trkpt><trkpt lat="42.51609272609599" lon="12.693305605950838"><ele>750.0</ele><time>2026-04-26T09:50:26.074Z</time></trkpt><trkpt lat="42.5160299384482" lon="12.693351481908362"><ele>750.0</ele><time>2026-04-26T09:50:27.074Z</time></trkpt><trkpt lat="42.51596581304372" lon="12.693393488426782"><ele>750.0</ele><time>2026-04-26T09:50:28.074Z</time></trkpt><trkpt lat="42.51589617056619" lon="12.693406262486869"><ele>749.1666666666666</ele><time>2026-04-26T09:50:29.074Z</time></trkpt><trkpt lat="42.51582980385507" lon="12.693428023390261"><ele>748.3333333333334</ele><time>2026-04-26T09:50:30.074Z</time></trkpt><trkpt lat="42.51576373595572" lon="12.69344507295212"><ele>747.5</ele><time>2026-04-26T09:50:31.074Z</time></trkpt><trkpt lat="42.51569577465408" lon="12.693423174672112"><ele>746.6666666666667</ele><time>2026-04-26T09:50:32.074Z</time></trkpt><trkpt lat="42.51561094432409" lon="12.693390074135351"><ele>745.8333333333334</ele><time>2026-04-26T09:50:33.074Z</time></trkpt><trkpt lat="42.51554868668856" lon="12.693345956791022"><ele>745.0</ele><time>2026-04-26T09:50:34.074Z</time></trkpt><trkpt lat="42.515429107713835" lon="12.693306022865471"><ele>745.0</ele><time>2026-04-26T09:50:36.074Z</time></trkpt><trkpt lat="42.51535570942742" lon="12.693336676370466"><ele>745.0</ele><time>2026-04-26T09:50:37.074Z</time></trkpt><trkpt lat="42.515274816889665" lon="12.69339840105028"><ele>745.0</ele><time>2026-04-26T09:50:38.074Z</time></trkpt><trkpt lat="42.515210024797334" lon="12.69349777302313"><ele>745.0</ele><time>2026-04-26T09:50:39.074Z</time></trkpt><trkpt lat="42.515160247739274" lon="12.693597630463676"><ele>745.0</ele><time>2026-04-26T09:50:40.074Z</time></trkpt><trkpt lat="42.51513619809817" lon="12.69368155433733"><ele>745.0</ele><time>2026-04-26T09:50:41.074Z</time></trkpt><trkpt lat="42.515061518570846" lon="12.693812492321767"><ele>742.5</ele><time>2026-04-26T09:50:43.074Z</time></trkpt><trkpt lat="42.51499834993162" lon="12.693880296342622"><ele>740.0</ele><time>2026-04-26T09:50:44.074Z</time></trkpt><trkpt lat="42.51490606639599" lon="12.69395518375357"><ele>737.5</ele><time>2026-04-26T09:50:45.074Z</time></trkpt><trkpt lat="42.514819187432984" lon="12.69401145124574"><ele>735.0</ele><time>2026-04-26T09:50:46.074Z</time></trkpt><trkpt lat="42.51474032508" lon="12.694064131285003"><ele>732.5</ele><time>2026-04-26T09:50:47.074Z</time></trkpt><trkpt lat="42.51467955260006" lon="12.694099739818986"><ele>730.0</ele><time>2026-04-26T09:50:48.074Z</time></trkpt><trkpt lat="42.51461815693914" lon="12.694150575678409"><ele>729.6</ele><time>2026-04-26T09:50:49.074Z</time></trkpt><trkpt lat="42.5145261183506" lon="12.69425696202592"><ele>729.2</ele><time>2026-04-26T09:50:51.074Z</time></trkpt><trkpt lat="42.51439955958811" lon="12.694333776840665"><ele>728.8</ele><time>2026-04-26T09:50:53.074Z</time></trkpt><trkpt lat="42.514322154030346" lon="12.694378355812985"><ele>728.4</ele><time>2026-04-26T09:50:54.074Z</time></trkpt><trkpt lat="42.51424614139735" lon="12.69442689220786"><ele>728.0</ele><time>2026-04-26T09:50:55.074Z</time></trkpt><trkpt lat="42.51414280052916" lon="12.694515287098124"><ele>725.5999999999999</ele><time>2026-04-26T09:50:57.074Z</time></trkpt><trkpt lat="42.51402077342832" lon="12.694546454474509"><ele>723.1999999999999</ele><time>2026-04-26T09:50:59.074Z</time></trkpt><trkpt lat="42.513942003841684" lon="12.694546257506813"><ele>720.8</ele><time>2026-04-26T09:51:00.074Z</time></trkpt><trkpt lat="42.513861728397394" lon="12.694516679720765"><ele>718.4</ele><time>2026-04-26T09:51:01.075Z</time></trkpt><trkpt lat="42.513778159554185" lon="12.694463536553936"><ele>716.0</ele><time>2026-04-26T09:51:02.075Z</time></trkpt><trkpt lat="42.51368424700589" lon="12.694412774944368"><ele>716.0</ele><time>2026-04-26T09:51:03.075Z</time></trkpt><trkpt lat="42.513625256764456" lon="12.694371239047895"><ele>716.0</ele><time>2026-04-26T09:51:04.075Z</time></trkpt><trkpt lat="42.51350936907675" lon="12.694299382769955"><ele>716.0</ele><time>2026-04-26T09:51:06.075Z</time></trkpt><trkpt lat="42.51345410255683" lon="12.694244278681374"><ele>716.0</ele><time>2026-04-26T09:51:07.075Z</time></trkpt><trkpt lat="42.513391456946835" lon="12.694197548163247"><ele>716.0</ele><time>2026-04-26T09:51:08.075Z</time></trkpt><trkpt lat="42.51332504355801" lon="12.694174170315558"><ele>716.0</ele><time>2026-04-26T09:51:09.075Z</time></trkpt><trkpt lat="42.51326227942892" lon="12.694159934981176"><ele>716.0000000000001</ele><time>2026-04-26T09:51:10.075Z</time></trkpt><trkpt lat="42.513195123308115" lon="12.694134834763844"><ele>716.0</ele><time>2026-04-26T09:51:11.075Z</time></trkpt><trkpt lat="42.51313082423739" lon="12.694152810353026"><ele>716.0</ele><time>2026-04-26T09:51:12.075Z</time></trkpt><trkpt lat="42.51304801891187" lon="12.69414907317323"><ele>716.0</ele><time>2026-04-26T09:51:13.075Z</time></trkpt><trkpt lat="42.51295873040452" lon="12.694182042531084"><ele>716.0</ele><time>2026-04-26T09:51:14.075Z</time></trkpt><trkpt lat="42.51288618880839" lon="12.694171223593314"><ele>716.0000000000001</ele><time>2026-04-26T09:51:15.075Z</time></trkpt><trkpt lat="42.51282163540548" lon="12.69418411831382"><ele>716.0</ele><time>2026-04-26T09:51:16.075Z</time></trkpt><trkpt lat="42.51274942600953" lon="12.694210170754035"><ele>714.0</ele><time>2026-04-26T09:51:17.076Z</time></trkpt><trkpt lat="42.512685225845544" lon="12.694220965006407"><ele>712.0</ele><time>2026-04-26T09:51:18.076Z</time></trkpt><trkpt lat="42.51257845755693" lon="12.694235551359263"><ele>710.0</ele><time>2026-04-26T09:51:20.076Z</time></trkpt><trkpt lat="42.51250210209225" lon="12.694234268108762"><ele>708.0</ele><time>2026-04-26T09:51:21.077Z</time></trkpt><trkpt lat="42.5124254922096" lon="12.69422532006585"><ele>706.0</ele><time>2026-04-26T09:51:22.077Z</time></trkpt><trkpt lat="42.512356583730195" lon="12.694204853469781"><ele>704.0</ele><time>2026-04-26T09:51:23.076Z</time></trkpt><trkpt lat="42.512285889450865" lon="12.694219199532572"><ele>704.0</ele><time>2026-04-26T09:51:24.076Z</time></trkpt><trkpt lat="42.512188280515204" lon="12.694247827642155"><ele>704.0</ele><time>2026-04-26T09:51:26.076Z</time></trkpt><trkpt lat="42.51211451436421" lon="12.694271183467086"><ele>704.0</ele><time>2026-04-26T09:51:28.076Z</time></trkpt><trkpt lat="42.5120389964101" lon="12.694312016132923"><ele>704.0</ele><time>2026-04-26T09:51:34.076Z</time></trkpt><trkpt lat="42.51193447314842" lon="12.694314642154188"><ele>704.0</ele><time>2026-04-26T09:51:36.077Z</time></trkpt><trkpt lat="42.51187135165292" lon="12.694285043249943"><ele>704.0</ele><time>2026-04-26T09:51:37.077Z</time></trkpt><trkpt lat="42.51180554904068" lon="12.694223409023788"><ele>702.6666666666666</ele><time>2026-04-26T09:51:38.077Z</time></trkpt><trkpt lat="42.511739334523384" lon="12.694161531729378"><ele>701.3333333333333</ele><time>2026-04-26T09:51:39.077Z</time></trkpt><trkpt lat="42.511656270852264" lon="12.694095856074497"><ele>700.0</ele><time>2026-04-26T09:51:41.077Z</time></trkpt><trkpt lat="42.511670004328124" lon="12.694182040770187"><ele>698.6666666666666</ele><time>2026-04-26T09:51:45.077Z</time></trkpt><trkpt lat="42.51173964168901" lon="12.694178248598382"><ele>697.3333333333334</ele><time>2026-04-26T09:51:46.077Z</time></trkpt><trkpt lat="42.51180827653153" lon="12.69420833673003"><ele>696.0</ele><time>2026-04-26T09:51:47.077Z</time></trkpt><trkpt lat="42.511883579658694" lon="12.694265819054136"><ele>696.0</ele><time>2026-04-26T09:51:48.077Z</time></trkpt><trkpt lat="42.51195892178628" lon="12.694299271231412"><ele>696.0</ele><time>2026-04-26T09:51:49.077Z</time></trkpt><trkpt lat="42.512043450967944" lon="12.694292304429718"><ele>696.0</ele><time>2026-04-26T09:51:50.077Z</time></trkpt><trkpt lat="42.5121377437183" lon="12.694250655975424"><ele>696.0</ele><time>2026-04-26T09:51:51.077Z</time></trkpt><trkpt lat="42.51223013527754" lon="12.694207102649083"><ele>696.0</ele><time>2026-04-26T09:51:52.077Z</time></trkpt><trkpt lat="42.512299621150476" lon="12.694196361749063"><ele>696.0</ele><time>2026-04-26T09:51:53.077Z</time></trkpt><trkpt lat="42.51230615890056" lon="12.694286542038617"><ele>697.3333333333334</ele><time>2026-04-26T09:51:57.077Z</time></trkpt><trkpt lat="42.51232585780563" lon="12.694379411487022"><ele>698.6666666666666</ele><time>2026-04-26T09:52:01.077Z</time></trkpt><trkpt lat="42.51236687321434" lon="12.694461831632427"><ele>700.0</ele><time>2026-04-26T09:52:21.078Z</time></trkpt><trkpt lat="42.512392855427" lon="12.694546873556913"><ele>701.3333333333333</ele><time>2026-04-26T09:52:24.078Z</time></trkpt><trkpt lat="42.51242694444756" lon="12.694633986196175"><ele>702.6666666666666</ele><time>2026-04-26T09:52:36.078Z</time></trkpt><trkpt lat="42.51248508242629" lon="12.694695863609862"><ele>704.0</ele><time>2026-04-26T09:52:37.078Z</time></trkpt><trkpt lat="42.51257697865959" lon="12.694739554541787"><ele>704.0</ele><time>2026-04-26T09:52:38.078Z</time></trkpt><trkpt lat="42.51266636498767" lon="12.694785366782858"><ele>704.0</ele><time>2026-04-26T09:52:39.078Z</time></trkpt><trkpt lat="42.51276306849807" lon="12.69480118074279"><ele>704.0</ele><time>2026-04-26T09:52:40.078Z</time></trkpt><trkpt lat="42.51286364409062" lon="12.694790103314983"><ele>704.0</ele><time>2026-04-26T09:52:42.078Z</time></trkpt><trkpt lat="42.51296065228451" lon="12.69487958431992"><ele>704.0</ele><time>2026-04-26T09:52:44.078Z</time></trkpt><trkpt lat="42.513006027091215" lon="12.694941818405223"><ele>704.5</ele><time>2026-04-26T09:52:45.079Z</time></trkpt><trkpt lat="42.513051103065905" lon="12.695009827702386"><ele>705.0</ele><time>2026-04-26T09:52:46.079Z</time></trkpt><trkpt lat="42.51309052514787" lon="12.695118343336945"><ele>705.5</ele><time>2026-04-26T09:52:47.079Z</time></trkpt><trkpt lat="42.51313565532066" lon="12.695230911650125"><ele>706.0</ele><time>2026-04-26T09:52:48.079Z</time></trkpt><trkpt lat="42.5131811217268" lon="12.695336963959157"><ele>706.5</ele><time>2026-04-26T09:52:49.079Z</time></trkpt><trkpt lat="42.51322674139734" lon="12.695433030602427"><ele>707.0</ele><time>2026-04-26T09:52:50.079Z</time></trkpt><trkpt lat="42.51327913832588" lon="12.69553215559143"><ele>707.0</ele><time>2026-04-26T09:52:51.079Z</time></trkpt><trkpt lat="42.51334761476278" lon="12.695695772148326"><ele>707.0</ele><time>2026-04-26T09:52:53.079Z</time></trkpt><trkpt lat="42.51338577276276" lon="12.695794614774737"><ele>707.0</ele><time>2026-04-26T09:52:54.079Z</time></trkpt><trkpt lat="42.513410155216604" lon="12.69588942591571"><ele>707.0</ele><time>2026-04-26T09:52:55.079Z</time></trkpt><trkpt lat="42.51344418504841" lon="12.695995906810081"><ele>707.0</ele><time>2026-04-26T09:52:57.079Z</time></trkpt><trkpt lat="42.513511873508286" lon="12.696052315127744"><ele>708.3333333333333</ele><time>2026-04-26T09:54:04.082Z</time></trkpt><trkpt lat="42.51342392989272" lon="12.696126956002896"><ele>709.6666666666666</ele><time>2026-04-26T09:54:06.082Z</time></trkpt><trkpt lat="42.51335163308987" lon="12.696182379800574"><ele>711.0</ele><time>2026-04-26T09:54:07.082Z</time></trkpt><trkpt lat="42.513281468237146" lon="12.69622797335025"><ele>712.3333333333334</ele><time>2026-04-26T09:54:08.082Z</time></trkpt><trkpt lat="42.513217346193976" lon="12.696321731564606"><ele>713.6666666666667</ele><time>2026-04-26T09:54:10.082Z</time></trkpt><trkpt lat="42.513195171199804" lon="12.696439723526279"><ele>715.0</ele><time>2026-04-26T09:54:12.082Z</time></trkpt><trkpt lat="42.51318626133254" lon="12.696525142190419"><ele>715.0</ele><time>2026-04-26T09:54:13.082Z</time></trkpt><trkpt lat="42.51317093066314" lon="12.696620159538922"><ele>715.0</ele><time>2026-04-26T09:54:14.082Z</time></trkpt><trkpt lat="42.51318386747071" lon="12.69672286884079"><ele>715.0</ele><time>2026-04-26T09:54:16.082Z</time></trkpt><trkpt lat="42.51317246815188" lon="12.696875133914045"><ele>715.0</ele><time>2026-04-26T09:54:18.082Z</time></trkpt><trkpt lat="42.51314522950881" lon="12.69697497460295"><ele>715.0</ele><time>2026-04-26T09:54:19.082Z</time></trkpt><trkpt lat="42.51314012886006" lon="12.69714078338221"><ele>716.0</ele><time>2026-04-26T09:54:21.082Z</time></trkpt><trkpt lat="42.51312110137697" lon="12.697228888699678"><ele>717.0</ele><time>2026-04-26T09:54:22.082Z</time></trkpt><trkpt lat="42.5131311550385" lon="12.697341255782947"><ele>718.0</ele><time>2026-04-26T09:54:24.082Z</time></trkpt><trkpt lat="42.51313448304833" lon="12.69744869565126"><ele>719.0</ele><time>2026-04-26T09:54:26.083Z</time></trkpt><trkpt lat="42.513133136052275" lon="12.697595737910124"><ele>720.0</ele><time>2026-04-26T09:54:28.083Z</time></trkpt><trkpt lat="42.513123772944226" lon="12.69768071735233"><ele>721.0</ele><time>2026-04-26T09:54:29.083Z</time></trkpt><trkpt lat="42.51311698336216" lon="12.697766686654493"><ele>721.5</ele><time>2026-04-26T09:54:30.083Z</time></trkpt><trkpt lat="42.5131188841105" lon="12.697860596120554"><ele>722.0</ele><time>2026-04-26T09:54:31.083Z</time></trkpt><trkpt lat="42.513111946596815" lon="12.69802054671775"><ele>722.5</ele><time>2026-04-26T09:54:33.083Z</time></trkpt><trkpt lat="42.513100180898974" lon="12.698120019116779"><ele>723.0</ele><time>2026-04-26T09:54:34.083Z</time></trkpt><trkpt lat="42.513101949665426" lon="12.698228877104809"><ele>723.5</ele><time>2026-04-26T09:54:36.083Z</time></trkpt><trkpt lat="42.51313562306216" lon="12.698319118671245"><ele>724.0</ele><time>2026-04-26T09:54:38.083Z</time></trkpt><trkpt lat="42.513219613658066" lon="12.698409986695479"><ele>724.0</ele><time>2026-04-26T09:54:41.083Z</time></trkpt><trkpt lat="42.51331302088379" lon="12.698464275971668"><ele>724.0</ele><time>2026-04-26T09:54:43.083Z</time></trkpt><trkpt lat="42.513368371162585" lon="12.69851807237262"><ele>724.0</ele><time>2026-04-26T09:54:45.083Z</time></trkpt><trkpt lat="42.51344499844879" lon="12.698584362792412"><ele>724.0</ele><time>2026-04-26T09:54:48.083Z</time></trkpt><trkpt lat="42.513529369971614" lon="12.698660442619179"><ele>724.0</ele><time>2026-04-26T09:54:50.083Z</time></trkpt><trkpt lat="42.51363437821817" lon="12.698686480970524"><ele>725.0</ele><time>2026-04-26T09:54:52.083Z</time></trkpt><trkpt lat="42.5137523323067" lon="12.6986566459675"><ele>726.0</ele><time>2026-04-26T09:54:54.083Z</time></trkpt><trkpt lat="42.51382289097476" lon="12.69860335665701"><ele>727.0</ele><time>2026-04-26T09:54:55.083Z</time></trkpt><trkpt lat="42.51391513973096" lon="12.698565167220925"><ele>728.0</ele><time>2026-04-26T09:54:57.083Z</time></trkpt><trkpt lat="42.513963623116865" lon="12.698677237025771"><ele>729.0</ele><time>2026-04-26T09:54:59.083Z</time></trkpt><trkpt lat="42.513958729250376" lon="12.698771757051826"><ele>729.0</ele><time>2026-04-26T09:55:00.083Z</time></trkpt><trkpt lat="42.51394249847715" lon="12.698894855652245"><ele>729.0</ele><time>2026-04-26T09:55:01.084Z</time></trkpt><trkpt lat="42.51392538022884" lon="12.698993966402222"><ele>729.0</ele><time>2026-04-26T09:55:02.084Z</time></trkpt><trkpt lat="42.513918560907555" lon="12.699087708980256"><ele>729.0</ele><time>2026-04-26T09:55:03.084Z</time></trkpt><trkpt lat="42.513952258420204" lon="12.699270525145096"><ele>729.0</ele><time>2026-04-26T09:55:05.084Z</time></trkpt><trkpt lat="42.51397241855054" lon="12.699366959530428"><ele>729.0</ele><time>2026-04-26T09:55:06.084Z</time></trkpt><trkpt lat="42.51401780929044" lon="12.699501555067727"><ele>729.0</ele><time>2026-04-26T09:55:08.084Z</time></trkpt><trkpt lat="42.51407792730423" lon="12.699608261009889"><ele>729.0</ele><time>2026-04-26T09:55:11.084Z</time></trkpt><trkpt lat="42.51415729050123" lon="12.699693693130943"><ele>729.0</ele><time>2026-04-26T09:55:13.084Z</time></trkpt><trkpt lat="42.514241506849544" lon="12.699748653835746"><ele>729.0</ele><time>2026-04-26T09:55:14.084Z</time></trkpt><trkpt lat="42.51432197889458" lon="12.699807216813987"><ele>729.0</ele><time>2026-04-26T09:55:15.084Z</time></trkpt><trkpt lat="42.51439589273552" lon="12.69993073228512"><ele>729.0</ele><time>2026-04-26T09:55:17.084Z</time></trkpt><trkpt lat="42.514479988390455" lon="12.700042555397344"><ele>729.0</ele><time>2026-04-26T09:55:19.084Z</time></trkpt><trkpt lat="42.514563052498886" lon="12.700068685880112"><ele>729.0</ele><time>2026-04-26T09:55:21.084Z</time></trkpt><trkpt lat="42.51466579193609" lon="12.70004331980208"><ele>729.0</ele><time>2026-04-26T09:55:23.084Z</time></trkpt><trkpt lat="42.51473665698618" lon="12.699983786205642"><ele>729.0</ele><time>2026-04-26T09:55:26.084Z</time></trkpt><trkpt lat="42.51486443743662" lon="12.699938733104446"><ele>730.6</ele><time>2026-04-26T09:55:55.085Z</time></trkpt><trkpt lat="42.51493612612237" lon="12.699862431202078"><ele>732.2</ele><time>2026-04-26T09:55:58.085Z</time></trkpt><trkpt lat="42.51501437741589" lon="12.699841598248742"><ele>733.8000000000001</ele><time>2026-04-26T09:56:00.085Z</time></trkpt><trkpt lat="42.51511122835497" lon="12.699836936207106"><ele>735.4000000000001</ele><time>2026-04-26T09:56:02.085Z</time></trkpt><trkpt lat="42.51518627049697" lon="12.699860458890319"><ele>737.0</ele><time>2026-04-26T09:56:04.085Z</time></trkpt><trkpt lat="42.51528453452644" lon="12.69993238615245"><ele>737.0</ele><time>2026-04-26T09:56:07.085Z</time></trkpt><trkpt lat="42.51537825698645" lon="12.69994268568191"><ele>737.0</ele><time>2026-04-26T09:56:10.085Z</time></trkpt><trkpt lat="42.51543465788654" lon="12.699996979701606"><ele>737.0</ele><time>2026-04-26T09:56:12.085Z</time></trkpt><trkpt lat="42.51550314891488" lon="12.700035990721458"><ele>737.0</ele><time>2026-04-26T09:56:14.085Z</time></trkpt><trkpt lat="42.51560125480023" lon="12.700043571883453"><ele>737.0</ele><time>2026-04-26T09:56:16.085Z</time></trkpt><trkpt lat="42.515696665383295" lon="12.699994710684326"><ele>737.0</ele><time>2026-04-26T09:56:18.085Z</time></trkpt><trkpt lat="42.51579796415754" lon="12.699988578131983"><ele>738.6</ele><time>2026-04-26T09:56:20.085Z</time></trkpt><trkpt lat="42.51586730488827" lon="12.700028532511503"><ele>740.2</ele><time>2026-04-26T09:56:22.085Z</time></trkpt><trkpt lat="42.5159536556256" lon="12.700051601518698"><ele>741.8</ele><time>2026-04-26T09:56:24.086Z</time></trkpt><trkpt lat="42.51604346855312" lon="12.699982528571653"><ele>743.4</ele><time>2026-04-26T09:56:26.086Z</time></trkpt><trkpt lat="42.516126015483536" lon="12.699939030482572"><ele>745.0</ele><time>2026-04-26T09:56:28.086Z</time></trkpt><trkpt lat="42.516218976212826" lon="12.699890361440769"><ele>745.6666666666667</ele><time>2026-04-26T09:56:30.086Z</time></trkpt><trkpt lat="42.51630593004886" lon="12.69985873337525"><ele>746.3333333333334</ele><time>2026-04-26T09:56:32.086Z</time></trkpt><trkpt lat="42.51637717790397" lon="12.699834032530399"><ele>747.0</ele><time>2026-04-26T09:56:35.086Z</time></trkpt><trkpt lat="42.51645712375566" lon="12.699782055885976"><ele>747.6666666666666</ele><time>2026-04-26T09:56:38.086Z</time></trkpt><trkpt lat="42.51655570164297" lon="12.699745398353778"><ele>748.3333333333333</ele><time>2026-04-26T09:56:40.086Z</time></trkpt><trkpt lat="42.51662476502342" lon="12.699697910033729"><ele>749.0</ele><time>2026-04-26T09:56:42.086Z</time></trkpt><trkpt lat="42.5166807575298" lon="12.69965007980176"><ele>749.0</ele><time>2026-04-26T09:56:44.086Z</time></trkpt><trkpt lat="42.516742894473786" lon="12.699572169371045"><ele>749.0</ele><time>2026-04-26T09:56:47.086Z</time></trkpt><trkpt lat="42.51681351121184" lon="12.699501304846978"><ele>749.0</ele><time>2026-04-26T09:56:50.086Z</time></trkpt><trkpt lat="42.51687901905112" lon="12.699447551154273"><ele>749.0</ele><time>2026-04-26T09:56:52.086Z</time></trkpt><trkpt lat="42.516940024798764" lon="12.699407812036712"><ele>749.0</ele><time>2026-04-26T09:56:54.086Z</time></trkpt><trkpt lat="42.51699864228643" lon="12.699362300023934"><ele>749.0</ele><time>2026-04-26T09:56:56.086Z</time></trkpt><trkpt lat="42.51704522100876" lon="12.699295766810632"><ele>749.3333333333333</ele><time>2026-04-26T09:56:58.086Z</time></trkpt><trkpt lat="42.517098554210484" lon="12.69924997566379"><ele>749.6666666666666</ele><time>2026-04-26T09:57:00.087Z</time></trkpt><trkpt lat="42.5171629810451" lon="12.69918336267119"><ele>750.0</ele><time>2026-04-26T09:57:02.087Z</time></trkpt><trkpt lat="42.517228259530555" lon="12.69912458514383"><ele>750.3333333333334</ele><time>2026-04-26T09:57:04.087Z</time></trkpt><trkpt lat="42.51729703663093" lon="12.699040475177505"><ele>750.6666666666667</ele><time>2026-04-26T09:57:06.087Z</time></trkpt><trkpt lat="42.51735382776921" lon="12.698966574634852"><ele>751.0</ele><time>2026-04-26T09:57:08.087Z</time></trkpt><trkpt lat="42.517411601573194" lon="12.69885248101108"><ele>751.0</ele><time>2026-04-26T09:57:10.087Z</time></trkpt><trkpt lat="42.51745673592725" lon="12.69878554708486"><ele>751.0</ele><time>2026-04-26T09:57:12.087Z</time></trkpt><trkpt lat="42.51749641191509" lon="12.698715464264964"><ele>751.0</ele><time>2026-04-26T09:57:14.087Z</time></trkpt><trkpt lat="42.51758308853221" lon="12.698632834639849"><ele>751.0</ele><time>2026-04-26T09:57:16.087Z</time></trkpt><trkpt lat="42.51762916036377" lon="12.698568519420764"><ele>751.0</ele><time>2026-04-26T09:57:18.087Z</time></trkpt><trkpt lat="42.517675934400586" lon="12.698474309631719"><ele>751.0</ele><time>2026-04-26T09:57:20.087Z</time></trkpt><trkpt lat="42.51770702043399" lon="12.698356751409"><ele>751.3333333333334</ele><time>2026-04-26T09:57:22.087Z</time></trkpt><trkpt lat="42.51772549057085" lon="12.698260967355255"><ele>751.6666666666667</ele><time>2026-04-26T09:57:24.087Z</time></trkpt><trkpt lat="42.51778054277431" lon="12.698147442535829"><ele>752.0</ele><time>2026-04-26T09:57:26.087Z</time></trkpt><trkpt lat="42.51782755910973" lon="12.69806399185514"><ele>752.3333333333334</ele><time>2026-04-26T09:57:28.087Z</time></trkpt><trkpt lat="42.51788322125562" lon="12.697968303387539"><ele>752.6666666666666</ele><time>2026-04-26T09:57:30.087Z</time></trkpt><trkpt lat="42.51784109289488" lon="12.697877204436036"><ele>753.0</ele><time>2026-04-26T09:57:32.087Z</time></trkpt><trkpt lat="42.517754817314035" lon="12.697857404438116"><ele>753.0</ele><time>2026-04-26T09:57:34.087Z</time></trkpt><trkpt lat="42.517699075777564" lon="12.697786645895151"><ele>753.0</ele><time>2026-04-26T09:57:37.087Z</time></trkpt><trkpt lat="42.51764133505159" lon="12.69769590952786"><ele>753.0</ele><time>2026-04-26T09:57:39.088Z</time></trkpt><trkpt lat="42.5175799565788" lon="12.697595333255588"><ele>753.0</ele><time>2026-04-26T09:57:41.088Z</time></trkpt><trkpt lat="42.5175420888046" lon="12.697513161521591"><ele>753.0</ele><time>2026-04-26T09:57:43.088Z</time></trkpt><trkpt lat="42.51745966932615" lon="12.697439481747276"><ele>753.0</ele><time>2026-04-26T09:57:45.088Z</time></trkpt><trkpt lat="42.51739945064629" lon="12.697385956343064"><ele>751.8333333333334</ele><time>2026-04-26T09:57:47.088Z</time></trkpt><trkpt lat="42.517329730889884" lon="12.697316936232328"><ele>750.6666666666666</ele><time>2026-04-26T09:57:50.088Z</time></trkpt><trkpt lat="42.51724114235939" lon="12.697299602388053"><ele>749.5</ele><time>2026-04-26T09:57:52.089Z</time></trkpt><trkpt lat="42.517183043416495" lon="12.697260927051907"><ele>748.3333333333333</ele><time>2026-04-26T09:57:53.089Z</time></trkpt><trkpt lat="42.51713307946072" lon="12.697199753285485"><ele>747.1666666666666</ele><time>2026-04-26T09:57:54.089Z</time></trkpt><trkpt lat="42.51704413453537" lon="12.69708435449084"><ele>746.0</ele><time>2026-04-26T09:57:56.089Z</time></trkpt><trkpt lat="42.5169920690431" lon="12.697032119404822"><ele>745.6666666666666</ele><time>2026-04-26T09:57:57.089Z</time></trkpt><trkpt lat="42.51691282640425" lon="12.696964732361963"><ele>745.3333333333333</ele><time>2026-04-26T09:57:59.089Z</time></trkpt><trkpt lat="42.5168279877307" lon="12.696945737227967"><ele>745.0</ele><time>2026-04-26T09:58:02.089Z</time></trkpt><trkpt lat="42.51675224911216" lon="12.696909763462253"><ele>744.6666666666666</ele><time>2026-04-26T09:58:05.089Z</time></trkpt><trkpt lat="42.51666873851947" lon="12.696864406849238"><ele>744.3333333333334</ele><time>2026-04-26T09:58:07.089Z</time></trkpt><trkpt lat="42.51658129848131" lon="12.696817020482564"><ele>744.0</ele><time>2026-04-26T09:58:09.089Z</time></trkpt><trkpt lat="42.516519685134945" lon="12.69678547727222"><ele>743.2857142857143</ele><time>2026-04-26T09:58:11.089Z</time></trkpt><trkpt lat="42.51648281489974" lon="12.696710313556334"><ele>742.5714285714286</ele><time>2026-04-26T09:58:13.089Z</time></trkpt><trkpt lat="42.516441145881245" lon="12.69663649856899"><ele>741.8571428571429</ele><time>2026-04-26T09:58:20.089Z</time></trkpt><trkpt lat="42.51640033745551" lon="12.69656531613037"><ele>741.1428571428571</ele><time>2026-04-26T09:58:32.09Z</time></trkpt><trkpt lat="42.51634277499611" lon="12.696508140918128"><ele>740.4285714285714</ele><time>2026-04-26T09:58:36.09Z</time></trkpt><trkpt lat="42.51627507899455" lon="12.696515127288897"><ele>739.7142857142858</ele><time>2026-04-26T09:59:25.091Z</time></trkpt><trkpt lat="42.5162115415208" lon="12.696543581321619"><ele>739.0</ele><time>2026-04-26T09:59:48.091Z</time></trkpt><trkpt lat="42.516138025705416" lon="12.696549912090767"><ele>737.8571428571429</ele><time>2026-04-26T10:02:05.096Z</time></trkpt><trkpt lat="42.51606281730051" lon="12.696556868305166"><ele>736.7142857142858</ele><time>2026-04-26T10:02:12.096Z</time></trkpt><trkpt lat="42.51599639450195" lon="12.696563999621857"><ele>735.5714285714286</ele><time>2026-04-26T10:02:22.097Z</time></trkpt><trkpt lat="42.51592665486765" lon="12.696559862704948"><ele>734.4285714285714</ele><time>2026-04-26T10:03:39.099Z</time></trkpt><trkpt lat="42.51586030793074" lon="12.696577406830007"><ele>733.2857142857142</ele><time>2026-04-26T10:03:48.099Z</time></trkpt><trkpt lat="42.51579556671699" lon="12.696594388715924"><ele>732.1428571428571</ele><time>2026-04-26T10:03:51.099Z</time></trkpt><trkpt lat="42.51571856760454" lon="12.696610376382074"><ele>731.0</ele><time>2026-04-26T10:03:53.099Z</time></trkpt><trkpt lat="42.51565401553858" lon="12.69665701771853"><ele>731.0</ele><time>2026-04-26T10:03:56.099Z</time></trkpt><trkpt lat="42.51560006812902" lon="12.696717453979803"><ele>731.0</ele><time>2026-04-26T10:03:59.099Z</time></trkpt><trkpt lat="42.51558593629809" lon="12.69680980079387"><ele>731.0</ele><time>2026-04-26T10:04:05.099Z</time></trkpt><trkpt lat="42.51554408532169" lon="12.69691528728268"><ele>731.0</ele><time>2026-04-26T10:04:09.1Z</time></trkpt><trkpt lat="42.51546173496333" lon="12.696956267250556"><ele>731.0</ele><time>2026-04-26T10:04:11.1Z</time></trkpt><trkpt lat="42.5153687123905" lon="12.696960154426808"><ele>731.0</ele><time>2026-04-26T10:04:13.1Z</time></trkpt><trkpt lat="42.51530060259576" lon="12.696965526970919"><ele>730.3333333333333</ele><time>2026-04-26T10:04:15.1Z</time></trkpt><trkpt lat="42.51523480375509" lon="12.69700451203594"><ele>729.6666666666666</ele><time>2026-04-26T10:04:19.1Z</time></trkpt><trkpt lat="42.51517117410615" lon="12.697019124864633"><ele>729.0</ele><time>2026-04-26T10:04:27.1Z</time></trkpt><trkpt lat="42.515108496812644" lon="12.697005454256649"><ele>728.3333333333334</ele><time>2026-04-26T10:04:32.1Z</time></trkpt><trkpt lat="42.51503782958265" lon="12.696956262272646"><ele>727.6666666666667</ele><time>2026-04-26T10:04:37.1Z</time></trkpt><trkpt lat="42.51493403332834" lon="12.69689484906787"><ele>727.0</ele><time>2026-04-26T10:04:40.1Z</time></trkpt><trkpt lat="42.51482104580388" lon="12.696880086202835"><ele>727.0</ele><time>2026-04-26T10:04:42.101Z</time></trkpt><trkpt lat="42.51473914984652" lon="12.696856769639277"><ele>727.0</ele><time>2026-04-26T10:04:44.101Z</time></trkpt><trkpt lat="42.514640252057255" lon="12.69682028684961"><ele>727.0</ele><time>2026-04-26T10:04:46.101Z</time></trkpt><trkpt lat="42.51457399876606" lon="12.696779330115342"><ele>727.0</ele><time>2026-04-26T10:04:47.101Z</time></trkpt><trkpt lat="42.5144623904394" lon="12.69670937771827"><ele>727.0</ele><time>2026-04-26T10:04:49.101Z</time></trkpt><trkpt lat="42.51434553601317" lon="12.696648458051316"><ele>725.4000000000001</ele><time>2026-04-26T10:04:51.101Z</time></trkpt><trkpt lat="42.51423402725728" lon="12.6965846225715"><ele>723.8000000000001</ele><time>2026-04-26T10:04:53.101Z</time></trkpt><trkpt lat="42.514125604943374" lon="12.696536500493885"><ele>722.2</ele><time>2026-04-26T10:04:55.101Z</time></trkpt><trkpt lat="42.51402256876434" lon="12.696500765543451"><ele>720.6</ele><time>2026-04-26T10:04:57.101Z</time></trkpt><trkpt lat="42.51393364946242" lon="12.69643249882194"><ele>719.0</ele><time>2026-04-26T10:04:59.101Z</time></trkpt><trkpt lat="42.51384691275773" lon="12.696382291028142"><ele>719.0</ele><time>2026-04-26T10:05:01.101Z</time></trkpt><trkpt lat="42.51377672899241" lon="12.696334084747285"><ele>719.0</ele><time>2026-04-26T10:05:03.101Z</time></trkpt><trkpt lat="42.513702307241005" lon="12.696288077284551"><ele>719.0</ele><time>2026-04-26T10:05:05.101Z</time></trkpt><trkpt lat="42.51362823254703" lon="12.696239137878623"><ele>719.0</ele><time>2026-04-26T10:05:07.101Z</time></trkpt><trkpt lat="42.51357940373724" lon="12.696177240218443"><ele>719.0</ele><time>2026-04-26T10:05:09.101Z</time></trkpt><trkpt lat="42.51353404539696" lon="12.696113551314443"><ele>719.0</ele><time>2026-04-26T10:05:11.101Z</time></trkpt><trkpt lat="42.51344564090053" lon="12.696045635816988"><ele>716.0</ele><time>2026-04-26T10:05:14.101Z</time></trkpt><trkpt lat="42.5133441309229" lon="12.695922004926715"><ele>713.0</ele><time>2026-04-26T10:05:16.101Z</time></trkpt><trkpt lat="42.51325326588491" lon="12.695868273541123"><ele>710.0</ele><time>2026-04-26T10:05:17.102Z</time></trkpt><trkpt lat="42.513132885501236" lon="12.695834366014642"><ele>707.0</ele><time>2026-04-26T10:05:18.102Z</time></trkpt><trkpt lat="42.512996987650105" lon="12.695777061876477"><ele>707.25</ele><time>2026-04-26T10:05:19.102Z</time></trkpt><trkpt lat="42.51286899441574" lon="12.695719268082724"><ele>707.5</ele><time>2026-04-26T10:05:20.102Z</time></trkpt><trkpt lat="42.51273999263758" lon="12.695676229753294"><ele>707.75</ele><time>2026-04-26T10:05:21.102Z</time></trkpt><trkpt lat="42.51260735973029" lon="12.695640484834586"><ele>708.0</ele><time>2026-04-26T10:05:22.102Z</time></trkpt><trkpt lat="42.51309178426623" lon="12.695150736951497"><ele>708.0</ele><time>2026-04-26T10:05:23.102Z</time></trkpt><trkpt lat="42.51304993808571" lon="12.695060146408501"><ele>708.0</ele><time>2026-04-26T10:05:24.102Z</time></trkpt><trkpt lat="42.51301555796193" lon="12.69498835705729"><ele>708.0</ele><time>2026-04-26T10:05:25.102Z</time></trkpt><trkpt lat="42.512928408155176" lon="12.694890912409138"><ele>708.0</ele><time>2026-04-26T10:05:27.102Z</time></trkpt><trkpt lat="42.512842473160376" lon="12.69482059275216"><ele>708.0</ele><time>2026-04-26T10:05:29.102Z</time></trkpt><trkpt lat="42.51277828814149" lon="12.694798973304211"><ele>708.0</ele><time>2026-04-26T10:05:30.102Z</time></trkpt><trkpt lat="42.512707771300825" lon="12.694799313385563"><ele>707.3333333333334</ele><time>2026-04-26T10:05:31.102Z</time></trkpt><trkpt lat="42.51261154872606" lon="12.694799372381448"><ele>706.6666666666666</ele><time>2026-04-26T10:05:32.102Z</time></trkpt><trkpt lat="42.51253313909079" lon="12.69477922219333"><ele>706.0</ele><time>2026-04-26T10:05:33.102Z</time></trkpt><trkpt lat="42.51245368602863" lon="12.694732192081549"><ele>705.3333333333333</ele><time>2026-04-26T10:05:35.102Z</time></trkpt><trkpt lat="42.51236185075775" lon="12.694695830007067"><ele>704.6666666666666</ele><time>2026-04-26T10:05:41.102Z</time></trkpt><trkpt lat="42.512295928813174" lon="12.694692549078535"><ele>704.0</ele><time>2026-04-26T10:06:06.103Z</time></trkpt><trkpt lat="42.51223260873641" lon="12.69465221716653"><ele>704.0</ele><time>2026-04-26T10:06:20.103Z</time></trkpt><trkpt lat="42.51215287903891" lon="12.69461745593094"><ele>704.0</ele><time>2026-04-26T10:06:22.103Z</time></trkpt><trkpt lat="42.51205090133025" lon="12.69458615430156"><ele>704.0</ele><time>2026-04-26T10:06:24.103Z</time></trkpt><trkpt lat="42.511983436273184" lon="12.694594312750208"><ele>704.0</ele><time>2026-04-26T10:06:25.103Z</time></trkpt><trkpt lat="42.511907869325555" lon="12.694589807652395"><ele>704.0</ele><time>2026-04-26T10:06:26.103Z</time></trkpt><trkpt lat="42.51183726083545" lon="12.694600700271234"><ele>704.0</ele><time>2026-04-26T10:06:27.103Z</time></trkpt><trkpt lat="42.5117272893438" lon="12.694627126293085"><ele>703.5</ele><time>2026-04-26T10:06:29.104Z</time></trkpt><trkpt lat="42.51162868007021" lon="12.694660175586343"><ele>703.0</ele><time>2026-04-26T10:06:31.104Z</time></trkpt><trkpt lat="42.51150780851107" lon="12.694679459769112"><ele>702.5</ele><time>2026-04-26T10:06:33.104Z</time></trkpt><trkpt lat="42.51140922247828" lon="12.69467189179535"><ele>702.0</ele><time>2026-04-26T10:06:35.104Z</time></trkpt><trkpt lat="42.511261338200605" lon="12.694503776668794"><ele>700.8</ele><time>2026-04-26T10:06:37.104Z</time></trkpt><trkpt lat="42.51122200783889" lon="12.694702147051926"><ele>699.6</ele><time>2026-04-26T10:06:38.104Z</time></trkpt><trkpt lat="42.511133517462426" lon="12.694774043407323"><ele>698.4</ele><time>2026-04-26T10:06:40.104Z</time></trkpt><trkpt lat="42.51106876333829" lon="12.694790407786002"><ele>697.1999999999999</ele><time>2026-04-26T10:06:41.104Z</time></trkpt><trkpt lat="42.51100381688443" lon="12.694806883141803"><ele>696.0</ele><time>2026-04-26T10:06:42.104Z</time></trkpt><trkpt lat="42.51088293813017" lon="12.694824571101174"><ele>696.0</ele><time>2026-04-26T10:06:44.104Z</time></trkpt><trkpt lat="42.510784343190046" lon="12.6948447257205"><ele>696.0</ele><time>2026-04-26T10:06:46.104Z</time></trkpt><trkpt lat="42.51072154459475" lon="12.69485164348446"><ele>696.0</ele><time>2026-04-26T10:06:47.104Z</time></trkpt><trkpt lat="42.51062981571696" lon="12.694862244219449"><ele>696.0</ele><time>2026-04-26T10:06:49.104Z</time></trkpt><trkpt lat="42.51053765481437" lon="12.694854750629021"><ele>696.0</ele><time>2026-04-26T10:06:51.104Z</time></trkpt><trkpt lat="42.51045292460097" lon="12.69486278299874"><ele>696.0</ele><time>2026-04-26T10:06:53.104Z</time></trkpt><trkpt lat="42.51037753285346" lon="12.69487227839329"><ele>695.1666666666666</ele><time>2026-04-26T10:07:14.105Z</time></trkpt><trkpt lat="42.51029093561201" lon="12.694850453052451"><ele>694.3333333333334</ele><time>2026-04-26T10:07:19.105Z</time></trkpt><trkpt lat="42.510203625821084" lon="12.69481532333692"><ele>693.5</ele><time>2026-04-26T10:07:21.105Z</time></trkpt><trkpt lat="42.510133947960824" lon="12.694773631174842"><ele>692.6666666666667</ele><time>2026-04-26T10:07:23.105Z</time></trkpt><trkpt lat="42.510038069517975" lon="12.694761367732381"><ele>691.8333333333334</ele><time>2026-04-26T10:07:26.105Z</time></trkpt><trkpt lat="42.50997678970296" lon="12.694732161945437"><ele>691.0</ele><time>2026-04-26T10:07:28.105Z</time></trkpt><trkpt lat="42.50989516168345" lon="12.694726127443928"><ele>691.0</ele><time>2026-04-26T10:07:31.105Z</time></trkpt><trkpt lat="42.50980828140594" lon="12.694706611469494"><ele>691.0</ele><time>2026-04-26T10:07:34.105Z</time></trkpt><trkpt lat="42.509729073627184" lon="12.694721809669154"><ele>691.0</ele><time>2026-04-26T10:07:37.105Z</time></trkpt><trkpt lat="42.509669303492565" lon="12.694688640211051"><ele>691.0</ele><time>2026-04-26T10:07:41.106Z</time></trkpt><trkpt lat="42.509567962473284" lon="12.694666938758962"><ele>691.0</ele><time>2026-04-26T10:07:44.106Z</time></trkpt><trkpt lat="42.509505399465425" lon="12.694656842141054"><ele>691.0</ele><time>2026-04-26T10:07:46.106Z</time></trkpt><trkpt lat="42.509427304868495" lon="12.694619361478159"><ele>691.1999999999999</ele><time>2026-04-26T10:07:48.106Z</time></trkpt><trkpt lat="42.50934607589167" lon="12.694584095078202"><ele>691.4</ele><time>2026-04-26T10:07:50.106Z</time></trkpt><trkpt lat="42.50928431301741" lon="12.694481069208177"><ele>691.6</ele><time>2026-04-26T10:07:52.106Z</time></trkpt><trkpt lat="42.50921906364887" lon="12.6943906340158"><ele>691.8</ele><time>2026-04-26T10:07:54.106Z</time></trkpt><trkpt lat="42.5091351277206" lon="12.694269240288023"><ele>692.0</ele><time>2026-04-26T10:07:56.106Z</time></trkpt><trkpt lat="42.509051646452164" lon="12.694190663886335"><ele>692.0</ele><time>2026-04-26T10:07:58.106Z</time></trkpt><trkpt lat="42.50900639063166" lon="12.694255381203934"><ele>692.0</ele><time>2026-04-26T10:08:24.107Z</time></trkpt><trkpt lat="42.50891696472769" lon="12.694364731502487"><ele>692.0</ele><time>2026-04-26T10:08:26.107Z</time></trkpt><trkpt lat="42.50886179907437" lon="12.694436582459467"><ele>692.0</ele><time>2026-04-26T10:08:27.107Z</time></trkpt><trkpt lat="42.508787692039135" lon="12.694521718688428"><ele>692.0</ele><time>2026-04-26T10:08:28.107Z</time></trkpt><trkpt lat="42.50870064819269" lon="12.694563046093542"><ele>693.0</ele><time>2026-04-26T10:08:29.107Z</time></trkpt><trkpt lat="42.5086348163058" lon="12.694621170750317"><ele>694.0</ele><time>2026-04-26T10:08:30.107Z</time></trkpt><trkpt lat="42.5085720464312" lon="12.694639016255474"><ele>695.0</ele><time>2026-04-26T10:08:31.107Z</time></trkpt><trkpt lat="42.50848904852887" lon="12.694638357124509"><ele>696.0</ele><time>2026-04-26T10:08:32.107Z</time></trkpt><trkpt lat="42.50839779089064" lon="12.694672327031242"><ele>697.0</ele><time>2026-04-26T10:08:33.107Z</time></trkpt><trkpt lat="42.50831345385045" lon="12.694719799427356"><ele>698.0</ele><time>2026-04-26T10:08:34.107Z</time></trkpt><trkpt lat="42.508245118769345" lon="12.694774851110294"><ele>698.0</ele><time>2026-04-26T10:08:35.107Z</time></trkpt><trkpt lat="42.508183879834235" lon="12.694826774741868"><ele>698.0</ele><time>2026-04-26T10:08:36.107Z</time></trkpt><trkpt lat="42.50811345119107" lon="12.69488885108364"><ele>698.0</ele><time>2026-04-26T10:08:37.107Z</time></trkpt><trkpt lat="42.50805031779324" lon="12.694946547202852"><ele>698.0</ele><time>2026-04-26T10:08:38.107Z</time></trkpt><trkpt lat="42.507974503351214" lon="12.695019805414507"><ele>698.0</ele><time>2026-04-26T10:08:39.107Z</time></trkpt><trkpt lat="42.50790059026516" lon="12.695105907002043"><ele>698.0</ele><time>2026-04-26T10:08:40.107Z</time></trkpt><trkpt lat="42.5078337836113" lon="12.69516766204546"><ele>699.5</ele><time>2026-04-26T10:08:41.107Z</time></trkpt><trkpt lat="42.50776686363182" lon="12.695204722114486"><ele>701.0</ele><time>2026-04-26T10:08:42.107Z</time></trkpt><trkpt lat="42.50770613342685" lon="12.695255085620037"><ele>702.5</ele><time>2026-04-26T10:08:43.107Z</time></trkpt><trkpt lat="42.50762783041082" lon="12.695331475408302"><ele>704.0</ele><time>2026-04-26T10:08:44.107Z</time></trkpt><trkpt lat="42.50759003787898" lon="12.695451636062945"><ele>705.5</ele><time>2026-04-26T10:08:45.107Z</time></trkpt><trkpt lat="42.5075416884608" lon="12.695539659118179"><ele>707.0</ele><time>2026-04-26T10:08:46.107Z</time></trkpt><trkpt lat="42.50747180624907" lon="12.695623996317714"><ele>707.0</ele><time>2026-04-26T10:08:47.107Z</time></trkpt><trkpt lat="42.507395646834475" lon="12.695706511384705"><ele>707.0</ele><time>2026-04-26T10:08:48.107Z</time></trkpt><trkpt lat="42.50732709067529" lon="12.69576583010792"><ele>707.0</ele><time>2026-04-26T10:08:49.107Z</time></trkpt><trkpt lat="42.50727337006201" lon="12.695813909582716"><ele>707.0</ele><time>2026-04-26T10:08:50.107Z</time></trkpt><trkpt lat="42.50720037989788" lon="12.695866881195299"><ele>707.0</ele><time>2026-04-26T10:08:51.107Z</time></trkpt><trkpt lat="42.5071247079496" lon="12.695898184388076"><ele>707.0</ele><time>2026-04-26T10:08:52.107Z</time></trkpt><trkpt lat="42.50700144169217" lon="12.695908198876852"><ele>708.8</ele><time>2026-04-26T10:08:53.107Z</time></trkpt><trkpt lat="42.50688674268435" lon="12.695939028967503"><ele>710.6</ele><time>2026-04-26T10:08:54.107Z</time></trkpt><trkpt lat="42.50680790717657" lon="12.695965794321726"><ele>712.4</ele><time>2026-04-26T10:08:55.108Z</time></trkpt><trkpt lat="42.506696479033614" lon="12.695973989470675"><ele>714.1999999999999</ele><time>2026-04-26T10:08:56.108Z</time></trkpt><trkpt lat="42.50659525134413" lon="12.695998506582104"><ele>716.0</ele><time>2026-04-26T10:08:57.108Z</time></trkpt><trkpt lat="42.50648984792276" lon="12.696012480037759"><ele>716.0</ele><time>2026-04-26T10:08:58.108Z</time></trkpt><trkpt lat="42.50640060895881" lon="12.695998598203206"><ele>716.0</ele><time>2026-04-26T10:08:59.108Z</time></trkpt><trkpt lat="42.506316980192786" lon="12.695986334532803"><ele>716.0</ele><time>2026-04-26T10:09:00.108Z</time></trkpt><trkpt lat="42.50623274895924" lon="12.695962168601332"><ele>716.0</ele><time>2026-04-26T10:09:01.108Z</time></trkpt><trkpt lat="42.50612050257164" lon="12.69592705120585"><ele>716.0</ele><time>2026-04-26T10:09:02.108Z</time></trkpt><trkpt lat="42.50604829899479" lon="12.695915869384363"><ele>716.0</ele><time>2026-04-26T10:09:03.108Z</time></trkpt><trkpt lat="42.50593944782968" lon="12.695955573683298"><ele>716.8</ele><time>2026-04-26T10:09:04.108Z</time></trkpt><trkpt lat="42.50582339766366" lon="12.69595485401073"><ele>717.5999999999999</ele><time>2026-04-26T10:09:05.108Z</time></trkpt><trkpt lat="42.50572937335646" lon="12.695942379153747"><ele>718.4</ele><time>2026-04-26T10:09:06.108Z</time></trkpt><trkpt lat="42.505644910760836" lon="12.695885410654023"><ele>719.2</ele><time>2026-04-26T10:09:07.108Z</time></trkpt><trkpt lat="42.50557858129192" lon="12.695817865656164"><ele>720.0</ele><time>2026-04-26T10:09:08.108Z</time></trkpt><trkpt lat="42.50551372337139" lon="12.695770050437341"><ele>720.0</ele><time>2026-04-26T10:09:09.108Z</time></trkpt><trkpt lat="42.505442409602225" lon="12.695750512336325"><ele>720.0</ele><time>2026-04-26T10:09:10.108Z</time></trkpt><trkpt lat="42.50535373745935" lon="12.695754908589388"><ele>720.0</ele><time>2026-04-26T10:09:11.108Z</time></trkpt><trkpt lat="42.50524957917392" lon="12.695765183893004"><ele>720.0</ele><time>2026-04-26T10:09:12.108Z</time></trkpt><trkpt lat="42.505144359702264" lon="12.695753977823554"><ele>720.0</ele><time>2026-04-26T10:09:13.108Z</time></trkpt><trkpt lat="42.50504968565382" lon="12.695746958741458"><ele>721.8</ele><time>2026-04-26T10:09:14.108Z</time></trkpt><trkpt lat="42.50495507503486" lon="12.69572323938774"><ele>723.6</ele><time>2026-04-26T10:09:15.108Z</time></trkpt><trkpt lat="42.504853843451166" lon="12.695664882098251"><ele>725.4000000000001</ele><time>2026-04-26T10:09:16.108Z</time></trkpt><trkpt lat="42.5047678168692" lon="12.69563371844714"><ele>727.2</ele><time>2026-04-26T10:09:17.108Z</time></trkpt><trkpt lat="42.50467987283062" lon="12.695587085757701"><ele>729.0</ele><time>2026-04-26T10:09:18.108Z</time></trkpt><trkpt lat="42.504597676645716" lon="12.695528285071301"><ele>730.0</ele><time>2026-04-26T10:09:19.108Z</time></trkpt><trkpt lat="42.504517744098166" lon="12.695484408910394"><ele>731.0</ele><time>2026-04-26T10:09:20.108Z</time></trkpt><trkpt lat="42.50441644270122" lon="12.695472276013055"><ele>732.0</ele><time>2026-04-26T10:09:21.108Z</time></trkpt><trkpt lat="42.5043106463118" lon="12.695455795966174"><ele>733.0</ele><time>2026-04-26T10:09:22.108Z</time></trkpt><trkpt lat="42.50418785565117" lon="12.695432830930958"><ele>734.0</ele><time>2026-04-26T10:09:23.108Z</time></trkpt><trkpt lat="42.50409008182183" lon="12.695384041069161"><ele>734.0</ele><time>2026-04-26T10:09:24.108Z</time></trkpt><trkpt lat="42.50400586874301" lon="12.695329955501585"><ele>734.0</ele><time>2026-04-26T10:09:25.108Z</time></trkpt><trkpt lat="42.50393718111262" lon="12.695263826744473"><ele>734.0</ele><time>2026-04-26T10:09:26.108Z</time></trkpt><trkpt lat="42.50387566796635" lon="12.695238893327861"><ele>734.0</ele><time>2026-04-26T10:09:28.108Z</time></trkpt><trkpt lat="42.503768673522046" lon="12.695322914589966"><ele>734.0</ele><time>2026-04-26T10:09:30.109Z</time></trkpt><trkpt lat="42.50371416301371" lon="12.695396447686807"><ele>734.0</ele><time>2026-04-26T10:09:31.109Z</time></trkpt><trkpt lat="42.503638101676515" lon="12.695479367907716"><ele>735.4000000000001</ele><time>2026-04-26T10:09:32.109Z</time></trkpt><trkpt lat="42.50353259040476" lon="12.695545645042447"><ele>736.8</ele><time>2026-04-26T10:09:33.109Z</time></trkpt><trkpt lat="42.50343148316916" lon="12.695629591894052"><ele>738.2</ele><time>2026-04-26T10:09:34.109Z</time></trkpt><trkpt lat="42.503332285182054" lon="12.695694572920512"><ele>739.5999999999999</ele><time>2026-04-26T10:09:35.109Z</time></trkpt><trkpt lat="42.503244307745604" lon="12.69570908406962"><ele>741.0</ele><time>2026-04-26T10:09:36.109Z</time></trkpt><trkpt lat="42.5031343001041" lon="12.695707843015489"><ele>741.0</ele><time>2026-04-26T10:09:37.109Z</time></trkpt><trkpt lat="42.503058099644115" lon="12.695711569478377"><ele>741.0</ele><time>2026-04-26T10:09:38.109Z</time></trkpt><trkpt lat="42.5029917731646" lon="12.69575547252034"><ele>741.0</ele><time>2026-04-26T10:09:39.109Z</time></trkpt><trkpt lat="42.50291162895389" lon="12.69580434460518"><ele>741.0</ele><time>2026-04-26T10:09:40.109Z</time></trkpt><trkpt lat="42.502828745878304" lon="12.695840256126234"><ele>741.0</ele><time>2026-04-26T10:09:41.109Z</time></trkpt><trkpt lat="42.502750053727674" lon="12.695898733446974"><ele>741.0</ele><time>2026-04-26T10:09:42.109Z</time></trkpt><trkpt lat="42.502696218649284" lon="12.695949985086772"><ele>743.1999999999999</ele><time>2026-04-26T10:09:43.109Z</time></trkpt><trkpt lat="42.5026390377724" lon="12.696026481673128"><ele>745.4</ele><time>2026-04-26T10:09:44.109Z</time></trkpt><trkpt lat="42.50258450668757" lon="12.696119891282686"><ele>747.6</ele><time>2026-04-26T10:09:45.109Z</time></trkpt><trkpt lat="42.50252401918027" lon="12.696184156042786"><ele>749.8</ele><time>2026-04-26T10:09:46.109Z</time></trkpt><trkpt lat="42.502434979650744" lon="12.696201345073066"><ele>752.0</ele><time>2026-04-26T10:09:47.109Z</time></trkpt><trkpt lat="42.50231997263758" lon="12.69623436362305"><ele>753.2</ele><time>2026-04-26T10:09:48.109Z</time></trkpt><trkpt lat="42.50220450005979" lon="12.696298555556085"><ele>754.4000000000001</ele><time>2026-04-26T10:09:49.109Z</time></trkpt><trkpt lat="42.502092528722414" lon="12.696341144436103"><ele>755.5999999999999</ele><time>2026-04-26T10:09:50.109Z</time></trkpt><trkpt lat="42.50200866379066" lon="12.696385803046589"><ele>756.8</ele><time>2026-04-26T10:09:51.109Z</time></trkpt><trkpt lat="42.50193442173052" lon="12.696418506494457"><ele>758.0</ele><time>2026-04-26T10:09:52.109Z</time></trkpt><trkpt lat="42.50186166847849" lon="12.696440582414919"><ele>759.0</ele><time>2026-04-26T10:09:54.109Z</time></trkpt><trkpt lat="42.50183747960187" lon="12.696339830818781"><ele>760.0</ele><time>2026-04-26T10:09:57.109Z</time></trkpt><trkpt lat="42.501850760543505" lon="12.696247242581439"><ele>761.0</ele><time>2026-04-26T10:09:58.109Z</time></trkpt><trkpt lat="42.50186403573966" lon="12.696163037773752"><ele>762.0</ele><time>2026-04-26T10:09:59.109Z</time></trkpt><trkpt lat="42.50184404952727" lon="12.69600513551062"><ele>763.0</ele><time>2026-04-26T10:10:01.109Z</time></trkpt><trkpt lat="42.501848047915786" lon="12.69590023693378"><ele>764.0</ele><time>2026-04-26T10:10:02.109Z</time></trkpt><trkpt lat="42.501873582723206" lon="12.69579751549437"><ele>766.0</ele><time>2026-04-26T10:10:03.109Z</time></trkpt><trkpt lat="42.50191357780954" lon="12.695707437776573"><ele>768.0</ele><time>2026-04-26T10:10:04.109Z</time></trkpt><trkpt lat="42.50196773624128" lon="12.695646159024085"><ele>770.0</ele><time>2026-04-26T10:10:05.11Z</time></trkpt><trkpt lat="42.50204628744837" lon="12.695608230199863"><ele>772.0</ele><time>2026-04-26T10:10:06.11Z</time></trkpt><trkpt lat="42.50213037374819" lon="12.695584189256598"><ele>774.0000000000001</ele><time>2026-04-26T10:10:07.11Z</time></trkpt><trkpt lat="42.502208555895066" lon="12.695546243208115"><ele>776.0</ele><time>2026-04-26T10:10:08.11Z</time></trkpt><trkpt lat="42.50226053789866" lon="12.69549221881897"><ele>775.4</ele><time>2026-04-26T10:10:09.109Z</time></trkpt><trkpt lat="42.502294078828335" lon="12.695398498032148"><ele>774.8</ele><time>2026-04-26T10:10:10.109Z</time></trkpt><trkpt lat="42.502347274722226" lon="12.695288887348523"><ele>774.1999999999999</ele><time>2026-04-26T10:10:11.109Z</time></trkpt><trkpt lat="42.50241283164499" lon="12.695190376775932"><ele>773.5999999999999</ele><time>2026-04-26T10:10:12.109Z</time></trkpt><trkpt lat="42.502466853972905" lon="12.695121259091223"><ele>773.0</ele><time>2026-04-26T10:10:13.109Z</time></trkpt><trkpt lat="42.50256471300336" lon="12.694997718459037"><ele>773.0</ele><time>2026-04-26T10:10:15.109Z</time></trkpt><trkpt lat="42.50261904185221" lon="12.694927948390104"><ele>773.0</ele><time>2026-04-26T10:10:16.109Z</time></trkpt><trkpt lat="42.502672140288844" lon="12.694846094291185"><ele>773.0</ele><time>2026-04-26T10:10:17.109Z</time></trkpt><trkpt lat="42.502732357813464" lon="12.694749122925963"><ele>773.0</ele><time>2026-04-26T10:10:18.109Z</time></trkpt><trkpt lat="42.502781205205544" lon="12.694647245274101"><ele>773.0</ele><time>2026-04-26T10:10:19.109Z</time></trkpt><trkpt lat="42.50285293938423" lon="12.694522223576056"><ele>773.0</ele><time>2026-04-26T10:10:20.109Z</time></trkpt><trkpt lat="42.502928767842114" lon="12.694401982458842"><ele>773.0</ele><time>2026-04-26T10:10:21.109Z</time></trkpt><trkpt lat="42.50300168055307" lon="12.69430097152938"><ele>773.0</ele><time>2026-04-26T10:10:22.109Z</time></trkpt><trkpt lat="42.50306101262339" lon="12.694217146734912"><ele>773.0</ele><time>2026-04-26T10:10:23.109Z</time></trkpt><trkpt lat="42.50311749393468" lon="12.694134018294362"><ele>773.0</ele><time>2026-04-26T10:10:24.109Z</time></trkpt><trkpt lat="42.5031730807374" lon="12.694041949803575"><ele>773.0</ele><time>2026-04-26T10:10:25.109Z</time></trkpt><trkpt lat="42.50322556704291" lon="12.693896913373157"><ele>773.0</ele><time>2026-04-26T10:10:26.109Z</time></trkpt><trkpt lat="42.503270836720105" lon="12.693760990866481"><ele>773.0</ele><time>2026-04-26T10:10:27.109Z</time></trkpt><trkpt lat="42.50332282167204" lon="12.69361234878587"><ele>773.0</ele><time>2026-04-26T10:10:28.109Z</time></trkpt><trkpt lat="42.50336597761433" lon="12.693480279425236"><ele>776.4</ele><time>2026-04-26T10:10:29.109Z</time></trkpt><trkpt lat="42.50341085249793" lon="12.69334817723028"><ele>779.8</ele><time>2026-04-26T10:10:30.109Z</time></trkpt><trkpt lat="42.50344225850736" lon="12.693208283247955"><ele>783.2</ele><time>2026-04-26T10:10:31.11Z</time></trkpt><trkpt lat="42.50345909273327" lon="12.693056445630988"><ele>786.6</ele><time>2026-04-26T10:10:32.11Z</time></trkpt><trkpt lat="42.50350233204544" lon="12.692936211698814"><ele>790.0</ele><time>2026-04-26T10:10:33.11Z</time></trkpt><trkpt lat="42.50354190352202" lon="12.692835990946335"><ele>790.1666666666666</ele><time>2026-04-26T10:10:34.11Z</time></trkpt><trkpt lat="42.50357588622922" lon="12.692738210671424"><ele>790.3333333333333</ele><time>2026-04-26T10:10:35.11Z</time></trkpt><trkpt lat="42.50361129036384" lon="12.692663121501878"><ele>790.5</ele><time>2026-04-26T10:10:36.11Z</time></trkpt><trkpt lat="42.50366699298097" lon="12.692534908717931"><ele>790.6666666666667</ele><time>2026-04-26T10:10:38.11Z</time></trkpt><trkpt lat="42.50365519579362" lon="12.692436582798381"><ele>790.8333333333334</ele><time>2026-04-26T10:10:39.11Z</time></trkpt><trkpt lat="42.50361145335245" lon="12.692329451831792"><ele>791.0</ele><time>2026-04-26T10:10:40.11Z</time></trkpt><trkpt lat="42.50356683463137" lon="12.692257193602392"><ele>791.0000000000001</ele><time>2026-04-26T10:10:41.11Z</time></trkpt><trkpt lat="42.50351551254855" lon="12.692178654513132"><ele>791.0</ele><time>2026-04-26T10:10:42.11Z</time></trkpt><trkpt lat="42.503460129739494" lon="12.692095541965188"><ele>791.0</ele><time>2026-04-26T10:10:43.11Z</time></trkpt><trkpt lat="42.503384409422715" lon="12.692005357528638"><ele>791.0</ele><time>2026-04-26T10:10:44.11Z</time></trkpt><trkpt lat="42.50330940818837" lon="12.691928917771248"><ele>791.0000000000001</ele><time>2026-04-26T10:10:45.11Z</time></trkpt><trkpt lat="42.50323457920604" lon="12.69185559122081"><ele>791.0</ele><time>2026-04-26T10:10:46.11Z</time></trkpt><trkpt lat="42.50316797835629" lon="12.691795967324992"><ele>793.0</ele><time>2026-04-26T10:10:47.11Z</time></trkpt><trkpt lat="42.503096302655564" lon="12.691726680445873"><ele>795.0</ele><time>2026-04-26T10:10:48.11Z</time></trkpt><trkpt lat="42.5029648485271" lon="12.691654486597175"><ele>797.0</ele><time>2026-04-26T10:10:50.11Z</time></trkpt><trkpt lat="42.502871075585496" lon="12.691643391895022"><ele>799.0</ele><time>2026-04-26T10:10:51.11Z</time></trkpt><trkpt lat="42.502796363455204" lon="12.691618185608753"><ele>801.0</ele><time>2026-04-26T10:10:52.11Z</time></trkpt><trkpt lat="42.502702835543225" lon="12.69161059148333"><ele>801.0</ele><time>2026-04-26T10:10:53.11Z</time></trkpt><trkpt lat="42.502610458161875" lon="12.691595302953681"><ele>801.0</ele><time>2026-04-26T10:10:54.11Z</time></trkpt><trkpt lat="42.5025255824807" lon="12.691587771790989"><ele>801.0</ele><time>2026-04-26T10:10:55.11Z</time></trkpt><trkpt lat="42.50243910513779" lon="12.691579921263045"><ele>801.0</ele><time>2026-04-26T10:10:56.11Z</time></trkpt><trkpt lat="42.502353237047465" lon="12.691570589770688"><ele>801.0</ele><time>2026-04-26T10:10:57.11Z</time></trkpt><trkpt lat="42.5022708058039" lon="12.691553920018526"><ele>801.0</ele><time>2026-04-26T10:10:58.11Z</time></trkpt><trkpt lat="42.502203206345825" lon="12.691550236596104"><ele>801.0</ele><time>2026-04-26T10:10:59.11Z</time></trkpt><trkpt lat="42.50213594684141" lon="12.691545490006593"><ele>801.0</ele><time>2026-04-26T10:11:00.11Z</time></trkpt><trkpt lat="42.50203807156533" lon="12.691463809033452"><ele>801.0</ele><time>2026-04-26T10:11:02.11Z</time></trkpt><trkpt lat="42.50198938099047" lon="12.69136203510832"><ele>801.0</ele><time>2026-04-26T10:11:03.11Z</time></trkpt><trkpt lat="42.50195766084061" lon="12.691245968932542"><ele>801.0</ele><time>2026-04-26T10:11:04.11Z</time></trkpt><trkpt lat="42.50192166925488" lon="12.691136943820737"><ele>802.3333333333334</ele><time>2026-04-26T10:11:05.11Z</time></trkpt><trkpt lat="42.50185535139328" lon="12.691038729573497"><ele>803.6666666666667</ele><time>2026-04-26T10:11:06.111Z</time></trkpt><trkpt lat="42.501798622476684" lon="12.690927454827523"><ele>805.0</ele><time>2026-04-26T10:11:07.111Z</time></trkpt><trkpt lat="42.50173829348841" lon="12.690843656736524"><ele>806.3333333333334</ele><time>2026-04-26T10:11:08.111Z</time></trkpt><trkpt lat="42.50167626665315" lon="12.690784516100623"><ele>807.6666666666667</ele><time>2026-04-26T10:11:09.111Z</time></trkpt><trkpt lat="42.50161671875901" lon="12.690726388547208"><ele>809.0</ele><time>2026-04-26T10:11:10.111Z</time></trkpt><trkpt lat="42.50152631489485" lon="12.690642094703149"><ele>809.0</ele><time>2026-04-26T10:11:12.111Z</time></trkpt><trkpt lat="42.50147000543783" lon="12.6905262749781"><ele>809.0</ele><time>2026-04-26T10:11:14.111Z</time></trkpt><trkpt lat="42.501390959764414" lon="12.690391233103618"><ele>809.0</ele><time>2026-04-26T10:11:16.111Z</time></trkpt><trkpt lat="42.50134998034729" lon="12.690325161357766"><ele>809.0</ele><time>2026-04-26T10:11:17.111Z</time></trkpt><trkpt lat="42.50126878491718" lon="12.69020272944307"><ele>809.0</ele><time>2026-04-26T10:11:19.111Z</time></trkpt><trkpt lat="42.50118548459667" lon="12.690063203514475"><ele>809.6666666666667</ele><time>2026-04-26T10:11:21.111Z</time></trkpt><trkpt lat="42.50114321189088" lon="12.689977901041443"><ele>810.3333333333334</ele><time>2026-04-26T10:11:22.111Z</time></trkpt><trkpt lat="42.501076850101995" lon="12.689835360079813"><ele>811.0</ele><time>2026-04-26T10:11:24.111Z</time></trkpt><trkpt lat="42.501037978639" lon="12.689757181294926"><ele>811.6666666666667</ele><time>2026-04-26T10:11:25.111Z</time></trkpt><trkpt lat="42.50099782741996" lon="12.689665089907697"><ele>812.3333333333334</ele><time>2026-04-26T10:11:26.111Z</time></trkpt><trkpt lat="42.50095790007858" lon="12.68958155204026"><ele>813.0</ele><time>2026-04-26T10:11:27.111Z</time></trkpt><trkpt lat="42.50092059328611" lon="12.689484780685188"><ele>809.1666666666666</ele><time>2026-04-26T10:11:28.111Z</time></trkpt><trkpt lat="42.50085195281088" lon="12.689367209094"><ele>805.3333333333333</ele><time>2026-04-26T10:11:30.111Z</time></trkpt><trkpt lat="42.50081368104908" lon="12.689294981158701"><ele>801.5</ele><time>2026-04-26T10:11:31.111Z</time></trkpt><trkpt lat="42.500763048395264" lon="12.689223810243151"><ele>797.6666666666666</ele><time>2026-04-26T10:11:32.111Z</time></trkpt><trkpt lat="42.50067749868961" lon="12.689172553629936"><ele>793.8333333333333</ele><time>2026-04-26T10:11:34.111Z</time></trkpt><trkpt lat="42.500603226453656" lon="12.689169655909183"><ele>790.0</ele><time>2026-04-26T10:11:35.111Z</time></trkpt><trkpt lat="42.50052784935116" lon="12.689176251954384"><ele>789.9999999999999</ele><time>2026-04-26T10:11:36.111Z</time></trkpt><trkpt lat="42.50041900031373" lon="12.689234432587332"><ele>790.0</ele><time>2026-04-26T10:11:38.111Z</time></trkpt><trkpt lat="42.50035343692424" lon="12.689268483794608"><ele>790.0</ele><time>2026-04-26T10:11:39.111Z</time></trkpt><trkpt lat="42.5002947946409" lon="12.689302501087967"><ele>790.0</ele><time>2026-04-26T10:11:40.111Z</time></trkpt><trkpt lat="42.500228012306046" lon="12.689335308842768"><ele>789.9999999999999</ele><time>2026-04-26T10:11:41.111Z</time></trkpt><trkpt lat="42.50012633061108" lon="12.68937945944799"><ele>790.0</ele><time>2026-04-26T10:11:42.112Z</time></trkpt><trkpt lat="42.500023866197495" lon="12.689428781443945"><ele>796.2</ele><time>2026-04-26T10:11:43.112Z</time></trkpt><trkpt lat="42.499916352575156" lon="12.68948047294605"><ele>802.4</ele><time>2026-04-26T10:11:44.112Z</time></trkpt><trkpt lat="42.499804192889606" lon="12.689535726991885"><ele>808.5999999999999</ele><time>2026-04-26T10:11:45.112Z</time></trkpt><trkpt lat="42.49970739917213" lon="12.689591449945953"><ele>814.8</ele><time>2026-04-26T10:11:46.112Z</time></trkpt><trkpt lat="42.49960447001405" lon="12.689644475178907"><ele>821.0</ele><time>2026-04-26T10:11:47.112Z</time></trkpt><trkpt lat="42.499519870885244" lon="12.689662274289706"><ele>822.0</ele><time>2026-04-26T10:11:48.112Z</time></trkpt><trkpt lat="42.49943270585143" lon="12.689693663650212"><ele>823.0</ele><time>2026-04-26T10:11:49.112Z</time></trkpt><trkpt lat="42.49930307160659" lon="12.689698256734932"><ele>824.0</ele><time>2026-04-26T10:11:51.112Z</time></trkpt><trkpt lat="42.49921605779165" lon="12.689732678354344"><ele>825.0</ele><time>2026-04-26T10:11:52.112Z</time></trkpt><trkpt lat="42.49912392998751" lon="12.6897713562397"><ele>826.0</ele><time>2026-04-26T10:11:53.112Z</time></trkpt><trkpt lat="42.49902551244883" lon="12.689813674283501"><ele>825.9999999999999</ele><time>2026-04-26T10:11:54.112Z</time></trkpt><trkpt lat="42.49892604917402" lon="12.689821010008728"><ele>826.0</ele><time>2026-04-26T10:11:55.112Z</time></trkpt><trkpt lat="42.49883414648129" lon="12.689844291202666"><ele>826.0</ele><time>2026-04-26T10:11:56.112Z</time></trkpt><trkpt lat="42.49874235658576" lon="12.689874810914809"><ele>826.0</ele><time>2026-04-26T10:11:57.112Z</time></trkpt><trkpt lat="42.49867408708838" lon="12.68990199489046"><ele>825.9999999999999</ele><time>2026-04-26T10:11:58.112Z</time></trkpt><trkpt lat="42.49860314100683" lon="12.689944550483403"><ele>826.0</ele><time>2026-04-26T10:11:59.112Z</time></trkpt><trkpt lat="42.498541279906696" lon="12.690002798339608"><ele>826.8</ele><time>2026-04-26T10:12:00.112Z</time></trkpt><trkpt lat="42.498457876547626" lon="12.690075391301438"><ele>827.5999999999999</ele><time>2026-04-26T10:12:01.112Z</time></trkpt><trkpt lat="42.49835586636091" lon="12.69014103409089"><ele>828.4</ele><time>2026-04-26T10:12:02.112Z</time></trkpt><trkpt lat="42.49826271713681" lon="12.690199713730578"><ele>829.2</ele><time>2026-04-26T10:12:03.112Z</time></trkpt><trkpt lat="42.49816980850656" lon="12.690252309447366"><ele>830.0</ele><time>2026-04-26T10:12:04.112Z</time></trkpt><trkpt lat="42.49806976395239" lon="12.690314003505936"><ele>832.3333333333334</ele><time>2026-04-26T10:12:06.112Z</time></trkpt><trkpt lat="42.49801053398623" lon="12.690360160667362"><ele>834.6666666666667</ele><time>2026-04-26T10:12:07.112Z</time></trkpt><trkpt lat="42.497939797168485" lon="12.690404808767168"><ele>837.0</ele><time>2026-04-26T10:12:08.112Z</time></trkpt><trkpt lat="42.49788302386066" lon="12.690488093087838"><ele>839.3333333333333</ele><time>2026-04-26T10:12:09.112Z</time></trkpt><trkpt lat="42.49782823883562" lon="12.69060032146871"><ele>841.6666666666666</ele><time>2026-04-26T10:12:10.112Z</time></trkpt><trkpt lat="42.49779365460925" lon="12.69067909429607"><ele>844.0</ele><time>2026-04-26T10:12:11.112Z</time></trkpt><trkpt lat="42.49770817750647" lon="12.690650501029745"><ele>844.0</ele><time>2026-04-26T10:12:15.113Z</time></trkpt><trkpt lat="42.49760028650689" lon="12.690580483135035"><ele>844.0</ele><time>2026-04-26T10:12:17.113Z</time></trkpt><trkpt lat="42.4975320141273" lon="12.690583708227702"><ele>844.0</ele><time>2026-04-26T10:12:18.113Z</time></trkpt><trkpt lat="42.49742016565782" lon="12.690583788353473"><ele>844.0</ele><time>2026-04-26T10:12:20.113Z</time></trkpt><trkpt lat="42.49734213658723" lon="12.690604544220568"><ele>844.0</ele><time>2026-04-26T10:12:22.113Z</time></trkpt><trkpt lat="42.49723611010749" lon="12.690638625962414"><ele>843.9999999999999</ele><time>2026-04-26T10:12:24.113Z</time></trkpt><trkpt lat="42.497166275246805" lon="12.690770485544114"><ele>844.0</ele><time>2026-04-26T10:12:26.114Z</time></trkpt><trkpt lat="42.497143879028755" lon="12.690868490232463"><ele>844.0</ele><time>2026-04-26T10:12:27.114Z</time></trkpt><trkpt lat="42.49713674365204" lon="12.690963460540395"><ele>844.0</ele><time>2026-04-26T10:12:28.113Z</time></trkpt><trkpt lat="42.49713722305624" lon="12.691078788759677"><ele>843.9999999999999</ele><time>2026-04-26T10:12:29.113Z</time></trkpt><trkpt lat="42.49711364733288" lon="12.691179928209316"><ele>844.0</ele><time>2026-04-26T10:12:30.113Z</time></trkpt><trkpt lat="42.49709847114329" lon="12.69127295233652"><ele>842.6</ele><time>2026-04-26T10:12:31.113Z</time></trkpt><trkpt lat="42.49705790976254" lon="12.69135015196737"><ele>841.2</ele><time>2026-04-26T10:12:32.113Z</time></trkpt><trkpt lat="42.49700534796999" lon="12.691437008527975"><ele>839.8000000000001</ele><time>2026-04-26T10:12:33.113Z</time></trkpt><trkpt lat="42.496938853526196" lon="12.691530624905823"><ele>838.4000000000001</ele><time>2026-04-26T10:12:35.113Z</time></trkpt><trkpt lat="42.49683809509686" lon="12.691591516826783"><ele>837.0</ele><time>2026-04-26T10:12:37.113Z</time></trkpt><trkpt lat="42.496748729273015" lon="12.691700613347255"><ele>837.0</ele><time>2026-04-26T10:12:39.113Z</time></trkpt><trkpt lat="42.496728783325764" lon="12.691795449253796"><ele>837.0</ele><time>2026-04-26T10:12:40.113Z</time></trkpt><trkpt lat="42.496682198073394" lon="12.691900274839785"><ele>837.0</ele><time>2026-04-26T10:12:42.113Z</time></trkpt><trkpt lat="42.496636256577084" lon="12.691984166676937"><ele>837.0</ele><time>2026-04-26T10:13:41.115Z</time></trkpt><trkpt lat="42.49657520201883" lon="12.692046642357177"><ele>837.0</ele><time>2026-04-26T10:13:43.115Z</time></trkpt><trkpt lat="42.49650929542692" lon="12.69208992560195"><ele>837.0</ele><time>2026-04-26T10:13:44.115Z</time></trkpt><trkpt lat="42.49640868023698" lon="12.692158422501079"><ele>837.75</ele><time>2026-04-26T10:13:46.115Z</time></trkpt><trkpt lat="42.49630662494846" lon="12.69218733218046"><ele>838.5</ele><time>2026-04-26T10:13:48.115Z</time></trkpt><trkpt lat="42.49618889061052" lon="12.692107973837354"><ele>839.25</ele><time>2026-04-26T10:13:50.115Z</time></trkpt><trkpt lat="42.4961333140825" lon="12.692047724749738"><ele>840.0</ele><time>2026-04-26T10:13:51.115Z</time></trkpt><trkpt lat="42.49599405411522" lon="12.691988106476156"><ele>838.8333333333334</ele><time>2026-04-26T10:13:53.115Z</time></trkpt><trkpt lat="42.495936977276756" lon="12.691948603105836"><ele>837.6666666666667</ele><time>2026-04-26T10:13:54.115Z</time></trkpt><trkpt lat="42.495875859287835" lon="12.691922307319658"><ele>836.5</ele><time>2026-04-26T10:13:55.115Z</time></trkpt><trkpt lat="42.4957934992349" lon="12.691870487087845"><ele>835.3333333333334</ele><time>2026-04-26T10:13:57.115Z</time></trkpt><trkpt lat="42.495691700192175" lon="12.691831230866871"><ele>834.1666666666667</ele><time>2026-04-26T10:13:59.115Z</time></trkpt><trkpt lat="42.49558929690812" lon="12.6918299819462"><ele>833.0</ele><time>2026-04-26T10:14:01.115Z</time></trkpt><trkpt lat="42.49550969907327" lon="12.69181522815243"><ele>832.4</ele><time>2026-04-26T10:14:03.115Z</time></trkpt><trkpt lat="42.49543632749686" lon="12.691756741084427"><ele>831.8</ele><time>2026-04-26T10:14:05.116Z</time></trkpt><trkpt lat="42.49533195710052" lon="12.691739306062015"><ele>831.2</ele><time>2026-04-26T10:14:07.116Z</time></trkpt><trkpt lat="42.49526080603099" lon="12.691740879841541"><ele>830.6</ele><time>2026-04-26T10:14:08.116Z</time></trkpt><trkpt lat="42.495140130308016" lon="12.691739763944277"><ele>830.0</ele><time>2026-04-26T10:14:10.116Z</time></trkpt><trkpt lat="42.495063001542576" lon="12.691719321830144"><ele>828.5000000000001</ele><time>2026-04-26T10:14:11.116Z</time></trkpt><trkpt lat="42.4949888298283" lon="12.691703342201448"><ele>827.0</ele><time>2026-04-26T10:14:12.116Z</time></trkpt><trkpt lat="42.49489440656844" lon="12.691686497236272"><ele>825.5</ele><time>2026-04-26T10:14:13.116Z</time></trkpt><trkpt lat="42.494805515049926" lon="12.691672034507341"><ele>824.0</ele><time>2026-04-26T10:14:14.116Z</time></trkpt><trkpt lat="42.49472388875176" lon="12.691647610356805"><ele>822.5000000000001</ele><time>2026-04-26T10:14:15.116Z</time></trkpt><trkpt lat="42.49462888264828" lon="12.691602065939653"><ele>821.0</ele><time>2026-04-26T10:14:16.116Z</time></trkpt><trkpt lat="42.49453780617829" lon="12.691577566091077"><ele>821.0000000000001</ele><time>2026-04-26T10:14:17.116Z</time></trkpt><trkpt lat="42.49446805741933" lon="12.691555683895974"><ele>821.0</ele><time>2026-04-26T10:14:18.116Z</time></trkpt><trkpt lat="42.49438737489146" lon="12.691550898961427"><ele>821.0</ele><time>2026-04-26T10:14:19.116Z</time></trkpt><trkpt lat="42.49430177800165" lon="12.691581771730359"><ele>821.0</ele><time>2026-04-26T10:14:20.116Z</time></trkpt><trkpt lat="42.49421183170971" lon="12.691605219585863"><ele>821.0000000000001</ele><time>2026-04-26T10:14:21.117Z</time></trkpt><trkpt lat="42.49412051486786" lon="12.691613062013639"><ele>821.0</ele><time>2026-04-26T10:14:22.116Z</time></trkpt><trkpt lat="42.49402908962341" lon="12.691596795426474"><ele>821.0000000000001</ele><time>2026-04-26T10:14:23.116Z</time></trkpt><trkpt lat="42.49394342526363" lon="12.691605898613238"><ele>821.0</ele><time>2026-04-26T10:14:24.117Z</time></trkpt><trkpt lat="42.49386135034403" lon="12.691607531127987"><ele>821.0</ele><time>2026-04-26T10:14:25.117Z</time></trkpt><trkpt lat="42.49379348871094" lon="12.691597709108262"><ele>821.0</ele><time>2026-04-26T10:14:26.117Z</time></trkpt><trkpt lat="42.493704847701686" lon="12.691602824828927"><ele>821.0000000000001</ele><time>2026-04-26T10:14:28.117Z</time></trkpt><trkpt lat="42.49364590386089" lon="12.691641388597391"><ele>821.0</ele><time>2026-04-26T10:14:30.117Z</time></trkpt><trkpt lat="42.49360167369151" lon="12.691707502410663"><ele>822.1999999999999</ele><time>2026-04-26T10:14:32.117Z</time></trkpt><trkpt lat="42.49354787499795" lon="12.691771223209876"><ele>823.4</ele><time>2026-04-26T10:14:34.117Z</time></trkpt><trkpt lat="42.49347020453445" lon="12.691837784224301"><ele>824.6</ele><time>2026-04-26T10:14:36.117Z</time></trkpt><trkpt lat="42.4933675308441" lon="12.691902362467756"><ele>825.8</ele><time>2026-04-26T10:14:38.117Z</time></trkpt><trkpt lat="42.4932886661232" lon="12.691949807439"><ele>827.0</ele><time>2026-04-26T10:14:39.117Z</time></trkpt><trkpt lat="42.49317874946474" lon="12.692001528422882"><ele>827.0000000000001</ele><time>2026-04-26T10:14:40.117Z</time></trkpt><trkpt lat="42.49309268113845" lon="12.692023966971435"><ele>827.0</ele><time>2026-04-26T10:14:41.117Z</time></trkpt><trkpt lat="42.49302590022618" lon="12.692022004075746"><ele>827.0</ele><time>2026-04-26T10:14:42.117Z</time></trkpt><trkpt lat="42.49291740967116" lon="12.69197059447909"><ele>827.0</ele><time>2026-04-26T10:14:44.117Z</time></trkpt><trkpt lat="42.49284522052401" lon="12.691944316158013"><ele>827.0000000000001</ele><time>2026-04-26T10:14:46.117Z</time></trkpt><trkpt lat="42.49278161972014" lon="12.691907283692462"><ele>827.0</ele><time>2026-04-26T10:14:49.117Z</time></trkpt><trkpt lat="42.49287151404143" lon="12.691928098581727"><ele>827.0000000000001</ele><time>2026-04-26T10:27:57.144Z</time></trkpt><trkpt lat="42.49295711085824" lon="12.6919584209418"><ele>827.0</ele><time>2026-04-26T10:27:59.144Z</time></trkpt><trkpt lat="42.49303951295765" lon="12.691902818900378"><ele>827.0</ele><time>2026-04-26T10:28:01.144Z</time></trkpt><trkpt lat="42.49312068575466" lon="12.691869120508432"><ele>827.0</ele><time>2026-04-26T10:28:02.144Z</time></trkpt><trkpt lat="42.493193012377965" lon="12.691839603498318"><ele>827.0000000000001</ele><time>2026-04-26T10:28:03.145Z</time></trkpt><trkpt lat="42.493256028027986" lon="12.691813409831477"><ele>827.0</ele><time>2026-04-26T10:28:04.145Z</time></trkpt><trkpt lat="42.49333403676262" lon="12.69174340057317"><ele>826.1428571428572</ele><time>2026-04-26T10:28:06.145Z</time></trkpt><trkpt lat="42.493384921687664" lon="12.691687094181578"><ele>825.2857142857142</ele><time>2026-04-26T10:28:07.145Z</time></trkpt><trkpt lat="42.49345308303936" lon="12.6916247538412"><ele>824.4285714285714</ele><time>2026-04-26T10:28:08.145Z</time></trkpt><trkpt lat="42.49352165711855" lon="12.691576736247242"><ele>823.5714285714287</ele><time>2026-04-26T10:28:09.145Z</time></trkpt><trkpt lat="42.49358486719348" lon="12.691533195018382"><ele>822.7142857142858</ele><time>2026-04-26T10:28:10.145Z</time></trkpt><trkpt lat="42.49365755099461" lon="12.691510998865867"><ele>821.8571428571429</ele><time>2026-04-26T10:28:11.145Z</time></trkpt><trkpt lat="42.493730224602615" lon="12.691510999471166"><ele>821.0</ele><time>2026-04-26T10:28:12.145Z</time></trkpt><trkpt lat="42.493799238417004" lon="12.69153538462904"><ele>821.0</ele><time>2026-04-26T10:28:13.145Z</time></trkpt><trkpt lat="42.493906639177" lon="12.691535625323642"><ele>821.0</ele><time>2026-04-26T10:28:15.145Z</time></trkpt><trkpt lat="42.494016694820615" lon="12.691499541340363"><ele>821.0</ele><time>2026-04-26T10:28:17.145Z</time></trkpt><trkpt lat="42.49412107090581" lon="12.691499067487594"><ele>821.0</ele><time>2026-04-26T10:28:19.145Z</time></trkpt><trkpt lat="42.49424722386128" lon="12.691465980091982"><ele>821.0000000000001</ele><time>2026-04-26T10:28:21.145Z</time></trkpt><trkpt lat="42.494321580334024" lon="12.691461637716966"><ele>821.0</ele><time>2026-04-26T10:28:22.145Z</time></trkpt><trkpt lat="42.494402055857215" lon="12.691460991789269"><ele>821.0</ele><time>2026-04-26T10:28:23.145Z</time></trkpt><trkpt lat="42.494489294327714" lon="12.691477830786582"><ele>821.0</ele><time>2026-04-26T10:28:24.145Z</time></trkpt><trkpt lat="42.49459348258798" lon="12.691504135550598"><ele>821.0000000000001</ele><time>2026-04-26T10:28:25.145Z</time></trkpt><trkpt lat="42.49467776122639" lon="12.691538354957945"><ele>821.0</ele><time>2026-04-26T10:28:26.145Z</time></trkpt><trkpt lat="42.494750391180226" lon="12.691546018619201"><ele>821.0</ele><time>2026-04-26T10:28:27.145Z</time></trkpt><trkpt lat="42.494832229354806" lon="12.69156782595371"><ele>821.0</ele><time>2026-04-26T10:28:28.145Z</time></trkpt><trkpt lat="42.49492176655959" lon="12.691570195564672"><ele>821.0</ele><time>2026-04-26T10:28:29.145Z</time></trkpt><trkpt lat="42.49499083341585" lon="12.691573727881238"><ele>821.0</ele><time>2026-04-26T10:28:30.145Z</time></trkpt><trkpt lat="42.49510225220846" lon="12.691583699817661"><ele>821.0</ele><time>2026-04-26T10:28:32.145Z</time></trkpt><trkpt lat="42.495215842281695" lon="12.691604956628401"><ele>821.0</ele><time>2026-04-26T10:28:34.145Z</time></trkpt><trkpt lat="42.49528805948563" lon="12.691618173709848"><ele>821.0</ele><time>2026-04-26T10:28:35.145Z</time></trkpt><trkpt lat="42.49539683289197" lon="12.691676216662954"><ele>821.0</ele><time>2026-04-26T10:28:37.145Z</time></trkpt><trkpt lat="42.49548313589319" lon="12.691699506292531"><ele>821.0</ele><time>2026-04-26T10:28:39.146Z</time></trkpt><trkpt lat="42.495553560016575" lon="12.691686270881663"><ele>821.0</ele><time>2026-04-26T10:28:41.146Z</time></trkpt><trkpt lat="42.49569099090445" lon="12.6917816424062"><ele>822.8</ele><time>2026-04-26T10:28:43.146Z</time></trkpt><trkpt lat="42.495763461740076" lon="12.691831732637935"><ele>824.5999999999999</ele><time>2026-04-26T10:28:44.146Z</time></trkpt><trkpt lat="42.495838220501206" lon="12.691882708334079"><ele>826.4</ele><time>2026-04-26T10:28:45.146Z</time></trkpt><trkpt lat="42.495906925505786" lon="12.691920916716164"><ele>828.2</ele><time>2026-04-26T10:28:46.146Z</time></trkpt><trkpt lat="42.49600539210189" lon="12.691956144224019"><ele>830.0</ele><time>2026-04-26T10:28:48.145Z</time></trkpt><trkpt lat="42.496143200993714" lon="12.692075587143263"><ele>830.5000000000001</ele><time>2026-04-26T10:28:50.145Z</time></trkpt><trkpt lat="42.49623174560385" lon="12.6920939935597"><ele>831.0</ele><time>2026-04-26T10:28:51.145Z</time></trkpt><trkpt lat="42.496315764419656" lon="12.692078347997175"><ele>831.5</ele><time>2026-04-26T10:28:52.145Z</time></trkpt><trkpt lat="42.49638720451431" lon="12.692036426464004"><ele>832.0</ele><time>2026-04-26T10:28:53.145Z</time></trkpt><trkpt lat="42.49645364403212" lon="12.691993171925217"><ele>832.5000000000001</ele><time>2026-04-26T10:28:54.145Z</time></trkpt><trkpt lat="42.496512853192655" lon="12.691913748737498"><ele>833.0</ele><time>2026-04-26T10:28:55.145Z</time></trkpt><trkpt lat="42.49659915372588" lon="12.69179849418355"><ele>833.8</ele><time>2026-04-26T10:28:57.145Z</time></trkpt><trkpt lat="42.49667523718674" lon="12.691624737362446"><ele>834.5999999999999</ele><time>2026-04-26T10:28:59.145Z</time></trkpt><trkpt lat="42.49672323739126" lon="12.691541871273735"><ele>835.4000000000001</ele><time>2026-04-26T10:29:00.145Z</time></trkpt><trkpt lat="42.496856835946964" lon="12.691479416234554"><ele>836.2</ele><time>2026-04-26T10:29:02.144Z</time></trkpt><trkpt lat="42.49692167616054" lon="12.69142493050596"><ele>837.0</ele><time>2026-04-26T10:29:03.145Z</time></trkpt><trkpt lat="42.49696251536395" lon="12.691309021802981"><ele>837.0</ele><time>2026-04-26T10:29:04.145Z</time></trkpt><trkpt lat="42.497002122521785" lon="12.691209193719072"><ele>837.0</ele><time>2026-04-26T10:29:05.145Z</time></trkpt><trkpt lat="42.497046608050184" lon="12.691053372984266"><ele>837.0</ele><time>2026-04-26T10:29:07.145Z</time></trkpt><trkpt lat="42.497063058319085" lon="12.690860927267734"><ele>837.0</ele><time>2026-04-26T10:29:09.145Z</time></trkpt><trkpt lat="42.49708259898245" lon="12.690779362934462"><ele>837.0</ele><time>2026-04-26T10:29:10.145Z</time></trkpt><trkpt lat="42.49715371188338" lon="12.690672442575046"><ele>838.4000000000001</ele><time>2026-04-26T10:29:12.145Z</time></trkpt><trkpt lat="42.497215502902286" lon="12.690594256890188"><ele>839.8000000000001</ele><time>2026-04-26T10:29:13.145Z</time></trkpt><trkpt lat="42.4973233644009" lon="12.690539190508863"><ele>841.2</ele><time>2026-04-26T10:29:15.145Z</time></trkpt><trkpt lat="42.49748004764196" lon="12.690568229400458"><ele>842.6</ele><time>2026-04-26T10:29:17.145Z</time></trkpt><trkpt lat="42.49756814944831" lon="12.690571920231546"><ele>844.0</ele><time>2026-04-26T10:29:18.145Z</time></trkpt><trkpt lat="42.49763987219857" lon="12.690643262317995"><ele>844.0</ele><time>2026-04-26T10:29:20.145Z</time></trkpt><trkpt lat="42.49766944715985" lon="12.69076806344884"><ele>844.0</ele><time>2026-04-26T10:29:22.145Z</time></trkpt><trkpt lat="42.49762495666937" lon="12.690890170463414"><ele>844.0</ele><time>2026-04-26T10:29:24.145Z</time></trkpt><trkpt lat="42.4975682834627" lon="12.690999196511708"><ele>844.0</ele><time>2026-04-26T10:29:25.145Z</time></trkpt><trkpt lat="42.49752634051171" lon="12.691128215444166"><ele>844.0</ele><time>2026-04-26T10:29:26.145Z</time></trkpt><trkpt lat="42.49751443705219" lon="12.691252313866302"><ele>844.8000000000001</ele><time>2026-04-26T10:29:27.145Z</time></trkpt><trkpt lat="42.497515438486005" lon="12.691383971618183"><ele>845.6</ele><time>2026-04-26T10:29:28.145Z</time></trkpt><trkpt lat="42.497520304273166" lon="12.691526622172011"><ele>846.4</ele><time>2026-04-26T10:29:29.145Z</time></trkpt><trkpt lat="42.497537950416614" lon="12.691667383547"><ele>847.2</ele><time>2026-04-26T10:29:30.145Z</time></trkpt><trkpt lat="42.49756487859747" lon="12.69179061360917"><ele>848.0</ele><time>2026-04-26T10:29:31.145Z</time></trkpt><trkpt lat="42.49760893750923" lon="12.691916084296924"><ele>848.6666666666667</ele><time>2026-04-26T10:29:32.145Z</time></trkpt><trkpt lat="42.4976486213142" lon="12.6920313143236"><ele>849.3333333333334</ele><time>2026-04-26T10:29:33.145Z</time></trkpt><trkpt lat="42.49766269993747" lon="12.692132159935676"><ele>850.0</ele><time>2026-04-26T10:29:34.145Z</time></trkpt><trkpt lat="42.49766339075432" lon="12.692236681237937"><ele>850.6666666666667</ele><time>2026-04-26T10:29:35.145Z</time></trkpt><trkpt lat="42.49764857078336" lon="12.692335982292999"><ele>851.3333333333334</ele><time>2026-04-26T10:29:36.145Z</time></trkpt><trkpt lat="42.49762573465492" lon="12.69245311092713"><ele>852.0</ele><time>2026-04-26T10:29:37.145Z</time></trkpt><trkpt lat="42.497600417434036" lon="12.69257495847282"><ele>852.0</ele><time>2026-04-26T10:29:38.145Z</time></trkpt><trkpt lat="42.49754224765556" lon="12.692719014912369"><ele>852.0</ele><time>2026-04-26T10:29:39.145Z</time></trkpt><trkpt lat="42.49748226971108" lon="12.692862305518496"><ele>852.0</ele><time>2026-04-26T10:29:40.145Z</time></trkpt><trkpt lat="42.49744211568837" lon="12.692989087925243"><ele>852.0</ele><time>2026-04-26T10:29:41.145Z</time></trkpt><trkpt lat="42.49740787269181" lon="12.693101602431193"><ele>852.0</ele><time>2026-04-26T10:29:42.145Z</time></trkpt><trkpt lat="42.4973866194108" lon="12.693220780692908"><ele>852.8</ele><time>2026-04-26T10:29:43.145Z</time></trkpt><trkpt lat="42.497401942119446" lon="12.693360213690264"><ele>853.6</ele><time>2026-04-26T10:29:44.145Z</time></trkpt><trkpt lat="42.497413597556886" lon="12.693515644854092"><ele>854.3999999999999</ele><time>2026-04-26T10:29:45.146Z</time></trkpt><trkpt lat="42.49741341947786" lon="12.693671580508893"><ele>855.1999999999999</ele><time>2026-04-26T10:29:46.146Z</time></trkpt><trkpt lat="42.497408233192026" lon="12.693816357429844"><ele>856.0</ele><time>2026-04-26T10:29:47.146Z</time></trkpt><trkpt lat="42.49740542487598" lon="12.69390650799322"><ele>855.8333333333333</ele><time>2026-04-26T10:29:48.146Z</time></trkpt><trkpt lat="42.49743230141894" lon="12.693999425436392"><ele>855.6666666666666</ele><time>2026-04-26T10:29:49.146Z</time></trkpt><trkpt lat="42.49744877751841" lon="12.694108190117397"><ele>855.5</ele><time>2026-04-26T10:29:50.146Z</time></trkpt><trkpt lat="42.49746189717491" lon="12.694212746450413"><ele>855.3333333333333</ele><time>2026-04-26T10:29:51.146Z</time></trkpt><trkpt lat="42.4974712726932" lon="12.694304736064584"><ele>855.1666666666666</ele><time>2026-04-26T10:29:52.146Z</time></trkpt><trkpt lat="42.497455846623154" lon="12.694461140208636"><ele>855.0</ele><time>2026-04-26T10:29:54.146Z</time></trkpt><trkpt lat="42.49742612479099" lon="12.694558911047478"><ele>855.0</ele><time>2026-04-26T10:29:55.146Z</time></trkpt><trkpt lat="42.49738330906642" lon="12.694664425155558"><ele>855.0</ele><time>2026-04-26T10:29:56.146Z</time></trkpt><trkpt lat="42.49732709751656" lon="12.694774480057402"><ele>855.0</ele><time>2026-04-26T10:29:57.146Z</time></trkpt><trkpt lat="42.497276317677" lon="12.694857698219987"><ele>855.0</ele><time>2026-04-26T10:29:58.146Z</time></trkpt><trkpt lat="42.497233665326114" lon="12.694934467141767"><ele>855.0</ele><time>2026-04-26T10:29:59.146Z</time></trkpt><trkpt lat="42.497188207650005" lon="12.695072161933435"><ele>855.0</ele><time>2026-04-26T10:30:01.146Z</time></trkpt><trkpt lat="42.49717407326736" lon="12.695239362441384"><ele>854.8</ele><time>2026-04-26T10:30:03.146Z</time></trkpt><trkpt lat="42.497177942524296" lon="12.695334458960602"><ele>854.6</ele><time>2026-04-26T10:30:04.146Z</time></trkpt><trkpt lat="42.49716390766137" lon="12.69545712354234"><ele>854.4000000000001</ele><time>2026-04-26T10:30:06.146Z</time></trkpt><trkpt lat="42.49702811025146" lon="12.695515506641152"><ele>854.2</ele><time>2026-04-26T10:30:08.146Z</time></trkpt><trkpt lat="42.49692572941007" lon="12.695568120636242"><ele>854.0</ele><time>2026-04-26T10:30:10.146Z</time></trkpt><trkpt lat="42.49687693587244" lon="12.695626867269146"><ele>852.0</ele><time>2026-04-26T10:30:11.146Z</time></trkpt><trkpt lat="42.496790239697724" lon="12.695694452690642"><ele>850.0</ele><time>2026-04-26T10:30:13.146Z</time></trkpt><trkpt lat="42.49681695399618" lon="12.695930514980198"><ele>848.0</ele><time>2026-04-26T10:30:16.146Z</time></trkpt><trkpt lat="42.496823344393654" lon="12.696081314065855"><ele>846.0</ele><time>2026-04-26T10:30:17.146Z</time></trkpt><trkpt lat="42.496828234651744" lon="12.696217306999898"><ele>845.1666666666666</ele><time>2026-04-26T10:30:18.146Z</time></trkpt><trkpt lat="42.49683357502625" lon="12.696339199464468"><ele>844.3333333333333</ele><time>2026-04-26T10:30:19.146Z</time></trkpt><trkpt lat="42.496841612799145" lon="12.696449506213686"><ele>843.5</ele><time>2026-04-26T10:30:20.147Z</time></trkpt><trkpt lat="42.49683893390845" lon="12.696550555023482"><ele>842.6666666666666</ele><time>2026-04-26T10:30:21.147Z</time></trkpt><trkpt lat="42.496844245930276" lon="12.696666966003765"><ele>841.8333333333333</ele><time>2026-04-26T10:30:22.147Z</time></trkpt><trkpt lat="42.49682517629648" lon="12.696782976345148"><ele>841.0</ele><time>2026-04-26T10:30:23.147Z</time></trkpt><trkpt lat="42.49681388980002" lon="12.69688789704724"><ele>839.5999999999999</ele><time>2026-04-26T10:30:24.147Z</time></trkpt><trkpt lat="42.49682590713793" lon="12.696973735042715"><ele>838.2</ele><time>2026-04-26T10:30:25.147Z</time></trkpt><trkpt lat="42.49687066605045" lon="12.697054307931888"><ele>836.8</ele><time>2026-04-26T10:30:26.147Z</time></trkpt><trkpt lat="42.49693167475441" lon="12.697164525355117"><ele>835.4000000000001</ele><time>2026-04-26T10:30:27.147Z</time></trkpt><trkpt lat="42.496995682007544" lon="12.697302216313481"><ele>834.0</ele><time>2026-04-26T10:30:28.147Z</time></trkpt><trkpt lat="42.49706125276598" lon="12.697446963151839"><ele>836.5</ele><time>2026-04-26T10:30:29.147Z</time></trkpt><trkpt lat="42.497126777758375" lon="12.697613627494661"><ele>839.0</ele><time>2026-04-26T10:30:30.147Z</time></trkpt><trkpt lat="42.49716885046276" lon="12.697738489412524"><ele>841.5</ele><time>2026-04-26T10:30:31.147Z</time></trkpt><trkpt lat="42.49721146062253" lon="12.697883714257973"><ele>844.0</ele><time>2026-04-26T10:30:32.147Z</time></trkpt><trkpt lat="42.49724201744709" lon="12.698034785400164"><ele>843.9999999999999</ele><time>2026-04-26T10:30:33.147Z</time></trkpt><trkpt lat="42.49725344645819" lon="12.698187323422147"><ele>844.0</ele><time>2026-04-26T10:30:34.147Z</time></trkpt><trkpt lat="42.49729971885523" lon="12.6982678698303"><ele>844.0</ele><time>2026-04-26T10:30:35.147Z</time></trkpt><trkpt lat="42.49735931554061" lon="12.698322894512652"><ele>844.0</ele><time>2026-04-26T10:30:36.147Z</time></trkpt><trkpt lat="42.49742510968497" lon="12.698380224214102"><ele>843.9999999999999</ele><time>2026-04-26T10:30:37.147Z</time></trkpt><trkpt lat="42.49749385425673" lon="12.698440285914433"><ele>844.0</ele><time>2026-04-26T10:30:38.147Z</time></trkpt><trkpt lat="42.49755063656042" lon="12.698511003077128"><ele>843.0</ele><time>2026-04-26T10:30:39.147Z</time></trkpt><trkpt lat="42.49760462236858" lon="12.698595869383512"><ele>842.0</ele><time>2026-04-26T10:30:40.147Z</time></trkpt><trkpt lat="42.49764465544454" lon="12.69868024900388"><ele>841.0</ele><time>2026-04-26T10:30:41.147Z</time></trkpt><trkpt lat="42.497692921631625" lon="12.698766267337852"><ele>840.0</ele><time>2026-04-26T10:30:42.147Z</time></trkpt><trkpt lat="42.497746230006015" lon="12.698862990878471"><ele>839.0</ele><time>2026-04-26T10:30:43.147Z</time></trkpt><trkpt lat="42.49781604558104" lon="12.699010239579575"><ele>839.0000000000001</ele><time>2026-04-26T10:30:45.147Z</time></trkpt><trkpt lat="42.49789449111977" lon="12.69913299244922"><ele>839.0</ele><time>2026-04-26T10:30:47.147Z</time></trkpt><trkpt lat="42.497950892132415" lon="12.69917594899177"><ele>839.0</ele><time>2026-04-26T10:30:48.147Z</time></trkpt><trkpt lat="42.498011537978996" lon="12.699234458285533"><ele>839.0</ele><time>2026-04-26T10:30:49.147Z</time></trkpt><trkpt lat="42.49805252623916" lon="12.6993726716605"><ele>839.0000000000001</ele><time>2026-04-26T10:30:51.147Z</time></trkpt><trkpt lat="42.49803030693064" lon="12.699476440150006"><ele>839.0</ele><time>2026-04-26T10:30:52.147Z</time></trkpt><trkpt lat="42.49798128169878" lon="12.6995572898904"><ele>840.4000000000001</ele><time>2026-04-26T10:30:53.147Z</time></trkpt><trkpt lat="42.49791767532601" lon="12.699645316857113"><ele>841.8</ele><time>2026-04-26T10:30:55.148Z</time></trkpt><trkpt lat="42.497857989480295" lon="12.69978055049322"><ele>843.2</ele><time>2026-04-26T10:30:57.148Z</time></trkpt><trkpt lat="42.49781897279583" lon="12.699857586754167"><ele>844.5999999999999</ele><time>2026-04-26T10:30:58.148Z</time></trkpt><trkpt lat="42.497736881266206" lon="12.69999060542508"><ele>846.0</ele><time>2026-04-26T10:31:00.148Z</time></trkpt><trkpt lat="42.497679715295675" lon="12.700104876539003"><ele>846.0</ele><time>2026-04-26T10:31:02.148Z</time></trkpt><trkpt lat="42.49769544986318" lon="12.700193430196913"><ele>846.0</ele><time>2026-04-26T10:31:03.148Z</time></trkpt><trkpt lat="42.49774030417827" lon="12.700265978779484"><ele>846.0</ele><time>2026-04-26T10:31:04.148Z</time></trkpt><trkpt lat="42.49775505712279" lon="12.700474018132072"><ele>846.0</ele><time>2026-04-26T10:31:06.148Z</time></trkpt><trkpt lat="42.49780893706434" lon="12.700632778461388"><ele>846.0</ele><time>2026-04-26T10:31:08.149Z</time></trkpt><trkpt lat="42.49785907036625" lon="12.700718163455672"><ele>845.8333333333334</ele><time>2026-04-26T10:31:09.149Z</time></trkpt><trkpt lat="42.49790625565835" lon="12.700820201002388"><ele>845.6666666666667</ele><time>2026-04-26T10:31:10.149Z</time></trkpt><trkpt lat="42.49793964041275" lon="12.700901484611473"><ele>845.5</ele><time>2026-04-26T10:31:11.148Z</time></trkpt><trkpt lat="42.49795468388612" lon="12.700991654209234"><ele>845.3333333333334</ele><time>2026-04-26T10:31:12.148Z</time></trkpt><trkpt lat="42.49796927036991" lon="12.701124802159118"><ele>845.1666666666667</ele><time>2026-04-26T10:31:13.149Z</time></trkpt><trkpt lat="42.49799563349649" lon="12.701247809185737"><ele>845.0</ele><time>2026-04-26T10:31:14.149Z</time></trkpt><trkpt lat="42.498018339867194" lon="12.701353602970833"><ele>846.0000000000001</ele><time>2026-04-26T10:31:15.149Z</time></trkpt><trkpt lat="42.498039233384965" lon="12.701470358819826"><ele>847.0</ele><time>2026-04-26T10:31:16.149Z</time></trkpt><trkpt lat="42.498040846300384" lon="12.701593746820786"><ele>848.0</ele><time>2026-04-26T10:31:17.149Z</time></trkpt><trkpt lat="42.4980457166541" lon="12.70168755848887"><ele>849.0</ele><time>2026-04-26T10:31:18.149Z</time></trkpt><trkpt lat="42.49804970088903" lon="12.701786140702612"><ele>850.0000000000001</ele><time>2026-04-26T10:31:19.149Z</time></trkpt><trkpt lat="42.49803676942237" lon="12.701889918180795"><ele>851.0</ele><time>2026-04-26T10:31:20.149Z</time></trkpt><trkpt lat="42.49801843210996" lon="12.70199250374469"><ele>851.4</ele><time>2026-04-26T10:31:21.149Z</time></trkpt><trkpt lat="42.4980010078255" lon="12.702116320588013"><ele>851.8</ele><time>2026-04-26T10:31:22.149Z</time></trkpt><trkpt lat="42.49801338644118" lon="12.702221178880176"><ele>852.1999999999999</ele><time>2026-04-26T10:31:23.149Z</time></trkpt><trkpt lat="42.49803452204374" lon="12.70235810625939"><ele>852.5999999999999</ele><time>2026-04-26T10:31:24.149Z</time></trkpt><trkpt lat="42.49805242617097" lon="12.702489137894208"><ele>853.0</ele><time>2026-04-26T10:31:25.149Z</time></trkpt><trkpt lat="42.49806426660247" lon="12.702631168522117"><ele>853.2</ele><time>2026-04-26T10:31:26.149Z</time></trkpt><trkpt lat="42.49807865304421" lon="12.702750498818737"><ele>853.4</ele><time>2026-04-26T10:31:27.149Z</time></trkpt><trkpt lat="42.498079122164825" lon="12.702904105258328"><ele>853.6000000000001</ele><time>2026-04-26T10:31:28.149Z</time></trkpt><trkpt lat="42.498092908582876" lon="12.703035302944006"><ele>853.8000000000001</ele><time>2026-04-26T10:31:29.149Z</time></trkpt><trkpt lat="42.49810635044791" lon="12.703147612542645"><ele>854.0</ele><time>2026-04-26T10:31:30.149Z</time></trkpt><trkpt lat="42.49812116725861" lon="12.703269022938546"><ele>854.0</ele><time>2026-04-26T10:31:31.149Z</time></trkpt><trkpt lat="42.49815295636532" lon="12.703421917788265"><ele>854.0000000000001</ele><time>2026-04-26T10:31:32.149Z</time></trkpt><trkpt lat="42.498202726732984" lon="12.703543905443285"><ele>854.0000000000001</ele><time>2026-04-26T10:31:33.149Z</time></trkpt><trkpt lat="42.49826192425008" lon="12.703650435037996"><ele>854.0</ele><time>2026-04-26T10:31:34.149Z</time></trkpt><trkpt lat="42.498331563363166" lon="12.703757130366974"><ele>854.0</ele><time>2026-04-26T10:31:35.149Z</time></trkpt><trkpt lat="42.498395937629105" lon="12.703868402971477"><ele>856.6</ele><time>2026-04-26T10:31:36.149Z</time></trkpt><trkpt lat="42.49846205554526" lon="12.703963875604149"><ele>859.2</ele><time>2026-04-26T10:31:37.149Z</time></trkpt><trkpt lat="42.49852018506761" lon="12.704052418591647"><ele>861.8000000000001</ele><time>2026-04-26T10:31:38.149Z</time></trkpt><trkpt lat="42.49859716108274" lon="12.704140343066348"><ele>864.4000000000001</ele><time>2026-04-26T10:31:39.149Z</time></trkpt><trkpt lat="42.49866139151322" lon="12.704251974830207"><ele>867.0</ele><time>2026-04-26T10:31:40.149Z</time></trkpt><trkpt lat="42.498707997622" lon="12.704353015536471"><ele>866.6</ele><time>2026-04-26T10:31:41.149Z</time></trkpt><trkpt lat="42.49879153812608" lon="12.70451195642172"><ele>866.2</ele><time>2026-04-26T10:31:43.149Z</time></trkpt><trkpt lat="42.49884370977298" lon="12.704604279314491"><ele>865.8</ele><time>2026-04-26T10:31:44.149Z</time></trkpt><trkpt lat="42.49891323796666" lon="12.70471150418323"><ele>865.4</ele><time>2026-04-26T10:31:45.149Z</time></trkpt><trkpt lat="42.498967006908934" lon="12.704818806150893"><ele>865.0</ele><time>2026-04-26T10:31:46.149Z</time></trkpt><trkpt lat="42.49903207066123" lon="12.704913999106564"><ele>865.0</ele><time>2026-04-26T10:31:47.149Z</time></trkpt><trkpt lat="42.49907773832183" lon="12.705030065611954"><ele>865.0</ele><time>2026-04-26T10:31:48.15Z</time></trkpt><trkpt lat="42.49912867424423" lon="12.705150515720455"><ele>865.0</ele><time>2026-04-26T10:31:49.15Z</time></trkpt><trkpt lat="42.49918818827249" lon="12.705271171800826"><ele>865.0</ele><time>2026-04-26T10:31:50.15Z</time></trkpt><trkpt lat="42.49922843898575" lon="12.705375179999303"><ele>865.0</ele><time>2026-04-26T10:31:51.15Z</time></trkpt><trkpt lat="42.49925959433028" lon="12.705494797125883"><ele>868.2</ele><time>2026-04-26T10:31:52.15Z</time></trkpt><trkpt lat="42.499290973994334" lon="12.705609636955826"><ele>871.4</ele><time>2026-04-26T10:31:53.15Z</time></trkpt><trkpt lat="42.499330465055415" lon="12.705753337619209"><ele>874.5999999999999</ele><time>2026-04-26T10:31:54.15Z</time></trkpt><trkpt lat="42.49937582252289" lon="12.705900779355696"><ele>877.8</ele><time>2026-04-26T10:31:55.15Z</time></trkpt><trkpt lat="42.499419840411726" lon="12.706037451951971"><ele>881.0</ele><time>2026-04-26T10:31:56.15Z</time></trkpt><trkpt lat="42.49945784744351" lon="12.706177049323571"><ele>884.0</ele><time>2026-04-26T10:31:57.15Z</time></trkpt><trkpt lat="42.499497986857094" lon="12.706324901757794"><ele>887.0</ele><time>2026-04-26T10:31:58.15Z</time></trkpt><trkpt lat="42.499524517784806" lon="12.706469542882555"><ele>890.0</ele><time>2026-04-26T10:31:59.15Z</time></trkpt><trkpt lat="42.499543408254915" lon="12.706635693295151"><ele>893.0</ele><time>2026-04-26T10:32:00.15Z</time></trkpt><trkpt lat="42.499550557741784" lon="12.70679742155733"><ele>895.0</ele><time>2026-04-26T10:32:01.15Z</time></trkpt><trkpt lat="42.49956069143266" lon="12.70696142726213"><ele>897.0</ele><time>2026-04-26T10:32:02.15Z</time></trkpt><trkpt lat="42.49957142796141" lon="12.70711313619226"><ele>899.0</ele><time>2026-04-26T10:32:03.15Z</time></trkpt><trkpt lat="42.499583901410745" lon="12.70726035510848"><ele>901.0</ele><time>2026-04-26T10:32:04.15Z</time></trkpt><trkpt lat="42.49961223552205" lon="12.707405495254923"><ele>895.25</ele><time>2026-04-26T10:32:05.15Z</time></trkpt><trkpt lat="42.49963390708737" lon="12.707560309643963"><ele>889.5</ele><time>2026-04-26T10:32:06.15Z</time></trkpt><trkpt lat="42.49964490613529" lon="12.707704675438286"><ele>883.75</ele><time>2026-04-26T10:32:07.15Z</time></trkpt><trkpt lat="42.4996642881908" lon="12.707841219081692"><ele>878.0</ele><time>2026-04-26T10:32:08.15Z</time></trkpt><trkpt lat="42.499718778349454" lon="12.708008629388239"><ele>878.0</ele><time>2026-04-26T10:32:09.15Z</time></trkpt><trkpt lat="42.49973839663177" lon="12.70817969159135"><ele>878.0</ele><time>2026-04-26T10:32:10.15Z</time></trkpt><trkpt lat="42.49977303424651" lon="12.708354381429272"><ele>878.0</ele><time>2026-04-26T10:32:11.15Z</time></trkpt><trkpt lat="42.49978696556572" lon="12.708529728849832"><ele>878.0</ele><time>2026-04-26T10:32:12.15Z</time></trkpt><trkpt lat="42.49982078813444" lon="12.708710178984164"><ele>879.5000000000001</ele><time>2026-04-26T10:32:13.15Z</time></trkpt><trkpt lat="42.499826849583684" lon="12.708848201853927"><ele>881.0</ele><time>2026-04-26T10:32:14.15Z</time></trkpt><trkpt lat="42.4998431862192" lon="12.708950412232275"><ele>882.5</ele><time>2026-04-26T10:32:15.15Z</time></trkpt><trkpt lat="42.499867073631975" lon="12.709048313459519"><ele>884.0</ele><time>2026-04-26T10:32:16.15Z</time></trkpt><trkpt lat="42.499880614259155" lon="12.709152834870492"><ele>885.5000000000001</ele><time>2026-04-26T10:32:17.15Z</time></trkpt><trkpt lat="42.499880683597475" lon="12.709242576003822"><ele>887.0</ele><time>2026-04-26T10:32:18.15Z</time></trkpt><trkpt lat="42.49990196605436" lon="12.709336367040505"><ele>888.6</ele><time>2026-04-26T10:32:19.15Z</time></trkpt><trkpt lat="42.49994237335256" lon="12.709478573118302"><ele>890.2</ele><time>2026-04-26T10:32:21.15Z</time></trkpt><trkpt lat="42.500004449017" lon="12.709642089284078"><ele>891.8</ele><time>2026-04-26T10:32:23.15Z</time></trkpt><trkpt lat="42.50003314959959" lon="12.70976775261621"><ele>893.4</ele><time>2026-04-26T10:32:24.151Z</time></trkpt><trkpt lat="42.50005169972481" lon="12.709894689890636"><ele>895.0</ele><time>2026-04-26T10:32:25.151Z</time></trkpt><trkpt lat="42.5000610452011" lon="12.710020582198695"><ele>895.0</ele><time>2026-04-26T10:32:26.151Z</time></trkpt><trkpt lat="42.50006014029609" lon="12.710147794818889"><ele>895.0</ele><time>2026-04-26T10:32:27.151Z</time></trkpt><trkpt lat="42.500049022309994" lon="12.710262732388955"><ele>895.0</ele><time>2026-04-26T10:32:28.151Z</time></trkpt><trkpt lat="42.50003486535132" lon="12.710380966946603"><ele>895.0</ele><time>2026-04-26T10:32:29.151Z</time></trkpt><trkpt lat="42.50003661454472" lon="12.710507263245638"><ele>895.0</ele><time>2026-04-26T10:32:30.151Z</time></trkpt><trkpt lat="42.50001893578336" lon="12.710625337274063"><ele>895.1666666666666</ele><time>2026-04-26T10:32:31.151Z</time></trkpt><trkpt lat="42.50001054967009" lon="12.710735931910344"><ele>895.3333333333333</ele><time>2026-04-26T10:32:32.151Z</time></trkpt><trkpt lat="42.50000315381359" lon="12.710850240473162"><ele>895.5</ele><time>2026-04-26T10:32:33.151Z</time></trkpt><trkpt lat="42.49999449693876" lon="12.71096502013586"><ele>895.6666666666667</ele><time>2026-04-26T10:32:34.151Z</time></trkpt><trkpt lat="42.49997659980743" lon="12.711084299213923"><ele>895.8333333333334</ele><time>2026-04-26T10:32:35.151Z</time></trkpt><trkpt lat="42.49994753645061" lon="12.71120118829323"><ele>896.0</ele><time>2026-04-26T10:32:36.151Z</time></trkpt><trkpt lat="42.499904859859456" lon="12.711286424631867"><ele>895.0</ele><time>2026-04-26T10:32:37.151Z</time></trkpt><trkpt lat="42.499858915868664" lon="12.711381487398677"><ele>893.9999999999999</ele><time>2026-04-26T10:32:38.151Z</time></trkpt><trkpt lat="42.499812969724516" lon="12.71147450060256"><ele>892.9999999999999</ele><time>2026-04-26T10:32:39.151Z</time></trkpt><trkpt lat="42.499764967557105" lon="12.711609419918815"><ele>892.0</ele><time>2026-04-26T10:32:41.151Z</time></trkpt><trkpt lat="42.49970863513929" lon="12.711701532270403"><ele>891.0</ele><time>2026-04-26T10:32:43.151Z</time></trkpt><trkpt lat="42.499596752447225" lon="12.711794792817292"><ele>895.0</ele><time>2026-04-26T10:32:45.151Z</time></trkpt><trkpt lat="42.49951603720406" lon="12.711922710631432"><ele>898.9999999999999</ele><time>2026-04-26T10:32:47.151Z</time></trkpt><trkpt lat="42.499467940643186" lon="12.711981703707856"><ele>902.9999999999999</ele><time>2026-04-26T10:32:48.151Z</time></trkpt><trkpt lat="42.4993972552609" lon="12.712079982112312"><ele>907.0</ele><time>2026-04-26T10:32:50.151Z</time></trkpt><trkpt lat="42.49934189353778" lon="12.71220340831188"><ele>911.0</ele><time>2026-04-26T10:32:52.151Z</time></trkpt><trkpt lat="42.499271616331946" lon="12.712327068406532"><ele>911.0</ele><time>2026-04-26T10:32:54.151Z</time></trkpt><trkpt lat="42.499211998070294" lon="12.712491714209724"><ele>910.9999999999999</ele><time>2026-04-26T10:32:56.151Z</time></trkpt><trkpt lat="42.49919034065884" lon="12.712584423891759"><ele>910.9999999999999</ele><time>2026-04-26T10:32:57.151Z</time></trkpt><trkpt lat="42.49917207879116" lon="12.712698060898738"><ele>911.0</ele><time>2026-04-26T10:32:58.151Z</time></trkpt><trkpt lat="42.4991633460478" lon="12.712790304813328"><ele>911.0</ele><time>2026-04-26T10:32:59.152Z</time></trkpt><trkpt lat="42.49908861202855" lon="12.71290225907864"><ele>911.8</ele><time>2026-04-26T10:33:01.152Z</time></trkpt><trkpt lat="42.49896889474343" lon="12.71298479355298"><ele>912.5999999999999</ele><time>2026-04-26T10:33:03.152Z</time></trkpt><trkpt lat="42.498861959211766" lon="12.713052581803714"><ele>913.4</ele><time>2026-04-26T10:33:05.152Z</time></trkpt><trkpt lat="42.498788243721954" lon="12.713109333848776"><ele>914.2</ele><time>2026-04-26T10:33:07.152Z</time></trkpt><trkpt lat="42.49871123812609" lon="12.713141831288846"><ele>915.0</ele><time>2026-04-26T10:33:11.152Z</time></trkpt><trkpt lat="42.49861481360165" lon="12.713156596436658"><ele>915.1666666666666</ele><time>2026-04-26T10:34:38.155Z</time></trkpt><trkpt lat="42.498539482839945" lon="12.713143558111835"><ele>915.3333333333333</ele><time>2026-04-26T10:34:41.155Z</time></trkpt><trkpt lat="42.4984658351574" lon="12.713159877712922"><ele>915.5</ele><time>2026-04-26T10:34:43.155Z</time></trkpt><trkpt lat="42.49839078591608" lon="12.713137427319083"><ele>915.6666666666666</ele><time>2026-04-26T10:34:45.155Z</time></trkpt><trkpt lat="42.49831881486645" lon="12.713128995171427"><ele>915.8333333333333</ele><time>2026-04-26T10:34:47.155Z</time></trkpt><trkpt lat="42.49822233922092" lon="12.713112478619916"><ele>916.0</ele><time>2026-04-26T10:34:49.155Z</time></trkpt><trkpt lat="42.498135079387644" lon="12.713104324948182"><ele>915.9999999999999</ele><time>2026-04-26T10:34:51.155Z</time></trkpt><trkpt lat="42.49805322038098" lon="12.713103611448936"><ele>916.0</ele><time>2026-04-26T10:34:53.155Z</time></trkpt><trkpt lat="42.49798362448519" lon="12.71312314119007"><ele>916.0</ele><time>2026-04-26T10:34:55.155Z</time></trkpt><trkpt lat="42.497943519881716" lon="12.713236357350192"><ele>916.0</ele><time>2026-04-26T10:34:59.155Z</time></trkpt><trkpt lat="42.498017827142" lon="12.713278116944071"><ele>915.9999999999999</ele><time>2026-04-26T10:35:19.157Z</time></trkpt><trkpt lat="42.49805693071171" lon="12.713159427974134"><ele>916.0</ele><time>2026-04-26T10:35:22.157Z</time></trkpt><trkpt lat="42.49812556898015" lon="12.713096535647193"><ele>916.0</ele><time>2026-04-26T10:35:24.156Z</time></trkpt><trkpt lat="42.49822696796707" lon="12.71310115642734"><ele>915.9999999999999</ele><time>2026-04-26T10:35:26.157Z</time></trkpt><trkpt lat="42.49834310610627" lon="12.71312590327302"><ele>915.9999999999999</ele><time>2026-04-26T10:35:28.157Z</time></trkpt><trkpt lat="42.498413507724464" lon="12.713138030504629"><ele>916.0</ele><time>2026-04-26T10:35:29.156Z</time></trkpt><trkpt lat="42.498544512642" lon="12.713169402790891"><ele>916.0</ele><time>2026-04-26T10:35:31.157Z</time></trkpt><trkpt lat="42.49864147653078" lon="12.713156484600564"><ele>915.9999999999999</ele><time>2026-04-26T10:35:33.157Z</time></trkpt><trkpt lat="42.4987206505247" lon="12.713198546028359"><ele>916.0</ele><time>2026-04-26T10:35:35.157Z</time></trkpt><trkpt lat="42.49864990749628" lon="12.71312994406481"><ele>916.0</ele><time>2026-04-26T10:35:41.157Z</time></trkpt><trkpt lat="42.49859185238759" lon="12.713088087822774"><ele>916.0</ele><time>2026-04-26T10:35:42.157Z</time></trkpt><trkpt lat="42.498497010170325" lon="12.71298655061417"><ele>915.9999999999999</ele><time>2026-04-26T10:35:44.157Z</time></trkpt><trkpt lat="42.49845282142309" lon="12.712902763734034"><ele>916.0</ele><time>2026-04-26T10:35:45.157Z</time></trkpt><trkpt lat="42.49839974330862" lon="12.71282640440633"><ele>916.0</ele><time>2026-04-26T10:35:46.157Z</time></trkpt><trkpt lat="42.498367578841986" lon="12.712749429178498"><ele>915.9999999999999</ele><time>2026-04-26T10:35:47.157Z</time></trkpt><trkpt lat="42.49831344876222" lon="12.712571294796474"><ele>915.9999999999999</ele><time>2026-04-26T10:35:49.158Z</time></trkpt><trkpt lat="42.498293808671406" lon="12.712443778380392"><ele>916.0</ele><time>2026-04-26T10:35:50.158Z</time></trkpt><trkpt lat="42.49828125239817" lon="12.71232421418081"><ele>916.0</ele><time>2026-04-26T10:35:51.158Z</time></trkpt><trkpt lat="42.49824839985733" lon="12.712240059316073"><ele>915.25</ele><time>2026-04-26T10:35:52.158Z</time></trkpt><trkpt lat="42.49815549945246" lon="12.712131162350557"><ele>914.5</ele><time>2026-04-26T10:35:54.158Z</time></trkpt><trkpt lat="42.498035994887125" lon="12.712075329350675"><ele>913.75</ele><time>2026-04-26T10:35:56.158Z</time></trkpt><trkpt lat="42.497927489374064" lon="12.711998527170163"><ele>913.0</ele><time>2026-04-26T10:35:58.158Z</time></trkpt><trkpt lat="42.497868398284716" lon="12.711928856218284"><ele>915.5999999999999</ele><time>2026-04-26T10:35:59.158Z</time></trkpt><trkpt lat="42.49782235895708" lon="12.711843712742102"><ele>918.1999999999999</ele><time>2026-04-26T10:36:00.158Z</time></trkpt><trkpt lat="42.49772503012463" lon="12.71174605317884"><ele>920.8</ele><time>2026-04-26T10:36:02.158Z</time></trkpt><trkpt lat="42.497644416981245" lon="12.711689985818124"><ele>923.4</ele><time>2026-04-26T10:36:04.158Z</time></trkpt><trkpt lat="42.49761440588714" lon="12.71156132248306"><ele>926.0</ele><time>2026-04-26T10:36:06.158Z</time></trkpt><trkpt lat="42.49761953571431" lon="12.711475790227121"><ele>926.0000000000001</ele><time>2026-04-26T10:36:07.158Z</time></trkpt><trkpt lat="42.497614773351636" lon="12.711362539784792"><ele>926.0</ele><time>2026-04-26T10:36:08.158Z</time></trkpt><trkpt lat="42.497617083944185" lon="12.711271322700163"><ele>926.0</ele><time>2026-04-26T10:36:09.158Z</time></trkpt><trkpt lat="42.49761492502572" lon="12.711178753480235"><ele>926.0</ele><time>2026-04-26T10:36:10.158Z</time></trkpt><trkpt lat="42.497606456051855" lon="12.711009878423212"><ele>926.0000000000001</ele><time>2026-04-26T10:36:12.158Z</time></trkpt><trkpt lat="42.4975929498812" lon="12.710875260251589"><ele>926.0</ele><time>2026-04-26T10:36:14.158Z</time></trkpt><trkpt lat="42.49758671774543" lon="12.710729009306863"><ele>924.6666666666667</ele><time>2026-04-26T10:36:16.158Z</time></trkpt><trkpt lat="42.497573205668765" lon="12.710642987364931"><ele>923.3333333333334</ele><time>2026-04-26T10:36:17.158Z</time></trkpt><trkpt lat="42.49755396655948" lon="12.710529014425564"><ele>922.0</ele><time>2026-04-26T10:36:18.158Z</time></trkpt><trkpt lat="42.497546530412905" lon="12.710411132434976"><ele>920.6666666666667</ele><time>2026-04-26T10:36:19.158Z</time></trkpt><trkpt lat="42.497533485684144" lon="12.710303306061288"><ele>919.3333333333334</ele><time>2026-04-26T10:36:20.158Z</time></trkpt><trkpt lat="42.49751551033675" lon="12.710178594162633"><ele>918.0</ele><time>2026-04-26T10:36:21.158Z</time></trkpt><trkpt lat="42.497498354414965" lon="12.71005943081369"><ele>916.5</ele><time>2026-04-26T10:36:22.158Z</time></trkpt><trkpt lat="42.49746734635446" lon="12.70996163709707"><ele>915.0</ele><time>2026-04-26T10:36:23.158Z</time></trkpt><trkpt lat="42.497443580175585" lon="12.709865936784823"><ele>913.5</ele><time>2026-04-26T10:36:24.159Z</time></trkpt><trkpt lat="42.49742536946292" lon="12.70977779692098"><ele>912.0</ele><time>2026-04-26T10:36:25.159Z</time></trkpt><trkpt lat="42.497396755658045" lon="12.709667407243149"><ele>910.5</ele><time>2026-04-26T10:36:26.159Z</time></trkpt><trkpt lat="42.497376804428875" lon="12.709569694874878"><ele>909.0</ele><time>2026-04-26T10:36:27.159Z</time></trkpt><trkpt lat="42.497378384630984" lon="12.70945913799585"><ele>908.1666666666666</ele><time>2026-04-26T10:36:28.159Z</time></trkpt><trkpt lat="42.497377396062944" lon="12.709342442054668"><ele>907.3333333333333</ele><time>2026-04-26T10:36:29.159Z</time></trkpt><trkpt lat="42.497374504340776" lon="12.709225414566133"><ele>906.5</ele><time>2026-04-26T10:36:30.159Z</time></trkpt><trkpt lat="42.497356277243256" lon="12.709108779926671"><ele>905.6666666666666</ele><time>2026-04-26T10:36:31.159Z</time></trkpt><trkpt lat="42.497337050980285" lon="12.709006400543538"><ele>904.8333333333333</ele><time>2026-04-26T10:36:32.159Z</time></trkpt><trkpt lat="42.497319912387894" lon="12.708896179874502"><ele>904.0</ele><time>2026-04-26T10:36:33.159Z</time></trkpt><trkpt lat="42.49732160883802" lon="12.708770770651753"><ele>904.0</ele><time>2026-04-26T10:36:34.159Z</time></trkpt><trkpt lat="42.49733880269174" lon="12.708661666724343"><ele>904.0</ele><time>2026-04-26T10:36:35.159Z</time></trkpt><trkpt lat="42.49733470486696" lon="12.70855304246442"><ele>904.0</ele><time>2026-04-26T10:36:36.159Z</time></trkpt><trkpt lat="42.49731657931238" lon="12.708470864096535"><ele>904.0</ele><time>2026-04-26T10:36:37.159Z</time></trkpt><trkpt lat="42.49726371155936" lon="12.708417186420501"><ele>904.0</ele><time>2026-04-26T10:36:38.159Z</time></trkpt><trkpt lat="42.497207590948875" lon="12.70837504156213"><ele>904.0</ele><time>2026-04-26T10:36:39.159Z</time></trkpt><trkpt lat="42.497151239467094" lon="12.708291273520778"><ele>904.0</ele><time>2026-04-26T10:36:40.159Z</time></trkpt><trkpt lat="42.497117947846114" lon="12.708186865278574"><ele>903.9999999999999</ele><time>2026-04-26T10:36:41.159Z</time></trkpt><trkpt lat="42.4971019686054" lon="12.708088323624677"><ele>904.0</ele><time>2026-04-26T10:36:42.159Z</time></trkpt><trkpt lat="42.49702930135081" lon="12.707972335024696"><ele>904.0</ele><time>2026-04-26T10:36:44.159Z</time></trkpt><trkpt lat="42.496913703377174" lon="12.707986939959111"><ele>904.0</ele><time>2026-04-26T10:36:46.159Z</time></trkpt><trkpt lat="42.496841659415956" lon="12.70799361919552"><ele>903.9999999999999</ele><time>2026-04-26T10:36:47.159Z</time></trkpt><trkpt lat="42.49678136008584" lon="12.707940268732925"><ele>904.0</ele><time>2026-04-26T10:36:48.159Z</time></trkpt><trkpt lat="42.49670682043456" lon="12.707865959372707"><ele>903.8333333333333</ele><time>2026-04-26T10:36:49.159Z</time></trkpt><trkpt lat="42.49663187770335" lon="12.707758297590669"><ele>903.6666666666666</ele><time>2026-04-26T10:36:50.159Z</time></trkpt><trkpt lat="42.496573752329034" lon="12.707677782500264"><ele>903.5</ele><time>2026-04-26T10:36:51.159Z</time></trkpt><trkpt lat="42.49651094652644" lon="12.707602131448551"><ele>903.3333333333333</ele><time>2026-04-26T10:36:52.159Z</time></trkpt><trkpt lat="42.49643912093309" lon="12.70753549898935"><ele>903.1666666666666</ele><time>2026-04-26T10:36:53.159Z</time></trkpt><trkpt lat="42.49637623560978" lon="12.707478098809021"><ele>903.0</ele><time>2026-04-26T10:36:54.159Z</time></trkpt><trkpt lat="42.49627732661539" lon="12.707430176170082"><ele>903.1666666666666</ele><time>2026-04-26T10:36:56.159Z</time></trkpt><trkpt lat="42.4962055863715" lon="12.70739086372775"><ele>903.3333333333333</ele><time>2026-04-26T10:36:59.16Z</time></trkpt><trkpt lat="42.496147423557666" lon="12.707356029351235"><ele>903.5</ele><time>2026-04-26T10:37:02.16Z</time></trkpt><trkpt lat="42.49606249727766" lon="12.70735118575002"><ele>903.6666666666666</ele><time>2026-04-26T10:37:55.162Z</time></trkpt><trkpt lat="42.49598285372601" lon="12.707362212056976"><ele>903.8333333333333</ele><time>2026-04-26T10:37:57.162Z</time></trkpt><trkpt lat="42.49587622443228" lon="12.707375871811436"><ele>904.0</ele><time>2026-04-26T10:38:00.162Z</time></trkpt><trkpt lat="42.49580862212547" lon="12.707338501937476"><ele>903.9999999999999</ele><time>2026-04-26T10:38:03.162Z</time></trkpt><trkpt lat="42.49573957101245" lon="12.707324391752973"><ele>904.0</ele><time>2026-04-26T10:38:14.162Z</time></trkpt><trkpt lat="42.49565323790177" lon="12.707307479143077"><ele>904.0</ele><time>2026-04-26T10:38:17.162Z</time></trkpt><trkpt lat="42.49558293009653" lon="12.70729838679602"><ele>904.0</ele><time>2026-04-26T10:38:19.162Z</time></trkpt><trkpt lat="42.49550261820072" lon="12.707265412764897"><ele>903.9999999999999</ele><time>2026-04-26T10:38:21.162Z</time></trkpt><trkpt lat="42.495403216881776" lon="12.707251806708634"><ele>904.0</ele><time>2026-04-26T10:39:28.164Z</time></trkpt><trkpt lat="42.49531092380824" lon="12.707191078812548"><ele>904.6</ele><time>2026-04-26T10:39:30.165Z</time></trkpt><trkpt lat="42.495192543875476" lon="12.707154990893276"><ele>905.2</ele><time>2026-04-26T10:39:32.165Z</time></trkpt><trkpt lat="42.495074163366915" lon="12.707154299052707"><ele>905.8000000000001</ele><time>2026-04-26T10:39:34.165Z</time></trkpt><trkpt lat="42.49495786830612" lon="12.707119276218995"><ele>906.4000000000001</ele><time>2026-04-26T10:39:36.166Z</time></trkpt><trkpt lat="42.49488772724933" lon="12.707056290025387"><ele>907.0</ele><time>2026-04-26T10:39:37.166Z</time></trkpt><trkpt lat="42.494790050749565" lon="12.70702368140256"><ele>906.9999999999999</ele><time>2026-04-26T10:39:39.166Z</time></trkpt><trkpt lat="42.49469346609399" lon="12.706990332561636"><ele>907.0</ele><time>2026-04-26T10:39:41.166Z</time></trkpt><trkpt lat="42.494601328843146" lon="12.706980034290972"><ele>907.0</ele><time>2026-04-26T10:39:43.165Z</time></trkpt><trkpt lat="42.49452850715075" lon="12.706960253939515"><ele>907.0</ele><time>2026-04-26T10:39:47.165Z</time></trkpt><trkpt lat="42.49445391226094" lon="12.706915390346268"><ele>906.9999999999999</ele><time>2026-04-26T10:40:28.166Z</time></trkpt><trkpt lat="42.49451354975178" lon="12.706875365657117"><ele>907.0</ele><time>2026-04-26T10:40:33.167Z</time></trkpt><trkpt lat="42.49460985635832" lon="12.706861787121051"><ele>905.6666666666666</ele><time>2026-04-26T10:40:35.167Z</time></trkpt><trkpt lat="42.494675645515834" lon="12.706863282435146"><ele>904.3333333333333</ele><time>2026-04-26T10:40:36.167Z</time></trkpt><trkpt lat="42.494780591417395" lon="12.706860967256517"><ele>903.0</ele><time>2026-04-26T10:40:38.167Z</time></trkpt><trkpt lat="42.494824436536824" lon="12.706797851503218"><ele>901.6666666666667</ele><time>2026-04-26T10:40:41.167Z</time></trkpt><trkpt lat="42.4946842423562" lon="12.70678162528794"><ele>900.3333333333334</ele><time>2026-04-26T10:40:46.167Z</time></trkpt><trkpt lat="42.494617707864" lon="12.70682481175202"><ele>899.0</ele><time>2026-04-26T10:40:47.167Z</time></trkpt><trkpt lat="42.49452419716476" lon="12.706873951840889"><ele>899.0000000000001</ele><time>2026-04-26T10:40:49.167Z</time></trkpt><trkpt lat="42.49443100618373" lon="12.706898511141107"><ele>899.0</ele><time>2026-04-26T10:40:51.167Z</time></trkpt><trkpt lat="42.49436646546102" lon="12.70690847938187"><ele>899.0</ele><time>2026-04-26T10:40:53.167Z</time></trkpt><trkpt lat="42.49428129036998" lon="12.706867495886522"><ele>899.0</ele><time>2026-04-26T10:40:56.167Z</time></trkpt><trkpt lat="42.4942235426826" lon="12.70683106622938"><ele>899.0000000000001</ele><time>2026-04-26T10:41:10.168Z</time></trkpt><trkpt lat="42.494174359864616" lon="12.706776114448584"><ele>899.0</ele><time>2026-04-26T10:41:23.168Z</time></trkpt><trkpt lat="42.4941155757897" lon="12.706713567090246"><ele>899.0</ele><time>2026-04-26T10:41:46.17Z</time></trkpt><trkpt lat="42.49403502171977" lon="12.706614975955805"><ele>899.0000000000001</ele><time>2026-04-26T10:41:48.17Z</time></trkpt><trkpt lat="42.49392089293815" lon="12.706538725269713"><ele>899.0000000000001</ele><time>2026-04-26T10:41:50.17Z</time></trkpt><trkpt lat="42.4938747147025" lon="12.70647628699698"><ele>899.0</ele><time>2026-04-26T10:41:51.17Z</time></trkpt><trkpt lat="42.493818050263066" lon="12.706406477256218"><ele>899.0</ele><time>2026-04-26T10:41:52.171Z</time></trkpt><trkpt lat="42.49375245995863" lon="12.706349634563033"><ele>898.2</ele><time>2026-04-26T10:41:53.171Z</time></trkpt><trkpt lat="42.49364968804108" lon="12.706308063360144"><ele>897.4000000000001</ele><time>2026-04-26T10:41:55.171Z</time></trkpt><trkpt lat="42.49358367898835" lon="12.706310915088713"><ele>896.6</ele><time>2026-04-26T10:41:56.171Z</time></trkpt><trkpt lat="42.49347556260565" lon="12.706346386716964"><ele>895.8</ele><time>2026-04-26T10:41:58.171Z</time></trkpt><trkpt lat="42.49341368141627" lon="12.706446843226727"><ele>895.0</ele><time>2026-04-26T10:42:00.171Z</time></trkpt><trkpt lat="42.49342264524739" lon="12.706577618757246"><ele>894.9999999999999</ele><time>2026-04-26T10:42:02.171Z</time></trkpt><trkpt lat="42.49342355069514" lon="12.706739233182335"><ele>895.0</ele><time>2026-04-26T10:42:04.171Z</time></trkpt><trkpt lat="42.49337867929233" lon="12.706801681264727"><ele>895.0</ele><time>2026-04-26T10:42:05.171Z</time></trkpt><trkpt lat="42.49331778498902" lon="12.706825907685193"><ele>895.0</ele><time>2026-04-26T10:42:06.171Z</time></trkpt><trkpt lat="42.493238077814375" lon="12.706832116440884"><ele>894.9999999999999</ele><time>2026-04-26T10:42:07.171Z</time></trkpt><trkpt lat="42.4931574983366" lon="12.706832607293746"><ele>895.0</ele><time>2026-04-26T10:42:08.171Z</time></trkpt><trkpt lat="42.49308647020452" lon="12.706821184523632"><ele>895.0</ele><time>2026-04-26T10:42:09.171Z</time></trkpt><trkpt lat="42.49297441627084" lon="12.706751582175475"><ele>895.0</ele><time>2026-04-26T10:42:11.171Z</time></trkpt><trkpt lat="42.49292695382859" lon="12.706656034682869"><ele>895.0</ele><time>2026-04-26T10:42:12.171Z</time></trkpt><trkpt lat="42.492884323922056" lon="12.706545269249991"><ele>895.0</ele><time>2026-04-26T10:42:13.171Z</time></trkpt><trkpt lat="42.492847399064914" lon="12.706449811891842"><ele>895.0</ele><time>2026-04-26T10:42:14.171Z</time></trkpt><trkpt lat="42.49279891849533" lon="12.706370756101748"><ele>896.0</ele><time>2026-04-26T10:42:15.171Z</time></trkpt><trkpt lat="42.492721750914434" lon="12.706296708079398"><ele>897.0</ele><time>2026-04-26T10:42:16.171Z</time></trkpt><trkpt lat="42.49263234907891" lon="12.706247962728675"><ele>898.0</ele><time>2026-04-26T10:42:17.171Z</time></trkpt><trkpt lat="42.49255102402472" lon="12.706185013315377"><ele>899.0</ele><time>2026-04-26T10:42:18.171Z</time></trkpt><trkpt lat="42.492473038895675" lon="12.706127268631901"><ele>900.0</ele><time>2026-04-26T10:42:19.171Z</time></trkpt><trkpt lat="42.492401275379166" lon="12.706082467928725"><ele>898.8</ele><time>2026-04-26T10:42:20.171Z</time></trkpt><trkpt lat="42.49232831376809" lon="12.706043854685396"><ele>897.6</ele><time>2026-04-26T10:42:21.171Z</time></trkpt><trkpt lat="42.49223733362044" lon="12.70599541752418"><ele>896.4000000000001</ele><time>2026-04-26T10:42:22.171Z</time></trkpt><trkpt lat="42.49215712110706" lon="12.70598145685666"><ele>895.2</ele><time>2026-04-26T10:42:23.171Z</time></trkpt><trkpt lat="42.492055270727164" lon="12.705977084796716"><ele>894.0</ele><time>2026-04-26T10:42:24.171Z</time></trkpt><trkpt lat="42.49194459817958" lon="12.705991621913556"><ele>892.8333333333334</ele><time>2026-04-26T10:42:25.171Z</time></trkpt><trkpt lat="42.49185228740103" lon="12.70598722487261"><ele>891.6666666666667</ele><time>2026-04-26T10:42:26.171Z</time></trkpt><trkpt lat="42.49176921788342" lon="12.705966561743875"><ele>890.5</ele><time>2026-04-26T10:42:27.172Z</time></trkpt><trkpt lat="42.49169157747633" lon="12.705938620381746"><ele>889.3333333333334</ele><time>2026-04-26T10:42:28.172Z</time></trkpt><trkpt lat="42.4915984767507" lon="12.705905666086718"><ele>888.1666666666667</ele><time>2026-04-26T10:42:29.172Z</time></trkpt><trkpt lat="42.49151021080205" lon="12.705858133505481"><ele>887.0</ele><time>2026-04-26T10:42:30.172Z</time></trkpt><trkpt lat="42.491442115390186" lon="12.70582523403926"><ele>887.0</ele><time>2026-04-26T10:42:31.172Z</time></trkpt><trkpt lat="42.49135969989505" lon="12.705816958937035"><ele>887.0</ele><time>2026-04-26T10:42:33.172Z</time></trkpt><trkpt lat="42.49128618778546" lon="12.705889519036543"><ele>887.0</ele><time>2026-04-26T10:42:35.172Z</time></trkpt><trkpt lat="42.49117995179849" lon="12.70603425619104"><ele>887.0</ele><time>2026-04-26T10:42:37.172Z</time></trkpt><trkpt lat="42.49111134608457" lon="12.706115821825147"><ele>887.0</ele><time>2026-04-26T10:42:38.172Z</time></trkpt><trkpt lat="42.49104982423961" lon="12.706202226589266"><ele>887.3333333333334</ele><time>2026-04-26T10:42:39.172Z</time></trkpt><trkpt lat="42.49097815738505" lon="12.70627364515433"><ele>887.6666666666667</ele><time>2026-04-26T10:42:40.172Z</time></trkpt><trkpt lat="42.4909259133428" lon="12.706324184477312"><ele>888.0</ele><time>2026-04-26T10:42:41.172Z</time></trkpt><trkpt lat="42.49084006076619" lon="12.706418812289687"><ele>888.3333333333333</ele><time>2026-04-26T10:42:43.172Z</time></trkpt><trkpt lat="42.490793792203334" lon="12.70649035064404"><ele>888.6666666666666</ele><time>2026-04-26T10:42:44.172Z</time></trkpt><trkpt lat="42.49076609706691" lon="12.706632195922737"><ele>889.0</ele><time>2026-04-26T10:42:46.172Z</time></trkpt><trkpt lat="42.490764549475244" lon="12.706734996671358"><ele>889.0</ele><time>2026-04-26T10:42:47.172Z</time></trkpt><trkpt lat="42.4907537391442" lon="12.706845308796497"><ele>889.0000000000001</ele><time>2026-04-26T10:42:48.172Z</time></trkpt><trkpt lat="42.490773409788716" lon="12.706973701791364"><ele>889.0000000000001</ele><time>2026-04-26T10:42:49.172Z</time></trkpt><trkpt lat="42.490796882077674" lon="12.70709781979549"><ele>889.0</ele><time>2026-04-26T10:42:50.172Z</time></trkpt><trkpt lat="42.490809977154285" lon="12.707225031273829"><ele>889.0</ele><time>2026-04-26T10:42:51.172Z</time></trkpt><trkpt lat="42.49080509154721" lon="12.707359735186788"><ele>889.6</ele><time>2026-04-26T10:42:52.172Z</time></trkpt><trkpt lat="42.49079419993595" lon="12.707499584768787"><ele>890.2</ele><time>2026-04-26T10:42:53.172Z</time></trkpt><trkpt lat="42.49077344371782" lon="12.707654991037911"><ele>890.8000000000001</ele><time>2026-04-26T10:42:54.172Z</time></trkpt><trkpt lat="42.49077836629462" lon="12.707812226320925"><ele>891.4000000000001</ele><time>2026-04-26T10:42:55.172Z</time></trkpt><trkpt lat="42.49078569361797" lon="12.707957762758591"><ele>892.0</ele><time>2026-04-26T10:42:56.172Z</time></trkpt><trkpt lat="42.49079915065678" lon="12.708097573658696"><ele>893.0</ele><time>2026-04-26T10:42:57.172Z</time></trkpt><trkpt lat="42.49081195743802" lon="12.70824730786036"><ele>894.0</ele><time>2026-04-26T10:42:58.172Z</time></trkpt><trkpt lat="42.4907985120748" lon="12.708378341897298"><ele>895.0</ele><time>2026-04-26T10:42:59.172Z</time></trkpt><trkpt lat="42.49078120790786" lon="12.70849679767537"><ele>896.0</ele><time>2026-04-26T10:43:00.172Z</time></trkpt><trkpt lat="42.49075848271924" lon="12.708607605169727"><ele>897.0</ele><time>2026-04-26T10:43:01.172Z</time></trkpt><trkpt lat="42.49072121646305" lon="12.708697789251952"><ele>897.8333333333334</ele><time>2026-04-26T10:43:02.172Z</time></trkpt><trkpt lat="42.49068022475977" lon="12.70879367064025"><ele>898.6666666666667</ele><time>2026-04-26T10:43:03.173Z</time></trkpt><trkpt lat="42.49064186152296" lon="12.708873012531136"><ele>899.5</ele><time>2026-04-26T10:43:04.173Z</time></trkpt><trkpt lat="42.49059818180637" lon="12.708969994098815"><ele>900.3333333333334</ele><time>2026-04-26T10:43:05.173Z</time></trkpt><trkpt lat="42.49056093641064" lon="12.709045049329903"><ele>901.1666666666667</ele><time>2026-04-26T10:43:06.173Z</time></trkpt><trkpt lat="42.49049264853924" lon="12.709151287587234"><ele>902.0</ele><time>2026-04-26T10:43:08.173Z</time></trkpt><trkpt lat="42.49043686559596" lon="12.709200049176161"><ele>902.4000000000001</ele><time>2026-04-26T10:43:10.173Z</time></trkpt><trkpt lat="42.49034314893905" lon="12.709297268076774"><ele>902.8000000000001</ele><time>2026-04-26T10:43:12.173Z</time></trkpt><trkpt lat="42.49027931351837" lon="12.709414018798386"><ele>903.2</ele><time>2026-04-26T10:43:14.173Z</time></trkpt><trkpt lat="42.49022574809396" lon="12.709550924003862"><ele>903.6</ele><time>2026-04-26T10:43:16.173Z</time></trkpt><trkpt lat="42.490195753869564" lon="12.709658656015144"><ele>904.0</ele><time>2026-04-26T10:43:17.173Z</time></trkpt><trkpt lat="42.490174370934284" lon="12.709795317510528"><ele>904.0</ele><time>2026-04-26T10:43:18.173Z</time></trkpt><trkpt lat="42.49016047737683" lon="12.709949111572639"><ele>904.0000000000001</ele><time>2026-04-26T10:43:19.173Z</time></trkpt><trkpt lat="42.49016204767134" lon="12.71009953925739"><ele>904.0000000000001</ele><time>2026-04-26T10:43:20.173Z</time></trkpt><trkpt lat="42.490130382281066" lon="12.710197386039418"><ele>904.0</ele><time>2026-04-26T10:43:21.173Z</time></trkpt><trkpt lat="42.49009902946754" lon="12.710289595489819"><ele>904.0</ele><time>2026-04-26T10:43:22.173Z</time></trkpt><trkpt lat="42.49005241311512" lon="12.71037074502728"><ele>903.6666666666666</ele><time>2026-04-26T10:43:23.173Z</time></trkpt><trkpt lat="42.48998699232854" lon="12.710430780866288"><ele>903.3333333333333</ele><time>2026-04-26T10:43:24.173Z</time></trkpt><trkpt lat="42.48992888722153" lon="12.710519811807748"><ele>903.0</ele><time>2026-04-26T10:43:25.173Z</time></trkpt><trkpt lat="42.48988063025235" lon="12.710607406232374"><ele>902.6666666666667</ele><time>2026-04-26T10:43:26.173Z</time></trkpt><trkpt lat="42.489796503732116" lon="12.710659146805414"><ele>902.3333333333334</ele><time>2026-04-26T10:43:28.173Z</time></trkpt><trkpt lat="42.48971896974101" lon="12.710674616648385"><ele>902.0</ele><time>2026-04-26T10:43:29.173Z</time></trkpt><trkpt lat="42.489658119827446" lon="12.71072357039527"><ele>902.0000000000001</ele><time>2026-04-26T10:43:30.173Z</time></trkpt><trkpt lat="42.48960264702239" lon="12.710784693348831"><ele>902.0</ele><time>2026-04-26T10:43:31.173Z</time></trkpt><trkpt lat="42.48956692784518" lon="12.71093541959369"><ele>902.0</ele><time>2026-04-26T10:43:33.173Z</time></trkpt><trkpt lat="42.489581067235314" lon="12.71104175893237"><ele>902.0</ele><time>2026-04-26T10:43:34.173Z</time></trkpt><trkpt lat="42.489585427160954" lon="12.711155675944042"><ele>902.0000000000001</ele><time>2026-04-26T10:43:35.173Z</time></trkpt><trkpt lat="42.48959010989012" lon="12.71125051837512"><ele>902.0</ele><time>2026-04-26T10:43:36.173Z</time></trkpt><trkpt lat="42.489580660139666" lon="12.711340829457756"><ele>904.0</ele><time>2026-04-26T10:43:37.173Z</time></trkpt><trkpt lat="42.48952483638026" lon="12.711459230504184"><ele>906.0</ele><time>2026-04-26T10:43:39.174Z</time></trkpt><trkpt lat="42.4894303270411" lon="12.71149655829089"><ele>908.0</ele><time>2026-04-26T10:43:41.174Z</time></trkpt><trkpt lat="42.48936270911949" lon="12.711508100274724"><ele>910.0</ele><time>2026-04-26T10:43:42.174Z</time></trkpt><trkpt lat="42.48927633843838" lon="12.711572168011127"><ele>912.0</ele><time>2026-04-26T10:43:44.174Z</time></trkpt><trkpt lat="42.48928043865595" lon="12.7117382014485"><ele>912.0</ele><time>2026-04-26T10:43:46.174Z</time></trkpt><trkpt lat="42.48930246646095" lon="12.711830302407943"><ele>912.0</ele><time>2026-04-26T10:43:47.174Z</time></trkpt><trkpt lat="42.48928693329753" lon="12.71198924006898"><ele>912.0</ele><time>2026-04-26T10:43:49.175Z</time></trkpt><trkpt lat="42.48921137905545" lon="12.712077245558344"><ele>912.0</ele><time>2026-04-26T10:43:51.174Z</time></trkpt><trkpt lat="42.489131232834254" lon="12.712093572855213"><ele>912.0</ele><time>2026-04-26T10:43:53.175Z</time></trkpt><trkpt lat="42.48906027730257" lon="12.712093304945663"><ele>912.0</ele><time>2026-04-26T10:43:55.175Z</time></trkpt><trkpt lat="42.48899608401447" lon="12.712128384059742"><ele>913.0</ele><time>2026-04-26T10:43:59.175Z</time></trkpt><trkpt lat="42.48891758413714" lon="12.712152504190886"><ele>914.0</ele><time>2026-04-26T10:44:45.176Z</time></trkpt><trkpt lat="42.48884990970074" lon="12.712227217013842"><ele>915.0</ele><time>2026-04-26T10:44:47.176Z</time></trkpt><trkpt lat="42.48876365678837" lon="12.712321891186917"><ele>916.0</ele><time>2026-04-26T10:44:49.176Z</time></trkpt><trkpt lat="42.48865460411827" lon="12.712331857897041"><ele>917.0</ele><time>2026-04-26T10:44:51.176Z</time></trkpt><trkpt lat="42.488547406295055" lon="12.712300075283622"><ele>917.0</ele><time>2026-04-26T10:44:53.176Z</time></trkpt><trkpt lat="42.488439563532296" lon="12.712314705462223"><ele>917.0</ele><time>2026-04-26T10:44:55.176Z</time></trkpt><trkpt lat="42.48837537491151" lon="12.712333755602788"><ele>917.0</ele><time>2026-04-26T10:44:56.177Z</time></trkpt><trkpt lat="42.488266620370695" lon="12.712377183370155"><ele>917.0</ele><time>2026-04-26T10:44:58.177Z</time></trkpt><trkpt lat="42.488158261294366" lon="12.712351325851337"><ele>917.0</ele><time>2026-04-26T10:45:00.177Z</time></trkpt><trkpt lat="42.48805969372806" lon="12.71230108056308"><ele>917.0000000000001</ele><time>2026-04-26T10:45:02.177Z</time></trkpt><trkpt lat="42.48795453855612" lon="12.71230755852524"><ele>917.0</ele><time>2026-04-26T10:45:04.177Z</time></trkpt><trkpt lat="42.48790185458618" lon="12.712362086404639"><ele>917.0</ele><time>2026-04-26T10:45:05.177Z</time></trkpt><trkpt lat="42.487852158191984" lon="12.712414895480126"><ele>917.0</ele><time>2026-04-26T10:45:06.177Z</time></trkpt><trkpt lat="42.487780642306454" lon="12.712483263466256"><ele>917.0000000000001</ele><time>2026-04-26T10:45:08.177Z</time></trkpt><trkpt lat="42.487689584234346" lon="12.712549735544814"><ele>917.0</ele><time>2026-04-26T10:45:10.177Z</time></trkpt><trkpt lat="42.48756033282699" lon="12.712568753812443"><ele>917.5000000000001</ele><time>2026-04-26T10:45:12.177Z</time></trkpt><trkpt lat="42.487496914140515" lon="12.712602421208494"><ele>918.0</ele><time>2026-04-26T10:45:13.177Z</time></trkpt><trkpt lat="42.487443397288374" lon="12.712654864268618"><ele>918.5</ele><time>2026-04-26T10:45:14.177Z</time></trkpt><trkpt lat="42.48734472699955" lon="12.712769924913925"><ele>919.0</ele><time>2026-04-26T10:45:16.177Z</time></trkpt><trkpt lat="42.48727006565837" lon="12.712816260918554"><ele>919.5000000000001</ele><time>2026-04-26T10:45:17.177Z</time></trkpt><trkpt lat="42.48721007899287" lon="12.712870017233726"><ele>920.0</ele><time>2026-04-26T10:45:18.177Z</time></trkpt><trkpt lat="42.487139457551024" lon="12.712926216434242"><ele>921.142857142857</ele><time>2026-04-26T10:45:19.177Z</time></trkpt><trkpt lat="42.48707875130553" lon="12.712971992546597"><ele>922.2857142857142</ele><time>2026-04-26T10:45:20.177Z</time></trkpt><trkpt lat="42.48701831119474" lon="12.713037330129263"><ele>923.4285714285714</ele><time>2026-04-26T10:45:21.177Z</time></trkpt><trkpt lat="42.48697156413291" lon="12.713112140803906"><ele>924.5714285714286</ele><time>2026-04-26T10:45:22.177Z</time></trkpt><trkpt lat="42.48693419082382" lon="12.713202779479753"><ele>925.7142857142858</ele><time>2026-04-26T10:45:23.177Z</time></trkpt><trkpt lat="42.48690894073349" lon="12.713284002663771"><ele>926.857142857143</ele><time>2026-04-26T10:45:24.177Z</time></trkpt><trkpt lat="42.486879951610085" lon="12.71336003996847"><ele>928.0000000000001</ele><time>2026-04-26T10:45:25.177Z</time></trkpt><trkpt lat="42.48684642611455" lon="12.713474366850123"><ele>926.8</ele><time>2026-04-26T10:45:27.177Z</time></trkpt><trkpt lat="42.486834746103135" lon="12.71358983619555"><ele>925.5999999999999</ele><time>2026-04-26T10:45:29.177Z</time></trkpt><trkpt lat="42.486851544525386" lon="12.713755403148406"><ele>924.4000000000001</ele><time>2026-04-26T10:45:31.178Z</time></trkpt><trkpt lat="42.48678504318302" lon="12.713861758021359"><ele>923.2</ele><time>2026-04-26T10:45:33.178Z</time></trkpt><trkpt lat="42.486721548817826" lon="12.7139090685265"><ele>922.0</ele><time>2026-04-26T10:45:34.178Z</time></trkpt><trkpt lat="42.486661190281445" lon="12.713962490205502"><ele>921.9999999999999</ele><time>2026-04-26T10:45:35.178Z</time></trkpt><trkpt lat="42.48658060652061" lon="12.714003439674835"><ele>922.0</ele><time>2026-04-26T10:45:36.178Z</time></trkpt><trkpt lat="42.48648924421085" lon="12.714006499266661"><ele>922.0</ele><time>2026-04-26T10:45:37.178Z</time></trkpt><trkpt lat="42.48640994761348" lon="12.713988581933881"><ele>922.0</ele><time>2026-04-26T10:45:38.178Z</time></trkpt><trkpt lat="42.486338914555766" lon="12.713970629794986"><ele>921.9999999999999</ele><time>2026-04-26T10:45:39.178Z</time></trkpt><trkpt lat="42.48626795898646" lon="12.713960456869113"><ele>922.0</ele><time>2026-04-26T10:45:40.178Z</time></trkpt><trkpt lat="42.486190978203226" lon="12.713955447957927"><ele>921.6666666666666</ele><time>2026-04-26T10:45:41.178Z</time></trkpt><trkpt lat="42.48611554328542" lon="12.713980667509361"><ele>921.3333333333333</ele><time>2026-04-26T10:45:42.178Z</time></trkpt><trkpt lat="42.486048773567774" lon="12.714014523004257"><ele>921.0</ele><time>2026-04-26T10:45:43.178Z</time></trkpt><trkpt lat="42.48597997152386" lon="12.714068516039152"><ele>920.6666666666667</ele><time>2026-04-26T10:45:44.178Z</time></trkpt><trkpt lat="42.485918968003816" lon="12.714126413505175"><ele>920.3333333333334</ele><time>2026-04-26T10:45:45.178Z</time></trkpt><trkpt lat="42.48584671542983" lon="12.714152574944753"><ele>920.0</ele><time>2026-04-26T10:45:46.178Z</time></trkpt><trkpt lat="42.48576403335227" lon="12.714176347137577"><ele>920.0000000000001</ele><time>2026-04-26T10:45:47.178Z</time></trkpt><trkpt lat="42.48567055414129" lon="12.714167320010803"><ele>920.0</ele><time>2026-04-26T10:45:48.179Z</time></trkpt><trkpt lat="42.48557218031343" lon="12.714162903344896"><ele>920.0</ele><time>2026-04-26T10:45:49.179Z</time></trkpt><trkpt lat="42.48548675510166" lon="12.714178782132677"><ele>920.0</ele><time>2026-04-26T10:45:50.179Z</time></trkpt><trkpt lat="42.4854112652418" lon="12.714207253953685"><ele>920.0000000000001</ele><time>2026-04-26T10:45:51.179Z</time></trkpt><trkpt lat="42.485337263604244" lon="12.71426721414865"><ele>920.0</ele><time>2026-04-26T10:45:52.179Z</time></trkpt><trkpt lat="42.485282123554335" lon="12.714329279150183"><ele>919.6666666666667</ele><time>2026-04-26T10:45:53.179Z</time></trkpt><trkpt lat="42.48522918099701" lon="12.714376077589977"><ele>919.3333333333334</ele><time>2026-04-26T10:45:54.179Z</time></trkpt><trkpt lat="42.48515137474326" lon="12.714432247315797"><ele>919.0</ele><time>2026-04-26T10:45:55.179Z</time></trkpt><trkpt lat="42.48505777707995" lon="12.714460240319513"><ele>918.6666666666667</ele><time>2026-04-26T10:45:56.179Z</time></trkpt><trkpt lat="42.48495815669612" lon="12.714469881890292"><ele>918.3333333333334</ele><time>2026-04-26T10:45:57.179Z</time></trkpt><trkpt lat="42.48486258082689" lon="12.714509052038387"><ele>918.0</ele><time>2026-04-26T10:45:58.179Z</time></trkpt><trkpt lat="42.48478451787267" lon="12.714530809795791"><ele>918.0</ele><time>2026-04-26T10:45:59.179Z</time></trkpt><trkpt lat="42.48469890369064" lon="12.71452294048379"><ele>918.0</ele><time>2026-04-26T10:46:00.179Z</time></trkpt><trkpt lat="42.484609091050665" lon="12.714517694236452"><ele>918.0</ele><time>2026-04-26T10:46:01.179Z</time></trkpt><trkpt lat="42.484516672196456" lon="12.714472956584437"><ele>918.0</ele><time>2026-04-26T10:46:02.179Z</time></trkpt><trkpt lat="42.484427432834536" lon="12.714429543369226"><ele>918.0</ele><time>2026-04-26T10:46:03.179Z</time></trkpt><trkpt lat="42.484356651858754" lon="12.714393686762433"><ele>918.0</ele><time>2026-04-26T10:46:04.179Z</time></trkpt><trkpt lat="42.48423340842572" lon="12.714323868328224"><ele>915.8</ele><time>2026-04-26T10:46:06.179Z</time></trkpt><trkpt lat="42.4841529289253" lon="12.714292228326434"><ele>913.5999999999999</ele><time>2026-04-26T10:46:07.179Z</time></trkpt><trkpt lat="42.48404714193065" lon="12.714285365327218"><ele>911.4000000000001</ele><time>2026-04-26T10:46:08.179Z</time></trkpt><trkpt lat="42.483919224940124" lon="12.714280429363125"><ele>909.2</ele><time>2026-04-26T10:46:09.179Z</time></trkpt><trkpt lat="42.48380440158497" lon="12.714275508568008"><ele>907.0</ele><time>2026-04-26T10:46:10.179Z</time></trkpt><trkpt lat="42.48370819258674" lon="12.714256221343973"><ele>906.6666666666666</ele><time>2026-04-26T10:46:11.179Z</time></trkpt><trkpt lat="42.48362764875914" lon="12.714252985730267"><ele>906.3333333333333</ele><time>2026-04-26T10:46:12.179Z</time></trkpt><trkpt lat="42.483557760087095" lon="12.714253793671059"><ele>906.0</ele><time>2026-04-26T10:46:13.179Z</time></trkpt><trkpt lat="42.4834899545153" lon="12.714256559081646"><ele>905.6666666666667</ele><time>2026-04-26T10:46:14.179Z</time></trkpt><trkpt lat="42.483397802134114" lon="12.714273702018733"><ele>905.3333333333334</ele><time>2026-04-26T10:46:16.179Z</time></trkpt><trkpt lat="42.483316522450544" lon="12.714305330389433"><ele>905.0</ele><time>2026-04-26T10:46:18.179Z</time></trkpt><trkpt lat="42.4831947087455" lon="12.714375588328906"><ele>905.6</ele><time>2026-04-26T10:46:20.179Z</time></trkpt><trkpt lat="42.48312656400103" lon="12.714428264330817"><ele>906.2</ele><time>2026-04-26T10:46:21.179Z</time></trkpt><trkpt lat="42.4830375599956" lon="12.714477079934628"><ele>906.8</ele><time>2026-04-26T10:46:22.179Z</time></trkpt><trkpt lat="42.48293246584825" lon="12.714504774995074"><ele>907.4</ele><time>2026-04-26T10:46:23.18Z</time></trkpt><trkpt lat="42.48283145604783" lon="12.714530256650626"><ele>908.0</ele><time>2026-04-26T10:46:24.18Z</time></trkpt><trkpt lat="42.482726550107344" lon="12.714542519628086"><ele>908.2</ele><time>2026-04-26T10:46:25.18Z</time></trkpt><trkpt lat="42.48262858773199" lon="12.714546404999528"><ele>908.4</ele><time>2026-04-26T10:46:26.18Z</time></trkpt><trkpt lat="42.48253596907511" lon="12.714549558043732"><ele>908.6000000000001</ele><time>2026-04-26T10:46:27.18Z</time></trkpt><trkpt lat="42.482458955751525" lon="12.714562622995846"><ele>908.8000000000001</ele><time>2026-04-26T10:46:28.18Z</time></trkpt><trkpt lat="42.48232781408287" lon="12.714555634861714"><ele>909.0</ele><time>2026-04-26T10:46:30.18Z</time></trkpt><trkpt lat="42.48223332642909" lon="12.714608043633799"><ele>909.0</ele><time>2026-04-26T10:46:32.18Z</time></trkpt><trkpt lat="42.48217171564128" lon="12.7146477433565"><ele>909.0</ele><time>2026-04-26T10:46:34.18Z</time></trkpt><trkpt lat="42.482125779113645" lon="12.71477087244899"><ele>909.0</ele><time>2026-04-26T10:46:51.18Z</time></trkpt><trkpt lat="42.4821094932133" lon="12.714896579514443"><ele>909.0</ele><time>2026-04-26T10:46:53.18Z</time></trkpt><trkpt lat="42.48207388928704" lon="12.71499905964947"><ele>909.0</ele><time>2026-04-26T10:46:55.18Z</time></trkpt><trkpt lat="42.482025487451416" lon="12.715055044170922"><ele>909.0</ele><time>2026-04-26T10:47:05.181Z</time></trkpt><trkpt lat="42.48209136741557" lon="12.714992393593816"><ele>909.0</ele><time>2026-04-26T11:34:30.285Z</time></trkpt><trkpt lat="42.48205925670869" lon="12.71484946118948"><ele>909.0</ele><time>2026-04-26T11:37:25.29Z</time></trkpt><trkpt lat="42.482094031958816" lon="12.714764456312325"><ele>909.0</ele><time>2026-04-26T11:37:28.29Z</time></trkpt><trkpt lat="42.48206170569823" lon="12.714675627338096"><ele>909.0</ele><time>2026-04-26T11:37:32.29Z</time></trkpt><trkpt lat="42.481995146012515" lon="12.714686479228643"><ele>909.0</ele><time>2026-04-26T11:37:35.29Z</time></trkpt><trkpt lat="42.48193126111963" lon="12.714676012545144"><ele>909.0</ele><time>2026-04-26T11:37:38.291Z</time></trkpt><trkpt lat="42.48186506040365" lon="12.714664980516192"><ele>909.0</ele><time>2026-04-26T11:37:41.291Z</time></trkpt><trkpt lat="42.481790388367436" lon="12.714646481230073"><ele>909.0000000000001</ele><time>2026-04-26T11:37:44.291Z</time></trkpt><trkpt lat="42.48170855379986" lon="12.71464279667527"><ele>909.0000000000001</ele><time>2026-04-26T11:37:47.291Z</time></trkpt><trkpt lat="42.481631601464144" lon="12.71462831814628"><ele>909.0</ele><time>2026-04-26T11:37:49.291Z</time></trkpt><trkpt lat="42.48152040984886" lon="12.714631974799671"><ele>909.0</ele><time>2026-04-26T11:37:51.291Z</time></trkpt><trkpt lat="42.48138090926563" lon="12.714614313797002"><ele>909.0</ele><time>2026-04-26T11:37:53.291Z</time></trkpt><trkpt lat="42.48129399417061" lon="12.714589571624678"><ele>909.0000000000001</ele><time>2026-04-26T11:37:54.291Z</time></trkpt><trkpt lat="42.48120418695877" lon="12.714555032737"><ele>909.0000000000001</ele><time>2026-04-26T11:37:55.291Z</time></trkpt><trkpt lat="42.481117873528966" lon="12.714516959876105"><ele>909.0</ele><time>2026-04-26T11:37:56.291Z</time></trkpt><trkpt lat="42.481033208764295" lon="12.714475101048718"><ele>909.0</ele><time>2026-04-26T11:37:57.291Z</time></trkpt><trkpt lat="42.48095265242376" lon="12.714424606090992"><ele>909.2</ele><time>2026-04-26T11:37:58.291Z</time></trkpt><trkpt lat="42.48088029167727" lon="12.714357681337566"><ele>909.4000000000001</ele><time>2026-04-26T11:37:59.291Z</time></trkpt><trkpt lat="42.4808027925981" lon="12.714305544958243"><ele>909.6</ele><time>2026-04-26T11:38:00.291Z</time></trkpt><trkpt lat="42.48073134125001" lon="12.714245696871863"><ele>909.8</ele><time>2026-04-26T11:38:01.291Z</time></trkpt><trkpt lat="42.48065371193813" lon="12.714179434636897"><ele>910.0</ele><time>2026-04-26T11:38:02.291Z</time></trkpt><trkpt lat="42.480569550624686" lon="12.714101913730515"><ele>910.0</ele><time>2026-04-26T11:38:03.291Z</time></trkpt><trkpt lat="42.480478605959924" lon="12.713986155736409"><ele>910.0</ele><time>2026-04-26T11:38:04.291Z</time></trkpt><trkpt lat="42.48040918745352" lon="12.713858738032648"><ele>910.0</ele><time>2026-04-26T11:38:05.291Z</time></trkpt><trkpt lat="42.480353980131774" lon="12.7137402553403"><ele>910.0</ele><time>2026-04-26T11:38:06.291Z</time></trkpt><trkpt lat="42.48030207106632" lon="12.713634177516573"><ele>910.0</ele><time>2026-04-26T11:38:07.291Z</time></trkpt><trkpt lat="42.4802496643588" lon="12.71354693429763"><ele>909.9999999999999</ele><time>2026-04-26T11:38:08.291Z</time></trkpt><trkpt lat="42.48020103922639" lon="12.713470625701783"><ele>910.0</ele><time>2026-04-26T11:38:09.291Z</time></trkpt><trkpt lat="42.48015909078989" lon="12.713400960310544"><ele>910.0</ele><time>2026-04-26T11:38:10.291Z</time></trkpt><trkpt lat="42.48011088958753" lon="12.713326742588453"><ele>910.0</ele><time>2026-04-26T11:38:11.291Z</time></trkpt><trkpt lat="42.480058950857575" lon="12.713253986919353"><ele>909.9999999999999</ele><time>2026-04-26T11:38:12.291Z</time></trkpt><trkpt lat="42.48000639662044" lon="12.713180940727815"><ele>910.0</ele><time>2026-04-26T11:38:13.292Z</time></trkpt><trkpt lat="42.47995345001679" lon="12.713083574547193"><ele>909.9999999999999</ele><time>2026-04-26T11:38:14.292Z</time></trkpt><trkpt lat="42.47991102494466" lon="12.712992852482992"><ele>910.0</ele><time>2026-04-26T11:38:15.292Z</time></trkpt><trkpt lat="42.47985551075269" lon="12.712912990049432"><ele>910.0</ele><time>2026-04-26T11:38:16.292Z</time></trkpt><trkpt lat="42.479795511991725" lon="12.712832017319565"><ele>910.0</ele><time>2026-04-26T11:38:17.292Z</time></trkpt><trkpt lat="42.47973352091038" lon="12.712741884757413"><ele>909.9999999999999</ele><time>2026-04-26T11:38:18.293Z</time></trkpt><trkpt lat="42.47966817261479" lon="12.71265173379635"><ele>910.0</ele><time>2026-04-26T11:38:19.293Z</time></trkpt><trkpt lat="42.47961737284776" lon="12.712568004006783"><ele>909.8333333333333</ele><time>2026-04-26T11:38:20.292Z</time></trkpt><trkpt lat="42.4795631442573" lon="12.712504023047074"><ele>909.6666666666666</ele><time>2026-04-26T11:38:21.292Z</time></trkpt><trkpt lat="42.47949725820417" lon="12.712453554869837"><ele>909.5</ele><time>2026-04-26T11:38:22.292Z</time></trkpt><trkpt lat="42.47942763898776" lon="12.71241518384317"><ele>909.3333333333333</ele><time>2026-04-26T11:38:23.292Z</time></trkpt><trkpt lat="42.47935664296031" lon="12.712379392305118"><ele>909.1666666666666</ele><time>2026-04-26T11:38:24.292Z</time></trkpt><trkpt lat="42.47927946739819" lon="12.712343352920389"><ele>909.0</ele><time>2026-04-26T11:38:25.292Z</time></trkpt><trkpt lat="42.479199240986496" lon="12.71230454428774"><ele>909.0</ele><time>2026-04-26T11:38:26.292Z</time></trkpt><trkpt lat="42.47912474998885" lon="12.712252313498485"><ele>909.0000000000001</ele><time>2026-04-26T11:38:27.292Z</time></trkpt><trkpt lat="42.47904579558338" lon="12.712193140788749"><ele>909.0000000000001</ele><time>2026-04-26T11:38:28.292Z</time></trkpt><trkpt lat="42.47896360962886" lon="12.712135340983973"><ele>909.0</ele><time>2026-04-26T11:38:29.292Z</time></trkpt><trkpt lat="42.47887646142349" lon="12.712080876966981"><ele>909.0</ele><time>2026-04-26T11:38:30.292Z</time></trkpt><trkpt lat="42.47878748180611" lon="12.712021890046287"><ele>909.25</ele><time>2026-04-26T11:38:31.292Z</time></trkpt><trkpt lat="42.4786903390264" lon="12.711957825783035"><ele>909.5</ele><time>2026-04-26T11:38:32.292Z</time></trkpt><trkpt lat="42.47858941016372" lon="12.711877560080143"><ele>909.75</ele><time>2026-04-26T11:38:33.292Z</time></trkpt><trkpt lat="42.47849964145548" lon="12.711775482247107"><ele>910.0</ele><time>2026-04-26T11:38:34.292Z</time></trkpt><trkpt lat="42.478403409188076" lon="12.711688539039722"><ele>909.5</ele><time>2026-04-26T11:38:35.292Z</time></trkpt><trkpt lat="42.478301357278674" lon="12.711601744122149"><ele>909.0</ele><time>2026-04-26T11:38:36.293Z</time></trkpt><trkpt lat="42.47820501198739" lon="12.711506328407367"><ele>908.5</ele><time>2026-04-26T11:38:37.293Z</time></trkpt><trkpt lat="42.478117200112486" lon="12.711410386273812"><ele>908.0</ele><time>2026-04-26T11:38:38.293Z</time></trkpt><trkpt lat="42.478021667818844" lon="12.711310320446895"><ele>908.0</ele><time>2026-04-26T11:38:39.293Z</time></trkpt><trkpt lat="42.47792090332598" lon="12.711209587319122"><ele>908.0</ele><time>2026-04-26T11:38:40.293Z</time></trkpt><trkpt lat="42.477810662156486" lon="12.711103736357556"><ele>908.0</ele><time>2026-04-26T11:38:41.293Z</time></trkpt><trkpt lat="42.47770040085349" lon="12.71099342015396"><ele>908.0</ele><time>2026-04-26T11:38:42.293Z</time></trkpt><trkpt lat="42.47759086375097" lon="12.710861126639804"><ele>908.25</ele><time>2026-04-26T11:38:43.293Z</time></trkpt><trkpt lat="42.47748359424859" lon="12.710753738230244"><ele>908.5</ele><time>2026-04-26T11:38:44.293Z</time></trkpt><trkpt lat="42.47737568678864" lon="12.71064478893444"><ele>908.75</ele><time>2026-04-26T11:38:45.293Z</time></trkpt><trkpt lat="42.47726887706749" lon="12.710521534076106"><ele>909.0</ele><time>2026-04-26T11:38:46.293Z</time></trkpt><trkpt lat="42.477161588883234" lon="12.71040034678826"><ele>908.5</ele><time>2026-04-26T11:38:47.293Z</time></trkpt><trkpt lat="42.47705736542617" lon="12.710284675756823"><ele>908.0</ele><time>2026-04-26T11:38:48.293Z</time></trkpt><trkpt lat="42.47695737504605" lon="12.710169394927835"><ele>907.5</ele><time>2026-04-26T11:38:49.293Z</time></trkpt><trkpt lat="42.47685919861257" lon="12.710046624876503"><ele>907.0</ele><time>2026-04-26T11:38:50.293Z</time></trkpt><trkpt lat="42.47677088375748" lon="12.709920147085349"><ele>908.25</ele><time>2026-04-26T11:38:51.293Z</time></trkpt><trkpt lat="42.476690726909055" lon="12.709786818869464"><ele>909.5</ele><time>2026-04-26T11:38:52.293Z</time></trkpt><trkpt lat="42.47659695051967" lon="12.709657954971721"><ele>910.75</ele><time>2026-04-26T11:38:53.293Z</time></trkpt><trkpt lat="42.47650531930485" lon="12.709529446390235"><ele>912.0</ele><time>2026-04-26T11:38:54.293Z</time></trkpt><trkpt lat="42.47640856539844" lon="12.709413715257663"><ele>912.5</ele><time>2026-04-26T11:38:55.293Z</time></trkpt><trkpt lat="42.476316372466506" lon="12.709297864173836"><ele>913.0</ele><time>2026-04-26T11:38:56.293Z</time></trkpt><trkpt lat="42.47622337100241" lon="12.70917600890871"><ele>913.5</ele><time>2026-04-26T11:38:57.293Z</time></trkpt><trkpt lat="42.47611704310642" lon="12.709056820876802"><ele>914.0</ele><time>2026-04-26T11:38:58.293Z</time></trkpt><trkpt lat="42.47601003756738" lon="12.70894094444128"><ele>914.0</ele><time>2026-04-26T11:38:59.293Z</time></trkpt><trkpt lat="42.47590200046365" lon="12.708838532971408"><ele>914.0</ele><time>2026-04-26T11:39:00.293Z</time></trkpt><trkpt lat="42.47579156411777" lon="12.708754036070113"><ele>914.0</ele><time>2026-04-26T11:39:01.293Z</time></trkpt><trkpt lat="42.475678272055035" lon="12.708668218749706"><ele>914.0</ele><time>2026-04-26T11:39:02.293Z</time></trkpt><trkpt lat="42.47557834785126" lon="12.708569008025918"><ele>914.75</ele><time>2026-04-26T11:39:03.293Z</time></trkpt><trkpt lat="42.47548233986517" lon="12.708463901842231"><ele>915.5</ele><time>2026-04-26T11:39:04.293Z</time></trkpt><trkpt lat="42.47539132272192" lon="12.708356328599237"><ele>916.25</ele><time>2026-04-26T11:39:05.293Z</time></trkpt><trkpt lat="42.47528624779066" lon="12.70824963463634"><ele>917.0</ele><time>2026-04-26T11:39:06.293Z</time></trkpt><trkpt lat="42.475188839567494" lon="12.708165470376969"><ele>917.0</ele><time>2026-04-26T11:39:07.293Z</time></trkpt><trkpt lat="42.47508489908087" lon="12.708090685852572"><ele>917.0</ele><time>2026-04-26T11:39:08.293Z</time></trkpt><trkpt lat="42.47499261845155" lon="12.708013743842775"><ele>917.0</ele><time>2026-04-26T11:39:09.293Z</time></trkpt><trkpt lat="42.474900075446634" lon="12.70791693828834"><ele>917.0</ele><time>2026-04-26T11:39:10.293Z</time></trkpt><trkpt lat="42.474810079314814" lon="12.707815908615506"><ele>917.2</ele><time>2026-04-26T11:39:11.293Z</time></trkpt><trkpt lat="42.47473940282411" lon="12.707722578760144"><ele>917.4000000000001</ele><time>2026-04-26T11:39:12.294Z</time></trkpt><trkpt lat="42.47467306149331" lon="12.70763204397935"><ele>917.5999999999999</ele><time>2026-04-26T11:39:13.294Z</time></trkpt><trkpt lat="42.47459585163867" lon="12.707552622314772"><ele>917.8</ele><time>2026-04-26T11:39:14.294Z</time></trkpt><trkpt lat="42.47451281989161" lon="12.707485354001543"><ele>918.0</ele><time>2026-04-26T11:39:15.294Z</time></trkpt><trkpt lat="42.474439896304375" lon="12.707414149728478"><ele>918.5</ele><time>2026-04-26T11:39:16.294Z</time></trkpt><trkpt lat="42.47435534428487" lon="12.70735453237419"><ele>919.0</ele><time>2026-04-26T11:39:17.294Z</time></trkpt><trkpt lat="42.47427423241279" lon="12.707289259118912"><ele>919.5</ele><time>2026-04-26T11:39:18.294Z</time></trkpt><trkpt lat="42.474200397135185" lon="12.70722336097724"><ele>920.0</ele><time>2026-04-26T11:39:19.294Z</time></trkpt><trkpt lat="42.474131837798915" lon="12.707155462331759"><ele>920.5</ele><time>2026-04-26T11:39:20.294Z</time></trkpt><trkpt lat="42.47407420724308" lon="12.707092807257242"><ele>921.0</ele><time>2026-04-26T11:39:21.294Z</time></trkpt><trkpt lat="42.47402893807034" lon="12.707029211727868"><ele>921.0</ele><time>2026-04-26T11:39:22.294Z</time></trkpt><trkpt lat="42.473968371930475" lon="12.706955278949742"><ele>920.9999999999999</ele><time>2026-04-26T11:39:23.294Z</time></trkpt><trkpt lat="42.473888372244" lon="12.706921033554506"><ele>920.9999999999999</ele><time>2026-04-26T11:39:24.294Z</time></trkpt><trkpt lat="42.47380014465721" lon="12.706885556830422"><ele>921.0</ele><time>2026-04-26T11:39:25.294Z</time></trkpt><trkpt lat="42.473709968067624" lon="12.706858117215232"><ele>921.0</ele><time>2026-04-26T11:39:26.294Z</time></trkpt><trkpt lat="42.47361370896872" lon="12.706822168536807"><ele>922.0</ele><time>2026-04-26T11:39:27.294Z</time></trkpt><trkpt lat="42.47353074632651" lon="12.706782178111483"><ele>923.0</ele><time>2026-04-26T11:39:28.294Z</time></trkpt><trkpt lat="42.47344960429185" lon="12.706751627097212"><ele>924.0</ele><time>2026-04-26T11:39:29.294Z</time></trkpt><trkpt lat="42.473376393168785" lon="12.706726446688664"><ele>925.0</ele><time>2026-04-26T11:39:30.294Z</time></trkpt><trkpt lat="42.47330916477937" lon="12.706651217376708"><ele>926.0</ele><time>2026-04-26T11:39:31.294Z</time></trkpt><trkpt lat="42.473211260431725" lon="12.70659210770896"><ele>927.0</ele><time>2026-04-26T11:39:32.294Z</time></trkpt><trkpt lat="42.47312627618587" lon="12.706544458431683"><ele>927.0</ele><time>2026-04-26T11:39:33.294Z</time></trkpt><trkpt lat="42.47304550387353" lon="12.706506831087351"><ele>927.0</ele><time>2026-04-26T11:39:34.294Z</time></trkpt><trkpt lat="42.472968138972576" lon="12.706473508554962"><ele>927.0</ele><time>2026-04-26T11:39:35.294Z</time></trkpt><trkpt lat="42.47289755634895" lon="12.706434194296495"><ele>927.0</ele><time>2026-04-26T11:39:36.294Z</time></trkpt><trkpt lat="42.47280308932774" lon="12.70639346486532"><ele>927.0</ele><time>2026-04-26T11:39:37.294Z</time></trkpt><trkpt lat="42.472708483162876" lon="12.706367361790734"><ele>927.0</ele><time>2026-04-26T11:39:38.294Z</time></trkpt><trkpt lat="42.472617404848265" lon="12.706373016304038"><ele>927.8571428571427</ele><time>2026-04-26T11:39:39.294Z</time></trkpt><trkpt lat="42.47253548810213" lon="12.70636545037357"><ele>928.7142857142857</ele><time>2026-04-26T11:39:40.294Z</time></trkpt><trkpt lat="42.47246418874442" lon="12.706357262626556"><ele>929.5714285714284</ele><time>2026-04-26T11:39:41.294Z</time></trkpt><trkpt lat="42.47239028620326" lon="12.70636641059398"><ele>930.4285714285713</ele><time>2026-04-26T11:39:42.294Z</time></trkpt><trkpt lat="42.472323543097986" lon="12.706371205000197"><ele>931.2857142857142</ele><time>2026-04-26T11:39:43.294Z</time></trkpt><trkpt lat="42.472256237845755" lon="12.706381131365985"><ele>932.1428571428571</ele><time>2026-04-26T11:39:44.294Z</time></trkpt><trkpt lat="42.47217436591176" lon="12.706360809611631"><ele>933.0</ele><time>2026-04-26T11:39:46.294Z</time></trkpt><trkpt lat="42.472110003727714" lon="12.706323910534158"><ele>934.1666666666666</ele><time>2026-04-26T11:39:51.295Z</time></trkpt><trkpt lat="42.47204440857953" lon="12.706295370482986"><ele>935.3333333333333</ele><time>2026-04-26T11:40:00.295Z</time></trkpt><trkpt lat="42.47194770250959" lon="12.706267306535725"><ele>936.5</ele><time>2026-04-26T11:41:37.297Z</time></trkpt><trkpt lat="42.47184960199353" lon="12.706218969496504"><ele>937.6666666666666</ele><time>2026-04-26T11:41:39.298Z</time></trkpt><trkpt lat="42.47178186684336" lon="12.706226549675705"><ele>938.8333333333333</ele><time>2026-04-26T11:41:40.298Z</time></trkpt><trkpt lat="42.47170901554786" lon="12.706220332301838"><ele>940.0</ele><time>2026-04-26T11:41:41.298Z</time></trkpt><trkpt lat="42.47163513167953" lon="12.70621204897745"><ele>940.0</ele><time>2026-04-26T11:41:42.298Z</time></trkpt><trkpt lat="42.47153178455747" lon="12.706221913202954"><ele>940.0</ele><time>2026-04-26T11:41:44.298Z</time></trkpt><trkpt lat="42.471416480619595" lon="12.706254143629035"><ele>940.0</ele><time>2026-04-26T11:41:46.298Z</time></trkpt><trkpt lat="42.471333407451404" lon="12.706284711539395"><ele>940.0</ele><time>2026-04-26T11:41:47.298Z</time></trkpt><trkpt lat="42.47126280037468" lon="12.706317919269715"><ele>940.0</ele><time>2026-04-26T11:41:48.298Z</time></trkpt><trkpt lat="42.47118663107977" lon="12.706339412383247"><ele>940.4999999999999</ele><time>2026-04-26T11:41:49.298Z</time></trkpt><trkpt lat="42.47108565585951" lon="12.706336957444254"><ele>941.0</ele><time>2026-04-26T11:41:51.298Z</time></trkpt><trkpt lat="42.471020039932476" lon="12.706327859231504"><ele>941.5</ele><time>2026-04-26T11:41:52.298Z</time></trkpt><trkpt lat="42.470938973520276" lon="12.706329233398709"><ele>942.0</ele><time>2026-04-26T11:41:53.298Z</time></trkpt><trkpt lat="42.470873464948134" lon="12.70632845592936"><ele>942.4999999999999</ele><time>2026-04-26T11:41:54.298Z</time></trkpt><trkpt lat="42.47075415477028" lon="12.706343138056369"><ele>943.0</ele><time>2026-04-26T11:41:56.298Z</time></trkpt><trkpt lat="42.470691028409234" lon="12.70632330419026"><ele>943.0</ele><time>2026-04-26T11:41:57.298Z</time></trkpt><trkpt lat="42.47057294880528" lon="12.706228963010538"><ele>943.0</ele><time>2026-04-26T11:41:59.298Z</time></trkpt><trkpt lat="42.470484443420986" lon="12.706159290871662"><ele>943.0</ele><time>2026-04-26T11:42:00.298Z</time></trkpt><trkpt lat="42.470391686035974" lon="12.706132686031054"><ele>943.0</ele><time>2026-04-26T11:42:01.298Z</time></trkpt><trkpt lat="42.470308720023546" lon="12.706125129221713"><ele>943.0</ele><time>2026-04-26T11:42:02.298Z</time></trkpt><trkpt lat="42.47021652671919" lon="12.706112124251817"><ele>942.8333333333333</ele><time>2026-04-26T11:42:03.298Z</time></trkpt><trkpt lat="42.47012817387804" lon="12.70609738058812"><ele>942.6666666666666</ele><time>2026-04-26T11:42:04.298Z</time></trkpt><trkpt lat="42.47003643382521" lon="12.706056382542721"><ele>942.5</ele><time>2026-04-26T11:42:05.298Z</time></trkpt><trkpt lat="42.46995738838239" lon="12.706015358521805"><ele>942.3333333333333</ele><time>2026-04-26T11:42:06.298Z</time></trkpt><trkpt lat="42.469874988171895" lon="12.705964400763074"><ele>942.1666666666666</ele><time>2026-04-26T11:42:07.298Z</time></trkpt><trkpt lat="42.469805595144614" lon="12.705910940979043"><ele>942.0</ele><time>2026-04-26T11:42:08.298Z</time></trkpt><trkpt lat="42.46974117675529" lon="12.705872787295284"><ele>943.0</ele><time>2026-04-26T11:42:09.298Z</time></trkpt><trkpt lat="42.46967565692866" lon="12.705831414245749"><ele>944.0</ele><time>2026-04-26T11:42:10.298Z</time></trkpt><trkpt lat="42.46956806623929" lon="12.705757038572733"><ele>945.0</ele><time>2026-04-26T11:42:12.298Z</time></trkpt><trkpt lat="42.4694825281094" lon="12.705633796445282"><ele>946.0</ele><time>2026-04-26T11:42:14.298Z</time></trkpt><trkpt lat="42.469438731119865" lon="12.705533872190346"><ele>947.0</ele><time>2026-04-26T11:42:16.299Z</time></trkpt><trkpt lat="42.469363871721406" lon="12.705440581381596"><ele>948.0</ele><time>2026-04-26T11:42:18.299Z</time></trkpt><trkpt lat="42.46928292246967" lon="12.705420861802736"><ele>949.0</ele><time>2026-04-26T11:42:19.299Z</time></trkpt><trkpt lat="42.469194113293426" lon="12.705442843452193"><ele>950.0</ele><time>2026-04-26T11:42:20.299Z</time></trkpt><trkpt lat="42.46908003119091" lon="12.705440844848953"><ele>951.0</ele><time>2026-04-26T11:42:21.299Z</time></trkpt><trkpt lat="42.46899550499479" lon="12.705392614379269"><ele>952.0</ele><time>2026-04-26T11:42:22.299Z</time></trkpt><trkpt lat="42.46887308642816" lon="12.705399933173046"><ele>952.0</ele><time>2026-04-26T11:42:24.299Z</time></trkpt><trkpt lat="42.468809318619456" lon="12.705438707947462"><ele>952.0</ele><time>2026-04-26T11:42:25.299Z</time></trkpt><trkpt lat="42.468752641148726" lon="12.705534751479838"><ele>952.0</ele><time>2026-04-26T11:42:27.3Z</time></trkpt><trkpt lat="42.46873559393911" lon="12.70565138047892"><ele>952.0</ele><time>2026-04-26T11:42:31.3Z</time></trkpt><trkpt lat="42.468756604925325" lon="12.70580203748814"><ele>952.0</ele><time>2026-04-26T11:42:33.3Z</time></trkpt><trkpt lat="42.46876177938135" lon="12.705465258050074"><ele>951.9999999999999</ele><time>2026-04-26T11:42:35.3Z</time></trkpt><trkpt lat="42.46875582907093" lon="12.705358704799025"><ele>952.0</ele><time>2026-04-26T11:42:36.3Z</time></trkpt><trkpt lat="42.46871435628001" lon="12.705262876035405"><ele>952.0</ele><time>2026-04-26T11:43:32.301Z</time></trkpt><trkpt lat="42.46878922861022" lon="12.705172751605115"><ele>952.0</ele><time>2026-04-26T11:45:43.306Z</time></trkpt><trkpt lat="42.46884683252403" lon="12.705223123127467"><ele>951.9999999999999</ele><time>2026-04-26T11:46:00.306Z</time></trkpt><trkpt lat="42.468929939162585" lon="12.70522094394629"><ele>952.0</ele><time>2026-04-26T11:46:03.306Z</time></trkpt><trkpt lat="42.469018189313864" lon="12.705257870671913"><ele>951.9999999999999</ele><time>2026-04-26T11:46:06.307Z</time></trkpt><trkpt lat="42.469084075399024" lon="12.705272175611565"><ele>952.0</ele><time>2026-04-26T11:46:08.307Z</time></trkpt><trkpt lat="42.46915489071798" lon="12.705296747030598"><ele>952.0</ele><time>2026-04-26T11:46:10.307Z</time></trkpt><trkpt lat="42.46925035364459" lon="12.705318976788913"><ele>952.0</ele><time>2026-04-26T11:46:12.307Z</time></trkpt><trkpt lat="42.469330263399655" lon="12.705396371014665"><ele>951.9999999999999</ele><time>2026-04-26T11:46:15.307Z</time></trkpt><trkpt lat="42.46938454408026" lon="12.705489774514747"><ele>952.0</ele><time>2026-04-26T11:46:17.307Z</time></trkpt><trkpt lat="42.469438511129724" lon="12.70558065737219"><ele>952.0</ele><time>2026-04-26T11:46:19.307Z</time></trkpt><trkpt lat="42.46955669241884" lon="12.705654840937038"><ele>952.0</ele><time>2026-04-26T11:46:21.307Z</time></trkpt><trkpt lat="42.46967847224302" lon="12.705724058335075"><ele>952.0</ele><time>2026-04-26T11:46:23.307Z</time></trkpt><trkpt lat="42.46979647704301" lon="12.705788236032781"><ele>952.0</ele><time>2026-04-26T11:46:25.307Z</time></trkpt><trkpt lat="42.46987954878945" lon="12.705813589110864"><ele>951.1666666666666</ele><time>2026-04-26T11:46:26.307Z</time></trkpt><trkpt lat="42.469967032723595" lon="12.70586508437609"><ele>950.3333333333333</ele><time>2026-04-26T11:46:27.307Z</time></trkpt><trkpt lat="42.4700344967054" lon="12.705904530628889"><ele>949.5</ele><time>2026-04-26T11:46:28.307Z</time></trkpt><trkpt lat="42.47010257394254" lon="12.705957267148287"><ele>948.6666666666667</ele><time>2026-04-26T11:46:29.307Z</time></trkpt><trkpt lat="42.47016604329065" lon="12.705990500267598"><ele>947.8333333333334</ele><time>2026-04-26T11:46:30.307Z</time></trkpt><trkpt lat="42.4702505647938" lon="12.706064984370842"><ele>947.0</ele><time>2026-04-26T11:46:32.307Z</time></trkpt><trkpt lat="42.47030996015375" lon="12.706108930968568"><ele>946.3333333333334</ele><time>2026-04-26T11:46:33.307Z</time></trkpt><trkpt lat="42.470386292022994" lon="12.706168549000132"><ele>945.6666666666667</ele><time>2026-04-26T11:46:34.307Z</time></trkpt><trkpt lat="42.47046047470203" lon="12.706221806302777"><ele>945.0</ele><time>2026-04-26T11:46:35.307Z</time></trkpt><trkpt lat="42.47053438586421" lon="12.706254947335157"><ele>944.3333333333333</ele><time>2026-04-26T11:46:37.307Z</time></trkpt><trkpt lat="42.47061219035527" lon="12.706247458775346"><ele>943.6666666666666</ele><time>2026-04-26T11:46:39.309Z</time></trkpt><trkpt lat="42.470675383267704" lon="12.706233241705045"><ele>943.0</ele><time>2026-04-26T11:46:41.309Z</time></trkpt><trkpt lat="42.47074456769499" lon="12.706217622361386"><ele>942.9999999999999</ele><time>2026-04-26T11:46:43.309Z</time></trkpt><trkpt lat="42.47079417192514" lon="12.706154384415935"><ele>943.0</ele><time>2026-04-26T11:46:45.309Z</time></trkpt><trkpt lat="42.470815444572786" lon="12.706039731221036"><ele>943.0</ele><time>2026-04-26T11:46:47.309Z</time></trkpt><trkpt lat="42.47077035009341" lon="12.70597068683716"><ele>943.0</ele><time>2026-04-26T11:46:52.309Z</time></trkpt><trkpt lat="42.47071925388941" lon="12.705911188807915"><ele>942.9999999999999</ele><time>2026-04-26T11:46:55.309Z</time></trkpt><trkpt lat="42.470695056103175" lon="12.70580893475334"><ele>943.0</ele><time>2026-04-26T11:46:58.309Z</time></trkpt><trkpt lat="42.470617286316795" lon="12.705721275215225"><ele>943.8</ele><time>2026-04-26T11:47:00.309Z</time></trkpt><trkpt lat="42.47054231609536" lon="12.705639971600583"><ele>944.5999999999999</ele><time>2026-04-26T11:47:02.309Z</time></trkpt><trkpt lat="42.470462728786984" lon="12.705548724489045"><ele>945.4000000000001</ele><time>2026-04-26T11:47:04.309Z</time></trkpt><trkpt lat="42.470386682249334" lon="12.705472757409167"><ele>946.2</ele><time>2026-04-26T11:47:05.309Z</time></trkpt><trkpt lat="42.47034266264709" lon="12.705411367243471"><ele>947.0</ele><time>2026-04-26T11:47:07.309Z</time></trkpt><trkpt lat="42.470238826821166" lon="12.70535019495726"><ele>947.0</ele><time>2026-04-26T11:47:09.309Z</time></trkpt><trkpt lat="42.470191736056286" lon="12.705284115857083"><ele>947.0</ele><time>2026-04-26T11:47:10.309Z</time></trkpt><trkpt lat="42.47010776853441" lon="12.705210435687654"><ele>947.0</ele><time>2026-04-26T11:47:12.309Z</time></trkpt><trkpt lat="42.47003934220933" lon="12.705191494143715"><ele>947.0</ele><time>2026-04-26T11:47:16.31Z</time></trkpt><trkpt lat="42.469975949315064" lon="12.705020405845834"><ele>947.0</ele><time>2026-04-26T11:47:41.31Z</time></trkpt><trkpt lat="42.46999027011046" lon="12.704913764033194"><ele>948.3333333333334</ele><time>2026-04-26T11:47:42.31Z</time></trkpt><trkpt lat="42.469997248081214" lon="12.704819580181447"><ele>949.6666666666667</ele><time>2026-04-26T11:47:43.31Z</time></trkpt><trkpt lat="42.46998905760073" lon="12.704720274320607"><ele>951.0</ele><time>2026-04-26T11:47:44.31Z</time></trkpt><trkpt lat="42.46996510319107" lon="12.704625419390895"><ele>952.3333333333333</ele><time>2026-04-26T11:47:45.31Z</time></trkpt><trkpt lat="42.46988818676157" lon="12.704534792207069"><ele>953.6666666666666</ele><time>2026-04-26T11:47:47.31Z</time></trkpt><trkpt lat="42.469829155552574" lon="12.704446656794591"><ele>955.0</ele><time>2026-04-26T11:47:49.31Z</time></trkpt><trkpt lat="42.46979365977139" lon="12.704375576580818"><ele>956.6</ele><time>2026-04-26T11:47:50.31Z</time></trkpt><trkpt lat="42.46973171288718" lon="12.704245024067252"><ele>958.2</ele><time>2026-04-26T11:47:52.311Z</time></trkpt><trkpt lat="42.4696516373017" lon="12.704164466172486"><ele>959.8</ele><time>2026-04-26T11:47:55.311Z</time></trkpt><trkpt lat="42.469550934393624" lon="12.704179182857692"><ele>961.4</ele><time>2026-04-26T11:47:57.311Z</time></trkpt><trkpt lat="42.4694857017289" lon="12.704188298974112"><ele>963.0</ele><time>2026-04-26T11:47:58.311Z</time></trkpt><trkpt lat="42.469383693814876" lon="12.704207872830684"><ele>964.2</ele><time>2026-04-26T11:48:00.311Z</time></trkpt><trkpt lat="42.46930071996675" lon="12.704256025886952"><ele>965.4</ele><time>2026-04-26T11:48:02.311Z</time></trkpt><trkpt lat="42.46921820231774" lon="12.704244876098441"><ele>966.6000000000001</ele><time>2026-04-26T11:48:04.311Z</time></trkpt><trkpt lat="42.46914072915061" lon="12.704220279234226"><ele>967.8000000000001</ele><time>2026-04-26T11:48:06.311Z</time></trkpt><trkpt lat="42.46903622812431" lon="12.70424468362535"><ele>969.0</ele><time>2026-04-26T11:48:08.311Z</time></trkpt><trkpt lat="42.46892102902799" lon="12.704282511437036"><ele>969.0</ele><time>2026-04-26T11:48:10.311Z</time></trkpt><trkpt lat="42.46882120400974" lon="12.70430665087907"><ele>969.0000000000001</ele><time>2026-04-26T11:48:12.311Z</time></trkpt><trkpt lat="42.46875013430171" lon="12.704319334982147"><ele>969.0000000000001</ele><time>2026-04-26T11:48:13.311Z</time></trkpt><trkpt lat="42.468684931877355" lon="12.704347807796669"><ele>969.0</ele><time>2026-04-26T11:48:14.311Z</time></trkpt><trkpt lat="42.46857592281317" lon="12.704362760985644"><ele>969.0</ele><time>2026-04-26T11:48:16.311Z</time></trkpt><trkpt lat="42.468448080082986" lon="12.704342414080212"><ele>971.3333333333334</ele><time>2026-04-26T11:48:18.311Z</time></trkpt><trkpt lat="42.46834080512606" lon="12.70431353012757"><ele>973.6666666666667</ele><time>2026-04-26T11:48:20.311Z</time></trkpt><trkpt lat="42.468251550903524" lon="12.704283296314706"><ele>976.0</ele><time>2026-04-26T11:48:22.311Z</time></trkpt><trkpt lat="42.46817269483787" lon="12.704276914945382"><ele>978.3333333333334</ele><time>2026-04-26T11:48:24.311Z</time></trkpt><trkpt lat="42.46810017446788" lon="12.70431147903458"><ele>980.6666666666667</ele><time>2026-04-26T11:48:35.312Z</time></trkpt><trkpt lat="42.46802004383802" lon="12.704341986778768"><ele>983.0</ele><time>2026-04-26T11:48:39.312Z</time></trkpt><trkpt lat="42.467911198375965" lon="12.70438180687552"><ele>983.3333333333334</ele><time>2026-04-26T11:48:41.312Z</time></trkpt><trkpt lat="42.46782466074968" lon="12.704421220573174"><ele>983.6666666666667</ele><time>2026-04-26T11:48:43.312Z</time></trkpt><trkpt lat="42.46776913751947" lon="12.704472369920605"><ele>984.0</ele><time>2026-04-26T11:48:46.313Z</time></trkpt><trkpt lat="42.467682274544345" lon="12.704478935112608"><ele>984.3333333333333</ele><time>2026-04-26T11:48:49.313Z</time></trkpt><trkpt lat="42.467606343233896" lon="12.704488378821614"><ele>984.6666666666666</ele><time>2026-04-26T11:48:51.313Z</time></trkpt><trkpt lat="42.46754298024452" lon="12.704511054285547"><ele>985.0</ele><time>2026-04-26T11:48:55.313Z</time></trkpt><trkpt lat="42.46748630169207" lon="12.704548440029972"><ele>985.0</ele><time>2026-04-26T11:49:08.313Z</time></trkpt><trkpt lat="42.46737813739478" lon="12.704584822349437"><ele>985.0</ele><time>2026-04-26T11:49:51.315Z</time></trkpt><trkpt lat="42.4673002318212" lon="12.704581143572776"><ele>985.0</ele><time>2026-04-26T11:49:54.315Z</time></trkpt><trkpt lat="42.467209646630664" lon="12.704580549069728"><ele>985.0</ele><time>2026-04-26T11:49:56.315Z</time></trkpt><trkpt lat="42.467132300611745" lon="12.704596787521748"><ele>985.0</ele><time>2026-04-26T11:49:58.315Z</time></trkpt><trkpt lat="42.467188688919116" lon="12.704738959363812"><ele>984.9999999999999</ele><time>2026-04-26T11:50:01.315Z</time></trkpt><trkpt lat="42.46722992436323" lon="12.704806935201317"><ele>985.0</ele><time>2026-04-26T11:50:02.315Z</time></trkpt><trkpt lat="42.46723604206515" lon="12.704893780818367"><ele>985.0</ele><time>2026-04-26T11:50:06.315Z</time></trkpt><trkpt lat="42.46716326037597" lon="12.70493691748648"><ele>985.0</ele><time>2026-04-26T11:51:30.318Z</time></trkpt><trkpt lat="42.467095127848864" lon="12.704825575250709"><ele>984.9999999999999</ele><time>2026-04-26T11:51:32.319Z</time></trkpt><trkpt lat="42.46705593002885" lon="12.704743294802984"><ele>985.0</ele><time>2026-04-26T11:51:34.319Z</time></trkpt><trkpt lat="42.467017184459856" lon="12.704674968100552"><ele>984.9999999999999</ele><time>2026-04-26T11:51:36.319Z</time></trkpt><trkpt lat="42.46703574914261" lon="12.704581756598682"><ele>985.0</ele><time>2026-04-26T11:54:11.323Z</time></trkpt><trkpt lat="42.46713478920965" lon="12.704667441493866"><ele>985.0</ele><time>2026-04-26T11:54:58.325Z</time></trkpt><trkpt lat="42.467187564615806" lon="12.704734723397237"><ele>985.0</ele><time>2026-04-26T11:54:59.325Z</time></trkpt><trkpt lat="42.4672455604999" lon="12.704835804765116"><ele>984.9999999999999</ele><time>2026-04-26T11:55:00.325Z</time></trkpt><trkpt lat="42.467267928925125" lon="12.704931816177242"><ele>985.0</ele><time>2026-04-26T11:55:01.326Z</time></trkpt><trkpt lat="42.46730478331339" lon="12.705023031750258"><ele>984.9999999999999</ele><time>2026-04-26T11:55:03.326Z</time></trkpt><trkpt lat="42.46728999460785" lon="12.705109607464639"><ele>985.0</ele><time>2026-04-26T11:55:27.327Z</time></trkpt><trkpt lat="42.46722593572425" lon="12.70512590013791"><ele>985.0</ele><time>2026-04-26T11:55:36.327Z</time></trkpt><trkpt lat="42.467272374139775" lon="12.705216979901824"><ele>985.0</ele><time>2026-04-26T11:55:54.328Z</time></trkpt><trkpt lat="42.46738162157931" lon="12.705270468130246"><ele>984.9999999999999</ele><time>2026-04-26T11:56:17.328Z</time></trkpt><trkpt lat="42.46740028660697" lon="12.7053536490939"><ele>985.0</ele><time>2026-04-26T11:57:04.33Z</time></trkpt><trkpt lat="42.467409104403856" lon="12.705447678122356"><ele>985.3333333333333</ele><time>2026-04-26T11:57:06.33Z</time></trkpt><trkpt lat="42.467428729756136" lon="12.705546411485019"><ele>985.6666666666666</ele><time>2026-04-26T11:57:08.331Z</time></trkpt><trkpt lat="42.46748234730177" lon="12.705680996135499"><ele>986.0</ele><time>2026-04-26T11:57:10.33Z</time></trkpt><trkpt lat="42.46752043979802" lon="12.70576898838052"><ele>986.3333333333333</ele><time>2026-04-26T11:57:11.33Z</time></trkpt><trkpt lat="42.46755975626763" lon="12.70584512905923"><ele>986.6666666666666</ele><time>2026-04-26T11:57:12.33Z</time></trkpt><trkpt lat="42.46761856701309" lon="12.70593151679812"><ele>987.0</ele><time>2026-04-26T11:57:13.33Z</time></trkpt><trkpt lat="42.46766287329448" lon="12.706017148396992"><ele>987.8333333333334</ele><time>2026-04-26T11:57:14.331Z</time></trkpt><trkpt lat="42.46768482384982" lon="12.706111909334304"><ele>988.6666666666667</ele><time>2026-04-26T11:57:15.331Z</time></trkpt><trkpt lat="42.4677068512059" lon="12.706211495592262"><ele>989.5</ele><time>2026-04-26T11:57:16.331Z</time></trkpt><trkpt lat="42.46774124847359" lon="12.70637392387496"><ele>990.3333333333334</ele><time>2026-04-26T11:57:18.331Z</time></trkpt><trkpt lat="42.46775326753706" lon="12.706467077442893"><ele>991.1666666666667</ele><time>2026-04-26T11:57:19.331Z</time></trkpt><trkpt lat="42.4677659412288" lon="12.706577603305872"><ele>992.0</ele><time>2026-04-26T11:57:20.331Z</time></trkpt><trkpt lat="42.46779165112544" lon="12.706672931247294"><ele>992.0</ele><time>2026-04-26T11:57:21.331Z</time></trkpt><trkpt lat="42.467810531615925" lon="12.706771140699734"><ele>992.0</ele><time>2026-04-26T11:57:22.332Z</time></trkpt><trkpt lat="42.46785432528024" lon="12.70692648769563"><ele>992.0</ele><time>2026-04-26T11:57:24.332Z</time></trkpt><trkpt lat="42.46791320595241" lon="12.707071355953865"><ele>992.0</ele><time>2026-04-26T11:57:26.332Z</time></trkpt><trkpt lat="42.46795647153698" lon="12.707168012348095"><ele>992.0</ele><time>2026-04-26T11:57:27.332Z</time></trkpt><trkpt lat="42.46799041916342" lon="12.707272843952396"><ele>988.2</ele><time>2026-04-26T11:57:28.332Z</time></trkpt><trkpt lat="42.467998226669906" lon="12.707395036283634"><ele>984.4000000000001</ele><time>2026-04-26T11:57:29.332Z</time></trkpt><trkpt lat="42.46800000468066" lon="12.707524188421244"><ele>980.5999999999999</ele><time>2026-04-26T11:57:30.332Z</time></trkpt><trkpt lat="42.46801148631718" lon="12.707656850944725"><ele>976.8</ele><time>2026-04-26T11:57:31.332Z</time></trkpt><trkpt lat="42.46800836358373" lon="12.707839467308643"><ele>973.0</ele><time>2026-04-26T11:57:32.332Z</time></trkpt><trkpt lat="42.467989336465905" lon="12.707963851528287"><ele>972.2857142857142</ele><time>2026-04-26T11:57:33.332Z</time></trkpt><trkpt lat="42.46797283881564" lon="12.708069907604104"><ele>971.5714285714286</ele><time>2026-04-26T11:57:34.332Z</time></trkpt><trkpt lat="42.46796466427361" lon="12.70816739265858"><ele>970.8571428571429</ele><time>2026-04-26T11:57:35.332Z</time></trkpt><trkpt lat="42.467958294090145" lon="12.708269580340861"><ele>970.1428571428571</ele><time>2026-04-26T11:57:36.332Z</time></trkpt><trkpt lat="42.46795427196224" lon="12.708361478361276"><ele>969.4285714285713</ele><time>2026-04-26T11:57:37.332Z</time></trkpt><trkpt lat="42.467938097339946" lon="12.708444990592614"><ele>968.7142857142857</ele><time>2026-04-26T11:57:38.332Z</time></trkpt><trkpt lat="42.46790726751422" lon="12.708536527819357"><ele>968.0</ele><time>2026-04-26T11:57:39.332Z</time></trkpt><trkpt lat="42.467883801002564" lon="12.708626312352278"><ele>972.0000000000001</ele><time>2026-04-26T11:57:40.332Z</time></trkpt><trkpt lat="42.46786045132832" lon="12.708775929550075"><ele>976.0</ele><time>2026-04-26T11:57:42.332Z</time></trkpt><trkpt lat="42.4678659265883" lon="12.708866177121953"><ele>980.0</ele><time>2026-04-26T11:57:43.332Z</time></trkpt><trkpt lat="42.46788270863991" lon="12.70899975612728"><ele>984.0</ele><time>2026-04-26T11:57:44.332Z</time></trkpt><trkpt lat="42.467890346395016" lon="12.709088269202757"><ele>988.0000000000001</ele><time>2026-04-26T11:57:45.332Z</time></trkpt><trkpt lat="42.46790380712625" lon="12.709173007004937"><ele>992.0</ele><time>2026-04-26T11:57:46.332Z</time></trkpt><trkpt lat="42.46787959629685" lon="12.709265895601659"><ele>992.0000000000001</ele><time>2026-04-26T11:57:47.332Z</time></trkpt><trkpt lat="42.46787442177396" lon="12.709373714038547"><ele>992.0</ele><time>2026-04-26T11:57:48.332Z</time></trkpt><trkpt lat="42.46786641608451" lon="12.709477683689014"><ele>992.0</ele><time>2026-04-26T11:57:49.332Z</time></trkpt><trkpt lat="42.46783921702993" lon="12.7095790382844"><ele>992.0</ele><time>2026-04-26T11:57:50.332Z</time></trkpt><trkpt lat="42.46780924099791" lon="12.709675836629534"><ele>992.0000000000001</ele><time>2026-04-26T11:57:51.332Z</time></trkpt><trkpt lat="42.46776085237046" lon="12.709780612053297"><ele>992.0</ele><time>2026-04-26T11:57:52.332Z</time></trkpt><trkpt lat="42.46770312134455" lon="12.709858979228866"><ele>991.0</ele><time>2026-04-26T11:57:53.332Z</time></trkpt><trkpt lat="42.467631904607536" lon="12.709926705934178"><ele>990.0</ele><time>2026-04-26T11:57:54.332Z</time></trkpt><trkpt lat="42.46753253646808" lon="12.709899927613263"><ele>989.0</ele><time>2026-04-26T11:57:55.332Z</time></trkpt><trkpt lat="42.46744582130627" lon="12.709936489989659"><ele>988.0</ele><time>2026-04-26T11:57:56.332Z</time></trkpt><trkpt lat="42.46735934203487" lon="12.710003576496808"><ele>987.0</ele><time>2026-04-26T11:57:57.333Z</time></trkpt><trkpt lat="42.46728238866935" lon="12.71006890273206"><ele>987.0</ele><time>2026-04-26T11:57:58.333Z</time></trkpt><trkpt lat="42.46721166433753" lon="12.710103188936058"><ele>987.0</ele><time>2026-04-26T11:57:59.333Z</time></trkpt><trkpt lat="42.46711394282286" lon="12.710101839403459"><ele>987.0</ele><time>2026-04-26T11:58:00.333Z</time></trkpt><trkpt lat="42.46704613554963" lon="12.710101868631229"><ele>987.0</ele><time>2026-04-26T11:58:01.333Z</time></trkpt><trkpt lat="42.46695994544515" lon="12.710220649521826"><ele>987.0</ele><time>2026-04-26T11:58:03.333Z</time></trkpt><trkpt lat="42.466911747872146" lon="12.710324777358048"><ele>986.8333333333334</ele><time>2026-04-26T11:58:04.333Z</time></trkpt><trkpt lat="42.466874433324236" lon="12.71039541521635"><ele>986.6666666666667</ele><time>2026-04-26T11:58:05.333Z</time></trkpt><trkpt lat="42.4668215779918" lon="12.710492364965623"><ele>986.5</ele><time>2026-04-26T11:58:07.333Z</time></trkpt><trkpt lat="42.46677013852595" lon="12.710618482228302"><ele>986.3333333333334</ele><time>2026-04-26T11:58:09.333Z</time></trkpt><trkpt lat="42.46671154497444" lon="12.710683758504823"><ele>986.1666666666667</ele><time>2026-04-26T11:58:10.333Z</time></trkpt><trkpt lat="42.46665323441794" lon="12.710754084237715"><ele>986.0</ele><time>2026-04-26T11:58:11.333Z</time></trkpt><trkpt lat="42.4666005654532" lon="12.710849451947496"><ele>986.0000000000001</ele><time>2026-04-26T11:58:12.333Z</time></trkpt><trkpt lat="42.466558441027104" lon="12.710933851791822"><ele>986.0</ele><time>2026-04-26T11:58:13.333Z</time></trkpt><trkpt lat="42.46656184240239" lon="12.711037822345848"><ele>986.0</ele><time>2026-04-26T11:58:14.333Z</time></trkpt><trkpt lat="42.4666100093481" lon="12.711203136733406"><ele>986.0</ele><time>2026-04-26T11:58:16.333Z</time></trkpt><trkpt lat="42.46666227189246" lon="12.711254926672668"><ele>986.0000000000001</ele><time>2026-04-26T11:58:17.333Z</time></trkpt><trkpt lat="42.466723015808654" lon="12.711307730856618"><ele>986.0</ele><time>2026-04-26T11:58:18.333Z</time></trkpt><trkpt lat="42.46680483702158" lon="12.711440465059608"><ele>985.1999999999999</ele><time>2026-04-26T11:58:20.333Z</time></trkpt><trkpt lat="42.46687385047104" lon="12.711569217412547"><ele>984.3999999999999</ele><time>2026-04-26T11:58:21.333Z</time></trkpt><trkpt lat="42.466896571367506" lon="12.711687813134425"><ele>983.6</ele><time>2026-04-26T11:58:22.333Z</time></trkpt><trkpt lat="42.46693478380233" lon="12.711803573063259"><ele>982.8</ele><time>2026-04-26T11:58:23.333Z</time></trkpt><trkpt lat="42.4669671150109" lon="12.711910374692868"><ele>982.0</ele><time>2026-04-26T11:58:24.333Z</time></trkpt><trkpt lat="42.46700547538153" lon="12.711992550893934"><ele>982.0</ele><time>2026-04-26T11:58:25.333Z</time></trkpt><trkpt lat="42.46705505775408" lon="12.71206669897147"><ele>982.0</ele><time>2026-04-26T11:58:26.333Z</time></trkpt><trkpt lat="42.46712665972012" lon="12.712215794873055"><ele>982.0</ele><time>2026-04-26T11:58:28.333Z</time></trkpt><trkpt lat="42.46717302506602" lon="12.712320971803415"><ele>982.0</ele><time>2026-04-26T11:58:29.333Z</time></trkpt><trkpt lat="42.467227425173" lon="12.712410195921446"><ele>982.0</ele><time>2026-04-26T11:58:30.333Z</time></trkpt><trkpt lat="42.46729244171204" lon="12.712505120727506"><ele>981.2</ele><time>2026-04-26T11:58:31.333Z</time></trkpt><trkpt lat="42.46735920428923" lon="12.712593376427158"><ele>980.4000000000001</ele><time>2026-04-26T11:58:32.334Z</time></trkpt><trkpt lat="42.46742624337925" lon="12.712707126275937"><ele>979.5999999999999</ele><time>2026-04-26T11:58:33.334Z</time></trkpt><trkpt lat="42.46746099557676" lon="12.712812972156327"><ele>978.8</ele><time>2026-04-26T11:58:34.334Z</time></trkpt><trkpt lat="42.46749907484778" lon="12.71291053620397"><ele>978.0</ele><time>2026-04-26T11:58:35.334Z</time></trkpt><trkpt lat="42.467549756591694" lon="12.713003619465916"><ele>978.0</ele><time>2026-04-26T11:58:36.334Z</time></trkpt><trkpt lat="42.46762477515349" lon="12.713093016324704"><ele>978.0</ele><time>2026-04-26T11:58:37.334Z</time></trkpt><trkpt lat="42.46769613066342" lon="12.713190984104305"><ele>978.0</ele><time>2026-04-26T11:58:38.334Z</time></trkpt><trkpt lat="42.467735311308445" lon="12.71331290700947"><ele>978.0</ele><time>2026-04-26T11:58:39.334Z</time></trkpt><trkpt lat="42.46776445770959" lon="12.713422398743848"><ele>978.0</ele><time>2026-04-26T11:58:40.334Z</time></trkpt><trkpt lat="42.46777591427399" lon="12.713518229713463"><ele>978.0</ele><time>2026-04-26T11:58:41.334Z</time></trkpt><trkpt lat="42.467812506014724" lon="12.713608935851527"><ele>978.0000000000001</ele><time>2026-04-26T11:58:42.334Z</time></trkpt><trkpt lat="42.46787618130464" lon="12.71369435474676"><ele>978.0</ele><time>2026-04-26T11:58:43.334Z</time></trkpt><trkpt lat="42.46792455399921" lon="12.713776861612436"><ele>978.0</ele><time>2026-04-26T11:58:44.334Z</time></trkpt><trkpt lat="42.46795597001677" lon="12.713858477408502"><ele>978.0000000000001</ele><time>2026-04-26T11:58:45.334Z</time></trkpt><trkpt lat="42.467951760504235" lon="12.713946810297374"><ele>978.0</ele><time>2026-04-26T11:58:46.334Z</time></trkpt><trkpt lat="42.46794049066659" lon="12.714034659762321"><ele>978.0</ele><time>2026-04-26T11:58:47.334Z</time></trkpt><trkpt lat="42.467922913524795" lon="12.714124666328287"><ele>978.3333333333334</ele><time>2026-04-26T11:58:48.334Z</time></trkpt><trkpt lat="42.46790290573098" lon="12.714217910820693"><ele>978.6666666666667</ele><time>2026-04-26T11:58:49.334Z</time></trkpt><trkpt lat="42.467917223729486" lon="12.714392984049402"><ele>979.0</ele><time>2026-04-26T11:58:51.334Z</time></trkpt><trkpt lat="42.46794839670427" lon="12.714467811725218"><ele>979.3333333333334</ele><time>2026-04-26T11:58:52.334Z</time></trkpt><trkpt lat="42.46797483546529" lon="12.71456144714465"><ele>979.6666666666667</ele><time>2026-04-26T11:58:53.334Z</time></trkpt><trkpt lat="42.4679920200786" lon="12.714652780846652"><ele>980.0</ele><time>2026-04-26T11:58:54.334Z</time></trkpt><trkpt lat="42.46803556076826" lon="12.714797779667899"><ele>978.8333333333334</ele><time>2026-04-26T11:58:56.334Z</time></trkpt><trkpt lat="42.468050911765495" lon="12.71489177661179"><ele>977.6666666666667</ele><time>2026-04-26T11:58:57.334Z</time></trkpt><trkpt lat="42.46809566537559" lon="12.715012471340238"><ele>976.5</ele><time>2026-04-26T11:58:58.334Z</time></trkpt><trkpt lat="42.468142477716505" lon="12.715128354638583"><ele>975.3333333333333</ele><time>2026-04-26T11:58:59.334Z</time></trkpt><trkpt lat="42.46817046653799" lon="12.71523538853618"><ele>974.1666666666666</ele><time>2026-04-26T11:59:00.334Z</time></trkpt><trkpt lat="42.468206668624404" lon="12.715348832678634"><ele>973.0</ele><time>2026-04-26T11:59:01.334Z</time></trkpt><trkpt lat="42.46820410910424" lon="12.715456866701471"><ele>972.4999999999999</ele><time>2026-04-26T11:59:02.334Z</time></trkpt><trkpt lat="42.46823354026945" lon="12.715570261242982"><ele>972.0</ele><time>2026-04-26T11:59:03.334Z</time></trkpt><trkpt lat="42.46825992134701" lon="12.715675743456648"><ele>971.5</ele><time>2026-04-26T11:59:04.334Z</time></trkpt><trkpt lat="42.46827969096416" lon="12.715793658376752"><ele>971.0</ele><time>2026-04-26T11:59:05.334Z</time></trkpt><trkpt lat="42.46829309303552" lon="12.715912440054515"><ele>970.4999999999999</ele><time>2026-04-26T11:59:06.334Z</time></trkpt><trkpt lat="42.46831888542532" lon="12.716013062939435"><ele>970.0</ele><time>2026-04-26T11:59:07.334Z</time></trkpt><trkpt lat="42.46835831079346" lon="12.71610190808662"><ele>969.0</ele><time>2026-04-26T11:59:08.335Z</time></trkpt><trkpt lat="42.468391026809165" lon="12.716225458781684"><ele>968.0</ele><time>2026-04-26T11:59:09.335Z</time></trkpt><trkpt lat="42.46842070733251" lon="12.71635128771574"><ele>967.0</ele><time>2026-04-26T11:59:10.335Z</time></trkpt><trkpt lat="42.468454971467644" lon="12.716474692010285"><ele>966.0</ele><time>2026-04-26T11:59:11.335Z</time></trkpt><trkpt lat="42.46848670916143" lon="12.716603609667114"><ele>965.0</ele><time>2026-04-26T11:59:12.335Z</time></trkpt><trkpt lat="42.468505528644435" lon="12.71669314677139"><ele>965.0000000000001</ele><time>2026-04-26T11:59:13.335Z</time></trkpt><trkpt lat="42.468556578136464" lon="12.716846299479526"><ele>965.0</ele><time>2026-04-26T11:59:15.335Z</time></trkpt><trkpt lat="42.468573015555805" lon="12.716938881158006"><ele>965.0</ele><time>2026-04-26T11:59:16.335Z</time></trkpt><trkpt lat="42.46860443366647" lon="12.7170313093983"><ele>965.0</ele><time>2026-04-26T11:59:17.335Z</time></trkpt><trkpt lat="42.46861914477934" lon="12.717119929843317"><ele>965.0000000000001</ele><time>2026-04-26T11:59:18.335Z</time></trkpt><trkpt lat="42.46864206510787" lon="12.717213164348228"><ele>965.0</ele><time>2026-04-26T11:59:19.335Z</time></trkpt><trkpt lat="42.46862639457882" lon="12.717352432004377"><ele>963.5000000000001</ele><time>2026-04-26T11:59:21.335Z</time></trkpt><trkpt lat="42.46859840740225" lon="12.717431736281322"><ele>962.0</ele><time>2026-04-26T11:59:22.335Z</time></trkpt><trkpt lat="42.468571078726534" lon="12.71752410257038"><ele>960.5</ele><time>2026-04-26T11:59:24.336Z</time></trkpt><trkpt lat="42.468562625929955" lon="12.717630091459162"><ele>959.0</ele><time>2026-04-26T11:59:26.335Z</time></trkpt><trkpt lat="42.468595080296446" lon="12.71774555107635"><ele>957.5000000000001</ele><time>2026-04-26T11:59:28.335Z</time></trkpt><trkpt lat="42.46866136327301" lon="12.717910911940463"><ele>956.0</ele><time>2026-04-26T11:59:30.335Z</time></trkpt><trkpt lat="42.46871839385692" lon="12.718041774673292"><ele>955.4</ele><time>2026-04-26T11:59:32.336Z</time></trkpt><trkpt lat="42.46876933231424" lon="12.7181323314526"><ele>954.8</ele><time>2026-04-26T11:59:33.336Z</time></trkpt><trkpt lat="42.46883374091433" lon="12.71826866037603"><ele>954.1999999999999</ele><time>2026-04-26T11:59:35.336Z</time></trkpt><trkpt lat="42.46890516913667" lon="12.718343064200512"><ele>953.5999999999999</ele><time>2026-04-26T11:59:37.336Z</time></trkpt><trkpt lat="42.468975812890804" lon="12.71840518837365"><ele>953.0</ele><time>2026-04-26T11:59:39.336Z</time></trkpt><trkpt lat="42.46905260013731" lon="12.718444619102424"><ele>952.6666666666667</ele><time>2026-04-26T11:59:41.336Z</time></trkpt><trkpt lat="42.46911659254528" lon="12.718452796384117"><ele>952.3333333333334</ele><time>2026-04-26T11:59:44.336Z</time></trkpt><trkpt lat="42.46919535212528" lon="12.718410698475713"><ele>952.0</ele><time>2026-04-26T12:00:03.336Z</time></trkpt><trkpt lat="42.46929181499958" lon="12.718451955267772"><ele>951.6666666666667</ele><time>2026-04-26T12:00:05.336Z</time></trkpt><trkpt lat="42.46936874342281" lon="12.718512218883292"><ele>951.3333333333334</ele><time>2026-04-26T12:00:06.336Z</time></trkpt><trkpt lat="42.46944889115979" lon="12.718579443219397"><ele>951.0</ele><time>2026-04-26T12:00:07.336Z</time></trkpt><trkpt lat="42.469518549980684" lon="12.71861180828761"><ele>950.6666666666666</ele><time>2026-04-26T12:00:08.337Z</time></trkpt><trkpt lat="42.46959715427232" lon="12.718649610030733"><ele>950.3333333333333</ele><time>2026-04-26T12:00:09.337Z</time></trkpt><trkpt lat="42.46968646966229" lon="12.718702991865115"><ele>950.0</ele><time>2026-04-26T12:00:10.337Z</time></trkpt><trkpt lat="42.46976322321152" lon="12.71873153268416"><ele>949.6666666666666</ele><time>2026-04-26T12:00:11.337Z</time></trkpt><trkpt lat="42.469830703328036" lon="12.718764104315488"><ele>949.3333333333333</ele><time>2026-04-26T12:00:12.337Z</time></trkpt><trkpt lat="42.469891103686614" lon="12.718798283005453"><ele>949.0</ele><time>2026-04-26T12:00:13.337Z</time></trkpt><trkpt lat="42.46995359873086" lon="12.718839576867696"><ele>948.2</ele><time>2026-04-26T12:00:14.337Z</time></trkpt><trkpt lat="42.4700265000791" lon="12.718876216731381"><ele>947.4000000000001</ele><time>2026-04-26T12:00:15.337Z</time></trkpt><trkpt lat="42.47011300322852" lon="12.718896384334613"><ele>946.6</ele><time>2026-04-26T12:00:16.337Z</time></trkpt><trkpt lat="42.4701946353579" lon="12.718918684286566"><ele>945.8</ele><time>2026-04-26T12:00:17.337Z</time></trkpt><trkpt lat="42.470259017901874" lon="12.718943193517461"><ele>945.0</ele><time>2026-04-26T12:00:18.337Z</time></trkpt><trkpt lat="42.47039438785451" lon="12.718971315740063"><ele>945.0</ele><time>2026-04-26T12:00:20.337Z</time></trkpt><trkpt lat="42.47047151024602" lon="12.719010269504631"><ele>945.0</ele><time>2026-04-26T12:00:21.337Z</time></trkpt><trkpt lat="42.470534293197964" lon="12.719058812218513"><ele>945.0</ele><time>2026-04-26T12:00:22.337Z</time></trkpt><trkpt lat="42.470615141099756" lon="12.719130088351111"><ele>945.0</ele><time>2026-04-26T12:00:24.337Z</time></trkpt><trkpt lat="42.47054496315668" lon="12.719164676460682"><ele>945.0</ele><time>2026-04-26T12:00:27.337Z</time></trkpt><trkpt lat="42.47045592508646" lon="12.719160852432669"><ele>945.0</ele><time>2026-04-26T12:00:29.337Z</time></trkpt><trkpt lat="42.470346882268295" lon="12.719129845526135"><ele>945.0</ele><time>2026-04-26T12:00:31.337Z</time></trkpt><trkpt lat="42.47027281945905" lon="12.719113513503494"><ele>945.0</ele><time>2026-04-26T12:00:33.337Z</time></trkpt><trkpt lat="42.4701552500036" lon="12.719062202914554"><ele>945.0</ele><time>2026-04-26T12:00:35.337Z</time></trkpt><trkpt lat="42.47004512276144" lon="12.719015968128895"><ele>945.0</ele><time>2026-04-26T12:00:37.337Z</time></trkpt><trkpt lat="42.46996698259875" lon="12.718991917563537"><ele>945.0</ele><time>2026-04-26T12:00:38.337Z</time></trkpt><trkpt lat="42.46989140523623" lon="12.718952785277502"><ele>945.0</ele><time>2026-04-26T12:00:39.337Z</time></trkpt><trkpt lat="42.46981115240825" lon="12.718896665470169"><ele>945.0</ele><time>2026-04-26T12:00:40.337Z</time></trkpt><trkpt lat="42.46972521166685" lon="12.718841683529172"><ele>945.0</ele><time>2026-04-26T12:00:41.337Z</time></trkpt><trkpt lat="42.4696430160953" lon="12.718814889670268"><ele>945.0</ele><time>2026-04-26T12:00:43.338Z</time></trkpt><trkpt lat="42.46951865203086" lon="12.718747597497648"><ele>945.0</ele><time>2026-04-26T12:00:45.338Z</time></trkpt><trkpt lat="42.469442835493474" lon="12.718712448045071"><ele>945.6666666666666</ele><time>2026-04-26T12:00:46.338Z</time></trkpt><trkpt lat="42.46936123129726" lon="12.718678590780328"><ele>946.3333333333333</ele><time>2026-04-26T12:00:47.338Z</time></trkpt><trkpt lat="42.469286138734915" lon="12.718658000869263"><ele>947.0</ele><time>2026-04-26T12:00:48.338Z</time></trkpt><trkpt lat="42.46920512280522" lon="12.718628840724907"><ele>947.6666666666666</ele><time>2026-04-26T12:00:49.338Z</time></trkpt><trkpt lat="42.46914468829064" lon="12.718591712128237"><ele>948.3333333333333</ele><time>2026-04-26T12:00:50.338Z</time></trkpt><trkpt lat="42.4690343311686" lon="12.718543775393943"><ele>949.0</ele><time>2026-04-26T12:00:52.338Z</time></trkpt><trkpt lat="42.468966040196705" lon="12.718544651627344"><ele>949.4000000000001</ele><time>2026-04-26T12:00:53.338Z</time></trkpt><trkpt lat="42.468860713857055" lon="12.718554687808998"><ele>949.8000000000001</ele><time>2026-04-26T12:00:55.338Z</time></trkpt><trkpt lat="42.46874503096032" lon="12.718536285366591"><ele>950.1999999999999</ele><time>2026-04-26T12:01:12.338Z</time></trkpt><trkpt lat="42.468688635376914" lon="12.718484525949325"><ele>950.5999999999999</ele><time>2026-04-26T12:01:14.338Z</time></trkpt><trkpt lat="42.4686031033186" lon="12.718355334416652"><ele>951.0</ele><time>2026-04-26T12:01:16.338Z</time></trkpt><trkpt lat="42.468504559722525" lon="12.718272750575576"><ele>951.5</ele><time>2026-04-26T12:01:18.339Z</time></trkpt><trkpt lat="42.46840308018308" lon="12.718142433021667"><ele>952.0</ele><time>2026-04-26T12:01:20.339Z</time></trkpt><trkpt lat="42.46831553589161" lon="12.718009817715789"><ele>952.5</ele><time>2026-04-26T12:01:22.34Z</time></trkpt><trkpt lat="42.46825248763855" lon="12.717889061518619"><ele>953.0</ele><time>2026-04-26T12:01:24.339Z</time></trkpt><trkpt lat="42.468183221383235" lon="12.71780211844007"><ele>953.5000000000001</ele><time>2026-04-26T12:01:25.34Z</time></trkpt><trkpt lat="42.46812787129882" lon="12.717728978115357"><ele>954.0</ele><time>2026-04-26T12:01:26.34Z</time></trkpt><trkpt lat="42.46807109487645" lon="12.71760420536559"><ele>954.5</ele><time>2026-04-26T12:01:28.339Z</time></trkpt><trkpt lat="42.46801158358122" lon="12.717535389800817"><ele>955.0</ele><time>2026-04-26T12:01:29.34Z</time></trkpt><trkpt lat="42.4679499085783" lon="12.717478458682079"><ele>955.5000000000001</ele><time>2026-04-26T12:01:30.34Z</time></trkpt><trkpt lat="42.467887476711056" lon="12.717455370049468"><ele>956.0</ele><time>2026-04-26T12:01:31.34Z</time></trkpt><trkpt lat="42.46782470706365" lon="12.717434731721697"><ele>956.4</ele><time>2026-04-26T12:01:32.34Z</time></trkpt><trkpt lat="42.467692697090364" lon="12.717423463153068"><ele>956.8</ele><time>2026-04-26T12:01:34.34Z</time></trkpt><trkpt lat="42.46762107318989" lon="12.717420502892914"><ele>957.1999999999999</ele><time>2026-04-26T12:01:35.34Z</time></trkpt><trkpt lat="42.46755584975469" lon="12.717439345889991"><ele>957.5999999999999</ele><time>2026-04-26T12:01:36.34Z</time></trkpt><trkpt lat="42.46745428681475" lon="12.717444720775646"><ele>958.0</ele><time>2026-04-26T12:01:38.34Z</time></trkpt><trkpt lat="42.4673705069754" lon="12.717426431053337"><ele>957.9999999999999</ele><time>2026-04-26T12:01:39.34Z</time></trkpt><trkpt lat="42.46728100594827" lon="12.717381613326888"><ele>958.0</ele><time>2026-04-26T12:01:40.34Z</time></trkpt><trkpt lat="42.46718294354462" lon="12.717344696879618"><ele>958.0</ele><time>2026-04-26T12:01:42.34Z</time></trkpt><trkpt lat="42.46709924162185" lon="12.717303789965388"><ele>958.0</ele><time>2026-04-26T12:01:43.34Z</time></trkpt><trkpt lat="42.46702142445825" lon="12.717272559479005"><ele>957.9999999999999</ele><time>2026-04-26T12:01:44.34Z</time></trkpt><trkpt lat="42.466955603514705" lon="12.717255215546418"><ele>958.0</ele><time>2026-04-26T12:01:45.34Z</time></trkpt><trkpt lat="42.466849855175575" lon="12.717215572860239"><ele>959.1666666666666</ele><time>2026-04-26T12:01:47.34Z</time></trkpt><trkpt lat="42.46676046251802" lon="12.717149012447663"><ele>960.3333333333333</ele><time>2026-04-26T12:01:48.34Z</time></trkpt><trkpt lat="42.46668891664131" lon="12.71708624831095"><ele>961.5</ele><time>2026-04-26T12:01:49.34Z</time></trkpt><trkpt lat="42.466629424284996" lon="12.717033987826918"><ele>962.6666666666667</ele><time>2026-04-26T12:01:50.34Z</time></trkpt><trkpt lat="42.466567450663646" lon="12.7169861118165"><ele>963.8333333333334</ele><time>2026-04-26T12:01:51.34Z</time></trkpt><trkpt lat="42.46649873166694" lon="12.716944547203209"><ele>965.0</ele><time>2026-04-26T12:01:52.34Z</time></trkpt><trkpt lat="42.46638336233818" lon="12.716895524812662"><ele>965.0000000000001</ele><time>2026-04-26T12:01:54.34Z</time></trkpt><trkpt lat="42.46631647700933" lon="12.716879705742912"><ele>965.0</ele><time>2026-04-26T12:01:57.341Z</time></trkpt><trkpt lat="42.466244128027164" lon="12.716841738054974"><ele>965.0</ele><time>2026-04-26T12:02:11.341Z</time></trkpt><trkpt lat="42.466142191013624" lon="12.716839987674637"><ele>965.0</ele><time>2026-04-26T12:02:13.341Z</time></trkpt><trkpt lat="42.46604520302696" lon="12.716819761316597"><ele>965.0000000000001</ele><time>2026-04-26T12:02:15.341Z</time></trkpt><trkpt lat="42.46596923167709" lon="12.71672480322757"><ele>965.0</ele><time>2026-04-26T12:02:17.341Z</time></trkpt><trkpt lat="42.46591572981447" lon="12.71664730108848"><ele>966.6</ele><time>2026-04-26T12:02:18.341Z</time></trkpt><trkpt lat="42.46584849998487" lon="12.716596191883726"><ele>968.2</ele><time>2026-04-26T12:02:19.341Z</time></trkpt><trkpt lat="42.46578607538936" lon="12.71657550449613"><ele>969.8</ele><time>2026-04-26T12:02:20.341Z</time></trkpt><trkpt lat="42.4657069428385" lon="12.716553573727294"><ele>971.4</ele><time>2026-04-26T12:02:22.341Z</time></trkpt><trkpt lat="42.46559226784769" lon="12.716613220412249"><ele>973.0</ele><time>2026-04-26T12:02:24.341Z</time></trkpt><trkpt lat="42.46549978613005" lon="12.716693447071854"><ele>975.4999999999999</ele><time>2026-04-26T12:02:26.341Z</time></trkpt><trkpt lat="42.46540117836696" lon="12.716728496152616"><ele>978.0</ele><time>2026-04-26T12:02:28.341Z</time></trkpt><trkpt lat="42.465328620342895" lon="12.716751321079757"><ele>980.5</ele><time>2026-04-26T12:02:30.341Z</time></trkpt><trkpt lat="42.4652552487318" lon="12.716810414714164"><ele>983.0</ele><time>2026-04-26T12:02:32.341Z</time></trkpt><trkpt lat="42.4651868193222" lon="12.71685315121213"><ele>985.4999999999999</ele><time>2026-04-26T12:02:34.342Z</time></trkpt><trkpt lat="42.4651125472423" lon="12.716909330614964"><ele>988.0</ele><time>2026-04-26T12:02:37.342Z</time></trkpt><trkpt lat="42.465041036731854" lon="12.716950478383461"><ele>989.1666666666666</ele><time>2026-04-26T12:02:40.342Z</time></trkpt><trkpt lat="42.46496837222612" lon="12.71701201873174"><ele>990.3333333333333</ele><time>2026-04-26T12:02:42.342Z</time></trkpt><trkpt lat="42.46489524394032" lon="12.717044398749632"><ele>991.5</ele><time>2026-04-26T12:02:44.342Z</time></trkpt><trkpt lat="42.46481048170439" lon="12.717089151961424"><ele>992.6666666666667</ele><time>2026-04-26T12:02:46.342Z</time></trkpt><trkpt lat="42.46475028013683" lon="12.717156245787718"><ele>993.8333333333334</ele><time>2026-04-26T12:02:48.342Z</time></trkpt><trkpt lat="42.4647003106522" lon="12.717215955372842"><ele>995.0</ele><time>2026-04-26T12:02:50.342Z</time></trkpt><trkpt lat="42.46463229471911" lon="12.717296868165425"><ele>995.6666666666667</ele><time>2026-04-26T12:02:53.342Z</time></trkpt><trkpt lat="42.46457717781472" lon="12.717357205622895"><ele>996.3333333333334</ele><time>2026-04-26T12:02:55.342Z</time></trkpt><trkpt lat="42.46451117769902" lon="12.717421872708034"><ele>997.0</ele><time>2026-04-26T12:02:57.342Z</time></trkpt><trkpt lat="42.46442572648346" lon="12.717481518768476"><ele>997.6666666666667</ele><time>2026-04-26T12:03:00.342Z</time></trkpt><trkpt lat="42.46436293908508" lon="12.717535722104886"><ele>998.3333333333334</ele><time>2026-04-26T12:03:02.342Z</time></trkpt><trkpt lat="42.46430810008907" lon="12.717599703309741"><ele>999.0</ele><time>2026-04-26T12:03:04.342Z</time></trkpt><trkpt lat="42.464261821445945" lon="12.717673996020384"><ele>999.8333333333334</ele><time>2026-04-26T12:03:06.342Z</time></trkpt><trkpt lat="42.46420968081823" lon="12.717769415893889"><ele>1000.6666666666667</ele><time>2026-04-26T12:03:09.343Z</time></trkpt><trkpt lat="42.464174961702234" lon="12.717844026343641"><ele>1001.5</ele><time>2026-04-26T12:03:11.343Z</time></trkpt><trkpt lat="42.464126985574154" lon="12.717906561855425"><ele>1002.3333333333334</ele><time>2026-04-26T12:03:13.343Z</time></trkpt><trkpt lat="42.46408424268374" lon="12.717983758520534"><ele>1003.1666666666667</ele><time>2026-04-26T12:03:15.343Z</time></trkpt><trkpt lat="42.46403472760392" lon="12.71809275831395"><ele>1004.0</ele><time>2026-04-26T12:03:17.343Z</time></trkpt><trkpt lat="42.46398952544993" lon="12.718202983315205"><ele>1004.0000000000001</ele><time>2026-04-26T12:03:19.343Z</time></trkpt><trkpt lat="42.46396006459919" lon="12.718279231962528"><ele>1004.0</ele><time>2026-04-26T12:03:22.343Z</time></trkpt><trkpt lat="42.46391934805587" lon="12.718435540763087"><ele>1004.0</ele><time>2026-04-26T12:03:38.345Z</time></trkpt><trkpt lat="42.46395406056567" lon="12.718527848212759"><ele>1004.0</ele><time>2026-04-26T12:03:40.345Z</time></trkpt><trkpt lat="42.46398669677117" lon="12.718620623989347"><ele>1004.0000000000001</ele><time>2026-04-26T12:03:44.345Z</time></trkpt><trkpt lat="42.463979247341676" lon="12.718736469786407"><ele>1004.0</ele><time>2026-04-26T12:03:52.345Z</time></trkpt><trkpt lat="42.463961355468385" lon="12.718825889401524"><ele>1004.8333333333334</ele><time>2026-04-26T12:03:54.345Z</time></trkpt><trkpt lat="42.46397137325459" lon="12.71896167526149"><ele>1005.6666666666667</ele><time>2026-04-26T12:03:57.345Z</time></trkpt><trkpt lat="42.463988240173144" lon="12.71909316952834"><ele>1006.5</ele><time>2026-04-26T12:03:59.345Z</time></trkpt><trkpt lat="42.464028229405" lon="12.71922876641527"><ele>1007.3333333333333</ele><time>2026-04-26T12:04:01.346Z</time></trkpt><trkpt lat="42.46403883939955" lon="12.719322031868252"><ele>1008.1666666666666</ele><time>2026-04-26T12:04:02.346Z</time></trkpt><trkpt lat="42.464070269035645" lon="12.719396904832044"><ele>1009.0</ele><time>2026-04-26T12:04:03.346Z</time></trkpt><trkpt lat="42.46409366759989" lon="12.719499471424074"><ele>1009.2</ele><time>2026-04-26T12:04:05.346Z</time></trkpt><trkpt lat="42.464117766272665" lon="12.719686897697377"><ele>1009.4000000000001</ele><time>2026-04-26T12:04:07.346Z</time></trkpt><trkpt lat="42.464150378797044" lon="12.719821011470918"><ele>1009.6</ele><time>2026-04-26T12:04:09.346Z</time></trkpt><trkpt lat="42.46417696386426" lon="12.71994285178094"><ele>1009.8</ele><time>2026-04-26T12:04:11.346Z</time></trkpt><trkpt lat="42.464220174084524" lon="12.720080598099832"><ele>1010.0</ele><time>2026-04-26T12:04:13.346Z</time></trkpt><trkpt lat="42.46425854660894" lon="12.720161925299822"><ele>1010.0000000000001</ele><time>2026-04-26T12:04:14.346Z</time></trkpt><trkpt lat="42.4642860952896" lon="12.72024011721358"><ele>1010.0</ele><time>2026-04-26T12:04:15.346Z</time></trkpt><trkpt lat="42.46433180773063" lon="12.720349557418515"><ele>1010.0</ele><time>2026-04-26T12:04:17.346Z</time></trkpt><trkpt lat="42.46436020023467" lon="12.72043976178419"><ele>1010.0</ele><time>2026-04-26T12:04:19.346Z</time></trkpt><trkpt lat="42.464412609980165" lon="12.720550415112358"><ele>1010.0000000000001</ele><time>2026-04-26T12:04:21.346Z</time></trkpt><trkpt lat="42.46441743888591" lon="12.720692754710182"><ele>1010.0</ele><time>2026-04-26T12:04:23.346Z</time></trkpt><trkpt lat="42.464473723627464" lon="12.720794196692054"><ele>1010.0</ele><time>2026-04-26T12:04:25.346Z</time></trkpt><trkpt lat="42.464471853325335" lon="12.720896316538363"><ele>1009.9999999999999</ele><time>2026-04-26T12:04:27.346Z</time></trkpt><trkpt lat="42.46448602256375" lon="12.72098996736274"><ele>1010.0</ele><time>2026-04-26T12:04:29.346Z</time></trkpt><trkpt lat="42.4644729545989" lon="12.72108040924317"><ele>1010.0</ele><time>2026-04-26T12:04:31.346Z</time></trkpt><trkpt lat="42.46450212395774" lon="12.72116220967879"><ele>1009.9999999999999</ele><time>2026-04-26T12:04:33.346Z</time></trkpt><trkpt lat="42.46452674271318" lon="12.721259539585072"><ele>1010.0</ele><time>2026-04-26T12:04:35.346Z</time></trkpt><trkpt lat="42.46455664730398" lon="12.721356718636239"><ele>1010.0</ele><time>2026-04-26T12:04:37.347Z</time></trkpt><trkpt lat="42.46462604113291" lon="12.721416052170573"><ele>1009.6666666666667</ele><time>2026-04-26T12:04:40.347Z</time></trkpt><trkpt lat="42.46454918446094" lon="12.721441118287698"><ele>1009.3333333333334</ele><time>2026-04-26T12:04:58.347Z</time></trkpt><trkpt lat="42.464435228160724" lon="12.721455039062633"><ele>1009.0</ele><time>2026-04-26T12:05:00.347Z</time></trkpt><trkpt lat="42.46435190457112" lon="12.721476289023512"><ele>1008.6666666666667</ele><time>2026-04-26T12:05:02.347Z</time></trkpt><trkpt lat="42.46427980187028" lon="12.721469254574698"><ele>1008.3333333333334</ele><time>2026-04-26T12:05:04.347Z</time></trkpt><trkpt lat="42.46421104180219" lon="12.72149116619471"><ele>1008.0</ele><time>2026-04-26T12:05:09.347Z</time></trkpt><trkpt lat="42.46416866055675" lon="12.721561404081726"><ele>1008.0</ele><time>2026-04-26T12:05:12.348Z</time></trkpt><trkpt lat="42.464213087998395" lon="12.721622632916592"><ele>1008.0</ele><time>2026-04-26T12:05:17.348Z</time></trkpt><trkpt lat="42.464275697964965" lon="12.721577723434624"><ele>1008.0</ele><time>2026-04-26T12:05:23.348Z</time></trkpt><trkpt lat="42.46432491419468" lon="12.721513076537267"><ele>1008.0</ele><time>2026-04-26T12:05:29.348Z</time></trkpt><trkpt lat="42.464390531095354" lon="12.721479259282303"><ele>1008.0</ele><time>2026-04-26T12:05:33.348Z</time></trkpt><trkpt lat="42.464387908133" lon="12.721385671445525"><ele>1008.0</ele><time>2026-04-26T12:05:35.348Z</time></trkpt><trkpt lat="42.464381816894615" lon="12.721293049738508"><ele>1008.0</ele><time>2026-04-26T12:05:37.348Z</time></trkpt><trkpt lat="42.46438596958761" lon="12.72117207601323"><ele>1008.0</ele><time>2026-04-26T12:05:39.349Z</time></trkpt><trkpt lat="42.46437160539561" lon="12.721085239339654"><ele>1008.0</ele><time>2026-04-26T12:05:41.349Z</time></trkpt><trkpt lat="42.46435120810441" lon="12.72095752709023"><ele>1008.0</ele><time>2026-04-26T12:05:43.349Z</time></trkpt><trkpt lat="42.46431572187717" lon="12.720885749450824"><ele>1008.0</ele><time>2026-04-26T12:05:45.348Z</time></trkpt><trkpt lat="42.46427077531253" lon="12.720787898297042"><ele>1008.0</ele><time>2026-04-26T12:05:47.348Z</time></trkpt><trkpt lat="42.464237057951834" lon="12.720694148017548"><ele>1008.0</ele><time>2026-04-26T12:05:49.348Z</time></trkpt><trkpt lat="42.464182802087706" lon="12.720605899114558"><ele>1008.3333333333334</ele><time>2026-04-26T12:05:51.349Z</time></trkpt><trkpt lat="42.46413445875556" lon="12.720537907418388"><ele>1008.6666666666667</ele><time>2026-04-26T12:05:52.349Z</time></trkpt><trkpt lat="42.46411033405984" lon="12.720413493793012"><ele>1009.0</ele><time>2026-04-26T12:05:53.349Z</time></trkpt><trkpt lat="42.464099981262954" lon="12.720314905058506"><ele>1009.3333333333334</ele><time>2026-04-26T12:05:54.349Z</time></trkpt><trkpt lat="42.46410617764925" lon="12.72021501940303"><ele>1009.6666666666667</ele><time>2026-04-26T12:05:55.349Z</time></trkpt><trkpt lat="42.46408431321824" lon="12.720112170352941"><ele>1010.0</ele><time>2026-04-26T12:05:56.349Z</time></trkpt><trkpt lat="42.464031407454065" lon="12.719958894060458"><ele>1010.0</ele><time>2026-04-26T12:05:58.349Z</time></trkpt><trkpt lat="42.46399298531529" lon="12.719852639886954"><ele>1010.0</ele><time>2026-04-26T12:05:59.349Z</time></trkpt><trkpt lat="42.463930972610704" lon="12.71973331701674"><ele>1010.0</ele><time>2026-04-26T12:06:01.349Z</time></trkpt><trkpt lat="42.463901554433" lon="12.719540481620612"><ele>1010.0</ele><time>2026-04-26T12:06:03.349Z</time></trkpt><trkpt lat="42.46389689056278" lon="12.719455275101259"><ele>1010.0</ele><time>2026-04-26T12:06:04.349Z</time></trkpt><trkpt lat="42.46387592092531" lon="12.719313258466737"><ele>1009.8</ele><time>2026-04-26T12:06:06.349Z</time></trkpt><trkpt lat="42.46386916749036" lon="12.719189141896443"><ele>1009.6</ele><time>2026-04-26T12:06:08.349Z</time></trkpt><trkpt lat="42.46389576357173" lon="12.719028458631703"><ele>1009.4000000000001</ele><time>2026-04-26T12:06:10.349Z</time></trkpt><trkpt lat="42.463934464181655" lon="12.718924745254073"><ele>1009.2</ele><time>2026-04-26T12:06:11.349Z</time></trkpt><trkpt lat="42.46397953705905" lon="12.718849777181742"><ele>1009.0</ele><time>2026-04-26T12:06:12.349Z</time></trkpt><trkpt lat="42.46405780429908" lon="12.718741082217546"><ele>1009.0</ele><time>2026-04-26T12:06:13.349Z</time></trkpt><trkpt lat="42.46413371528248" lon="12.718644836613606"><ele>1009.0000000000001</ele><time>2026-04-26T12:06:14.349Z</time></trkpt><trkpt lat="42.464200515952825" lon="12.718553308118098"><ele>1009.0000000000001</ele><time>2026-04-26T12:06:15.349Z</time></trkpt><trkpt lat="42.46426800074402" lon="12.718459859894086"><ele>1009.0</ele><time>2026-04-26T12:06:16.349Z</time></trkpt><trkpt lat="42.46434126003733" lon="12.718395049922414"><ele>1009.0</ele><time>2026-04-26T12:06:17.349Z</time></trkpt><trkpt lat="42.464404999512574" lon="12.718356604903786"><ele>1008.4999999999999</ele><time>2026-04-26T12:06:18.349Z</time></trkpt><trkpt lat="42.46447406074128" lon="12.718323168123911"><ele>1008.0</ele><time>2026-04-26T12:06:19.349Z</time></trkpt><trkpt lat="42.46457221979607" lon="12.71831068373577"><ele>1007.5</ele><time>2026-04-26T12:06:20.349Z</time></trkpt><trkpt lat="42.46463617054312" lon="12.718299804473798"><ele>1007.0</ele><time>2026-04-26T12:06:21.349Z</time></trkpt><trkpt lat="42.464713867391076" lon="12.718265427701919"><ele>1006.4999999999999</ele><time>2026-04-26T12:06:22.349Z</time></trkpt><trkpt lat="42.46478016717888" lon="12.718245757398245"><ele>1006.0</ele><time>2026-04-26T12:06:23.349Z</time></trkpt><trkpt lat="42.464843844811206" lon="12.718220297127496"><ele>1005.9999999999999</ele><time>2026-04-26T12:06:24.349Z</time></trkpt><trkpt lat="42.46490893044597" lon="12.718212421260235"><ele>1006.0</ele><time>2026-04-26T12:06:25.349Z</time></trkpt><trkpt lat="42.46503504061921" lon="12.71824412022591"><ele>1006.0</ele><time>2026-04-26T12:06:27.35Z</time></trkpt><trkpt lat="42.4651084643152" lon="12.718296249187377"><ele>1006.0</ele><time>2026-04-26T12:06:28.35Z</time></trkpt><trkpt lat="42.46518118058685" lon="12.718330760379455"><ele>1005.9999999999999</ele><time>2026-04-26T12:06:29.35Z</time></trkpt><trkpt lat="42.46524573007567" lon="12.718340992436692"><ele>1006.0</ele><time>2026-04-26T12:06:30.35Z</time></trkpt><trkpt lat="42.46532969471079" lon="12.718358019322919"><ele>1005.9999999999999</ele><time>2026-04-26T12:06:31.35Z</time></trkpt><trkpt lat="42.465405153963076" lon="12.718399182870685"><ele>1006.0</ele><time>2026-04-26T12:06:32.35Z</time></trkpt><trkpt lat="42.46550368492856" lon="12.718491541676554"><ele>1006.0</ele><time>2026-04-26T12:06:34.35Z</time></trkpt><trkpt lat="42.465551856675866" lon="12.718573084110067"><ele>1006.0</ele><time>2026-04-26T12:06:35.35Z</time></trkpt><trkpt lat="42.46560647652845" lon="12.71863316245989"><ele>1005.9999999999999</ele><time>2026-04-26T12:06:36.35Z</time></trkpt><trkpt lat="42.465677993625015" lon="12.718702699079582"><ele>1006.0</ele><time>2026-04-26T12:06:37.35Z</time></trkpt><trkpt lat="42.46573725472805" lon="12.718766956551297"><ele>1006.3333333333333</ele><time>2026-04-26T12:06:38.35Z</time></trkpt><trkpt lat="42.46579565833268" lon="12.718826248945934"><ele>1006.6666666666666</ele><time>2026-04-26T12:06:39.35Z</time></trkpt><trkpt lat="42.465884855407076" lon="12.718933192064421"><ele>1007.0</ele><time>2026-04-26T12:06:41.35Z</time></trkpt><trkpt lat="42.46593178940433" lon="12.719007468940031"><ele>1007.3333333333333</ele><time>2026-04-26T12:06:42.35Z</time></trkpt><trkpt lat="42.46600313113401" lon="12.719086220781818"><ele>1007.6666666666666</ele><time>2026-04-26T12:06:43.35Z</time></trkpt><trkpt lat="42.46607269728727" lon="12.71916453331289"><ele>1008.0</ele><time>2026-04-26T12:06:44.35Z</time></trkpt><trkpt lat="42.466137689362995" lon="12.719246072976272"><ele>1008.0</ele><time>2026-04-26T12:06:45.35Z</time></trkpt><trkpt lat="42.466181992682316" lon="12.719322807694958"><ele>1008.0</ele><time>2026-04-26T12:06:46.35Z</time></trkpt><trkpt lat="42.46622210286979" lon="12.719392906217756"><ele>1008.0</ele><time>2026-04-26T12:06:47.35Z</time></trkpt><trkpt lat="42.466271338828314" lon="12.719464457911124"><ele>1008.0</ele><time>2026-04-26T12:06:48.35Z</time></trkpt><trkpt lat="42.46633013702455" lon="12.719539464181798"><ele>1008.0</ele><time>2026-04-26T12:06:49.35Z</time></trkpt><trkpt lat="42.466378301100185" lon="12.719605054505083"><ele>1008.0</ele><time>2026-04-26T12:06:50.35Z</time></trkpt><trkpt lat="42.466440558712186" lon="12.719680330592453"><ele>1008.0</ele><time>2026-04-26T12:06:51.35Z</time></trkpt><trkpt lat="42.466491237662844" lon="12.719744121869368"><ele>1008.25</ele><time>2026-04-26T12:06:52.35Z</time></trkpt><trkpt lat="42.466546503368754" lon="12.71980769544756"><ele>1008.5</ele><time>2026-04-26T12:06:53.35Z</time></trkpt><trkpt lat="42.46666268089667" lon="12.719886011575303"><ele>1008.75</ele><time>2026-04-26T12:06:55.35Z</time></trkpt><trkpt lat="42.466775412011465" lon="12.719964805008278"><ele>1009.0</ele><time>2026-04-26T12:06:57.35Z</time></trkpt><trkpt lat="42.466875146892775" lon="12.720089720786019"><ele>1008.9999999999999</ele><time>2026-04-26T12:06:59.35Z</time></trkpt><trkpt lat="42.46697772802491" lon="12.720174137347051"><ele>1009.0</ele><time>2026-04-26T12:07:01.35Z</time></trkpt><trkpt lat="42.467061824420306" lon="12.72024514835185"><ele>1009.0</ele><time>2026-04-26T12:07:03.351Z</time></trkpt><trkpt lat="42.46710038103677" lon="12.720313337817718"><ele>1009.0</ele><time>2026-04-26T12:07:04.351Z</time></trkpt><trkpt lat="42.46714785271296" lon="12.720391309672971"><ele>1008.9999999999999</ele><time>2026-04-26T12:07:06.351Z</time></trkpt><trkpt lat="42.46720901873791" lon="12.720438043007002"><ele>1009.0</ele><time>2026-04-26T12:07:08.351Z</time></trkpt><trkpt lat="42.467306100498575" lon="12.72052804269288"><ele>1007.6666666666666</ele><time>2026-04-26T12:07:10.351Z</time></trkpt><trkpt lat="42.46741103836995" lon="12.720590313845207"><ele>1006.3333333333333</ele><time>2026-04-26T12:07:12.351Z</time></trkpt><trkpt lat="42.46748842708777" lon="12.720616755156485"><ele>1005.0</ele><time>2026-04-26T12:07:13.351Z</time></trkpt><trkpt lat="42.46756253376804" lon="12.720656992270081"><ele>1003.6666666666667</ele><time>2026-04-26T12:07:14.351Z</time></trkpt><trkpt lat="42.467651467653596" lon="12.72070812613358"><ele>1002.3333333333334</ele><time>2026-04-26T12:07:15.351Z</time></trkpt><trkpt lat="42.46771360366719" lon="12.72072230450213"><ele>1001.0</ele><time>2026-04-26T12:07:16.351Z</time></trkpt><trkpt lat="42.46778651276805" lon="12.720711658841589"><ele>1001.0000000000001</ele><time>2026-04-26T12:07:17.351Z</time></trkpt><trkpt lat="42.467878331894354" lon="12.72068794224279"><ele>1001.0</ele><time>2026-04-26T12:07:18.351Z</time></trkpt><trkpt lat="42.467963152871825" lon="12.720674882842376"><ele>1001.0</ele><time>2026-04-26T12:07:19.351Z</time></trkpt><trkpt lat="42.46804900579476" lon="12.720667129383694"><ele>1001.0</ele><time>2026-04-26T12:07:20.351Z</time></trkpt><trkpt lat="42.46812106150475" lon="12.720667601337018"><ele>1001.0000000000001</ele><time>2026-04-26T12:07:21.351Z</time></trkpt><trkpt lat="42.46819206950448" lon="12.720682056125886"><ele>1001.0</ele><time>2026-04-26T12:07:22.351Z</time></trkpt><trkpt lat="42.46827902664948" lon="12.720696271802957"><ele>1000.5714285714286</ele><time>2026-04-26T12:07:24.351Z</time></trkpt><trkpt lat="42.46832312614798" lon="12.720765346231117"><ele>1000.1428571428571</ele><time>2026-04-26T12:07:27.351Z</time></trkpt><trkpt lat="42.468393217687165" lon="12.720806774045785"><ele>999.7142857142858</ele><time>2026-04-26T12:07:30.351Z</time></trkpt><trkpt lat="42.468454807115904" lon="12.720849355159954"><ele>999.2857142857143</ele><time>2026-04-26T12:07:31.351Z</time></trkpt><trkpt lat="42.468523877736274" lon="12.720909136857447"><ele>998.8571428571429</ele><time>2026-04-26T12:07:32.351Z</time></trkpt><trkpt lat="42.46858117858444" lon="12.720965557070762"><ele>998.4285714285716</ele><time>2026-04-26T12:07:33.351Z</time></trkpt><trkpt lat="42.468636527974006" lon="12.721021396702888"><ele>998.0000000000001</ele><time>2026-04-26T12:07:34.351Z</time></trkpt><trkpt lat="42.468745575272095" lon="12.721073377597602"><ele>997.1666666666667</ele><time>2026-04-26T12:07:36.353Z</time></trkpt><trkpt lat="42.46883716015179" lon="12.721142253656744"><ele>996.3333333333334</ele><time>2026-04-26T12:07:38.353Z</time></trkpt><trkpt lat="42.46892602135421" lon="12.72123050308982"><ele>995.5</ele><time>2026-04-26T12:07:40.353Z</time></trkpt><trkpt lat="42.46897803568412" lon="12.72129641498543"><ele>994.6666666666667</ele><time>2026-04-26T12:07:42.353Z</time></trkpt><trkpt lat="42.46900388951051" lon="12.721217354917814"><ele>993.8333333333334</ele><time>2026-04-26T12:10:27.569Z</time></trkpt><trkpt lat="42.46894578074009" lon="12.721175222163337"><ele>993.0</ele><time>2026-04-26T12:10:29.569Z</time></trkpt><trkpt lat="42.46887528669725" lon="12.721179177960325"><ele>993.0</ele><time>2026-04-26T12:13:10.561Z</time></trkpt><trkpt lat="42.46879213354048" lon="12.721133285503704"><ele>993.0</ele><time>2026-04-26T12:13:12.561Z</time></trkpt><trkpt lat="42.46869707938485" lon="12.721072918270233"><ele>993.0</ele><time>2026-04-26T12:13:14.561Z</time></trkpt><trkpt lat="42.46863461026885" lon="12.721030844644215"><ele>993.0</ele><time>2026-04-26T12:13:16.561Z</time></trkpt><trkpt lat="42.46856667216771" lon="12.720986924584652"><ele>993.0</ele><time>2026-04-26T12:13:18.561Z</time></trkpt><trkpt lat="42.46849671287651" lon="12.720926251200677"><ele>993.0</ele><time>2026-04-26T12:13:20.561Z</time></trkpt><trkpt lat="42.46841846417061" lon="12.720877533067238"><ele>993.6666666666666</ele><time>2026-04-26T12:13:22.561Z</time></trkpt><trkpt lat="42.468346207269526" lon="12.720823758916241"><ele>994.3333333333333</ele><time>2026-04-26T12:13:24.561Z</time></trkpt><trkpt lat="42.46827743721038" lon="12.72076486637495"><ele>995.0</ele><time>2026-04-26T12:13:26.561Z</time></trkpt><trkpt lat="42.468179331287615" lon="12.72074695585127"><ele>995.6666666666666</ele><time>2026-04-26T12:13:28.56Z</time></trkpt><trkpt lat="42.46811176736785" lon="12.720743939649822"><ele>996.3333333333333</ele><time>2026-04-26T12:13:29.56Z</time></trkpt><trkpt lat="42.46804792704169" lon="12.720737401195976"><ele>997.0</ele><time>2026-04-26T12:13:30.56Z</time></trkpt><trkpt lat="42.46798179919213" lon="12.720732024387738"><ele>997.8</ele><time>2026-04-26T12:13:31.56Z</time></trkpt><trkpt lat="42.46785465707497" lon="12.720751757625715"><ele>998.6</ele><time>2026-04-26T12:13:33.56Z</time></trkpt><trkpt lat="42.46778707977615" lon="12.720745623888543"><ele>999.3999999999999</ele><time>2026-04-26T12:13:34.56Z</time></trkpt><trkpt lat="42.467674820550855" lon="12.720730066393179"><ele>1000.1999999999999</ele><time>2026-04-26T12:13:36.56Z</time></trkpt><trkpt lat="42.46754644493681" lon="12.720714943219471"><ele>1001.0</ele><time>2026-04-26T12:13:38.56Z</time></trkpt><trkpt lat="42.46747857241276" lon="12.720692343491129"><ele>1001.0000000000001</ele><time>2026-04-26T12:13:39.56Z</time></trkpt><trkpt lat="42.467411661096" lon="12.7206676545242"><ele>1001.0</ele><time>2026-04-26T12:13:40.56Z</time></trkpt><trkpt lat="42.46734122536731" lon="12.720640337676235"><ele>1001.0</ele><time>2026-04-26T12:13:41.56Z</time></trkpt><trkpt lat="42.4672726609751" lon="12.720616075068035"><ele>1001.0</ele><time>2026-04-26T12:13:42.56Z</time></trkpt><trkpt lat="42.46718594050823" lon="12.720572850446253"><ele>1001.0000000000001</ele><time>2026-04-26T12:13:44.56Z</time></trkpt><trkpt lat="42.46713763554354" lon="12.720471378232439"><ele>1001.0</ele><time>2026-04-26T12:13:46.56Z</time></trkpt><trkpt lat="42.46710858357395" lon="12.720379287018725"><ele>1001.8</ele><time>2026-04-26T12:13:48.559Z</time></trkpt><trkpt lat="42.46706723159457" lon="12.720290452422066"><ele>1002.5999999999999</ele><time>2026-04-26T12:13:50.559Z</time></trkpt><trkpt lat="42.46696369496079" lon="12.720200044685855"><ele>1003.4</ele><time>2026-04-26T12:13:52.559Z</time></trkpt><trkpt lat="42.46690770047727" lon="12.720160143518145"><ele>1004.2</ele><time>2026-04-26T12:13:53.56Z</time></trkpt><trkpt lat="42.46681945127597" lon="12.720054774813075"><ele>1005.0</ele><time>2026-04-26T12:13:55.56Z</time></trkpt><trkpt lat="42.46672392670478" lon="12.719969737517552"><ele>1005.6666666666666</ele><time>2026-04-26T12:13:57.56Z</time></trkpt><trkpt lat="42.46660867166837" lon="12.719892338625218"><ele>1006.3333333333333</ele><time>2026-04-26T12:13:59.56Z</time></trkpt><trkpt lat="42.46654633491371" lon="12.71983853611269"><ele>1007.0</ele><time>2026-04-26T12:14:00.56Z</time></trkpt><trkpt lat="42.46648571473459" lon="12.719772992957472"><ele>1007.6666666666666</ele><time>2026-04-26T12:14:01.56Z</time></trkpt><trkpt lat="42.466430769191035" lon="12.71970522236528"><ele>1008.3333333333333</ele><time>2026-04-26T12:14:02.56Z</time></trkpt><trkpt lat="42.466377339584284" lon="12.719631216135003"><ele>1009.0</ele><time>2026-04-26T12:14:03.56Z</time></trkpt><trkpt lat="42.466325255170425" lon="12.719561490806283"><ele>1008.8000000000001</ele><time>2026-04-26T12:14:04.56Z</time></trkpt><trkpt lat="42.466243555792836" lon="12.71946057657607"><ele>1008.6000000000001</ele><time>2026-04-26T12:14:05.56Z</time></trkpt><trkpt lat="42.466183715750184" lon="12.71938435838073"><ele>1008.4</ele><time>2026-04-26T12:14:06.56Z</time></trkpt><trkpt lat="42.46612958080706" lon="12.719316358781631"><ele>1008.2</ele><time>2026-04-26T12:14:07.56Z</time></trkpt><trkpt lat="42.46606703681083" lon="12.71922608445053"><ele>1008.0</ele><time>2026-04-26T12:14:08.56Z</time></trkpt><trkpt lat="42.46600217761088" lon="12.719132137971489"><ele>1008.0</ele><time>2026-04-26T12:14:09.56Z</time></trkpt><trkpt lat="42.46593433843935" lon="12.719046005821987"><ele>1008.0</ele><time>2026-04-26T12:14:10.56Z</time></trkpt><trkpt lat="42.46587456437459" lon="12.718963400341698"><ele>1008.0</ele><time>2026-04-26T12:14:11.56Z</time></trkpt><trkpt lat="42.465816130169124" lon="12.718871407851468"><ele>1008.0</ele><time>2026-04-26T12:14:12.56Z</time></trkpt><trkpt lat="42.46574901516006" lon="12.718792364805005"><ele>1008.0</ele><time>2026-04-26T12:14:13.56Z</time></trkpt><trkpt lat="42.46569017216056" lon="12.718720548415062"><ele>1008.0</ele><time>2026-04-26T12:14:14.56Z</time></trkpt><trkpt lat="42.46562979031416" lon="12.718658296427185"><ele>1008.0</ele><time>2026-04-26T12:14:15.56Z</time></trkpt><trkpt lat="42.46557382555358" lon="12.71860418655733"><ele>1008.0</ele><time>2026-04-26T12:14:16.56Z</time></trkpt><trkpt lat="42.46552256250105" lon="12.718542472807426"><ele>1008.0</ele><time>2026-04-26T12:14:17.56Z</time></trkpt><trkpt lat="42.46547217340157" lon="12.718461711349894"><ele>1008.0</ele><time>2026-04-26T12:14:18.559Z</time></trkpt><trkpt lat="42.46538015642425" lon="12.718375584081187"><ele>1008.0</ele><time>2026-04-26T12:14:20.559Z</time></trkpt><trkpt lat="42.46528735859936" lon="12.718319270778743"><ele>1008.0</ele><time>2026-04-26T12:14:22.559Z</time></trkpt><trkpt lat="42.465183295644955" lon="12.718286264088619"><ele>1007.5999999999999</ele><time>2026-04-26T12:14:24.559Z</time></trkpt><trkpt lat="42.46508948028623" lon="12.718245147167966"><ele>1007.1999999999999</ele><time>2026-04-26T12:14:26.559Z</time></trkpt><trkpt lat="42.46499609696276" lon="12.718210504624485"><ele>1006.8</ele><time>2026-04-26T12:14:28.559Z</time></trkpt><trkpt lat="42.46487708484766" lon="12.718187697832509"><ele>1006.4</ele><time>2026-04-26T12:14:30.559Z</time></trkpt><trkpt lat="42.46476243620814" lon="12.718197760533206"><ele>1006.0</ele><time>2026-04-26T12:14:32.559Z</time></trkpt><trkpt lat="42.46464548017044" lon="12.718220500642996"><ele>1005.5999999999999</ele><time>2026-04-26T12:14:34.559Z</time></trkpt><trkpt lat="42.464573727330716" lon="12.718216966339853"><ele>1005.1999999999999</ele><time>2026-04-26T12:14:35.559Z</time></trkpt><trkpt lat="42.46446445553137" lon="12.718217224477632"><ele>1004.8000000000001</ele><time>2026-04-26T12:14:37.559Z</time></trkpt><trkpt lat="42.464347690121954" lon="12.718246882256938"><ele>1004.4000000000001</ele><time>2026-04-26T12:14:39.558Z</time></trkpt><trkpt lat="42.46422491369361" lon="12.718320934702177"><ele>1004.0</ele><time>2026-04-26T12:14:41.558Z</time></trkpt><trkpt lat="42.46416648045313" lon="12.718390930996954"><ele>1004.0000000000001</ele><time>2026-04-26T12:14:42.558Z</time></trkpt><trkpt lat="42.46409258119195" lon="12.718489652168552"><ele>1004.0</ele><time>2026-04-26T12:14:44.558Z</time></trkpt><trkpt lat="42.46403480841645" lon="12.718577653553414"><ele>1004.0</ele><time>2026-04-26T12:14:46.558Z</time></trkpt><trkpt lat="42.46397402047733" lon="12.71863122716799"><ele>1004.0</ele><time>2026-04-26T12:14:49.558Z</time></trkpt><trkpt lat="42.463895420959304" lon="12.718601643520765"><ele>1004.0000000000001</ele><time>2026-04-26T12:14:52.558Z</time></trkpt><trkpt lat="42.4638270681583" lon="12.718583162449056"><ele>1004.0</ele><time>2026-04-26T12:14:59.557Z</time></trkpt><trkpt lat="42.463755701840256" lon="12.71858483928743"><ele>1006.0000000000001</ele><time>2026-04-26T12:15:13.557Z</time></trkpt><trkpt lat="42.46367717568211" lon="12.718555394630174"><ele>1008.0</ele><time>2026-04-26T12:15:15.557Z</time></trkpt><trkpt lat="42.46361627982331" lon="12.718446470513769"><ele>1010.0</ele><time>2026-04-26T12:15:18.556Z</time></trkpt><trkpt lat="42.46354975397651" lon="12.718384767368821"><ele>1012.0</ele><time>2026-04-26T12:15:19.556Z</time></trkpt><trkpt lat="42.463497634483666" lon="12.718286535488357"><ele>1014.0000000000001</ele><time>2026-04-26T12:15:20.556Z</time></trkpt><trkpt lat="42.46345967171614" lon="12.718206329552412"><ele>1016.0</ele><time>2026-04-26T12:15:21.556Z</time></trkpt><trkpt lat="42.46339848107952" lon="12.718064950720045"><ele>1016.0</ele><time>2026-04-26T12:15:23.556Z</time></trkpt><trkpt lat="42.463364030686265" lon="12.71798371161327"><ele>1015.9999999999999</ele><time>2026-04-26T12:15:24.556Z</time></trkpt><trkpt lat="42.46331687791928" lon="12.717864562556732"><ele>1015.9999999999999</ele><time>2026-04-26T12:15:26.556Z</time></trkpt><trkpt lat="42.46324004118427" lon="12.71773880300364"><ele>1016.0</ele><time>2026-04-26T12:15:28.556Z</time></trkpt><trkpt lat="42.46320266225378" lon="12.717668485473501"><ele>1016.0</ele><time>2026-04-26T12:15:29.556Z</time></trkpt><trkpt lat="42.46313845153947" lon="12.717537042586004"><ele>1015.8</ele><time>2026-04-26T12:15:31.556Z</time></trkpt><trkpt lat="42.46310044370835" lon="12.71741850857521"><ele>1015.5999999999999</ele><time>2026-04-26T12:15:33.556Z</time></trkpt><trkpt lat="42.46304875358192" lon="12.717305917415464"><ele>1015.4</ele><time>2026-04-26T12:15:35.556Z</time></trkpt><trkpt lat="42.46297242415011" lon="12.71714019657742"><ele>1015.2</ele><time>2026-04-26T12:15:37.556Z</time></trkpt><trkpt lat="42.46292011968837" lon="12.71703897882133"><ele>1015.0</ele><time>2026-04-26T12:15:39.555Z</time></trkpt><trkpt lat="42.46282177750475" lon="12.716943540530737"><ele>1018.1666666666666</ele><time>2026-04-26T12:15:41.555Z</time></trkpt><trkpt lat="42.46273816411535" lon="12.716896228884648"><ele>1021.3333333333333</ele><time>2026-04-26T12:15:42.555Z</time></trkpt><trkpt lat="42.46266025875465" lon="12.716851038682796"><ele>1024.5</ele><time>2026-04-26T12:15:44.555Z</time></trkpt><trkpt lat="42.4625951590884" lon="12.716840339755885"><ele>1027.6666666666667</ele><time>2026-04-26T12:15:45.555Z</time></trkpt><trkpt lat="42.46251311661159" lon="12.71678684222552"><ele>1030.8333333333335</ele><time>2026-04-26T12:15:47.555Z</time></trkpt><trkpt lat="42.462423310675966" lon="12.716733089167246"><ele>1034.0</ele><time>2026-04-26T12:15:49.555Z</time></trkpt><trkpt lat="42.462344588926314" lon="12.716702079867826"><ele>1034.0</ele><time>2026-04-26T12:15:51.555Z</time></trkpt><trkpt lat="42.462297989845865" lon="12.716637206089956"><ele>1034.0</ele><time>2026-04-26T12:15:56.555Z</time></trkpt><trkpt lat="42.46225506037084" lon="12.716566759789485"><ele>1034.0</ele><time>2026-04-26T12:16:08.554Z</time></trkpt><trkpt lat="42.46220539466433" lon="12.716511631127425"><ele>1034.0</ele><time>2026-04-26T12:16:24.553Z</time></trkpt><trkpt lat="42.46228126598013" lon="12.716521699383051"><ele>1034.0</ele><time>2026-04-26T12:16:32.553Z</time></trkpt><trkpt lat="42.462351371318256" lon="12.716544031665387"><ele>1034.0</ele><time>2026-04-26T12:16:34.553Z</time></trkpt><trkpt lat="42.462429665020316" lon="12.716585349347476"><ele>1034.0</ele><time>2026-04-26T12:16:37.553Z</time></trkpt><trkpt lat="42.46250603326991" lon="12.716579384616633"><ele>1034.0</ele><time>2026-04-26T12:16:39.553Z</time></trkpt><trkpt lat="42.46261243120038" lon="12.71661715358856"><ele>1034.0</ele><time>2026-04-26T12:16:41.552Z</time></trkpt><trkpt lat="42.462680740613884" lon="12.716668833176728"><ele>1034.0</ele><time>2026-04-26T12:16:43.552Z</time></trkpt><trkpt lat="42.462760066858905" lon="12.716761541172014"><ele>1034.0</ele><time>2026-04-26T12:16:45.552Z</time></trkpt><trkpt lat="42.462819065058916" lon="12.716871934939295"><ele>1034.0</ele><time>2026-04-26T12:16:47.552Z</time></trkpt><trkpt lat="42.46286597602357" lon="12.716973120944532"><ele>1035.2</ele><time>2026-04-26T12:16:49.552Z</time></trkpt><trkpt lat="42.46292098817797" lon="12.717114826503554"><ele>1036.4</ele><time>2026-04-26T12:16:51.552Z</time></trkpt><trkpt lat="42.46295226514428" lon="12.717201961482106"><ele>1037.6</ele><time>2026-04-26T12:16:52.552Z</time></trkpt><trkpt lat="42.46300732020436" lon="12.71732255315572"><ele>1038.8</ele><time>2026-04-26T12:16:54.552Z</time></trkpt><trkpt lat="42.46308683096765" lon="12.71747338092411"><ele>1040.0</ele><time>2026-04-26T12:16:56.552Z</time></trkpt><trkpt lat="42.4631323329776" lon="12.717544085752913"><ele>1036.0</ele><time>2026-04-26T12:16:57.552Z</time></trkpt><trkpt lat="42.46318896493475" lon="12.717671586002513"><ele>1032.0</ele><time>2026-04-26T12:16:59.552Z</time></trkpt><trkpt lat="42.46324350409128" lon="12.717750006682063"><ele>1028.0</ele><time>2026-04-26T12:17:00.552Z</time></trkpt><trkpt lat="42.46328118389965" lon="12.717832376233414"><ele>1024.0</ele><time>2026-04-26T12:17:01.551Z</time></trkpt><trkpt lat="42.46333661129715" lon="12.717972495751857"><ele>1020.0000000000001</ele><time>2026-04-26T12:17:03.551Z</time></trkpt><trkpt lat="42.46338707225048" lon="12.718027101048316"><ele>1016.0</ele><time>2026-04-26T12:17:04.551Z</time></trkpt><trkpt lat="42.463432700732966" lon="12.718158036919252"><ele>1016.0000000000001</ele><time>2026-04-26T12:17:06.551Z</time></trkpt><trkpt lat="42.463481683247785" lon="12.718237359961448"><ele>1016.0</ele><time>2026-04-26T12:17:08.551Z</time></trkpt><trkpt lat="42.46356513737856" lon="12.718288081973549"><ele>1016.0</ele><time>2026-04-26T12:17:10.551Z</time></trkpt><trkpt lat="42.46365155039164" lon="12.71833444518824"><ele>1016.0</ele><time>2026-04-26T12:17:12.551Z</time></trkpt><trkpt lat="42.46371323728401" lon="12.718375791941964"><ele>1016.0000000000001</ele><time>2026-04-26T12:17:13.551Z</time></trkpt><trkpt lat="42.46375633711105" lon="12.718438943010714"><ele>1016.0</ele><time>2026-04-26T12:17:14.551Z</time></trkpt><trkpt lat="42.463803149156874" lon="12.718559499433239"><ele>1014.8333333333334</ele><time>2026-04-26T12:17:16.551Z</time></trkpt><trkpt lat="42.46381262014612" lon="12.718664936400208"><ele>1013.6666666666667</ele><time>2026-04-26T12:17:19.551Z</time></trkpt><trkpt lat="42.46382760349031" lon="12.718770889898297"><ele>1012.5</ele><time>2026-04-26T12:17:21.55Z</time></trkpt><trkpt lat="42.4638558959193" lon="12.718879758334834"><ele>1011.3333333333333</ele><time>2026-04-26T12:17:23.55Z</time></trkpt><trkpt lat="42.463888543934814" lon="12.719002427494592"><ele>1010.1666666666666</ele><time>2026-04-26T12:17:25.55Z</time></trkpt><trkpt lat="42.46390659332507" lon="12.719112076350454"><ele>1009.0</ele><time>2026-04-26T12:17:27.55Z</time></trkpt><trkpt lat="42.463964201461074" lon="12.719279036685432"><ele>1009.25</ele><time>2026-04-26T12:17:29.55Z</time></trkpt><trkpt lat="42.46403102233391" lon="12.719429903340174"><ele>1009.5</ele><time>2026-04-26T12:17:31.55Z</time></trkpt><trkpt lat="42.46407270584343" lon="12.719537721243837"><ele>1009.75</ele><time>2026-04-26T12:17:33.55Z</time></trkpt><trkpt lat="42.46410177210823" lon="12.71970331842765"><ele>1010.0</ele><time>2026-04-26T12:17:35.55Z</time></trkpt><trkpt lat="42.46413292382772" lon="12.71987431910527"><ele>1010.0000000000001</ele><time>2026-04-26T12:17:37.55Z</time></trkpt><trkpt lat="42.46414518142481" lon="12.719964511476347"><ele>1010.0</ele><time>2026-04-26T12:17:38.55Z</time></trkpt><trkpt lat="42.464180820974406" lon="12.720107295028756"><ele>1010.0</ele><time>2026-04-26T12:17:40.55Z</time></trkpt><trkpt lat="42.46421567085153" lon="12.720180005580229"><ele>1010.0</ele><time>2026-04-26T12:17:41.549Z</time></trkpt><trkpt lat="42.46426363626142" lon="12.720249792731822"><ele>1010.0000000000001</ele><time>2026-04-26T12:17:42.549Z</time></trkpt><trkpt lat="42.4643106339667" lon="12.720409848315395"><ele>1010.0</ele><time>2026-04-26T12:17:44.549Z</time></trkpt><trkpt lat="42.464366938993386" lon="12.720503789950953"><ele>1010.0</ele><time>2026-04-26T12:17:46.549Z</time></trkpt><trkpt lat="42.46441796037322" lon="12.720656089258233"><ele>1010.0</ele><time>2026-04-26T12:17:48.549Z</time></trkpt><trkpt lat="42.46444946357509" lon="12.720739236667146"><ele>1010.0</ele><time>2026-04-26T12:17:49.549Z</time></trkpt><trkpt lat="42.464497671966164" lon="12.720838389897011"><ele>1010.0</ele><time>2026-04-26T12:17:51.549Z</time></trkpt><trkpt lat="42.464497815700454" lon="12.720983670063404"><ele>1010.0</ele><time>2026-04-26T12:17:53.549Z</time></trkpt><trkpt lat="42.46450622671581" lon="12.721091784617446"><ele>1009.6</ele><time>2026-04-26T12:17:55.549Z</time></trkpt><trkpt lat="42.46452824973341" lon="12.721227754790478"><ele>1009.2</ele><time>2026-04-26T12:17:57.549Z</time></trkpt><trkpt lat="42.46457571646328" lon="12.721391400817826"><ele>1008.8</ele><time>2026-04-26T12:17:59.549Z</time></trkpt><trkpt lat="42.46461080927933" lon="12.721474892508247"><ele>1008.4</ele><time>2026-04-26T12:18:00.549Z</time></trkpt><trkpt lat="42.46466129299819" lon="12.721536744457586"><ele>1008.0</ele><time>2026-04-26T12:18:01.548Z</time></trkpt><trkpt lat="42.464721746573424" lon="12.721683195195572"><ele>1005.3333333333334</ele><time>2026-04-26T12:18:03.548Z</time></trkpt><trkpt lat="42.46474571657381" lon="12.721769271063948"><ele>1002.6666666666667</ele><time>2026-04-26T12:18:04.548Z</time></trkpt><trkpt lat="42.46479548204602" lon="12.72188237844226"><ele>1000.0</ele><time>2026-04-26T12:18:05.549Z</time></trkpt><trkpt lat="42.464836842961255" lon="12.72201533513976"><ele>997.3333333333334</ele><time>2026-04-26T12:18:06.548Z</time></trkpt><trkpt lat="42.46486094088614" lon="12.722103390946794"><ele>994.6666666666667</ele><time>2026-04-26T12:18:07.548Z</time></trkpt><trkpt lat="42.464902005229725" lon="12.722213722439534"><ele>992.0</ele><time>2026-04-26T12:18:09.548Z</time></trkpt><trkpt lat="42.46494642779217" lon="12.722322229934061"><ele>992.0</ele><time>2026-04-26T12:18:11.548Z</time></trkpt><trkpt lat="42.464981006756844" lon="12.722429702058589"><ele>992.0</ele><time>2026-04-26T12:18:13.548Z</time></trkpt><trkpt lat="42.464993880853406" lon="12.722522024894003"><ele>992.0</ele><time>2026-04-26T12:18:15.548Z</time></trkpt><trkpt lat="42.46503077698762" lon="12.722636788990629"><ele>992.0</ele><time>2026-04-26T12:18:17.548Z</time></trkpt><trkpt lat="42.46507720883731" lon="12.722770973256521"><ele>992.0</ele><time>2026-04-26T12:18:19.548Z</time></trkpt><trkpt lat="42.46515623550841" lon="12.722869158904501"><ele>993.0</ele><time>2026-04-26T12:18:21.548Z</time></trkpt><trkpt lat="42.46524174842239" lon="12.722991539114224"><ele>994.0</ele><time>2026-04-26T12:18:23.548Z</time></trkpt><trkpt lat="42.46528950107582" lon="12.723050970331732"><ele>995.0</ele><time>2026-04-26T12:18:24.548Z</time></trkpt><trkpt lat="42.46533405195431" lon="12.723229991862299"><ele>996.0</ele><time>2026-04-26T12:18:26.548Z</time></trkpt><trkpt lat="42.4654053993475" lon="12.723404419338587"><ele>996.0</ele><time>2026-04-26T12:18:28.547Z</time></trkpt><trkpt lat="42.46543971484702" lon="12.723500123924193"><ele>996.0</ele><time>2026-04-26T12:18:29.547Z</time></trkpt><trkpt lat="42.465481950752036" lon="12.72362793360795"><ele>996.0</ele><time>2026-04-26T12:18:30.547Z</time></trkpt><trkpt lat="42.46551476953984" lon="12.723723857527967"><ele>996.0</ele><time>2026-04-26T12:18:31.547Z</time></trkpt><trkpt lat="42.46556635163367" lon="12.723829026330394"><ele>996.0</ele><time>2026-04-26T12:18:32.547Z</time></trkpt><trkpt lat="42.465593845441006" lon="12.723916947685384"><ele>996.0</ele><time>2026-04-26T12:18:33.547Z</time></trkpt><trkpt lat="42.46561998766007" lon="12.724004360706965"><ele>995.4</ele><time>2026-04-26T12:18:36.547Z</time></trkpt><trkpt lat="42.465608973702196" lon="12.724092345264893"><ele>994.8</ele><time>2026-04-26T12:18:40.547Z</time></trkpt><trkpt lat="42.4655735579881" lon="12.72428397921095"><ele>994.1999999999999</ele><time>2026-04-26T12:19:13.545Z</time></trkpt><trkpt lat="42.46545789591017" lon="12.724305665252803"><ele>993.5999999999999</ele><time>2026-04-26T12:19:42.544Z</time></trkpt><trkpt lat="42.465367134659566" lon="12.724306437636022"><ele>993.0</ele><time>2026-04-26T12:19:43.544Z</time></trkpt><trkpt lat="42.46529659079125" lon="12.724291982262029"><ele>993.0</ele><time>2026-04-26T12:19:44.544Z</time></trkpt><trkpt lat="42.46523433002522" lon="12.72433162026825"><ele>993.0</ele><time>2026-04-26T12:19:45.544Z</time></trkpt><trkpt lat="42.46516131306344" lon="12.72440694162379"><ele>993.0</ele><time>2026-04-26T12:19:47.543Z</time></trkpt><trkpt lat="42.46512658290332" lon="12.72448474254337"><ele>993.0</ele><time>2026-04-26T12:19:48.543Z</time></trkpt><trkpt lat="42.46516811713109" lon="12.724621014859787"><ele>993.0</ele><time>2026-04-26T12:19:50.543Z</time></trkpt><trkpt lat="42.46518107917837" lon="12.72478670342371"><ele>993.0</ele><time>2026-04-26T12:19:52.543Z</time></trkpt><trkpt lat="42.46518391478866" lon="12.724904433664998"><ele>993.0</ele><time>2026-04-26T12:19:54.543Z</time></trkpt><trkpt lat="42.46516594025663" lon="12.725050298312423"><ele>993.0</ele><time>2026-04-26T12:19:56.543Z</time></trkpt><trkpt lat="42.46515637812818" lon="12.725135180383544"><ele>993.0</ele><time>2026-04-26T12:19:58.543Z</time></trkpt><trkpt lat="42.465156188632555" lon="12.725226338338759"><ele>993.0</ele><time>2026-04-26T12:20:00.543Z</time></trkpt><trkpt lat="42.46515350807042" lon="12.725358945132148"><ele>993.0</ele><time>2026-04-26T12:20:02.543Z</time></trkpt><trkpt lat="42.46518197879396" lon="12.725442988401504"><ele>993.8333333333334</ele><time>2026-04-26T12:20:03.543Z</time></trkpt><trkpt lat="42.46520576998114" lon="12.725523241815612"><ele>994.6666666666667</ele><time>2026-04-26T12:20:04.543Z</time></trkpt><trkpt lat="42.46523634166896" lon="12.725613990313914"><ele>995.5</ele><time>2026-04-26T12:20:05.543Z</time></trkpt><trkpt lat="42.4652533556007" lon="12.725709993508442"><ele>996.3333333333334</ele><time>2026-04-26T12:20:06.543Z</time></trkpt><trkpt lat="42.465258439728686" lon="12.72579519553034"><ele>997.1666666666667</ele><time>2026-04-26T12:20:07.542Z</time></trkpt><trkpt lat="42.46526146480108" lon="12.725959581978094"><ele>998.0</ele><time>2026-04-26T12:20:09.542Z</time></trkpt><trkpt lat="42.465267423388134" lon="12.72606493743333"><ele>998.0000000000001</ele><time>2026-04-26T12:20:10.542Z</time></trkpt><trkpt lat="42.46527892911796" lon="12.726161963065596"><ele>998.0</ele><time>2026-04-26T12:20:11.543Z</time></trkpt><trkpt lat="42.46527616579731" lon="12.72628671511933"><ele>998.0</ele><time>2026-04-26T12:20:12.543Z</time></trkpt><trkpt lat="42.46529603525295" lon="12.726397024631222"><ele>998.0</ele><time>2026-04-26T12:20:13.543Z</time></trkpt><trkpt lat="42.46529889725531" lon="12.72650256752191"><ele>998.0000000000001</ele><time>2026-04-26T12:20:14.543Z</time></trkpt><trkpt lat="42.465306627835616" lon="12.726610689187366"><ele>998.0</ele><time>2026-04-26T12:20:15.542Z</time></trkpt><trkpt lat="42.465330070178666" lon="12.726722579128378"><ele>998.0000000000001</ele><time>2026-04-26T12:20:16.542Z</time></trkpt><trkpt lat="42.46534849863007" lon="12.72684470414958"><ele>998.0</ele><time>2026-04-26T12:20:17.542Z</time></trkpt><trkpt lat="42.46536742155862" lon="12.726939095406296"><ele>998.0</ele><time>2026-04-26T12:20:18.542Z</time></trkpt><trkpt lat="42.465415460882966" lon="12.727022299193917"><ele>998.0</ele><time>2026-04-26T12:20:19.542Z</time></trkpt><trkpt lat="42.46545780041748" lon="12.727091038273814"><ele>998.0000000000001</ele><time>2026-04-26T12:20:20.542Z</time></trkpt><trkpt lat="42.465526628403204" lon="12.727242727075025"><ele>998.0</ele><time>2026-04-26T12:20:22.542Z</time></trkpt><trkpt lat="42.4655719848133" lon="12.727345492079007"><ele>997.2</ele><time>2026-04-26T12:20:24.542Z</time></trkpt><trkpt lat="42.46560546892733" lon="12.727418583894787"><ele>996.4</ele><time>2026-04-26T12:20:25.542Z</time></trkpt><trkpt lat="42.46565332853668" lon="12.727522321194062"><ele>995.6000000000001</ele><time>2026-04-26T12:20:27.542Z</time></trkpt><trkpt lat="42.46568415567949" lon="12.727650934166313"><ele>994.8000000000001</ele><time>2026-04-26T12:20:29.542Z</time></trkpt><trkpt lat="42.46573150328455" lon="12.727780933905862"><ele>994.0</ele><time>2026-04-26T12:20:31.542Z</time></trkpt><trkpt lat="42.46574937273032" lon="12.72793731677164"><ele>993.8000000000001</ele><time>2026-04-26T12:20:33.541Z</time></trkpt><trkpt lat="42.46579358417242" lon="12.728047301923896"><ele>993.6000000000001</ele><time>2026-04-26T12:20:35.541Z</time></trkpt><trkpt lat="42.4658258938493" lon="12.728131572866387"><ele>993.4</ele><time>2026-04-26T12:20:36.541Z</time></trkpt><trkpt lat="42.46583734274026" lon="12.728288651868652"><ele>993.2</ele><time>2026-04-26T12:20:38.541Z</time></trkpt><trkpt lat="42.465858978198895" lon="12.728434126822943"><ele>993.0</ele><time>2026-04-26T12:20:40.541Z</time></trkpt><trkpt lat="42.46589234606027" lon="12.728569514659988"><ele>993.0</ele><time>2026-04-26T12:20:42.541Z</time></trkpt><trkpt lat="42.465882617000624" lon="12.728680722650328"><ele>993.0</ele><time>2026-04-26T12:20:43.541Z</time></trkpt><trkpt lat="42.46585301036311" lon="12.728775147428896"><ele>993.0</ele><time>2026-04-26T12:20:44.541Z</time></trkpt><trkpt lat="42.46581946930129" lon="12.72886084300146"><ele>993.0</ele><time>2026-04-26T12:20:45.541Z</time></trkpt><trkpt lat="42.465803826967104" lon="12.728950698691806"><ele>993.0</ele><time>2026-04-26T12:20:46.541Z</time></trkpt><trkpt lat="42.46580732740632" lon="12.729092818564743"><ele>993.0</ele><time>2026-04-26T12:20:48.541Z</time></trkpt><trkpt lat="42.46578065075009" lon="12.729262051102332"><ele>993.0</ele><time>2026-04-26T12:20:50.541Z</time></trkpt><trkpt lat="42.46573700493187" lon="12.729385625863863"><ele>993.0</ele><time>2026-04-26T12:20:52.541Z</time></trkpt><trkpt lat="42.465668907159554" lon="12.729486504978741"><ele>993.0</ele><time>2026-04-26T12:20:54.54Z</time></trkpt><trkpt lat="42.46560765883268" lon="12.72951507976279"><ele>993.0</ele><time>2026-04-26T12:20:55.54Z</time></trkpt><trkpt lat="42.465538703664365" lon="12.7295552053656"><ele>993.0</ele><time>2026-04-26T12:20:56.54Z</time></trkpt><trkpt lat="42.465421851224846" lon="12.7295472768465"><ele>992.8333333333334</ele><time>2026-04-26T12:20:57.54Z</time></trkpt><trkpt lat="42.465337139409456" lon="12.72955357188017"><ele>992.6666666666667</ele><time>2026-04-26T12:20:58.54Z</time></trkpt><trkpt lat="42.465275680155926" lon="12.729589087183793"><ele>992.5</ele><time>2026-04-26T12:20:59.54Z</time></trkpt><trkpt lat="42.465185347656" lon="12.729640069309246"><ele>992.3333333333334</ele><time>2026-04-26T12:21:01.54Z</time></trkpt><trkpt lat="42.465128575836076" lon="12.729684941040588"><ele>992.1666666666667</ele><time>2026-04-26T12:21:04.54Z</time></trkpt><trkpt lat="42.46506992432112" lon="12.729739959003172"><ele>992.0</ele><time>2026-04-26T12:21:09.54Z</time></trkpt><trkpt lat="42.46500015024586" lon="12.729777708750696"><ele>992.0000000000001</ele><time>2026-04-26T12:21:14.539Z</time></trkpt><trkpt lat="42.46507904008797" lon="12.729750463151928"><ele>992.0</ele><time>2026-04-26T12:24:09.52Z</time></trkpt><trkpt lat="42.46512804014108" lon="12.729694603076174"><ele>992.0</ele><time>2026-04-26T12:24:13.519Z</time></trkpt><trkpt lat="42.46520713025005" lon="12.729649571623298"><ele>992.0</ele><time>2026-04-26T12:24:16.519Z</time></trkpt><trkpt lat="42.46529518285649" lon="12.729636388638495"><ele>992.0000000000001</ele><time>2026-04-26T12:24:18.518Z</time></trkpt><trkpt lat="42.46535732729364" lon="12.729661720246733"><ele>992.0</ele><time>2026-04-26T12:24:20.518Z</time></trkpt><trkpt lat="42.46541324023655" lon="12.729742196971907"><ele>992.0000000000001</ele><time>2026-04-26T12:24:22.518Z</time></trkpt><trkpt lat="42.46539706685662" lon="12.729839338745515"><ele>992.0</ele><time>2026-04-26T12:24:24.519Z</time></trkpt><trkpt lat="42.46533769371264" lon="12.729939778549003"><ele>992.0</ele><time>2026-04-26T12:24:26.519Z</time></trkpt><trkpt lat="42.46534429093528" lon="12.730059339006855"><ele>992.0</ele><time>2026-04-26T12:24:28.519Z</time></trkpt><trkpt lat="42.46531831716659" lon="12.73016727490724"><ele>992.0000000000001</ele><time>2026-04-26T12:24:30.519Z</time></trkpt><trkpt lat="42.4652927275611" lon="12.730266932136614"><ele>992.0</ele><time>2026-04-26T12:24:32.519Z</time></trkpt><trkpt lat="42.4652671687645" lon="12.730376712659234"><ele>990.8333333333334</ele><time>2026-04-26T12:24:34.518Z</time></trkpt><trkpt lat="42.46519187343449" lon="12.73045091557729"><ele>989.6666666666667</ele><time>2026-04-26T12:24:36.518Z</time></trkpt><trkpt lat="42.46512423976909" lon="12.730535968363437"><ele>988.5</ele><time>2026-04-26T12:24:38.518Z</time></trkpt><trkpt lat="42.465101353345936" lon="12.730654842779881"><ele>987.3333333333333</ele><time>2026-04-26T12:24:40.518Z</time></trkpt><trkpt lat="42.46506349748904" lon="12.730746109210575"><ele>986.1666666666666</ele><time>2026-04-26T12:24:42.518Z</time></trkpt><trkpt lat="42.46502800530994" lon="12.730850713114254"><ele>985.0</ele><time>2026-04-26T12:24:45.517Z</time></trkpt><trkpt lat="42.46497004380955" lon="12.730943857613362"><ele>984.9999999999999</ele><time>2026-04-26T12:24:48.517Z</time></trkpt><trkpt lat="42.46492564954998" lon="12.731013964375695"><ele>985.0</ele><time>2026-04-26T12:24:50.517Z</time></trkpt><trkpt lat="42.46487699800519" lon="12.73110847841968"><ele>985.0</ele><time>2026-04-26T12:24:53.517Z</time></trkpt><trkpt lat="42.46484691769185" lon="12.731204709143398"><ele>985.0</ele><time>2026-04-26T12:24:57.517Z</time></trkpt><trkpt lat="42.464797889282465" lon="12.731286262454528"><ele>984.9999999999999</ele><time>2026-04-26T12:25:00.517Z</time></trkpt><trkpt lat="42.464778175162216" lon="12.731389006745978"><ele>985.0</ele><time>2026-04-26T12:25:03.516Z</time></trkpt><trkpt lat="42.4647719149297" lon="12.731487075287605"><ele>984.8</ele><time>2026-04-26T12:25:06.516Z</time></trkpt><trkpt lat="42.46474880909539" lon="12.731601634697347"><ele>984.6</ele><time>2026-04-26T12:25:09.516Z</time></trkpt><trkpt lat="42.464703661194434" lon="12.7316934253756"><ele>984.4000000000001</ele><time>2026-04-26T12:25:12.516Z</time></trkpt><trkpt lat="42.46466656559031" lon="12.731769535713118"><ele>984.2</ele><time>2026-04-26T12:25:15.516Z</time></trkpt><trkpt lat="42.46462803079146" lon="12.731897902389035"><ele>984.0</ele><time>2026-04-26T12:25:24.515Z</time></trkpt><trkpt lat="42.46459294839244" lon="12.732052691184501"><ele>984.0000000000001</ele><time>2026-04-26T12:25:42.514Z</time></trkpt><trkpt lat="42.46461197739035" lon="12.732139352608918"><ele>984.0</ele><time>2026-04-26T12:25:46.514Z</time></trkpt><trkpt lat="42.46460516722232" lon="12.732233890795294"><ele>984.0000000000001</ele><time>2026-04-26T12:25:54.514Z</time></trkpt><trkpt lat="42.46460959971859" lon="12.732326330904298"><ele>984.0000000000001</ele><time>2026-04-26T12:26:00.513Z</time></trkpt><trkpt lat="42.46458662601953" lon="12.732420784544045"><ele>984.0</ele><time>2026-04-26T12:26:05.513Z</time></trkpt><trkpt lat="42.46459440459188" lon="12.73250688967336"><ele>984.0000000000001</ele><time>2026-04-26T12:26:09.513Z</time></trkpt><trkpt lat="42.46461280795978" lon="12.732596506680656"><ele>984.0000000000001</ele><time>2026-04-26T12:26:18.513Z</time></trkpt><trkpt lat="42.46470461577723" lon="12.732646239185975"><ele>983.857142857143</ele><time>2026-04-26T12:27:05.511Z</time></trkpt><trkpt lat="42.46465174084391" lon="12.73270587063173"><ele>983.7142857142858</ele><time>2026-04-26T12:27:59.508Z</time></trkpt><trkpt lat="42.46463866553914" lon="12.732802466126154"><ele>983.5714285714286</ele><time>2026-04-26T12:28:02.508Z</time></trkpt><trkpt lat="42.46464346464822" lon="12.732895628614054"><ele>983.4285714285714</ele><time>2026-04-26T12:28:05.508Z</time></trkpt><trkpt lat="42.46467270365757" lon="12.732992269707335"><ele>983.2857142857142</ele><time>2026-04-26T12:28:08.507Z</time></trkpt><trkpt lat="42.46468238990968" lon="12.733082141413266"><ele>983.142857142857</ele><time>2026-04-26T12:28:11.507Z</time></trkpt><trkpt lat="42.464681289850375" lon="12.73317228008631"><ele>982.9999999999999</ele><time>2026-04-26T12:28:14.507Z</time></trkpt><trkpt lat="42.464695458999145" lon="12.733265904151704"><ele>981.5000000000001</ele><time>2026-04-26T12:28:17.507Z</time></trkpt><trkpt lat="42.46471097348793" lon="12.733357229037363"><ele>980.0</ele><time>2026-04-26T12:28:20.507Z</time></trkpt><trkpt lat="42.4647370183598" lon="12.73344269020117"><ele>978.5</ele><time>2026-04-26T12:28:29.506Z</time></trkpt><trkpt lat="42.46473394959021" lon="12.733539556544917"><ele>977.0</ele><time>2026-04-26T12:28:33.506Z</time></trkpt><trkpt lat="42.464777264113955" lon="12.733609019565053"><ele>975.5000000000001</ele><time>2026-04-26T12:28:36.507Z</time></trkpt><trkpt lat="42.46482299311155" lon="12.733684194769268"><ele>974.0</ele><time>2026-04-26T12:28:40.507Z</time></trkpt><trkpt lat="42.464911883088135" lon="12.733782787655128"><ele>967.0</ele><time>2026-04-26T12:30:46.501Z</time></trkpt><trkpt lat="42.46484828258536" lon="12.733802496110853"><ele>960.0</ele><time>2026-04-26T12:31:03.5Z</time></trkpt><trkpt lat="42.46900388951051" lon="12.721217354917814"><ele>965.5</ele><time>2026-04-26T12:10:27.569Z</time></trkpt><trkpt lat="42.46894578074009" lon="12.721175222163337"><ele>971.0</ele><time>2026-04-26T12:10:29.569Z</time></trkpt><trkpt lat="42.46887528669725" lon="12.721179177960325"><ele>976.5</ele><time>2026-04-26T12:13:10.561Z</time></trkpt><trkpt lat="42.46879213354048" lon="12.721133285503704"><ele>982.0</ele><time>2026-04-26T12:13:12.561Z</time></trkpt><trkpt lat="42.46869707938485" lon="12.721072918270233"><ele>987.5</ele><time>2026-04-26T12:13:14.561Z</time></trkpt><trkpt lat="42.46863461026885" lon="12.721030844644215"><ele>993.0</ele><time>2026-04-26T12:13:16.561Z</time></trkpt><trkpt lat="42.46856667216771" lon="12.720986924584652"><ele>993.6666666666666</ele><time>2026-04-26T12:13:18.561Z</time></trkpt><trkpt lat="42.46849671287651" lon="12.720926251200677"><ele>994.3333333333333</ele><time>2026-04-26T12:13:20.561Z</time></trkpt><trkpt lat="42.46841846417061" lon="12.720877533067238"><ele>995.0</ele><time>2026-04-26T12:13:22.561Z</time></trkpt><trkpt lat="42.468346207269526" lon="12.720823758916241"><ele>995.6666666666666</ele><time>2026-04-26T12:13:24.561Z</time></trkpt><trkpt lat="42.46827743721038" lon="12.72076486637495"><ele>996.3333333333333</ele><time>2026-04-26T12:13:26.561Z</time></trkpt><trkpt lat="42.468179331287615" lon="12.72074695585127"><ele>997.0</ele><time>2026-04-26T12:13:28.56Z</time></trkpt><trkpt lat="42.46811176736785" lon="12.720743939649822"><ele>996.9999999999999</ele><time>2026-04-26T12:13:29.56Z</time></trkpt><trkpt lat="42.46804792704169" lon="12.720737401195976"><ele>997.0</ele><time>2026-04-26T12:13:30.56Z</time></trkpt><trkpt lat="42.46798179919213" lon="12.720732024387738"><ele>997.0</ele><time>2026-04-26T12:13:31.56Z</time></trkpt><trkpt lat="42.46785465707497" lon="12.720751757625715"><ele>997.0</ele><time>2026-04-26T12:13:33.56Z</time></trkpt><trkpt lat="42.46778707977615" lon="12.720745623888543"><ele>996.9999999999999</ele><time>2026-04-26T12:13:34.56Z</time></trkpt><trkpt lat="42.467674820550855" lon="12.720730066393179"><ele>997.0</ele><time>2026-04-26T12:13:36.56Z</time></trkpt><trkpt lat="42.46754644493681" lon="12.720714943219471"><ele>997.6666666666666</ele><time>2026-04-26T12:13:38.56Z</time></trkpt><trkpt lat="42.46747857241276" lon="12.720692343491129"><ele>998.3333333333333</ele><time>2026-04-26T12:13:39.56Z</time></trkpt><trkpt lat="42.467411661096" lon="12.7206676545242"><ele>999.0</ele><time>2026-04-26T12:13:40.56Z</time></trkpt><trkpt lat="42.46734122536731" lon="12.720640337676235"><ele>999.6666666666667</ele><time>2026-04-26T12:13:41.56Z</time></trkpt><trkpt lat="42.4672726609751" lon="12.720616075068035"><ele>1000.3333333333334</ele><time>2026-04-26T12:13:42.56Z</time></trkpt><trkpt lat="42.46718594050823" lon="12.720572850446253"><ele>1001.0</ele><time>2026-04-26T12:13:44.56Z</time></trkpt><trkpt lat="42.46713763554354" lon="12.720471378232439"><ele>1001.8</ele><time>2026-04-26T12:13:46.56Z</time></trkpt><trkpt lat="42.46710858357395" lon="12.720379287018725"><ele>1002.5999999999999</ele><time>2026-04-26T12:13:48.559Z</time></trkpt><trkpt lat="42.46706723159457" lon="12.720290452422066"><ele>1003.4</ele><time>2026-04-26T12:13:50.559Z</time></trkpt><trkpt lat="42.46696369496079" lon="12.720200044685855"><ele>1004.2</ele><time>2026-04-26T12:13:52.559Z</time></trkpt><trkpt lat="42.46690770047727" lon="12.720160143518145"><ele>1005.0</ele><time>2026-04-26T12:13:53.56Z</time></trkpt><trkpt lat="42.46681945127597" lon="12.720054774813075"><ele>1005.8</ele><time>2026-04-26T12:13:55.56Z</time></trkpt><trkpt lat="42.46672392670478" lon="12.719969737517552"><ele>1006.6</ele><time>2026-04-26T12:13:57.56Z</time></trkpt><trkpt lat="42.46660867166837" lon="12.719892338625218"><ele>1007.4000000000001</ele><time>2026-04-26T12:13:59.56Z</time></trkpt><trkpt lat="42.46654633491371" lon="12.71983853611269"><ele>1008.2</ele><time>2026-04-26T12:14:00.56Z</time></trkpt><trkpt lat="42.46648571473459" lon="12.719772992957472"><ele>1009.0</ele><time>2026-04-26T12:14:01.56Z</time></trkpt><trkpt lat="42.466430769191035" lon="12.71970522236528"><ele>1008.9999999999999</ele><time>2026-04-26T12:14:02.56Z</time></trkpt><trkpt lat="42.466377339584284" lon="12.719631216135003"><ele>1009.0</ele><time>2026-04-26T12:14:03.56Z</time></trkpt><trkpt lat="42.466325255170425" lon="12.719561490806283"><ele>1009.0</ele><time>2026-04-26T12:14:04.56Z</time></trkpt><trkpt lat="42.466243555792836" lon="12.71946057657607"><ele>1009.0</ele><time>2026-04-26T12:14:05.56Z</time></trkpt><trkpt lat="42.466183715750184" lon="12.71938435838073"><ele>1008.9999999999999</ele><time>2026-04-26T12:14:06.56Z</time></trkpt><trkpt lat="42.46612958080706" lon="12.719316358781631"><ele>1009.0</ele><time>2026-04-26T12:14:07.56Z</time></trkpt><trkpt lat="42.46606703681083" lon="12.71922608445053"><ele>1008.8000000000001</ele><time>2026-04-26T12:14:08.56Z</time></trkpt><trkpt lat="42.46600217761088" lon="12.719132137971489"><ele>1008.6000000000001</ele><time>2026-04-26T12:14:09.56Z</time></trkpt><trkpt lat="42.46593433843935" lon="12.719046005821987"><ele>1008.4</ele><time>2026-04-26T12:14:10.56Z</time></trkpt><trkpt lat="42.46587456437459" lon="12.718963400341698"><ele>1008.2</ele><time>2026-04-26T12:14:11.56Z</time></trkpt><trkpt lat="42.465816130169124" lon="12.718871407851468"><ele>1008.0</ele><time>2026-04-26T12:14:12.56Z</time></trkpt><trkpt lat="42.46574901516006" lon="12.718792364805005"><ele>1008.0</ele><time>2026-04-26T12:14:13.56Z</time></trkpt><trkpt lat="42.46569017216056" lon="12.718720548415062"><ele>1008.0</ele><time>2026-04-26T12:14:14.56Z</time></trkpt><trkpt lat="42.46562979031416" lon="12.718658296427185"><ele>1008.0</ele><time>2026-04-26T12:14:15.56Z</time></trkpt><trkpt lat="42.46557382555358" lon="12.71860418655733"><ele>1008.0</ele><time>2026-04-26T12:14:16.56Z</time></trkpt><trkpt lat="42.46552256250105" lon="12.718542472807426"><ele>1008.0</ele><time>2026-04-26T12:14:17.56Z</time></trkpt><trkpt lat="42.46547217340157" lon="12.718461711349894"><ele>1008.0</ele><time>2026-04-26T12:14:18.559Z</time></trkpt><trkpt lat="42.46538015642425" lon="12.718375584081187"><ele>1007.5999999999999</ele><time>2026-04-26T12:14:20.559Z</time></trkpt><trkpt lat="42.46528735859936" lon="12.718319270778743"><ele>1007.1999999999999</ele><time>2026-04-26T12:14:22.559Z</time></trkpt><trkpt lat="42.465183295644955" lon="12.718286264088619"><ele>1006.8</ele><time>2026-04-26T12:14:24.559Z</time></trkpt><trkpt lat="42.46508948028623" lon="12.718245147167966"><ele>1006.4</ele><time>2026-04-26T12:14:26.559Z</time></trkpt><trkpt lat="42.46499609696276" lon="12.718210504624485"><ele>1006.0</ele><time>2026-04-26T12:14:28.559Z</time></trkpt><trkpt lat="42.46487708484766" lon="12.718187697832509"><ele>1006.0</ele><time>2026-04-26T12:14:30.559Z</time></trkpt><trkpt lat="42.46476243620814" lon="12.718197760533206"><ele>1005.9999999999999</ele><time>2026-04-26T12:14:32.559Z</time></trkpt><trkpt lat="42.46464548017044" lon="12.718220500642996"><ele>1005.9999999999999</ele><time>2026-04-26T12:14:34.559Z</time></trkpt><trkpt lat="42.464573727330716" lon="12.718216966339853"><ele>1006.0</ele><time>2026-04-26T12:14:35.559Z</time></trkpt><trkpt lat="42.46446445553137" lon="12.718217224477632"><ele>1006.0</ele><time>2026-04-26T12:14:37.559Z</time></trkpt><trkpt lat="42.464347690121954" lon="12.718246882256938"><ele>1005.5999999999999</ele><time>2026-04-26T12:14:39.558Z</time></trkpt><trkpt lat="42.46422491369361" lon="12.718320934702177"><ele>1005.1999999999999</ele><time>2026-04-26T12:14:41.558Z</time></trkpt><trkpt lat="42.46416648045313" lon="12.718390930996954"><ele>1004.8000000000001</ele><time>2026-04-26T12:14:42.558Z</time></trkpt><trkpt lat="42.46409258119195" lon="12.718489652168552"><ele>1004.4000000000001</ele><time>2026-04-26T12:14:44.558Z</time></trkpt><trkpt lat="42.46403480841645" lon="12.718577653553414"><ele>1004.0</ele><time>2026-04-26T12:14:46.558Z</time></trkpt><trkpt lat="42.46397402047733" lon="12.71863122716799"><ele>1004.8333333333334</ele><time>2026-04-26T12:14:49.558Z</time></trkpt><trkpt lat="42.463895420959304" lon="12.718601643520765"><ele>1005.6666666666667</ele><time>2026-04-26T12:14:52.558Z</time></trkpt><trkpt lat="42.4638270681583" lon="12.718583162449056"><ele>1006.5</ele><time>2026-04-26T12:14:59.557Z</time></trkpt><trkpt lat="42.463755701840256" lon="12.71858483928743"><ele>1007.3333333333333</ele><time>2026-04-26T12:15:13.557Z</time></trkpt><trkpt lat="42.46367717568211" lon="12.718555394630174"><ele>1008.1666666666666</ele><time>2026-04-26T12:15:15.557Z</time></trkpt><trkpt lat="42.46361627982331" lon="12.718446470513769"><ele>1009.0</ele><time>2026-04-26T12:15:18.556Z</time></trkpt><trkpt lat="42.46354975397651" lon="12.718384767368821"><ele>1010.1666666666666</ele><time>2026-04-26T12:15:19.556Z</time></trkpt><trkpt lat="42.463497634483666" lon="12.718286535488357"><ele>1011.3333333333333</ele><time>2026-04-26T12:15:20.556Z</time></trkpt><trkpt lat="42.46345967171614" lon="12.718206329552412"><ele>1012.5</ele><time>2026-04-26T12:15:21.556Z</time></trkpt><trkpt lat="42.46339848107952" lon="12.718064950720045"><ele>1013.6666666666667</ele><time>2026-04-26T12:15:23.556Z</time></trkpt><trkpt lat="42.463364030686265" lon="12.71798371161327"><ele>1014.8333333333334</ele><time>2026-04-26T12:15:24.556Z</time></trkpt><trkpt lat="42.46331687791928" lon="12.717864562556732"><ele>1016.0</ele><time>2026-04-26T12:15:26.556Z</time></trkpt><trkpt lat="42.46324004118427" lon="12.71773880300364"><ele>1015.8</ele><time>2026-04-26T12:15:28.556Z</time></trkpt><trkpt lat="42.46320266225378" lon="12.717668485473501"><ele>1015.5999999999999</ele><time>2026-04-26T12:15:29.556Z</time></trkpt><trkpt lat="42.46313845153947" lon="12.717537042586004"><ele>1015.4</ele><time>2026-04-26T12:15:31.556Z</time></trkpt><trkpt lat="42.46310044370835" lon="12.71741850857521"><ele>1015.2</ele><time>2026-04-26T12:15:33.556Z</time></trkpt><trkpt lat="42.46304875358192" lon="12.717305917415464"><ele>1015.0</ele><time>2026-04-26T12:15:35.556Z</time></trkpt><trkpt lat="42.46297242415011" lon="12.71714019657742"><ele>1018.8</ele><time>2026-04-26T12:15:37.556Z</time></trkpt><trkpt lat="42.46292011968837" lon="12.71703897882133"><ele>1022.6</ele><time>2026-04-26T12:15:39.555Z</time></trkpt><trkpt lat="42.46282177750475" lon="12.716943540530737"><ele>1026.4</ele><time>2026-04-26T12:15:41.555Z</time></trkpt><trkpt lat="42.46273816411535" lon="12.716896228884648"><ele>1030.2</ele><time>2026-04-26T12:15:42.555Z</time></trkpt><trkpt lat="42.46266025875465" lon="12.716851038682796"><ele>1034.0</ele><time>2026-04-26T12:15:44.555Z</time></trkpt><trkpt lat="42.4625951590884" lon="12.716840339755885"><ele>1034.0</ele><time>2026-04-26T12:15:45.555Z</time></trkpt><trkpt lat="42.46251311661159" lon="12.71678684222552"><ele>1034.0</ele><time>2026-04-26T12:15:47.555Z</time></trkpt><trkpt lat="42.462423310675966" lon="12.716733089167246"><ele>1034.0</ele><time>2026-04-26T12:15:49.555Z</time></trkpt><trkpt lat="42.462344588926314" lon="12.716702079867826"><ele>1034.0</ele><time>2026-04-26T12:15:51.555Z</time></trkpt><trkpt lat="42.462297989845865" lon="12.716637206089956"><ele>1034.0</ele><time>2026-04-26T12:15:56.555Z</time></trkpt><trkpt lat="42.46225506037084" lon="12.716566759789485"><ele>1034.0</ele><time>2026-04-26T12:16:08.554Z</time></trkpt><trkpt lat="42.46220539466433" lon="12.716511631127425"><ele>1034.0</ele><time>2026-04-26T12:16:24.553Z</time></trkpt><trkpt lat="42.46228126598013" lon="12.716521699383051"><ele>1034.0</ele><time>2026-04-26T12:16:32.553Z</time></trkpt><trkpt lat="42.462351371318256" lon="12.716544031665387"><ele>1034.0</ele><time>2026-04-26T12:16:34.553Z</time></trkpt><trkpt lat="42.462429665020316" lon="12.716585349347476"><ele>1034.0</ele><time>2026-04-26T12:16:37.553Z</time></trkpt><trkpt lat="42.46250603326991" lon="12.716579384616633"><ele>1034.0</ele><time>2026-04-26T12:16:39.553Z</time></trkpt><trkpt lat="42.46261243120038" lon="12.71661715358856"><ele>1034.0</ele><time>2026-04-26T12:16:41.552Z</time></trkpt><trkpt lat="42.462680740613884" lon="12.716668833176728"><ele>1034.0</ele><time>2026-04-26T12:16:43.552Z</time></trkpt><trkpt lat="42.462760066858905" lon="12.716761541172014"><ele>1034.0</ele><time>2026-04-26T12:16:45.552Z</time></trkpt><trkpt lat="42.462819065058916" lon="12.716871934939295"><ele>1034.0</ele><time>2026-04-26T12:16:47.552Z</time></trkpt><trkpt lat="42.46286597602357" lon="12.716973120944532"><ele>1034.0</ele><time>2026-04-26T12:16:49.552Z</time></trkpt><trkpt lat="42.46292098817797" lon="12.717114826503554"><ele>1034.0</ele><time>2026-04-26T12:16:51.552Z</time></trkpt><trkpt lat="42.46295226514428" lon="12.717201961482106"><ele>1030.4</ele><time>2026-04-26T12:16:52.552Z</time></trkpt><trkpt lat="42.46300732020436" lon="12.71732255315572"><ele>1026.8000000000002</ele><time>2026-04-26T12:16:54.552Z</time></trkpt><trkpt lat="42.46308683096765" lon="12.71747338092411"><ele>1023.1999999999999</ele><time>2026-04-26T12:16:56.552Z</time></trkpt><trkpt lat="42.4631323329776" lon="12.717544085752913"><ele>1019.5999999999999</ele><time>2026-04-26T12:16:57.552Z</time></trkpt><trkpt lat="42.46318896493475" lon="12.717671586002513"><ele>1016.0</ele><time>2026-04-26T12:16:59.552Z</time></trkpt><trkpt lat="42.46324350409128" lon="12.717750006682063"><ele>1016.0000000000001</ele><time>2026-04-26T12:17:00.552Z</time></trkpt><trkpt lat="42.46328118389965" lon="12.717832376233414"><ele>1016.0</ele><time>2026-04-26T12:17:01.551Z</time></trkpt><trkpt lat="42.46333661129715" lon="12.717972495751857"><ele>1016.0</ele><time>2026-04-26T12:17:03.551Z</time></trkpt><trkpt lat="42.46338707225048" lon="12.718027101048316"><ele>1016.0</ele><time>2026-04-26T12:17:04.551Z</time></trkpt><trkpt lat="42.463432700732966" lon="12.718158036919252"><ele>1016.0000000000001</ele><time>2026-04-26T12:17:06.551Z</time></trkpt><trkpt lat="42.463481683247785" lon="12.718237359961448"><ele>1016.0</ele><time>2026-04-26T12:17:08.551Z</time></trkpt><trkpt lat="42.46356513737856" lon="12.718288081973549"><ele>1016.0000000000001</ele><time>2026-04-26T12:17:10.551Z</time></trkpt><trkpt lat="42.46365155039164" lon="12.71833444518824"><ele>1016.0</ele><time>2026-04-26T12:17:12.551Z</time></trkpt><trkpt lat="42.46371323728401" lon="12.718375791941964"><ele>1016.0</ele><time>2026-04-26T12:17:13.551Z</time></trkpt><trkpt lat="42.46375633711105" lon="12.718438943010714"><ele>1016.0</ele><time>2026-04-26T12:17:14.551Z</time></trkpt><trkpt lat="42.463803149156874" lon="12.718559499433239"><ele>1016.0000000000001</ele><time>2026-04-26T12:17:16.551Z</time></trkpt><trkpt lat="42.46381262014612" lon="12.718664936400208"><ele>1016.0</ele><time>2026-04-26T12:17:19.551Z</time></trkpt><trkpt lat="42.46382760349031" lon="12.718770889898297"><ele>1014.8</ele><time>2026-04-26T12:17:21.55Z</time></trkpt><trkpt lat="42.4638558959193" lon="12.718879758334834"><ele>1013.5999999999999</ele><time>2026-04-26T12:17:23.55Z</time></trkpt><trkpt lat="42.463888543934814" lon="12.719002427494592"><ele>1012.4</ele><time>2026-04-26T12:17:25.55Z</time></trkpt><trkpt lat="42.46390659332507" lon="12.719112076350454"><ele>1011.2</ele><time>2026-04-26T12:17:27.55Z</time></trkpt><trkpt lat="42.463964201461074" lon="12.719279036685432"><ele>1010.0</ele><time>2026-04-26T12:17:29.55Z</time></trkpt><trkpt lat="42.46403102233391" lon="12.719429903340174"><ele>1010.0</ele><time>2026-04-26T12:17:31.55Z</time></trkpt><trkpt lat="42.46407270584343" lon="12.719537721243837"><ele>1010.0</ele><time>2026-04-26T12:17:33.55Z</time></trkpt><trkpt lat="42.46410177210823" lon="12.71970331842765"><ele>1010.0</ele><time>2026-04-26T12:17:35.55Z</time></trkpt><trkpt lat="42.46413292382772" lon="12.71987431910527"><ele>1010.0</ele><time>2026-04-26T12:17:37.55Z</time></trkpt><trkpt lat="42.46414518142481" lon="12.719964511476347"><ele>1010.0</ele><time>2026-04-26T12:17:38.55Z</time></trkpt><trkpt lat="42.464180820974406" lon="12.720107295028756"><ele>1010.0</ele><time>2026-04-26T12:17:40.55Z</time></trkpt><trkpt lat="42.46421567085153" lon="12.720180005580229"><ele>1010.0</ele><time>2026-04-26T12:17:41.549Z</time></trkpt><trkpt lat="42.46426363626142" lon="12.720249792731822"><ele>1010.0</ele><time>2026-04-26T12:17:42.549Z</time></trkpt><trkpt lat="42.4643106339667" lon="12.720409848315395"><ele>1010.0</ele><time>2026-04-26T12:17:44.549Z</time></trkpt><trkpt lat="42.464366938993386" lon="12.720503789950953"><ele>1010.0</ele><time>2026-04-26T12:17:46.549Z</time></trkpt><trkpt lat="42.46441796037322" lon="12.720656089258233"><ele>1010.0000000000001</ele><time>2026-04-26T12:17:48.549Z</time></trkpt><trkpt lat="42.46444946357509" lon="12.720739236667146"><ele>1010.0</ele><time>2026-04-26T12:17:49.549Z</time></trkpt><trkpt lat="42.464497671966164" lon="12.720838389897011"><ele>1010.0</ele><time>2026-04-26T12:17:51.549Z</time></trkpt><trkpt lat="42.464497815700454" lon="12.720983670063404"><ele>1010.0</ele><time>2026-04-26T12:17:53.549Z</time></trkpt><trkpt lat="42.46450622671581" lon="12.721091784617446"><ele>1010.0000000000001</ele><time>2026-04-26T12:17:55.549Z</time></trkpt><trkpt lat="42.46452824973341" lon="12.721227754790478"><ele>1010.0</ele><time>2026-04-26T12:17:57.549Z</time></trkpt><trkpt lat="42.46457571646328" lon="12.721391400817826"><ele>1009.6666666666667</ele><time>2026-04-26T12:17:59.549Z</time></trkpt><trkpt lat="42.46461080927933" lon="12.721474892508247"><ele>1009.3333333333334</ele><time>2026-04-26T12:18:00.549Z</time></trkpt><trkpt lat="42.46466129299819" lon="12.721536744457586"><ele>1009.0</ele><time>2026-04-26T12:18:01.548Z</time></trkpt><trkpt lat="42.464721746573424" lon="12.721683195195572"><ele>1008.6666666666667</ele><time>2026-04-26T12:18:03.548Z</time></trkpt><trkpt lat="42.46474571657381" lon="12.721769271063948"><ele>1008.3333333333334</ele><time>2026-04-26T12:18:04.548Z</time></trkpt><trkpt lat="42.46479548204602" lon="12.72188237844226"><ele>1008.0</ele><time>2026-04-26T12:18:05.549Z</time></trkpt><trkpt lat="42.464836842961255" lon="12.72201533513976"><ele>1005.3333333333334</ele><time>2026-04-26T12:18:06.548Z</time></trkpt><trkpt lat="42.46486094088614" lon="12.722103390946794"><ele>1002.6666666666667</ele><time>2026-04-26T12:18:07.548Z</time></trkpt><trkpt lat="42.464902005229725" lon="12.722213722439534"><ele>1000.0</ele><time>2026-04-26T12:18:09.548Z</time></trkpt><trkpt lat="42.46494642779217" lon="12.722322229934061"><ele>997.3333333333334</ele><time>2026-04-26T12:18:11.548Z</time></trkpt><trkpt lat="42.464981006756844" lon="12.722429702058589"><ele>994.6666666666667</ele><time>2026-04-26T12:18:13.548Z</time></trkpt><trkpt lat="42.464993880853406" lon="12.722522024894003"><ele>992.0</ele><time>2026-04-26T12:18:15.548Z</time></trkpt><trkpt lat="42.46503077698762" lon="12.722636788990629"><ele>992.8</ele><time>2026-04-26T12:18:17.548Z</time></trkpt><trkpt lat="42.46507720883731" lon="12.722770973256521"><ele>993.6</ele><time>2026-04-26T12:18:19.548Z</time></trkpt><trkpt lat="42.46515623550841" lon="12.722869158904501"><ele>994.3999999999999</ele><time>2026-04-26T12:18:21.548Z</time></trkpt><trkpt lat="42.46524174842239" lon="12.722991539114224"><ele>995.1999999999999</ele><time>2026-04-26T12:18:23.548Z</time></trkpt><trkpt lat="42.46528950107582" lon="12.723050970331732"><ele>996.0</ele><time>2026-04-26T12:18:24.548Z</time></trkpt><trkpt lat="42.46533405195431" lon="12.723229991862299"><ele>996.0</ele><time>2026-04-26T12:18:26.548Z</time></trkpt><trkpt lat="42.4654053993475" lon="12.723404419338587"><ele>995.9999999999999</ele><time>2026-04-26T12:18:28.547Z</time></trkpt><trkpt lat="42.46543971484702" lon="12.723500123924193"><ele>995.9999999999999</ele><time>2026-04-26T12:18:29.547Z</time></trkpt><trkpt lat="42.465481950752036" lon="12.72362793360795"><ele>996.0</ele><time>2026-04-26T12:18:30.547Z</time></trkpt><trkpt lat="42.46551476953984" lon="12.723723857527967"><ele>996.0</ele><time>2026-04-26T12:18:31.547Z</time></trkpt><trkpt lat="42.46556635163367" lon="12.723829026330394"><ele>992.5999999999999</ele><time>2026-04-26T12:18:32.547Z</time></trkpt><trkpt lat="42.465593845441006" lon="12.723916947685384"><ele>989.1999999999999</ele><time>2026-04-26T12:18:33.547Z</time></trkpt><trkpt lat="42.46561998766007" lon="12.724004360706965"><ele>985.8000000000001</ele><time>2026-04-26T12:18:36.547Z</time></trkpt><trkpt lat="42.465608973702196" lon="12.724092345264893"><ele>982.4000000000001</ele><time>2026-04-26T12:18:40.547Z</time></trkpt><trkpt lat="42.4655735579881" lon="12.72428397921095"><ele>979.0</ele><time>2026-04-26T12:19:13.545Z</time></trkpt><trkpt lat="42.46545789591017" lon="12.724305665252803"><ele>981.3333333333333</ele><time>2026-04-26T12:19:42.544Z</time></trkpt><trkpt lat="42.465367134659566" lon="12.724306437636022"><ele>983.6666666666666</ele><time>2026-04-26T12:19:43.544Z</time></trkpt><trkpt lat="42.46529659079125" lon="12.724291982262029"><ele>986.0</ele><time>2026-04-26T12:19:44.544Z</time></trkpt><trkpt lat="42.46523433002522" lon="12.72433162026825"><ele>988.3333333333333</ele><time>2026-04-26T12:19:45.544Z</time></trkpt><trkpt lat="42.46516131306344" lon="12.72440694162379"><ele>990.6666666666666</ele><time>2026-04-26T12:19:47.543Z</time></trkpt><trkpt lat="42.46512658290332" lon="12.72448474254337"><ele>993.0</ele><time>2026-04-26T12:19:48.543Z</time></trkpt><trkpt lat="42.46516811713109" lon="12.724621014859787"><ele>993.0</ele><time>2026-04-26T12:19:50.543Z</time></trkpt><trkpt lat="42.46518107917837" lon="12.72478670342371"><ele>993.0</ele><time>2026-04-26T12:19:52.543Z</time></trkpt><trkpt lat="42.46518391478866" lon="12.724904433664998"><ele>993.0</ele><time>2026-04-26T12:19:54.543Z</time></trkpt><trkpt lat="42.46516594025663" lon="12.725050298312423"><ele>993.0</ele><time>2026-04-26T12:19:56.543Z</time></trkpt><trkpt lat="42.46515637812818" lon="12.725135180383544"><ele>993.0</ele><time>2026-04-26T12:19:58.543Z</time></trkpt><trkpt lat="42.465156188632555" lon="12.725226338338759"><ele>993.0</ele><time>2026-04-26T12:20:00.543Z</time></trkpt><trkpt lat="42.46515350807042" lon="12.725358945132148"><ele>993.8333333333334</ele><time>2026-04-26T12:20:02.543Z</time></trkpt><trkpt lat="42.46518197879396" lon="12.725442988401504"><ele>994.6666666666667</ele><time>2026-04-26T12:20:03.543Z</time></trkpt><trkpt lat="42.46520576998114" lon="12.725523241815612"><ele>995.5</ele><time>2026-04-26T12:20:04.543Z</time></trkpt><trkpt lat="42.46523634166896" lon="12.725613990313914"><ele>996.3333333333334</ele><time>2026-04-26T12:20:05.543Z</time></trkpt><trkpt lat="42.4652533556007" lon="12.725709993508442"><ele>997.1666666666667</ele><time>2026-04-26T12:20:06.543Z</time></trkpt><trkpt lat="42.465258439728686" lon="12.72579519553034"><ele>998.0</ele><time>2026-04-26T12:20:07.542Z</time></trkpt><trkpt lat="42.46526146480108" lon="12.725959581978094"><ele>998.0000000000001</ele><time>2026-04-26T12:20:09.542Z</time></trkpt><trkpt lat="42.465267423388134" lon="12.72606493743333"><ele>998.0</ele><time>2026-04-26T12:20:10.542Z</time></trkpt><trkpt lat="42.46527892911796" lon="12.726161963065596"><ele>998.0</ele><time>2026-04-26T12:20:11.543Z</time></trkpt><trkpt lat="42.46527616579731" lon="12.72628671511933"><ele>998.0</ele><time>2026-04-26T12:20:12.543Z</time></trkpt><trkpt lat="42.46529603525295" lon="12.726397024631222"><ele>998.0000000000001</ele><time>2026-04-26T12:20:13.543Z</time></trkpt><trkpt lat="42.46529889725531" lon="12.72650256752191"><ele>998.0</ele><time>2026-04-26T12:20:14.543Z</time></trkpt><trkpt lat="42.465306627835616" lon="12.726610689187366"><ele>998.0000000000001</ele><time>2026-04-26T12:20:15.542Z</time></trkpt><trkpt lat="42.465330070178666" lon="12.726722579128378"><ele>998.0</ele><time>2026-04-26T12:20:16.542Z</time></trkpt><trkpt lat="42.46534849863007" lon="12.72684470414958"><ele>998.0</ele><time>2026-04-26T12:20:17.542Z</time></trkpt><trkpt lat="42.46536742155862" lon="12.726939095406296"><ele>998.0</ele><time>2026-04-26T12:20:18.542Z</time></trkpt><trkpt lat="42.465415460882966" lon="12.727022299193917"><ele>998.0000000000001</ele><time>2026-04-26T12:20:19.542Z</time></trkpt><trkpt lat="42.46545780041748" lon="12.727091038273814"><ele>998.0</ele><time>2026-04-26T12:20:20.542Z</time></trkpt><trkpt lat="42.465526628403204" lon="12.727242727075025"><ele>997.3333333333334</ele><time>2026-04-26T12:20:22.542Z</time></trkpt><trkpt lat="42.4655719848133" lon="12.727345492079007"><ele>996.6666666666667</ele><time>2026-04-26T12:20:24.542Z</time></trkpt><trkpt lat="42.46560546892733" lon="12.727418583894787"><ele>996.0</ele><time>2026-04-26T12:20:25.542Z</time></trkpt><trkpt lat="42.46565332853668" lon="12.727522321194062"><ele>995.3333333333333</ele><time>2026-04-26T12:20:27.542Z</time></trkpt><trkpt lat="42.46568415567949" lon="12.727650934166313"><ele>994.6666666666666</ele><time>2026-04-26T12:20:29.542Z</time></trkpt><trkpt lat="42.46573150328455" lon="12.727780933905862"><ele>994.0</ele><time>2026-04-26T12:20:31.542Z</time></trkpt><trkpt lat="42.46574937273032" lon="12.72793731677164"><ele>993.8000000000001</ele><time>2026-04-26T12:20:33.541Z</time></trkpt><trkpt lat="42.46579358417242" lon="12.728047301923896"><ele>993.6000000000001</ele><time>2026-04-26T12:20:35.541Z</time></trkpt><trkpt lat="42.4658258938493" lon="12.728131572866387"><ele>993.4</ele><time>2026-04-26T12:20:36.541Z</time></trkpt><trkpt lat="42.46583734274026" lon="12.728288651868652"><ele>993.2</ele><time>2026-04-26T12:20:38.541Z</time></trkpt><trkpt lat="42.465858978198895" lon="12.728434126822943"><ele>993.0</ele><time>2026-04-26T12:20:40.541Z</time></trkpt><trkpt lat="42.46589234606027" lon="12.728569514659988"><ele>993.0</ele><time>2026-04-26T12:20:42.541Z</time></trkpt><trkpt lat="42.465882617000624" lon="12.728680722650328"><ele>993.0</ele><time>2026-04-26T12:20:43.541Z</time></trkpt><trkpt lat="42.46585301036311" lon="12.728775147428896"><ele>993.0</ele><time>2026-04-26T12:20:44.541Z</time></trkpt><trkpt lat="42.46581946930129" lon="12.72886084300146"><ele>993.0</ele><time>2026-04-26T12:20:45.541Z</time></trkpt><trkpt lat="42.465803826967104" lon="12.728950698691806"><ele>993.0</ele><time>2026-04-26T12:20:46.541Z</time></trkpt><trkpt lat="42.46580732740632" lon="12.729092818564743"><ele>993.0</ele><time>2026-04-26T12:20:48.541Z</time></trkpt><trkpt lat="42.46578065075009" lon="12.729262051102332"><ele>993.0</ele><time>2026-04-26T12:20:50.541Z</time></trkpt><trkpt lat="42.46573700493187" lon="12.729385625863863"><ele>993.0</ele><time>2026-04-26T12:20:52.541Z</time></trkpt><trkpt lat="42.465668907159554" lon="12.729486504978741"><ele>993.0</ele><time>2026-04-26T12:20:54.54Z</time></trkpt><trkpt lat="42.46560765883268" lon="12.72951507976279"><ele>993.0</ele><time>2026-04-26T12:20:55.54Z</time></trkpt><trkpt lat="42.465538703664365" lon="12.7295552053656"><ele>993.0</ele><time>2026-04-26T12:20:56.54Z</time></trkpt><trkpt lat="42.465421851224846" lon="12.7295472768465"><ele>992.8333333333334</ele><time>2026-04-26T12:20:57.54Z</time></trkpt><trkpt lat="42.465337139409456" lon="12.72955357188017"><ele>992.6666666666667</ele><time>2026-04-26T12:20:58.54Z</time></trkpt><trkpt lat="42.465275680155926" lon="12.729589087183793"><ele>992.5</ele><time>2026-04-26T12:20:59.54Z</time></trkpt><trkpt lat="42.465185347656" lon="12.729640069309246"><ele>992.3333333333334</ele><time>2026-04-26T12:21:01.54Z</time></trkpt><trkpt lat="42.465128575836076" lon="12.729684941040588"><ele>992.1666666666667</ele><time>2026-04-26T12:21:04.54Z</time></trkpt><trkpt lat="42.46506992432112" lon="12.729739959003172"><ele>992.0</ele><time>2026-04-26T12:21:09.54Z</time></trkpt><trkpt lat="42.46500015024586" lon="12.729777708750696"><ele>992.0000000000001</ele><time>2026-04-26T12:21:14.539Z</time></trkpt><trkpt lat="42.46507904008797" lon="12.729750463151928"><ele>992.0</ele><time>2026-04-26T12:24:09.52Z</time></trkpt><trkpt lat="42.46512804014108" lon="12.729694603076174"><ele>992.0</ele><time>2026-04-26T12:24:13.519Z</time></trkpt><trkpt lat="42.46520713025005" lon="12.729649571623298"><ele>992.0</ele><time>2026-04-26T12:24:16.519Z</time></trkpt><trkpt lat="42.46529518285649" lon="12.729636388638495"><ele>992.0000000000001</ele><time>2026-04-26T12:24:18.518Z</time></trkpt><trkpt lat="42.46535732729364" lon="12.729661720246733"><ele>992.0</ele><time>2026-04-26T12:24:20.518Z</time></trkpt><trkpt lat="42.46541324023655" lon="12.729742196971907"><ele>992.0000000000001</ele><time>2026-04-26T12:24:22.518Z</time></trkpt><trkpt lat="42.46539706685662" lon="12.729839338745515"><ele>992.0</ele><time>2026-04-26T12:24:24.519Z</time></trkpt><trkpt lat="42.46533769371264" lon="12.729939778549003"><ele>992.0</ele><time>2026-04-26T12:24:26.519Z</time></trkpt><trkpt lat="42.46534429093528" lon="12.730059339006855"><ele>992.0</ele><time>2026-04-26T12:24:28.519Z</time></trkpt><trkpt lat="42.46531831716659" lon="12.73016727490724"><ele>992.0000000000001</ele><time>2026-04-26T12:24:30.519Z</time></trkpt><trkpt lat="42.4652927275611" lon="12.730266932136614"><ele>992.0</ele><time>2026-04-26T12:24:32.519Z</time></trkpt><trkpt lat="42.4652671687645" lon="12.730376712659234"><ele>990.8333333333334</ele><time>2026-04-26T12:24:34.518Z</time></trkpt><trkpt lat="42.46519187343449" lon="12.73045091557729"><ele>989.6666666666667</ele><time>2026-04-26T12:24:36.518Z</time></trkpt><trkpt lat="42.46512423976909" lon="12.730535968363437"><ele>988.5</ele><time>2026-04-26T12:24:38.518Z</time></trkpt><trkpt lat="42.465101353345936" lon="12.730654842779881"><ele>987.3333333333333</ele><time>2026-04-26T12:24:40.518Z</time></trkpt><trkpt lat="42.46506349748904" lon="12.730746109210575"><ele>986.1666666666666</ele><time>2026-04-26T12:24:42.518Z</time></trkpt><trkpt lat="42.46502800530994" lon="12.730850713114254"><ele>985.0</ele><time>2026-04-26T12:24:45.517Z</time></trkpt><trkpt lat="42.46497004380955" lon="12.730943857613362"><ele>984.9999999999999</ele><time>2026-04-26T12:24:48.517Z</time></trkpt><trkpt lat="42.46492564954998" lon="12.731013964375695"><ele>985.0</ele><time>2026-04-26T12:24:50.517Z</time></trkpt><trkpt lat="42.46487699800519" lon="12.73110847841968"><ele>985.0</ele><time>2026-04-26T12:24:53.517Z</time></trkpt><trkpt lat="42.46484691769185" lon="12.731204709143398"><ele>985.0</ele><time>2026-04-26T12:24:57.517Z</time></trkpt><trkpt lat="42.464797889282465" lon="12.731286262454528"><ele>984.9999999999999</ele><time>2026-04-26T12:25:00.517Z</time></trkpt><trkpt lat="42.464778175162216" lon="12.731389006745978"><ele>985.0</ele><time>2026-04-26T12:25:03.516Z</time></trkpt><trkpt lat="42.4647719149297" lon="12.731487075287605"><ele>984.8</ele><time>2026-04-26T12:25:06.516Z</time></trkpt><trkpt lat="42.46474880909539" lon="12.731601634697347"><ele>984.6</ele><time>2026-04-26T12:25:09.516Z</time></trkpt><trkpt lat="42.464703661194434" lon="12.7316934253756"><ele>984.4000000000001</ele><time>2026-04-26T12:25:12.516Z</time></trkpt><trkpt lat="42.46466656559031" lon="12.731769535713118"><ele>984.2</ele><time>2026-04-26T12:25:15.516Z</time></trkpt><trkpt lat="42.46462803079146" lon="12.731897902389035"><ele>984.0</ele><time>2026-04-26T12:25:24.515Z</time></trkpt><trkpt lat="42.46459294839244" lon="12.732052691184501"><ele>984.0000000000001</ele><time>2026-04-26T12:25:42.514Z</time></trkpt><trkpt lat="42.46461197739035" lon="12.732139352608918"><ele>984.0</ele><time>2026-04-26T12:25:46.514Z</time></trkpt><trkpt lat="42.46460516722232" lon="12.732233890795294"><ele>984.0000000000001</ele><time>2026-04-26T12:25:54.514Z</time></trkpt><trkpt lat="42.46460959971859" lon="12.732326330904298"><ele>984.0000000000001</ele><time>2026-04-26T12:26:00.513Z</time></trkpt><trkpt lat="42.46458662601953" lon="12.732420784544045"><ele>984.0</ele><time>2026-04-26T12:26:05.513Z</time></trkpt><trkpt lat="42.46459440459188" lon="12.73250688967336"><ele>984.0000000000001</ele><time>2026-04-26T12:26:09.513Z</time></trkpt><trkpt lat="42.46461280795978" lon="12.732596506680656"><ele>984.0000000000001</ele><time>2026-04-26T12:26:18.513Z</time></trkpt><trkpt lat="42.46470461577723" lon="12.732646239185975"><ele>983.857142857143</ele><time>2026-04-26T12:27:05.511Z</time></trkpt><trkpt lat="42.46465174084391" lon="12.73270587063173"><ele>983.7142857142858</ele><time>2026-04-26T12:27:59.508Z</time></trkpt><trkpt lat="42.46463866553914" lon="12.732802466126154"><ele>983.5714285714286</ele><time>2026-04-26T12:28:02.508Z</time></trkpt><trkpt lat="42.46464346464822" lon="12.732895628614054"><ele>983.4285714285714</ele><time>2026-04-26T12:28:05.508Z</time></trkpt><trkpt lat="42.46467270365757" lon="12.732992269707335"><ele>983.2857142857142</ele><time>2026-04-26T12:28:08.507Z</time></trkpt><trkpt lat="42.46468238990968" lon="12.733082141413266"><ele>983.142857142857</ele><time>2026-04-26T12:28:11.507Z</time></trkpt><trkpt lat="42.464681289850375" lon="12.73317228008631"><ele>982.9999999999999</ele><time>2026-04-26T12:28:14.507Z</time></trkpt><trkpt lat="42.464695458999145" lon="12.733265904151704"><ele>981.5000000000001</ele><time>2026-04-26T12:28:17.507Z</time></trkpt><trkpt lat="42.46471097348793" lon="12.733357229037363"><ele>980.0</ele><time>2026-04-26T12:28:20.507Z</time></trkpt><trkpt lat="42.4647370183598" lon="12.73344269020117"><ele>978.5</ele><time>2026-04-26T12:28:29.506Z</time></trkpt><trkpt lat="42.46473394959021" lon="12.733539556544917"><ele>977.0</ele><time>2026-04-26T12:28:33.506Z</time></trkpt><trkpt lat="42.464777264113955" lon="12.733609019565053"><ele>975.5000000000001</ele><time>2026-04-26T12:28:36.507Z</time></trkpt><trkpt lat="42.46482299311155" lon="12.733684194769268"><ele>974.0</ele><time>2026-04-26T12:28:40.507Z</time></trkpt><trkpt lat="42.464911883088135" lon="12.733782787655128"><ele>969.3333333333334</ele><time>2026-04-26T12:30:46.501Z</time></trkpt><trkpt lat="42.46484828258536" lon="12.733802496110853"><ele>964.6666666666667</ele><time>2026-04-26T12:31:03.5Z</time></trkpt><trkpt lat="42.46472905705482" lon="12.733711408143693"><ele>960.0</ele><time>2026-04-26T12:37:13.484Z</time></trkpt><trkpt lat="42.46900388951051" lon="12.721217354917814"><ele>965.5</ele><time>2026-04-26T12:10:27.569Z</time></trkpt><trkpt lat="42.46894578074009" lon="12.721175222163337"><ele>971.0</ele><time>2026-04-26T12:10:29.569Z</time></trkpt><trkpt lat="42.46887528669725" lon="12.721179177960325"><ele>976.5</ele><time>2026-04-26T12:13:10.561Z</time></trkpt><trkpt lat="42.46879213354048" lon="12.721133285503704"><ele>982.0</ele><time>2026-04-26T12:13:12.561Z</time></trkpt><trkpt lat="42.46869707938485" lon="12.721072918270233"><ele>987.5</ele><time>2026-04-26T12:13:14.561Z</time></trkpt><trkpt lat="42.46863461026885" lon="12.721030844644215"><ele>993.0</ele><time>2026-04-26T12:13:16.561Z</time></trkpt><trkpt lat="42.46856667216771" lon="12.720986924584652"><ele>993.6666666666666</ele><time>2026-04-26T12:13:18.561Z</time></trkpt><trkpt lat="42.46849671287651" lon="12.720926251200677"><ele>994.3333333333333</ele><time>2026-04-26T12:13:20.561Z</time></trkpt><trkpt lat="42.46841846417061" lon="12.720877533067238"><ele>995.0</ele><time>2026-04-26T12:13:22.561Z</time></trkpt><trkpt lat="42.468346207269526" lon="12.720823758916241"><ele>995.6666666666666</ele><time>2026-04-26T12:13:24.561Z</time></trkpt><trkpt lat="42.46827743721038" lon="12.72076486637495"><ele>996.3333333333333</ele><time>2026-04-26T12:13:26.561Z</time></trkpt><trkpt lat="42.468179331287615" lon="12.72074695585127"><ele>997.0</ele><time>2026-04-26T12:13:28.56Z</time></trkpt><trkpt lat="42.46811176736785" lon="12.720743939649822"><ele>996.9999999999999</ele><time>2026-04-26T12:13:29.56Z</time></trkpt><trkpt lat="42.46804792704169" lon="12.720737401195976"><ele>997.0</ele><time>2026-04-26T12:13:30.56Z</time></trkpt><trkpt lat="42.46798179919213" lon="12.720732024387738"><ele>997.0</ele><time>2026-04-26T12:13:31.56Z</time></trkpt><trkpt lat="42.46785465707497" lon="12.720751757625715"><ele>997.0</ele><time>2026-04-26T12:13:33.56Z</time></trkpt><trkpt lat="42.46778707977615" lon="12.720745623888543"><ele>996.9999999999999</ele><time>2026-04-26T12:13:34.56Z</time></trkpt><trkpt lat="42.467674820550855" lon="12.720730066393179"><ele>997.0</ele><time>2026-04-26T12:13:36.56Z</time></trkpt><trkpt lat="42.46754644493681" lon="12.720714943219471"><ele>997.6666666666666</ele><time>2026-04-26T12:13:38.56Z</time></trkpt><trkpt lat="42.46747857241276" lon="12.720692343491129"><ele>998.3333333333333</ele><time>2026-04-26T12:13:39.56Z</time></trkpt><trkpt lat="42.467411661096" lon="12.7206676545242"><ele>999.0</ele><time>2026-04-26T12:13:40.56Z</time></trkpt><trkpt lat="42.46734122536731" lon="12.720640337676235"><ele>999.6666666666667</ele><time>2026-04-26T12:13:41.56Z</time></trkpt><trkpt lat="42.4672726609751" lon="12.720616075068035"><ele>1000.3333333333334</ele><time>2026-04-26T12:13:42.56Z</time></trkpt><trkpt lat="42.46718594050823" lon="12.720572850446253"><ele>1001.0</ele><time>2026-04-26T12:13:44.56Z</time></trkpt><trkpt lat="42.46713763554354" lon="12.720471378232439"><ele>1001.8</ele><time>2026-04-26T12:13:46.56Z</time></trkpt><trkpt lat="42.46710858357395" lon="12.720379287018725"><ele>1002.5999999999999</ele><time>2026-04-26T12:13:48.559Z</time></trkpt><trkpt lat="42.46706723159457" lon="12.720290452422066"><ele>1003.4</ele><time>2026-04-26T12:13:50.559Z</time></trkpt><trkpt lat="42.46696369496079" lon="12.720200044685855"><ele>1004.2</ele><time>2026-04-26T12:13:52.559Z</time></trkpt><trkpt lat="42.46690770047727" lon="12.720160143518145"><ele>1005.0</ele><time>2026-04-26T12:13:53.56Z</time></trkpt><trkpt lat="42.46681945127597" lon="12.720054774813075"><ele>1005.8</ele><time>2026-04-26T12:13:55.56Z</time></trkpt><trkpt lat="42.46672392670478" lon="12.719969737517552"><ele>1006.6</ele><time>2026-04-26T12:13:57.56Z</time></trkpt><trkpt lat="42.46660867166837" lon="12.719892338625218"><ele>1007.4000000000001</ele><time>2026-04-26T12:13:59.56Z</time></trkpt><trkpt lat="42.46654633491371" lon="12.71983853611269"><ele>1008.2</ele><time>2026-04-26T12:14:00.56Z</time></trkpt><trkpt lat="42.46648571473459" lon="12.719772992957472"><ele>1009.0</ele><time>2026-04-26T12:14:01.56Z</time></trkpt><trkpt lat="42.466430769191035" lon="12.71970522236528"><ele>1008.9999999999999</ele><time>2026-04-26T12:14:02.56Z</time></trkpt><trkpt lat="42.466377339584284" lon="12.719631216135003"><ele>1009.0</ele><time>2026-04-26T12:14:03.56Z</time></trkpt><trkpt lat="42.466325255170425" lon="12.719561490806283"><ele>1009.0</ele><time>2026-04-26T12:14:04.56Z</time></trkpt><trkpt lat="42.466243555792836" lon="12.71946057657607"><ele>1009.0</ele><time>2026-04-26T12:14:05.56Z</time></trkpt><trkpt lat="42.466183715750184" lon="12.71938435838073"><ele>1008.9999999999999</ele><time>2026-04-26T12:14:06.56Z</time></trkpt><trkpt lat="42.46612958080706" lon="12.719316358781631"><ele>1009.0</ele><time>2026-04-26T12:14:07.56Z</time></trkpt><trkpt lat="42.46606703681083" lon="12.71922608445053"><ele>1008.8000000000001</ele><time>2026-04-26T12:14:08.56Z</time></trkpt><trkpt lat="42.46600217761088" lon="12.719132137971489"><ele>1008.6000000000001</ele><time>2026-04-26T12:14:09.56Z</time></trkpt><trkpt lat="42.46593433843935" lon="12.719046005821987"><ele>1008.4</ele><time>2026-04-26T12:14:10.56Z</time></trkpt><trkpt lat="42.46587456437459" lon="12.718963400341698"><ele>1008.2</ele><time>2026-04-26T12:14:11.56Z</time></trkpt><trkpt lat="42.465816130169124" lon="12.718871407851468"><ele>1008.0</ele><time>2026-04-26T12:14:12.56Z</time></trkpt><trkpt lat="42.46574901516006" lon="12.718792364805005"><ele>1008.0</ele><time>2026-04-26T12:14:13.56Z</time></trkpt><trkpt lat="42.46569017216056" lon="12.718720548415062"><ele>1008.0</ele><time>2026-04-26T12:14:14.56Z</time></trkpt><trkpt lat="42.46562979031416" lon="12.718658296427185"><ele>1008.0</ele><time>2026-04-26T12:14:15.56Z</time></trkpt><trkpt lat="42.46557382555358" lon="12.71860418655733"><ele>1008.0</ele><time>2026-04-26T12:14:16.56Z</time></trkpt><trkpt lat="42.46552256250105" lon="12.718542472807426"><ele>1008.0</ele><time>2026-04-26T12:14:17.56Z</time></trkpt><trkpt lat="42.46547217340157" lon="12.718461711349894"><ele>1008.0</ele><time>2026-04-26T12:14:18.559Z</time></trkpt><trkpt lat="42.46538015642425" lon="12.718375584081187"><ele>1007.5999999999999</ele><time>2026-04-26T12:14:20.559Z</time></trkpt><trkpt lat="42.46528735859936" lon="12.718319270778743"><ele>1007.1999999999999</ele><time>2026-04-26T12:14:22.559Z</time></trkpt><trkpt lat="42.465183295644955" lon="12.718286264088619"><ele>1006.8</ele><time>2026-04-26T12:14:24.559Z</time></trkpt><trkpt lat="42.46508948028623" lon="12.718245147167966"><ele>1006.4</ele><time>2026-04-26T12:14:26.559Z</time></trkpt><trkpt lat="42.46499609696276" lon="12.718210504624485"><ele>1006.0</ele><time>2026-04-26T12:14:28.559Z</time></trkpt><trkpt lat="42.46487708484766" lon="12.718187697832509"><ele>1006.0</ele><time>2026-04-26T12:14:30.559Z</time></trkpt><trkpt lat="42.46476243620814" lon="12.718197760533206"><ele>1005.9999999999999</ele><time>2026-04-26T12:14:32.559Z</time></trkpt><trkpt lat="42.46464548017044" lon="12.718220500642996"><ele>1005.9999999999999</ele><time>2026-04-26T12:14:34.559Z</time></trkpt><trkpt lat="42.464573727330716" lon="12.718216966339853"><ele>1006.0</ele><time>2026-04-26T12:14:35.559Z</time></trkpt><trkpt lat="42.46446445553137" lon="12.718217224477632"><ele>1006.0</ele><time>2026-04-26T12:14:37.559Z</time></trkpt><trkpt lat="42.464347690121954" lon="12.718246882256938"><ele>1005.5999999999999</ele><time>2026-04-26T12:14:39.558Z</time></trkpt><trkpt lat="42.46422491369361" lon="12.718320934702177"><ele>1005.1999999999999</ele><time>2026-04-26T12:14:41.558Z</time></trkpt><trkpt lat="42.46416648045313" lon="12.718390930996954"><ele>1004.8000000000001</ele><time>2026-04-26T12:14:42.558Z</time></trkpt><trkpt lat="42.46409258119195" lon="12.718489652168552"><ele>1004.4000000000001</ele><time>2026-04-26T12:14:44.558Z</time></trkpt><trkpt lat="42.46403480841645" lon="12.718577653553414"><ele>1004.0</ele><time>2026-04-26T12:14:46.558Z</time></trkpt><trkpt lat="42.46397402047733" lon="12.71863122716799"><ele>1004.8333333333334</ele><time>2026-04-26T12:14:49.558Z</time></trkpt><trkpt lat="42.463895420959304" lon="12.718601643520765"><ele>1005.6666666666667</ele><time>2026-04-26T12:14:52.558Z</time></trkpt><trkpt lat="42.4638270681583" lon="12.718583162449056"><ele>1006.5</ele><time>2026-04-26T12:14:59.557Z</time></trkpt><trkpt lat="42.463755701840256" lon="12.71858483928743"><ele>1007.3333333333333</ele><time>2026-04-26T12:15:13.557Z</time></trkpt><trkpt lat="42.46367717568211" lon="12.718555394630174"><ele>1008.1666666666666</ele><time>2026-04-26T12:15:15.557Z</time></trkpt><trkpt lat="42.46361627982331" lon="12.718446470513769"><ele>1009.0</ele><time>2026-04-26T12:15:18.556Z</time></trkpt><trkpt lat="42.46354975397651" lon="12.718384767368821"><ele>1010.1666666666666</ele><time>2026-04-26T12:15:19.556Z</time></trkpt><trkpt lat="42.463497634483666" lon="12.718286535488357"><ele>1011.3333333333333</ele><time>2026-04-26T12:15:20.556Z</time></trkpt><trkpt lat="42.46345967171614" lon="12.718206329552412"><ele>1012.5</ele><time>2026-04-26T12:15:21.556Z</time></trkpt><trkpt lat="42.46339848107952" lon="12.718064950720045"><ele>1013.6666666666667</ele><time>2026-04-26T12:15:23.556Z</time></trkpt><trkpt lat="42.463364030686265" lon="12.71798371161327"><ele>1014.8333333333334</ele><time>2026-04-26T12:15:24.556Z</time></trkpt><trkpt lat="42.46331687791928" lon="12.717864562556732"><ele>1016.0</ele><time>2026-04-26T12:15:26.556Z</time></trkpt><trkpt lat="42.46324004118427" lon="12.71773880300364"><ele>1015.8</ele><time>2026-04-26T12:15:28.556Z</time></trkpt><trkpt lat="42.46320266225378" lon="12.717668485473501"><ele>1015.5999999999999</ele><time>2026-04-26T12:15:29.556Z</time></trkpt><trkpt lat="42.46313845153947" lon="12.717537042586004"><ele>1015.4</ele><time>2026-04-26T12:15:31.556Z</time></trkpt><trkpt lat="42.46310044370835" lon="12.71741850857521"><ele>1015.2</ele><time>2026-04-26T12:15:33.556Z</time></trkpt><trkpt lat="42.46304875358192" lon="12.717305917415464"><ele>1015.0</ele><time>2026-04-26T12:15:35.556Z</time></trkpt><trkpt lat="42.46297242415011" lon="12.71714019657742"><ele>1018.8</ele><time>2026-04-26T12:15:37.556Z</time></trkpt><trkpt lat="42.46292011968837" lon="12.71703897882133"><ele>1022.6</ele><time>2026-04-26T12:15:39.555Z</time></trkpt><trkpt lat="42.46282177750475" lon="12.716943540530737"><ele>1026.4</ele><time>2026-04-26T12:15:41.555Z</time></trkpt><trkpt lat="42.46273816411535" lon="12.716896228884648"><ele>1030.2</ele><time>2026-04-26T12:15:42.555Z</time></trkpt><trkpt lat="42.46266025875465" lon="12.716851038682796"><ele>1034.0</ele><time>2026-04-26T12:15:44.555Z</time></trkpt><trkpt lat="42.4625951590884" lon="12.716840339755885"><ele>1034.0</ele><time>2026-04-26T12:15:45.555Z</time></trkpt><trkpt lat="42.46251311661159" lon="12.71678684222552"><ele>1034.0</ele><time>2026-04-26T12:15:47.555Z</time></trkpt><trkpt lat="42.462423310675966" lon="12.716733089167246"><ele>1034.0</ele><time>2026-04-26T12:15:49.555Z</time></trkpt><trkpt lat="42.462344588926314" lon="12.716702079867826"><ele>1034.0</ele><time>2026-04-26T12:15:51.555Z</time></trkpt><trkpt lat="42.462297989845865" lon="12.716637206089956"><ele>1034.0</ele><time>2026-04-26T12:15:56.555Z</time></trkpt><trkpt lat="42.46225506037084" lon="12.716566759789485"><ele>1034.0</ele><time>2026-04-26T12:16:08.554Z</time></trkpt><trkpt lat="42.46220539466433" lon="12.716511631127425"><ele>1034.0</ele><time>2026-04-26T12:16:24.553Z</time></trkpt><trkpt lat="42.46228126598013" lon="12.716521699383051"><ele>1034.0</ele><time>2026-04-26T12:16:32.553Z</time></trkpt><trkpt lat="42.462351371318256" lon="12.716544031665387"><ele>1034.0</ele><time>2026-04-26T12:16:34.553Z</time></trkpt><trkpt lat="42.462429665020316" lon="12.716585349347476"><ele>1034.0</ele><time>2026-04-26T12:16:37.553Z</time></trkpt><trkpt lat="42.46250603326991" lon="12.716579384616633"><ele>1034.0</ele><time>2026-04-26T12:16:39.553Z</time></trkpt><trkpt lat="42.46261243120038" lon="12.71661715358856"><ele>1034.0</ele><time>2026-04-26T12:16:41.552Z</time></trkpt><trkpt lat="42.462680740613884" lon="12.716668833176728"><ele>1034.0</ele><time>2026-04-26T12:16:43.552Z</time></trkpt><trkpt lat="42.462760066858905" lon="12.716761541172014"><ele>1034.0</ele><time>2026-04-26T12:16:45.552Z</time></trkpt><trkpt lat="42.462819065058916" lon="12.716871934939295"><ele>1034.0</ele><time>2026-04-26T12:16:47.552Z</time></trkpt><trkpt lat="42.46286597602357" lon="12.716973120944532"><ele>1034.0</ele><time>2026-04-26T12:16:49.552Z</time></trkpt><trkpt lat="42.46292098817797" lon="12.717114826503554"><ele>1034.0</ele><time>2026-04-26T12:16:51.552Z</time></trkpt><trkpt lat="42.46295226514428" lon="12.717201961482106"><ele>1030.4</ele><time>2026-04-26T12:16:52.552Z</time></trkpt><trkpt lat="42.46300732020436" lon="12.71732255315572"><ele>1026.8000000000002</ele><time>2026-04-26T12:16:54.552Z</time></trkpt><trkpt lat="42.46308683096765" lon="12.71747338092411"><ele>1023.1999999999999</ele><time>2026-04-26T12:16:56.552Z</time></trkpt><trkpt lat="42.4631323329776" lon="12.717544085752913"><ele>1019.5999999999999</ele><time>2026-04-26T12:16:57.552Z</time></trkpt><trkpt lat="42.46318896493475" lon="12.717671586002513"><ele>1016.0</ele><time>2026-04-26T12:16:59.552Z</time></trkpt><trkpt lat="42.46324350409128" lon="12.717750006682063"><ele>1016.0000000000001</ele><time>2026-04-26T12:17:00.552Z</time></trkpt><trkpt lat="42.46328118389965" lon="12.717832376233414"><ele>1016.0</ele><time>2026-04-26T12:17:01.551Z</time></trkpt><trkpt lat="42.46333661129715" lon="12.717972495751857"><ele>1016.0</ele><time>2026-04-26T12:17:03.551Z</time></trkpt><trkpt lat="42.46338707225048" lon="12.718027101048316"><ele>1016.0</ele><time>2026-04-26T12:17:04.551Z</time></trkpt><trkpt lat="42.463432700732966" lon="12.718158036919252"><ele>1016.0000000000001</ele><time>2026-04-26T12:17:06.551Z</time></trkpt><trkpt lat="42.463481683247785" lon="12.718237359961448"><ele>1016.0</ele><time>2026-04-26T12:17:08.551Z</time></trkpt><trkpt lat="42.46356513737856" lon="12.718288081973549"><ele>1016.0000000000001</ele><time>2026-04-26T12:17:10.551Z</time></trkpt><trkpt lat="42.46365155039164" lon="12.71833444518824"><ele>1016.0</ele><time>2026-04-26T12:17:12.551Z</time></trkpt><trkpt lat="42.46371323728401" lon="12.718375791941964"><ele>1016.0</ele><time>2026-04-26T12:17:13.551Z</time></trkpt><trkpt lat="42.46375633711105" lon="12.718438943010714"><ele>1016.0</ele><time>2026-04-26T12:17:14.551Z</time></trkpt><trkpt lat="42.463803149156874" lon="12.718559499433239"><ele>1016.0000000000001</ele><time>2026-04-26T12:17:16.551Z</time></trkpt><trkpt lat="42.46381262014612" lon="12.718664936400208"><ele>1016.0</ele><time>2026-04-26T12:17:19.551Z</time></trkpt><trkpt lat="42.46382760349031" lon="12.718770889898297"><ele>1014.8</ele><time>2026-04-26T12:17:21.55Z</time></trkpt><trkpt lat="42.4638558959193" lon="12.718879758334834"><ele>1013.5999999999999</ele><time>2026-04-26T12:17:23.55Z</time></trkpt><trkpt lat="42.463888543934814" lon="12.719002427494592"><ele>1012.4</ele><time>2026-04-26T12:17:25.55Z</time></trkpt><trkpt lat="42.46390659332507" lon="12.719112076350454"><ele>1011.2</ele><time>2026-04-26T12:17:27.55Z</time></trkpt><trkpt lat="42.463964201461074" lon="12.719279036685432"><ele>1010.0</ele><time>2026-04-26T12:17:29.55Z</time></trkpt><trkpt lat="42.46403102233391" lon="12.719429903340174"><ele>1010.0</ele><time>2026-04-26T12:17:31.55Z</time></trkpt><trkpt lat="42.46407270584343" lon="12.719537721243837"><ele>1010.0</ele><time>2026-04-26T12:17:33.55Z</time></trkpt><trkpt lat="42.46410177210823" lon="12.71970331842765"><ele>1010.0</ele><time>2026-04-26T12:17:35.55Z</time></trkpt><trkpt lat="42.46413292382772" lon="12.71987431910527"><ele>1010.0</ele><time>2026-04-26T12:17:37.55Z</time></trkpt><trkpt lat="42.46414518142481" lon="12.719964511476347"><ele>1010.0</ele><time>2026-04-26T12:17:38.55Z</time></trkpt><trkpt lat="42.464180820974406" lon="12.720107295028756"><ele>1010.0</ele><time>2026-04-26T12:17:40.55Z</time></trkpt><trkpt lat="42.46421567085153" lon="12.720180005580229"><ele>1010.0</ele><time>2026-04-26T12:17:41.549Z</time></trkpt><trkpt lat="42.46426363626142" lon="12.720249792731822"><ele>1010.0</ele><time>2026-04-26T12:17:42.549Z</time></trkpt><trkpt lat="42.4643106339667" lon="12.720409848315395"><ele>1010.0</ele><time>2026-04-26T12:17:44.549Z</time></trkpt><trkpt lat="42.464366938993386" lon="12.720503789950953"><ele>1010.0</ele><time>2026-04-26T12:17:46.549Z</time></trkpt><trkpt lat="42.46441796037322" lon="12.720656089258233"><ele>1010.0000000000001</ele><time>2026-04-26T12:17:48.549Z</time></trkpt><trkpt lat="42.46444946357509" lon="12.720739236667146"><ele>1010.0</ele><time>2026-04-26T12:17:49.549Z</time></trkpt><trkpt lat="42.464497671966164" lon="12.720838389897011"><ele>1010.0</ele><time>2026-04-26T12:17:51.549Z</time></trkpt><trkpt lat="42.464497815700454" lon="12.720983670063404"><ele>1010.0</ele><time>2026-04-26T12:17:53.549Z</time></trkpt><trkpt lat="42.46450622671581" lon="12.721091784617446"><ele>1010.0000000000001</ele><time>2026-04-26T12:17:55.549Z</time></trkpt><trkpt lat="42.46452824973341" lon="12.721227754790478"><ele>1010.0</ele><time>2026-04-26T12:17:57.549Z</time></trkpt><trkpt lat="42.46457571646328" lon="12.721391400817826"><ele>1009.6666666666667</ele><time>2026-04-26T12:17:59.549Z</time></trkpt><trkpt lat="42.46461080927933" lon="12.721474892508247"><ele>1009.3333333333334</ele><time>2026-04-26T12:18:00.549Z</time></trkpt><trkpt lat="42.46466129299819" lon="12.721536744457586"><ele>1009.0</ele><time>2026-04-26T12:18:01.548Z</time></trkpt><trkpt lat="42.464721746573424" lon="12.721683195195572"><ele>1008.6666666666667</ele><time>2026-04-26T12:18:03.548Z</time></trkpt><trkpt lat="42.46474571657381" lon="12.721769271063948"><ele>1008.3333333333334</ele><time>2026-04-26T12:18:04.548Z</time></trkpt><trkpt lat="42.46479548204602" lon="12.72188237844226"><ele>1008.0</ele><time>2026-04-26T12:18:05.549Z</time></trkpt><trkpt lat="42.464836842961255" lon="12.72201533513976"><ele>1005.3333333333334</ele><time>2026-04-26T12:18:06.548Z</time></trkpt><trkpt lat="42.46486094088614" lon="12.722103390946794"><ele>1002.6666666666667</ele><time>2026-04-26T12:18:07.548Z</time></trkpt><trkpt lat="42.464902005229725" lon="12.722213722439534"><ele>1000.0</ele><time>2026-04-26T12:18:09.548Z</time></trkpt><trkpt lat="42.46494642779217" lon="12.722322229934061"><ele>997.3333333333334</ele><time>2026-04-26T12:18:11.548Z</time></trkpt><trkpt lat="42.464981006756844" lon="12.722429702058589"><ele>994.6666666666667</ele><time>2026-04-26T12:18:13.548Z</time></trkpt><trkpt lat="42.464993880853406" lon="12.722522024894003"><ele>992.0</ele><time>2026-04-26T12:18:15.548Z</time></trkpt><trkpt lat="42.46503077698762" lon="12.722636788990629"><ele>992.8</ele><time>2026-04-26T12:18:17.548Z</time></trkpt><trkpt lat="42.46507720883731" lon="12.722770973256521"><ele>993.6</ele><time>2026-04-26T12:18:19.548Z</time></trkpt><trkpt lat="42.46515623550841" lon="12.722869158904501"><ele>994.3999999999999</ele><time>2026-04-26T12:18:21.548Z</time></trkpt><trkpt lat="42.46524174842239" lon="12.722991539114224"><ele>995.1999999999999</ele><time>2026-04-26T12:18:23.548Z</time></trkpt><trkpt lat="42.46528950107582" lon="12.723050970331732"><ele>996.0</ele><time>2026-04-26T12:18:24.548Z</time></trkpt><trkpt lat="42.46533405195431" lon="12.723229991862299"><ele>996.0</ele><time>2026-04-26T12:18:26.548Z</time></trkpt><trkpt lat="42.4654053993475" lon="12.723404419338587"><ele>995.9999999999999</ele><time>2026-04-26T12:18:28.547Z</time></trkpt><trkpt lat="42.46543971484702" lon="12.723500123924193"><ele>995.9999999999999</ele><time>2026-04-26T12:18:29.547Z</time></trkpt><trkpt lat="42.465481950752036" lon="12.72362793360795"><ele>996.0</ele><time>2026-04-26T12:18:30.547Z</time></trkpt><trkpt lat="42.46551476953984" lon="12.723723857527967"><ele>996.0</ele><time>2026-04-26T12:18:31.547Z</time></trkpt><trkpt lat="42.46556635163367" lon="12.723829026330394"><ele>992.5999999999999</ele><time>2026-04-26T12:18:32.547Z</time></trkpt><trkpt lat="42.465593845441006" lon="12.723916947685384"><ele>989.1999999999999</ele><time>2026-04-26T12:18:33.547Z</time></trkpt><trkpt lat="42.46561998766007" lon="12.724004360706965"><ele>985.8000000000001</ele><time>2026-04-26T12:18:36.547Z</time></trkpt><trkpt lat="42.465608973702196" lon="12.724092345264893"><ele>982.4000000000001</ele><time>2026-04-26T12:18:40.547Z</time></trkpt><trkpt lat="42.4655735579881" lon="12.72428397921095"><ele>979.0</ele><time>2026-04-26T12:19:13.545Z</time></trkpt><trkpt lat="42.46545789591017" lon="12.724305665252803"><ele>981.3333333333333</ele><time>2026-04-26T12:19:42.544Z</time></trkpt><trkpt lat="42.465367134659566" lon="12.724306437636022"><ele>983.6666666666666</ele><time>2026-04-26T12:19:43.544Z</time></trkpt><trkpt lat="42.46529659079125" lon="12.724291982262029"><ele>986.0</ele><time>2026-04-26T12:19:44.544Z</time></trkpt><trkpt lat="42.46523433002522" lon="12.72433162026825"><ele>988.3333333333333</ele><time>2026-04-26T12:19:45.544Z</time></trkpt><trkpt lat="42.46516131306344" lon="12.72440694162379"><ele>990.6666666666666</ele><time>2026-04-26T12:19:47.543Z</time></trkpt><trkpt lat="42.46512658290332" lon="12.72448474254337"><ele>993.0</ele><time>2026-04-26T12:19:48.543Z</time></trkpt><trkpt lat="42.46516811713109" lon="12.724621014859787"><ele>993.0</ele><time>2026-04-26T12:19:50.543Z</time></trkpt><trkpt lat="42.46518107917837" lon="12.72478670342371"><ele>993.0</ele><time>2026-04-26T12:19:52.543Z</time></trkpt><trkpt lat="42.46518391478866" lon="12.724904433664998"><ele>993.0</ele><time>2026-04-26T12:19:54.543Z</time></trkpt><trkpt lat="42.46516594025663" lon="12.725050298312423"><ele>993.0</ele><time>2026-04-26T12:19:56.543Z</time></trkpt><trkpt lat="42.46515637812818" lon="12.725135180383544"><ele>993.0</ele><time>2026-04-26T12:19:58.543Z</time></trkpt><trkpt lat="42.465156188632555" lon="12.725226338338759"><ele>993.0</ele><time>2026-04-26T12:20:00.543Z</time></trkpt><trkpt lat="42.46515350807042" lon="12.725358945132148"><ele>993.8333333333334</ele><time>2026-04-26T12:20:02.543Z</time></trkpt><trkpt lat="42.46518197879396" lon="12.725442988401504"><ele>994.6666666666667</ele><time>2026-04-26T12:20:03.543Z</time></trkpt><trkpt lat="42.46520576998114" lon="12.725523241815612"><ele>995.5</ele><time>2026-04-26T12:20:04.543Z</time></trkpt><trkpt lat="42.46523634166896" lon="12.725613990313914"><ele>996.3333333333334</ele><time>2026-04-26T12:20:05.543Z</time></trkpt><trkpt lat="42.4652533556007" lon="12.725709993508442"><ele>997.1666666666667</ele><time>2026-04-26T12:20:06.543Z</time></trkpt><trkpt lat="42.465258439728686" lon="12.72579519553034"><ele>998.0</ele><time>2026-04-26T12:20:07.542Z</time></trkpt><trkpt lat="42.46526146480108" lon="12.725959581978094"><ele>998.0000000000001</ele><time>2026-04-26T12:20:09.542Z</time></trkpt><trkpt lat="42.465267423388134" lon="12.72606493743333"><ele>998.0</ele><time>2026-04-26T12:20:10.542Z</time></trkpt><trkpt lat="42.46527892911796" lon="12.726161963065596"><ele>998.0</ele><time>2026-04-26T12:20:11.543Z</time></trkpt><trkpt lat="42.46527616579731" lon="12.72628671511933"><ele>998.0</ele><time>2026-04-26T12:20:12.543Z</time></trkpt><trkpt lat="42.46529603525295" lon="12.726397024631222"><ele>998.0000000000001</ele><time>2026-04-26T12:20:13.543Z</time></trkpt><trkpt lat="42.46529889725531" lon="12.72650256752191"><ele>998.0</ele><time>2026-04-26T12:20:14.543Z</time></trkpt><trkpt lat="42.465306627835616" lon="12.726610689187366"><ele>998.0000000000001</ele><time>2026-04-26T12:20:15.542Z</time></trkpt><trkpt lat="42.465330070178666" lon="12.726722579128378"><ele>998.0</ele><time>2026-04-26T12:20:16.542Z</time></trkpt><trkpt lat="42.46534849863007" lon="12.72684470414958"><ele>998.0</ele><time>2026-04-26T12:20:17.542Z</time></trkpt><trkpt lat="42.46536742155862" lon="12.726939095406296"><ele>998.0</ele><time>2026-04-26T12:20:18.542Z</time></trkpt><trkpt lat="42.465415460882966" lon="12.727022299193917"><ele>998.0000000000001</ele><time>2026-04-26T12:20:19.542Z</time></trkpt><trkpt lat="42.46545780041748" lon="12.727091038273814"><ele>998.0</ele><time>2026-04-26T12:20:20.542Z</time></trkpt><trkpt lat="42.465526628403204" lon="12.727242727075025"><ele>997.3333333333334</ele><time>2026-04-26T12:20:22.542Z</time></trkpt><trkpt lat="42.4655719848133" lon="12.727345492079007"><ele>996.6666666666667</ele><time>2026-04-26T12:20:24.542Z</time></trkpt><trkpt lat="42.46560546892733" lon="12.727418583894787"><ele>996.0</ele><time>2026-04-26T12:20:25.542Z</time></trkpt><trkpt lat="42.46565332853668" lon="12.727522321194062"><ele>995.3333333333333</ele><time>2026-04-26T12:20:27.542Z</time></trkpt><trkpt lat="42.46568415567949" lon="12.727650934166313"><ele>994.6666666666666</ele><time>2026-04-26T12:20:29.542Z</time></trkpt><trkpt lat="42.46573150328455" lon="12.727780933905862"><ele>994.0</ele><time>2026-04-26T12:20:31.542Z</time></trkpt><trkpt lat="42.46574937273032" lon="12.72793731677164"><ele>993.8000000000001</ele><time>2026-04-26T12:20:33.541Z</time></trkpt><trkpt lat="42.46579358417242" lon="12.728047301923896"><ele>993.6000000000001</ele><time>2026-04-26T12:20:35.541Z</time></trkpt><trkpt lat="42.4658258938493" lon="12.728131572866387"><ele>993.4</ele><time>2026-04-26T12:20:36.541Z</time></trkpt><trkpt lat="42.46583734274026" lon="12.728288651868652"><ele>993.2</ele><time>2026-04-26T12:20:38.541Z</time></trkpt><trkpt lat="42.465858978198895" lon="12.728434126822943"><ele>993.0</ele><time>2026-04-26T12:20:40.541Z</time></trkpt><trkpt lat="42.46589234606027" lon="12.728569514659988"><ele>993.0</ele><time>2026-04-26T12:20:42.541Z</time></trkpt><trkpt lat="42.465882617000624" lon="12.728680722650328"><ele>993.0</ele><time>2026-04-26T12:20:43.541Z</time></trkpt><trkpt lat="42.46585301036311" lon="12.728775147428896"><ele>993.0</ele><time>2026-04-26T12:20:44.541Z</time></trkpt><trkpt lat="42.46581946930129" lon="12.72886084300146"><ele>993.0</ele><time>2026-04-26T12:20:45.541Z</time></trkpt><trkpt lat="42.465803826967104" lon="12.728950698691806"><ele>993.0</ele><time>2026-04-26T12:20:46.541Z</time></trkpt><trkpt lat="42.46580732740632" lon="12.729092818564743"><ele>993.0</ele><time>2026-04-26T12:20:48.541Z</time></trkpt><trkpt lat="42.46578065075009" lon="12.729262051102332"><ele>993.0</ele><time>2026-04-26T12:20:50.541Z</time></trkpt><trkpt lat="42.46573700493187" lon="12.729385625863863"><ele>993.0</ele><time>2026-04-26T12:20:52.541Z</time></trkpt><trkpt lat="42.465668907159554" lon="12.729486504978741"><ele>993.0</ele><time>2026-04-26T12:20:54.54Z</time></trkpt><trkpt lat="42.46560765883268" lon="12.72951507976279"><ele>993.0</ele><time>2026-04-26T12:20:55.54Z</time></trkpt><trkpt lat="42.465538703664365" lon="12.7295552053656"><ele>993.0</ele><time>2026-04-26T12:20:56.54Z</time></trkpt><trkpt lat="42.465421851224846" lon="12.7295472768465"><ele>992.8333333333334</ele><time>2026-04-26T12:20:57.54Z</time></trkpt><trkpt lat="42.465337139409456" lon="12.72955357188017"><ele>992.6666666666667</ele><time>2026-04-26T12:20:58.54Z</time></trkpt><trkpt lat="42.465275680155926" lon="12.729589087183793"><ele>992.5</ele><time>2026-04-26T12:20:59.54Z</time></trkpt><trkpt lat="42.465185347656" lon="12.729640069309246"><ele>992.3333333333334</ele><time>2026-04-26T12:21:01.54Z</time></trkpt><trkpt lat="42.465128575836076" lon="12.729684941040588"><ele>992.1666666666667</ele><time>2026-04-26T12:21:04.54Z</time></trkpt><trkpt lat="42.46506992432112" lon="12.729739959003172"><ele>992.0</ele><time>2026-04-26T12:21:09.54Z</time></trkpt><trkpt lat="42.46500015024586" lon="12.729777708750696"><ele>992.0000000000001</ele><time>2026-04-26T12:21:14.539Z</time></trkpt><trkpt lat="42.46507904008797" lon="12.729750463151928"><ele>992.0</ele><time>2026-04-26T12:24:09.52Z</time></trkpt><trkpt lat="42.46512804014108" lon="12.729694603076174"><ele>992.0</ele><time>2026-04-26T12:24:13.519Z</time></trkpt><trkpt lat="42.46520713025005" lon="12.729649571623298"><ele>992.0</ele><time>2026-04-26T12:24:16.519Z</time></trkpt><trkpt lat="42.46529518285649" lon="12.729636388638495"><ele>992.0000000000001</ele><time>2026-04-26T12:24:18.518Z</time></trkpt><trkpt lat="42.46535732729364" lon="12.729661720246733"><ele>992.0</ele><time>2026-04-26T12:24:20.518Z</time></trkpt><trkpt lat="42.46541324023655" lon="12.729742196971907"><ele>992.0000000000001</ele><time>2026-04-26T12:24:22.518Z</time></trkpt><trkpt lat="42.46539706685662" lon="12.729839338745515"><ele>992.0</ele><time>2026-04-26T12:24:24.519Z</time></trkpt><trkpt lat="42.46533769371264" lon="12.729939778549003"><ele>992.0</ele><time>2026-04-26T12:24:26.519Z</time></trkpt><trkpt lat="42.46534429093528" lon="12.730059339006855"><ele>992.0</ele><time>2026-04-26T12:24:28.519Z</time></trkpt><trkpt lat="42.46531831716659" lon="12.73016727490724"><ele>992.0000000000001</ele><time>2026-04-26T12:24:30.519Z</time></trkpt><trkpt lat="42.4652927275611" lon="12.730266932136614"><ele>992.0</ele><time>2026-04-26T12:24:32.519Z</time></trkpt><trkpt lat="42.4652671687645" lon="12.730376712659234"><ele>990.8333333333334</ele><time>2026-04-26T12:24:34.518Z</time></trkpt><trkpt lat="42.46519187343449" lon="12.73045091557729"><ele>989.6666666666667</ele><time>2026-04-26T12:24:36.518Z</time></trkpt><trkpt lat="42.46512423976909" lon="12.730535968363437"><ele>988.5</ele><time>2026-04-26T12:24:38.518Z</time></trkpt><trkpt lat="42.465101353345936" lon="12.730654842779881"><ele>987.3333333333333</ele><time>2026-04-26T12:24:40.518Z</time></trkpt><trkpt lat="42.46506349748904" lon="12.730746109210575"><ele>986.1666666666666</ele><time>2026-04-26T12:24:42.518Z</time></trkpt><trkpt lat="42.46502800530994" lon="12.730850713114254"><ele>985.0</ele><time>2026-04-26T12:24:45.517Z</time></trkpt><trkpt lat="42.46497004380955" lon="12.730943857613362"><ele>984.9999999999999</ele><time>2026-04-26T12:24:48.517Z</time></trkpt><trkpt lat="42.46492564954998" lon="12.731013964375695"><ele>985.0</ele><time>2026-04-26T12:24:50.517Z</time></trkpt><trkpt lat="42.46487699800519" lon="12.73110847841968"><ele>985.0</ele><time>2026-04-26T12:24:53.517Z</time></trkpt><trkpt lat="42.46484691769185" lon="12.731204709143398"><ele>985.0</ele><time>2026-04-26T12:24:57.517Z</time></trkpt><trkpt lat="42.464797889282465" lon="12.731286262454528"><ele>984.9999999999999</ele><time>2026-04-26T12:25:00.517Z</time></trkpt><trkpt lat="42.464778175162216" lon="12.731389006745978"><ele>985.0</ele><time>2026-04-26T12:25:03.516Z</time></trkpt><trkpt lat="42.4647719149297" lon="12.731487075287605"><ele>984.8</ele><time>2026-04-26T12:25:06.516Z</time></trkpt><trkpt lat="42.46474880909539" lon="12.731601634697347"><ele>984.6</ele><time>2026-04-26T12:25:09.516Z</time></trkpt><trkpt lat="42.464703661194434" lon="12.7316934253756"><ele>984.4000000000001</ele><time>2026-04-26T12:25:12.516Z</time></trkpt><trkpt lat="42.46466656559031" lon="12.731769535713118"><ele>984.2</ele><time>2026-04-26T12:25:15.516Z</time></trkpt><trkpt lat="42.46462803079146" lon="12.731897902389035"><ele>984.0</ele><time>2026-04-26T12:25:24.515Z</time></trkpt><trkpt lat="42.46459294839244" lon="12.732052691184501"><ele>984.0000000000001</ele><time>2026-04-26T12:25:42.514Z</time></trkpt><trkpt lat="42.46461197739035" lon="12.732139352608918"><ele>984.0</ele><time>2026-04-26T12:25:46.514Z</time></trkpt><trkpt lat="42.46460516722232" lon="12.732233890795294"><ele>984.0000000000001</ele><time>2026-04-26T12:25:54.514Z</time></trkpt><trkpt lat="42.46460959971859" lon="12.732326330904298"><ele>984.0000000000001</ele><time>2026-04-26T12:26:00.513Z</time></trkpt><trkpt lat="42.46458662601953" lon="12.732420784544045"><ele>984.0</ele><time>2026-04-26T12:26:05.513Z</time></trkpt><trkpt lat="42.46459440459188" lon="12.73250688967336"><ele>984.0000000000001</ele><time>2026-04-26T12:26:09.513Z</time></trkpt><trkpt lat="42.46461280795978" lon="12.732596506680656"><ele>984.0000000000001</ele><time>2026-04-26T12:26:18.513Z</time></trkpt><trkpt lat="42.46470461577723" lon="12.732646239185975"><ele>983.857142857143</ele><time>2026-04-26T12:27:05.511Z</time></trkpt><trkpt lat="42.46465174084391" lon="12.73270587063173"><ele>983.7142857142858</ele><time>2026-04-26T12:27:59.508Z</time></trkpt><trkpt lat="42.46463866553914" lon="12.732802466126154"><ele>983.5714285714286</ele><time>2026-04-26T12:28:02.508Z</time></trkpt><trkpt lat="42.46464346464822" lon="12.732895628614054"><ele>983.4285714285714</ele><time>2026-04-26T12:28:05.508Z</time></trkpt><trkpt lat="42.46467270365757" lon="12.732992269707335"><ele>983.2857142857142</ele><time>2026-04-26T12:28:08.507Z</time></trkpt><trkpt lat="42.46468238990968" lon="12.733082141413266"><ele>983.142857142857</ele><time>2026-04-26T12:28:11.507Z</time></trkpt><trkpt lat="42.464681289850375" lon="12.73317228008631"><ele>982.9999999999999</ele><time>2026-04-26T12:28:14.507Z</time></trkpt><trkpt lat="42.464695458999145" lon="12.733265904151704"><ele>981.5000000000001</ele><time>2026-04-26T12:28:17.507Z</time></trkpt><trkpt lat="42.46471097348793" lon="12.733357229037363"><ele>980.0</ele><time>2026-04-26T12:28:20.507Z</time></trkpt><trkpt lat="42.4647370183598" lon="12.73344269020117"><ele>978.5</ele><time>2026-04-26T12:28:29.506Z</time></trkpt><trkpt lat="42.46473394959021" lon="12.733539556544917"><ele>977.0</ele><time>2026-04-26T12:28:33.506Z</time></trkpt><trkpt lat="42.464777264113955" lon="12.733609019565053"><ele>975.5000000000001</ele><time>2026-04-26T12:28:36.507Z</time></trkpt><trkpt lat="42.46482299311155" lon="12.733684194769268"><ele>974.0</ele><time>2026-04-26T12:28:40.507Z</time></trkpt><trkpt lat="42.464911883088135" lon="12.733782787655128"><ele>974.6666666666667</ele><time>2026-04-26T12:30:46.501Z</time></trkpt><trkpt lat="42.46484828258536" lon="12.733802496110853"><ele>975.3333333333334</ele><time>2026-04-26T12:31:03.5Z</time></trkpt><trkpt lat="42.46472905705482" lon="12.733711408143693"><ele>976.0</ele><time>2026-04-26T12:37:13.484Z</time></trkpt><trkpt lat="42.46466904464115" lon="12.733654044257825"><ele>976.6666666666667</ele><time>2026-04-26T12:37:17.484Z</time></trkpt><trkpt lat="42.46462203118071" lon="12.733581911907047"><ele>977.3333333333334</ele><time>2026-04-26T12:37:22.484Z</time></trkpt><trkpt lat="42.464593228820355" lon="12.733502037661163"><ele>978.0</ele><time>2026-04-26T12:37:28.484Z</time></trkpt><trkpt lat="42.46455959004059" lon="12.733389267587725"><ele>978.0</ele><time>2026-04-26T12:37:52.482Z</time></trkpt><trkpt lat="42.46453002988408" lon="12.733305407103302"><ele>978.0</ele><time>2026-04-26T12:37:55.482Z</time></trkpt><trkpt lat="42.46451386597964" lon="12.733203338745698"><ele>978.0</ele><time>2026-04-26T12:37:59.482Z</time></trkpt><trkpt lat="42.46450567547978" lon="12.733096559995719"><ele>978.0</ele><time>2026-04-26T12:38:02.482Z</time></trkpt><trkpt lat="42.46450910714024" lon="12.732990595784281"><ele>978.0</ele><time>2026-04-26T12:38:05.482Z</time></trkpt><trkpt lat="42.46450008263713" lon="12.732861312351307"><ele>978.0</ele><time>2026-04-26T12:38:08.482Z</time></trkpt><trkpt lat="42.46449435411803" lon="12.732743249601258"><ele>979.0</ele><time>2026-04-26T12:38:11.482Z</time></trkpt><trkpt lat="42.464456945104644" lon="12.732627483655174"><ele>980.0</ele><time>2026-04-26T12:38:14.481Z</time></trkpt><trkpt lat="42.46440882700633" lon="12.732530900062935"><ele>981.0</ele><time>2026-04-26T12:38:17.481Z</time></trkpt><trkpt lat="42.46441339891017" lon="12.73242813680997"><ele>982.0</ele><time>2026-04-26T12:38:19.481Z</time></trkpt><trkpt lat="42.46443427716953" lon="12.732305472106972"><ele>983.0</ele><time>2026-04-26T12:38:22.481Z</time></trkpt><trkpt lat="42.46443307485761" lon="12.73221576000189"><ele>984.0</ele><time>2026-04-26T12:38:24.481Z</time></trkpt><trkpt lat="42.46444326298328" lon="12.732131293523688"><ele>984.0</ele><time>2026-04-26T12:38:26.481Z</time></trkpt><trkpt lat="42.46445760030167" lon="12.732046469895353"><ele>984.0</ele><time>2026-04-26T12:38:28.481Z</time></trkpt><trkpt lat="42.46447277802746" lon="12.731948955047665"><ele>984.0</ele><time>2026-04-26T12:38:31.481Z</time></trkpt><trkpt lat="42.4645134900789" lon="12.731799933638468"><ele>984.0</ele><time>2026-04-26T12:38:44.481Z</time></trkpt><trkpt lat="42.464546704989694" lon="12.73170715223095"><ele>984.0</ele><time>2026-04-26T12:38:47.481Z</time></trkpt><trkpt lat="42.464583406678855" lon="12.731598178762944"><ele>984.0</ele><time>2026-04-26T12:38:50.481Z</time></trkpt><trkpt lat="42.46460884182211" lon="12.731481722678401"><ele>984.0</ele><time>2026-04-26T12:38:53.481Z</time></trkpt><trkpt lat="42.46462406489421" lon="12.731377974842298"><ele>984.0</ele><time>2026-04-26T12:38:55.481Z</time></trkpt><trkpt lat="42.464668067515504" lon="12.73130700018981"><ele>984.0</ele><time>2026-04-26T12:38:57.481Z</time></trkpt><trkpt lat="42.464712133360926" lon="12.731244906504466"><ele>984.0</ele><time>2026-04-26T12:38:59.48Z</time></trkpt><trkpt lat="42.464769646494524" lon="12.731159824834744"><ele>984.0</ele><time>2026-04-26T12:39:01.48Z</time></trkpt><trkpt lat="42.46483011661148" lon="12.731026847362084"><ele>984.0</ele><time>2026-04-26T12:39:03.48Z</time></trkpt><trkpt lat="42.46489735807207" lon="12.730896193096852"><ele>984.2</ele><time>2026-04-26T12:39:05.48Z</time></trkpt><trkpt lat="42.46497588221311" lon="12.73077163427772"><ele>984.4000000000001</ele><time>2026-04-26T12:39:07.48Z</time></trkpt><trkpt lat="42.46503332674965" lon="12.730649899563891"><ele>984.6</ele><time>2026-04-26T12:39:09.48Z</time></trkpt><trkpt lat="42.465057091567154" lon="12.730536270542"><ele>984.8</ele><time>2026-04-26T12:39:11.481Z</time></trkpt><trkpt lat="42.465133051525406" lon="12.730433311807127"><ele>985.0</ele><time>2026-04-26T12:39:13.48Z</time></trkpt><trkpt lat="42.465191936871314" lon="12.730289506001906"><ele>986.4</ele><time>2026-04-26T12:39:15.48Z</time></trkpt><trkpt lat="42.46525860818646" lon="12.730154209410875"><ele>987.8</ele><time>2026-04-26T12:39:17.48Z</time></trkpt><trkpt lat="42.46532179587207" lon="12.730023598262166"><ele>989.2</ele><time>2026-04-26T12:39:18.48Z</time></trkpt><trkpt lat="42.465385155855955" lon="12.729929654015328"><ele>990.6</ele><time>2026-04-26T12:39:19.48Z</time></trkpt><trkpt lat="42.46544558186244" lon="12.7298503601572"><ele>992.0</ele><time>2026-04-26T12:39:20.48Z</time></trkpt><trkpt lat="42.46549638822761" lon="12.729796624525948"><ele>992.0000000000001</ele><time>2026-04-26T12:39:21.479Z</time></trkpt><trkpt lat="42.46554261526371" lon="12.729703130396452"><ele>992.0</ele><time>2026-04-26T12:39:22.479Z</time></trkpt><trkpt lat="42.46558905720376" lon="12.729634752272766"><ele>992.0</ele><time>2026-04-26T12:39:23.479Z</time></trkpt><trkpt lat="42.46565717174" lon="12.729564635211924"><ele>992.0</ele><time>2026-04-26T12:39:25.479Z</time></trkpt><trkpt lat="42.4656793014638" lon="12.72947920806381"><ele>992.0000000000001</ele><time>2026-04-26T12:39:28.479Z</time></trkpt><trkpt lat="42.46571669528667" lon="12.729380001347185"><ele>992.0</ele><time>2026-04-26T12:39:30.479Z</time></trkpt><trkpt lat="42.46576062863931" lon="12.7292649204422"><ele>992.1666666666667</ele><time>2026-04-26T12:39:32.479Z</time></trkpt><trkpt lat="42.465833189612155" lon="12.729200161052818"><ele>992.3333333333334</ele><time>2026-04-26T12:39:34.479Z</time></trkpt><trkpt lat="42.465925849472484" lon="12.729143929013388"><ele>992.5</ele><time>2026-04-26T12:39:36.479Z</time></trkpt><trkpt lat="42.466008984087054" lon="12.729100297321391"><ele>992.6666666666667</ele><time>2026-04-26T12:39:38.479Z</time></trkpt><trkpt lat="42.46610927731073" lon="12.729078595676325"><ele>992.8333333333334</ele><time>2026-04-26T12:39:40.479Z</time></trkpt><trkpt lat="42.46617334774815" lon="12.729053745299522"><ele>993.0</ele><time>2026-04-26T12:39:41.478Z</time></trkpt><trkpt lat="42.4662768949507" lon="12.729005690668018"><ele>991.0</ele><time>2026-04-26T12:39:43.478Z</time></trkpt><trkpt lat="42.4663568534954" lon="12.728988402133085"><ele>989.0</ele><time>2026-04-26T12:39:45.478Z</time></trkpt><trkpt lat="42.46645549194412" lon="12.729009765201026"><ele>987.0</ele><time>2026-04-26T12:39:47.478Z</time></trkpt><trkpt lat="42.46660471573264" lon="12.728810121312268"><ele>985.0</ele><time>2026-04-26T12:39:48.478Z</time></trkpt><trkpt lat="42.466695738803445" lon="12.728786867465285"><ele>985.0</ele><time>2026-04-26T12:39:50.478Z</time></trkpt><trkpt lat="42.46679311796251" lon="12.728721999673565"><ele>985.0</ele><time>2026-04-26T12:39:52.478Z</time></trkpt><trkpt lat="42.46694268257754" lon="12.728670686463149"><ele>985.0</ele><time>2026-04-26T12:39:54.478Z</time></trkpt><trkpt lat="42.467020880014665" lon="12.728673876926326"><ele>985.0</ele><time>2026-04-26T12:39:55.478Z</time></trkpt><trkpt lat="42.46710540766905" lon="12.728670738005281"><ele>985.0</ele><time>2026-04-26T12:39:56.478Z</time></trkpt><trkpt lat="42.46719224629601" lon="12.728649457779742"><ele>984.1666666666666</ele><time>2026-04-26T12:39:57.478Z</time></trkpt><trkpt lat="42.46729317594061" lon="12.728611833857382"><ele>983.3333333333333</ele><time>2026-04-26T12:39:58.478Z</time></trkpt><trkpt lat="42.46738003882747" lon="12.728589543770385"><ele>982.5</ele><time>2026-04-26T12:39:59.478Z</time></trkpt><trkpt lat="42.46744385889611" lon="12.7285784153472"><ele>981.6666666666667</ele><time>2026-04-26T12:40:00.478Z</time></trkpt><trkpt lat="42.46754456534478" lon="12.72855974218413"><ele>980.8333333333334</ele><time>2026-04-26T12:40:02.477Z</time></trkpt><trkpt lat="42.467608970448886" lon="12.728554450904095"><ele>980.0</ele><time>2026-04-26T12:40:03.477Z</time></trkpt><trkpt lat="42.46767413760306" lon="12.728544844946788"><ele>980.0</ele><time>2026-04-26T12:40:04.477Z</time></trkpt><trkpt lat="42.46773739700356" lon="12.728537199761707"><ele>980.0</ele><time>2026-04-26T12:40:05.477Z</time></trkpt><trkpt lat="42.467859048269105" lon="12.72854660997217"><ele>980.0</ele><time>2026-04-26T12:40:07.477Z</time></trkpt><trkpt lat="42.467955245605346" lon="12.728553916918651"><ele>980.0</ele><time>2026-04-26T12:40:09.477Z</time></trkpt><trkpt lat="42.46804891647652" lon="12.728575484244832"><ele>980.0</ele><time>2026-04-26T12:40:12.477Z</time></trkpt><trkpt lat="42.46814458530094" lon="12.728610968031353"><ele>977.25</ele><time>2026-04-26T12:40:14.477Z</time></trkpt><trkpt lat="42.468257700284376" lon="12.728638573351084"><ele>974.5</ele><time>2026-04-26T12:40:16.477Z</time></trkpt><trkpt lat="42.46834945497822" lon="12.728661121987308"><ele>971.75</ele><time>2026-04-26T12:40:18.477Z</time></trkpt><trkpt lat="42.46848189160599" lon="12.72869879374209"><ele>969.0</ele><time>2026-04-26T12:40:20.476Z</time></trkpt><trkpt lat="42.46861365383323" lon="12.728745959768373"><ele>969.0</ele><time>2026-04-26T12:40:22.476Z</time></trkpt><trkpt lat="42.46871315977057" lon="12.728767256863936"><ele>969.0</ele><time>2026-04-26T12:40:23.476Z</time></trkpt><trkpt lat="42.46877543449225" lon="12.728781381864486"><ele>969.0</ele><time>2026-04-26T12:40:24.476Z</time></trkpt><trkpt lat="42.46883491411541" lon="12.728812384569608"><ele>969.0</ele><time>2026-04-26T12:40:25.476Z</time></trkpt><trkpt lat="42.468914720476846" lon="12.728876135405878"><ele>969.0</ele><time>2026-04-26T12:40:27.476Z</time></trkpt><trkpt lat="42.46899337053912" lon="12.728960603400518"><ele>969.0</ele><time>2026-04-26T12:40:29.476Z</time></trkpt><trkpt lat="42.46908617034527" lon="12.729033321015784"><ele>967.3333333333334</ele><time>2026-04-26T12:40:31.476Z</time></trkpt><trkpt lat="42.46916478244544" lon="12.729089397014395"><ele>965.6666666666667</ele><time>2026-04-26T12:40:33.476Z</time></trkpt><trkpt lat="42.469229917563844" lon="12.72911499800209"><ele>964.0</ele><time>2026-04-26T12:40:37.476Z</time></trkpt><trkpt lat="42.469311430581726" lon="12.729157339839404"><ele>962.3333333333334</ele><time>2026-04-26T12:40:55.475Z</time></trkpt><trkpt lat="42.469383399242" lon="12.729157538661072"><ele>960.6666666666667</ele><time>2026-04-26T12:40:58.475Z</time></trkpt><trkpt lat="42.46945615408907" lon="12.729188177360017"><ele>959.0</ele><time>2026-04-26T12:41:01.474Z</time></trkpt><trkpt lat="42.46950569259672" lon="12.72927031157869"><ele>959.0000000000001</ele><time>2026-04-26T12:41:03.474Z</time></trkpt><trkpt lat="42.469557027519784" lon="12.729372481373808"><ele>959.0</ele><time>2026-04-26T12:41:06.474Z</time></trkpt><trkpt lat="42.46963394973013" lon="12.729434541383963"><ele>959.0</ele><time>2026-04-26T12:41:09.475Z</time></trkpt><trkpt lat="42.469715576649044" lon="12.729464392070792"><ele>959.0</ele><time>2026-04-26T12:41:12.475Z</time></trkpt><trkpt lat="42.469767398292376" lon="12.729513814355276"><ele>959.0000000000001</ele><time>2026-04-26T12:41:14.474Z</time></trkpt><trkpt lat="42.469833383606016" lon="12.729481695347935"><ele>959.0</ele><time>2026-04-26T12:41:17.474Z</time></trkpt><trkpt lat="42.46992476190814" lon="12.729484773544241"><ele>957.8333333333334</ele><time>2026-04-26T12:41:20.474Z</time></trkpt><trkpt lat="42.47000921574813" lon="12.72946394514607"><ele>956.6666666666667</ele><time>2026-04-26T12:41:23.474Z</time></trkpt><trkpt lat="42.47007294526968" lon="12.729436872815386"><ele>955.5</ele><time>2026-04-26T12:41:25.474Z</time></trkpt><trkpt lat="42.47014056671684" lon="12.729420408548597"><ele>954.3333333333333</ele><time>2026-04-26T12:41:26.474Z</time></trkpt><trkpt lat="42.47022930978868" lon="12.729397363331168"><ele>953.1666666666666</ele><time>2026-04-26T12:41:27.474Z</time></trkpt><trkpt lat="42.470316881482375" lon="12.729382525069836"><ele>952.0</ele><time>2026-04-26T12:41:28.474Z</time></trkpt><trkpt lat="42.47039942716093" lon="12.729375868795895"><ele>950.0</ele><time>2026-04-26T12:41:29.474Z</time></trkpt><trkpt lat="42.47047275092939" lon="12.729386323323158"><ele>948.0</ele><time>2026-04-26T12:41:30.474Z</time></trkpt><trkpt lat="42.470567805641515" lon="12.729439774655475"><ele>946.0</ele><time>2026-04-26T12:41:32.474Z</time></trkpt><trkpt lat="42.470588006404505" lon="12.729616463439243"><ele>944.0</ele><time>2026-04-26T12:41:34.474Z</time></trkpt><trkpt lat="42.47057523373962" lon="12.729734613232038"><ele>942.0</ele><time>2026-04-26T12:41:35.474Z</time></trkpt><trkpt lat="42.47057631735014" lon="12.729823987202879"><ele>941.6666666666666</ele><time>2026-04-26T12:41:36.474Z</time></trkpt><trkpt lat="42.47058758921348" lon="12.729913900301726"><ele>941.3333333333333</ele><time>2026-04-26T12:41:37.474Z</time></trkpt><trkpt lat="42.4705943291815" lon="12.730025021324423"><ele>941.0</ele><time>2026-04-26T12:41:38.474Z</time></trkpt><trkpt lat="42.470587429251125" lon="12.730152117574017"><ele>940.6666666666666</ele><time>2026-04-26T12:41:39.473Z</time></trkpt><trkpt lat="42.47055834794152" lon="12.730277150483346"><ele>940.3333333333333</ele><time>2026-04-26T12:41:40.473Z</time></trkpt><trkpt lat="42.470502177512905" lon="12.73040335279479"><ele>940.0</ele><time>2026-04-26T12:41:41.473Z</time></trkpt><trkpt lat="42.47041122174233" lon="12.730541734125582"><ele>941.8</ele><time>2026-04-26T12:41:42.473Z</time></trkpt><trkpt lat="42.47032714240339" lon="12.730672949934268"><ele>943.6</ele><time>2026-04-26T12:41:43.473Z</time></trkpt><trkpt lat="42.470261662355" lon="12.730790855382308"><ele>945.4000000000001</ele><time>2026-04-26T12:41:44.473Z</time></trkpt><trkpt lat="42.47021187270874" lon="12.730921585755157"><ele>947.2</ele><time>2026-04-26T12:41:45.473Z</time></trkpt><trkpt lat="42.47017910310421" lon="12.731038668225072"><ele>949.0</ele><time>2026-04-26T12:41:46.473Z</time></trkpt><trkpt lat="42.47013979084258" lon="12.731131504519544"><ele>948.9999999999999</ele><time>2026-04-26T12:41:47.473Z</time></trkpt><trkpt lat="42.47010860396133" lon="12.73120716951579"><ele>949.0</ele><time>2026-04-26T12:41:48.473Z</time></trkpt><trkpt lat="42.47008616139181" lon="12.73129789824323"><ele>949.0</ele><time>2026-04-26T12:41:49.473Z</time></trkpt><trkpt lat="42.47008336907713" lon="12.731407727647674"><ele>949.0</ele><time>2026-04-26T12:41:50.473Z</time></trkpt><trkpt lat="42.47011175566541" lon="12.731542050453772"><ele>948.9999999999999</ele><time>2026-04-26T12:41:51.473Z</time></trkpt><trkpt lat="42.470146757501" lon="12.731688678845096"><ele>949.0</ele><time>2026-04-26T12:41:52.473Z</time></trkpt><trkpt lat="42.47015828533312" lon="12.73182733914371"><ele>949.0</ele><time>2026-04-26T12:41:53.473Z</time></trkpt><trkpt lat="42.47016296993052" lon="12.73197318508659"><ele>949.0000000000001</ele><time>2026-04-26T12:41:54.473Z</time></trkpt><trkpt lat="42.47016055600871" lon="12.732126839260765"><ele>949.0000000000001</ele><time>2026-04-26T12:41:55.473Z</time></trkpt><trkpt lat="42.470141209193564" lon="12.73227735042901"><ele>949.0</ele><time>2026-04-26T12:41:56.473Z</time></trkpt><trkpt lat="42.4701407775818" lon="12.732425005348203"><ele>949.0</ele><time>2026-04-26T12:41:57.473Z</time></trkpt><trkpt lat="42.47012158079802" lon="12.732552844751432"><ele>949.0</ele><time>2026-04-26T12:41:58.473Z</time></trkpt><trkpt lat="42.47009982127419" lon="12.73270016818073"><ele>949.0</ele><time>2026-04-26T12:41:59.472Z</time></trkpt><trkpt lat="42.470092744437906" lon="12.732860048353016"><ele>949.0</ele><time>2026-04-26T12:42:00.472Z</time></trkpt><trkpt lat="42.47008742337451" lon="12.733029434798064"><ele>949.0</ele><time>2026-04-26T12:42:01.472Z</time></trkpt><trkpt lat="42.47006665498058" lon="12.733205728043716"><ele>948.4000000000001</ele><time>2026-04-26T12:42:02.472Z</time></trkpt><trkpt lat="42.47004179027105" lon="12.733381197375568"><ele>947.8000000000001</ele><time>2026-04-26T12:42:03.472Z</time></trkpt><trkpt lat="42.47001718559331" lon="12.733548539319392"><ele>947.1999999999999</ele><time>2026-04-26T12:42:04.472Z</time></trkpt><trkpt lat="42.4700022134316" lon="12.733683880973897"><ele>946.5999999999999</ele><time>2026-04-26T12:42:05.472Z</time></trkpt><trkpt lat="42.4699876792723" lon="12.733800690331462"><ele>946.0</ele><time>2026-04-26T12:42:06.472Z</time></trkpt><trkpt lat="42.46996476542624" lon="12.733899496370496"><ele>947.1999999999999</ele><time>2026-04-26T12:42:07.472Z</time></trkpt><trkpt lat="42.46993558799573" lon="12.734006890984801"><ele>948.3999999999999</ele><time>2026-04-26T12:42:08.472Z</time></trkpt><trkpt lat="42.469920395068286" lon="12.73413727598979"><ele>949.6</ele><time>2026-04-26T12:42:09.472Z</time></trkpt><trkpt lat="42.469928950807336" lon="12.734293500752528"><ele>950.8</ele><time>2026-04-26T12:42:10.472Z</time></trkpt><trkpt lat="42.46995585450603" lon="12.734439741082035"><ele>952.0</ele><time>2026-04-26T12:42:11.472Z</time></trkpt><trkpt lat="42.47000475691492" lon="12.734590378700021"><ele>952.2</ele><time>2026-04-26T12:42:12.472Z</time></trkpt><trkpt lat="42.47005700311178" lon="12.734734558194386"><ele>952.4000000000001</ele><time>2026-04-26T12:42:13.472Z</time></trkpt><trkpt lat="42.47008990432884" lon="12.734836010659185"><ele>952.5999999999999</ele><time>2026-04-26T12:42:14.472Z</time></trkpt><trkpt lat="42.470114622454545" lon="12.734952661063804"><ele>952.8</ele><time>2026-04-26T12:42:15.472Z</time></trkpt><trkpt lat="42.47014695413721" lon="12.735083757316993"><ele>953.0</ele><time>2026-04-26T12:42:16.472Z</time></trkpt><trkpt lat="42.4701685373226" lon="12.73521692954353"><ele>953.1666666666667</ele><time>2026-04-26T12:42:17.472Z</time></trkpt><trkpt lat="42.470184027329964" lon="12.735347545267514"><ele>953.3333333333334</ele><time>2026-04-26T12:42:18.472Z</time></trkpt><trkpt lat="42.470196092522706" lon="12.73547407515773"><ele>953.5</ele><time>2026-04-26T12:42:19.471Z</time></trkpt><trkpt lat="42.47018577760174" lon="12.735574209363865"><ele>953.6666666666667</ele><time>2026-04-26T12:42:20.471Z</time></trkpt><trkpt lat="42.47015114070819" lon="12.735654846314107"><ele>953.8333333333334</ele><time>2026-04-26T12:42:21.471Z</time></trkpt><trkpt lat="42.47010583121066" lon="12.735747483368169"><ele>954.0</ele><time>2026-04-26T12:42:22.471Z</time></trkpt><trkpt lat="42.47006688318491" lon="12.735849139106664"><ele>954.0</ele><time>2026-04-26T12:42:23.471Z</time></trkpt><trkpt lat="42.470042233716065" lon="12.735948831590362"><ele>953.9999999999999</ele><time>2026-04-26T12:42:24.471Z</time></trkpt><trkpt lat="42.4700150118412" lon="12.736052114956209"><ele>954.0</ele><time>2026-04-26T12:42:25.471Z</time></trkpt><trkpt lat="42.469990689794585" lon="12.73615548139892"><ele>954.0</ele><time>2026-04-26T12:42:26.471Z</time></trkpt><trkpt lat="42.469979166904665" lon="12.73625674064863"><ele>953.9999999999999</ele><time>2026-04-26T12:42:27.471Z</time></trkpt><trkpt lat="42.469975830429625" lon="12.736344171110408"><ele>954.0</ele><time>2026-04-26T12:42:28.471Z</time></trkpt><trkpt lat="42.46998217258331" lon="12.736434931851742"><ele>954.0</ele><time>2026-04-26T12:42:29.471Z</time></trkpt><trkpt lat="42.4699694177552" lon="12.736537264931282"><ele>953.6</ele><time>2026-04-26T12:42:31.471Z</time></trkpt><trkpt lat="42.46998892041681" lon="12.736620533646823"><ele>953.2</ele><time>2026-04-26T12:42:34.471Z</time></trkpt><trkpt lat="42.470049139756455" lon="12.736659059454306"><ele>952.8000000000001</ele><time>2026-04-26T12:43:03.469Z</time></trkpt><trkpt lat="42.4700399091111" lon="12.736833735136573"><ele>952.4000000000001</ele><time>2026-04-26T12:43:05.469Z</time></trkpt><trkpt lat="42.47002510025309" lon="12.736968556521903"><ele>952.0</ele><time>2026-04-26T12:43:06.469Z</time></trkpt><trkpt lat="42.470000909299934" lon="12.73711730427783"><ele>951.6</ele><time>2026-04-26T12:43:07.469Z</time></trkpt><trkpt lat="42.469982826469064" lon="12.73723766404177"><ele>951.2</ele><time>2026-04-26T12:43:08.469Z</time></trkpt><trkpt lat="42.46996310217461" lon="12.737352227623864"><ele>950.8</ele><time>2026-04-26T12:43:09.469Z</time></trkpt><trkpt lat="42.469943044104284" lon="12.737463006744774"><ele>950.4</ele><time>2026-04-26T12:43:10.469Z</time></trkpt><trkpt lat="42.46991184162051" lon="12.737635654331536"><ele>950.0</ele><time>2026-04-26T12:43:12.469Z</time></trkpt><trkpt lat="42.46987311212775" lon="12.737797961747003"><ele>950.0</ele><time>2026-04-26T12:43:14.469Z</time></trkpt><trkpt lat="42.46985439293842" lon="12.737919622477644"><ele>950.0</ele><time>2026-04-26T12:43:15.468Z</time></trkpt><trkpt lat="42.46980887843373" lon="12.738037010937566"><ele>950.0</ele><time>2026-04-26T12:43:16.468Z</time></trkpt><trkpt lat="42.46974973459887" lon="12.738178027564246"><ele>950.0</ele><time>2026-04-26T12:43:17.468Z</time></trkpt><trkpt lat="42.46970767096039" lon="12.738317427388266"><ele>950.0</ele><time>2026-04-26T12:43:18.468Z</time></trkpt><trkpt lat="42.46965519033038" lon="12.738422042068704"><ele>951.2</ele><time>2026-04-26T12:43:19.468Z</time></trkpt><trkpt lat="42.46959031979192" lon="12.738521553104222"><ele>952.4</ele><time>2026-04-26T12:43:20.468Z</time></trkpt><trkpt lat="42.46951425418039" lon="12.738620575820217"><ele>953.5999999999999</ele><time>2026-04-26T12:43:21.468Z</time></trkpt><trkpt lat="42.469441471975486" lon="12.738701513256817"><ele>954.8</ele><time>2026-04-26T12:43:22.467Z</time></trkpt><trkpt lat="42.46936772325591" lon="12.738761716471796"><ele>956.0</ele><time>2026-04-26T12:43:23.467Z</time></trkpt><trkpt lat="42.46930638369714" lon="12.73885105382889"><ele>956.0</ele><time>2026-04-26T12:43:24.468Z</time></trkpt><trkpt lat="42.46924427208444" lon="12.738919988120513"><ele>955.9999999999999</ele><time>2026-04-26T12:43:25.468Z</time></trkpt><trkpt lat="42.46918219846656" lon="12.739025482053473"><ele>955.9999999999999</ele><time>2026-04-26T12:43:26.468Z</time></trkpt><trkpt lat="42.469117571625134" lon="12.739139512210302"><ele>956.0</ele><time>2026-04-26T12:43:27.467Z</time></trkpt><trkpt lat="42.469070127232676" lon="12.739225630654927"><ele>956.0</ele><time>2026-04-26T12:43:28.467Z</time></trkpt><trkpt lat="42.468988795155575" lon="12.739267735598487"><ele>956.0000000000001</ele><time>2026-04-26T12:43:30.467Z</time></trkpt><trkpt lat="42.46892269926726" lon="12.739210545195661"><ele>956.0</ele><time>2026-04-26T12:43:33.467Z</time></trkpt><trkpt lat="42.46887737938307" lon="12.73914203740395"><ele>956.0</ele><time>2026-04-26T12:43:36.467Z</time></trkpt><trkpt lat="42.46894240256069" lon="12.739215836176921"><ele>956.0</ele><time>2026-04-26T12:47:21.456Z</time></trkpt><trkpt lat="42.46902508855207" lon="12.739200265890078"><ele>956.0000000000001</ele><time>2026-04-26T12:47:24.456Z</time></trkpt><trkpt lat="42.469100483021016" lon="12.739153362162213"><ele>956.0</ele><time>2026-04-26T12:47:27.457Z</time></trkpt><trkpt lat="42.469138189870804" lon="12.739068581441382"><ele>956.0000000000001</ele><time>2026-04-26T12:47:30.457Z</time></trkpt><trkpt lat="42.46919795161487" lon="12.73899674327329"><ele>956.0</ele><time>2026-04-26T12:47:33.457Z</time></trkpt><trkpt lat="42.46924060509537" lon="12.738929475338882"><ele>956.0</ele><time>2026-04-26T12:47:36.456Z</time></trkpt><trkpt lat="42.46928418902128" lon="12.73883061855487"><ele>956.0</ele><time>2026-04-26T12:47:40.456Z</time></trkpt><trkpt lat="42.46937456538299" lon="12.738799418542548"><ele>956.0000000000001</ele><time>2026-04-26T12:47:43.456Z</time></trkpt><trkpt lat="42.469458440601315" lon="12.738740017222378"><ele>956.0</ele><time>2026-04-26T12:47:45.456Z</time></trkpt><trkpt lat="42.4695044268162" lon="12.738679086001026"><ele>956.0</ele><time>2026-04-26T12:47:46.456Z</time></trkpt><trkpt lat="42.469553148916056" lon="12.73859787439092"><ele>955.9999999999999</ele><time>2026-04-26T12:47:47.456Z</time></trkpt><trkpt lat="42.46960254686652" lon="12.738494623940229"><ele>955.9999999999999</ele><time>2026-04-26T12:47:48.456Z</time></trkpt><trkpt lat="42.46964274960852" lon="12.738340026778006"><ele>956.0</ele><time>2026-04-26T12:47:49.456Z</time></trkpt><trkpt lat="42.46967491206507" lon="12.738202549074026"><ele>956.0</ele><time>2026-04-26T12:47:50.456Z</time></trkpt><trkpt lat="42.46972364207445" lon="12.738057907124082"><ele>954.8</ele><time>2026-04-26T12:47:51.455Z</time></trkpt><trkpt lat="42.469775267340786" lon="12.737927366331217"><ele>953.5999999999999</ele><time>2026-04-26T12:47:52.455Z</time></trkpt><trkpt lat="42.46981396901932" lon="12.737810420555505"><ele>952.4</ele><time>2026-04-26T12:47:53.455Z</time></trkpt><trkpt lat="42.469843463607624" lon="12.737674409899599"><ele>951.2</ele><time>2026-04-26T12:47:54.455Z</time></trkpt><trkpt lat="42.469866974610355" lon="12.73754755722846"><ele>950.0</ele><time>2026-04-26T12:47:55.455Z</time></trkpt><trkpt lat="42.46988934263834" lon="12.737426603770576"><ele>950.0</ele><time>2026-04-26T12:47:56.455Z</time></trkpt><trkpt lat="42.469896573890935" lon="12.737297089004104"><ele>950.0</ele><time>2026-04-26T12:47:57.455Z</time></trkpt><trkpt lat="42.46989067650982" lon="12.73715334490148"><ele>950.0</ele><time>2026-04-26T12:47:58.455Z</time></trkpt><trkpt lat="42.46989801116769" lon="12.737019556289672"><ele>950.0</ele><time>2026-04-26T12:47:59.455Z</time></trkpt><trkpt lat="42.469916081259946" lon="12.736899771885273"><ele>950.0</ele><time>2026-04-26T12:48:00.455Z</time></trkpt><trkpt lat="42.469930033937736" lon="12.736777017914434"><ele>950.4</ele><time>2026-04-26T12:48:01.455Z</time></trkpt><trkpt lat="42.469929355851654" lon="12.736647888840393"><ele>950.8</ele><time>2026-04-26T12:48:02.455Z</time></trkpt><trkpt lat="42.46992595924394" lon="12.73652435511616"><ele>951.2</ele><time>2026-04-26T12:48:03.455Z</time></trkpt><trkpt lat="42.46992285070648" lon="12.736399615250914"><ele>951.6</ele><time>2026-04-26T12:48:04.455Z</time></trkpt><trkpt lat="42.469933076888246" lon="12.736280773847485"><ele>952.0</ele><time>2026-04-26T12:48:05.455Z</time></trkpt><trkpt lat="42.46994725432123" lon="12.73615839499969"><ele>952.3333333333333</ele><time>2026-04-26T12:48:06.455Z</time></trkpt><trkpt lat="42.46997379031517" lon="12.736052241286547"><ele>952.6666666666666</ele><time>2026-04-26T12:48:07.455Z</time></trkpt><trkpt lat="42.470015195861336" lon="12.735957920174362"><ele>953.0</ele><time>2026-04-26T12:48:08.455Z</time></trkpt><trkpt lat="42.47006047021341" lon="12.735848330089208"><ele>953.3333333333333</ele><time>2026-04-26T12:48:09.455Z</time></trkpt><trkpt lat="42.470105874424625" lon="12.735751334184835"><ele>953.6666666666666</ele><time>2026-04-26T12:48:10.454Z</time></trkpt><trkpt lat="42.47013837102034" lon="12.735661947000562"><ele>954.0</ele><time>2026-04-26T12:48:11.454Z</time></trkpt><trkpt lat="42.47015967604803" lon="12.735566795548484"><ele>954.0</ele><time>2026-04-26T12:48:12.454Z</time></trkpt><trkpt lat="42.4701813216992" lon="12.735466996845037"><ele>954.0</ele><time>2026-04-26T12:48:13.454Z</time></trkpt><trkpt lat="42.4701848945995" lon="12.735376663391548"><ele>954.0</ele><time>2026-04-26T12:48:14.454Z</time></trkpt><trkpt lat="42.47016360863742" lon="12.735218717729206"><ele>954.0</ele><time>2026-04-26T12:48:16.454Z</time></trkpt><trkpt lat="42.47015227130153" lon="12.735070723688724"><ele>954.0</ele><time>2026-04-26T12:48:18.454Z</time></trkpt><trkpt lat="42.47013417150631" lon="12.734977227977593"><ele>954.0</ele><time>2026-04-26T12:48:19.454Z</time></trkpt><trkpt lat="42.47010211658777" lon="12.734888964952898"><ele>953.8333333333334</ele><time>2026-04-26T12:48:20.454Z</time></trkpt><trkpt lat="42.470071810873115" lon="12.73479255028095"><ele>953.6666666666667</ele><time>2026-04-26T12:48:21.454Z</time></trkpt><trkpt lat="42.47004714150172" lon="12.734705370580215"><ele>953.5</ele><time>2026-04-26T12:48:22.454Z</time></trkpt><trkpt lat="42.47000940033246" lon="12.73453454877514"><ele>953.3333333333334</ele><time>2026-04-26T12:48:24.454Z</time></trkpt><trkpt lat="42.46999665757109" lon="12.734436844291492"><ele>953.1666666666667</ele><time>2026-04-26T12:48:25.454Z</time></trkpt><trkpt lat="42.46998002672535" lon="12.734333844989656"><ele>953.0</ele><time>2026-04-26T12:48:26.454Z</time></trkpt><trkpt lat="42.46996064693999" lon="12.734219245415986"><ele>952.8</ele><time>2026-04-26T12:48:27.454Z</time></trkpt><trkpt lat="42.46996084447137" lon="12.734102354011712"><ele>952.5999999999999</ele><time>2026-04-26T12:48:28.454Z</time></trkpt><trkpt lat="42.46995827350207" lon="12.733933594891626"><ele>952.4000000000001</ele><time>2026-04-26T12:48:29.454Z</time></trkpt><trkpt lat="42.46996723421462" lon="12.733771038296355"><ele>952.2</ele><time>2026-04-26T12:48:30.453Z</time></trkpt><trkpt lat="42.469982305170475" lon="12.733618788734395"><ele>952.0</ele><time>2026-04-26T12:48:31.453Z</time></trkpt><trkpt lat="42.469998886714244" lon="12.733467830205573"><ele>950.5</ele><time>2026-04-26T12:48:32.453Z</time></trkpt><trkpt lat="42.4700211647952" lon="12.73333015214124"><ele>949.0</ele><time>2026-04-26T12:48:33.453Z</time></trkpt><trkpt lat="42.47002531948797" lon="12.733159107710948"><ele>947.5</ele><time>2026-04-26T12:48:34.453Z</time></trkpt><trkpt lat="42.47003757609502" lon="12.732987309889388"><ele>946.0</ele><time>2026-04-26T12:48:35.453Z</time></trkpt><trkpt lat="42.47006863969841" lon="12.732834479901424"><ele>946.5999999999999</ele><time>2026-04-26T12:48:36.453Z</time></trkpt><trkpt lat="42.47007418542834" lon="12.732677978009079"><ele>947.1999999999999</ele><time>2026-04-26T12:48:37.453Z</time></trkpt><trkpt lat="42.47007204578691" lon="12.73251702246221"><ele>947.8000000000001</ele><time>2026-04-26T12:48:38.453Z</time></trkpt><trkpt lat="42.4701129147063" lon="12.732405908353988"><ele>948.4000000000001</ele><time>2026-04-26T12:48:39.453Z</time></trkpt><trkpt lat="42.47014347475312" lon="12.73228488602797"><ele>949.0</ele><time>2026-04-26T12:48:40.453Z</time></trkpt><trkpt lat="42.47014634804752" lon="12.73213101011924"><ele>949.0</ele><time>2026-04-26T12:48:41.453Z</time></trkpt><trkpt lat="42.47014913622941" lon="12.731992579382556"><ele>949.0000000000001</ele><time>2026-04-26T12:48:42.453Z</time></trkpt><trkpt lat="42.47017934113379" lon="12.731862996355414"><ele>949.0000000000001</ele><time>2026-04-26T12:48:43.453Z</time></trkpt><trkpt lat="42.47016831538124" lon="12.731720866824828"><ele>949.0</ele><time>2026-04-26T12:48:44.453Z</time></trkpt><trkpt lat="42.47015220395413" lon="12.731574552371416"><ele>949.0</ele><time>2026-04-26T12:48:45.453Z</time></trkpt><trkpt lat="42.470131854425226" lon="12.731455553739858"><ele>949.0</ele><time>2026-04-26T12:48:46.453Z</time></trkpt><trkpt lat="42.47012101640142" lon="12.731348506495"><ele>949.0000000000001</ele><time>2026-04-26T12:48:47.453Z</time></trkpt><trkpt lat="42.470152917320036" lon="12.73117770758579"><ele>949.0000000000001</ele><time>2026-04-26T12:48:49.453Z</time></trkpt><trkpt lat="42.470193273386805" lon="12.731085290784662"><ele>949.0</ele><time>2026-04-26T12:48:50.452Z</time></trkpt><trkpt lat="42.47024579793141" lon="12.73096649082577"><ele>949.0</ele><time>2026-04-26T12:48:51.452Z</time></trkpt><trkpt lat="42.47030457197067" lon="12.7308409483235"><ele>949.4000000000001</ele><time>2026-04-26T12:48:52.452Z</time></trkpt><trkpt lat="42.4703600952856" lon="12.730723417185198"><ele>949.8000000000001</ele><time>2026-04-26T12:48:53.452Z</time></trkpt><trkpt lat="42.47038449495771" lon="12.730565287487288"><ele>950.1999999999999</ele><time>2026-04-26T12:48:54.452Z</time></trkpt><trkpt lat="42.47045851547664" lon="12.730454938441007"><ele>950.5999999999999</ele><time>2026-04-26T12:48:55.452Z</time></trkpt><trkpt lat="42.47052536167065" lon="12.730341856729414"><ele>951.0</ele><time>2026-04-26T12:48:56.452Z</time></trkpt><trkpt lat="42.47061005691364" lon="12.73024971819587"><ele>948.25</ele><time>2026-04-26T12:48:57.452Z</time></trkpt><trkpt lat="42.47064014281309" lon="12.730107944077748"><ele>945.5</ele><time>2026-04-26T12:48:58.452Z</time></trkpt><trkpt lat="42.47060638831251" lon="12.729946413512593"><ele>942.75</ele><time>2026-04-26T12:48:59.452Z</time></trkpt><trkpt lat="42.470624582922426" lon="12.72979056385807"><ele>940.0</ele><time>2026-04-26T12:49:00.452Z</time></trkpt><trkpt lat="42.470642873335606" lon="12.729652542316295"><ele>939.9999999999999</ele><time>2026-04-26T12:49:01.452Z</time></trkpt><trkpt lat="42.47067094218432" lon="12.729538823343475"><ele>940.0</ele><time>2026-04-26T12:49:02.452Z</time></trkpt><trkpt lat="42.47070603365846" lon="12.729422751479488"><ele>940.0</ele><time>2026-04-26T12:49:03.452Z</time></trkpt><trkpt lat="42.47074248167463" lon="12.729310487277273"><ele>940.0</ele><time>2026-04-26T12:49:04.452Z</time></trkpt><trkpt lat="42.47076759393167" lon="12.729207599432135"><ele>939.9999999999999</ele><time>2026-04-26T12:49:05.452Z</time></trkpt><trkpt lat="42.470799090667875" lon="12.729114650435148"><ele>940.0</ele><time>2026-04-26T12:49:06.452Z</time></trkpt><trkpt lat="42.47084923249113" lon="12.729015419055361"><ele>940.2857142857142</ele><time>2026-04-26T12:49:07.452Z</time></trkpt><trkpt lat="42.47088163534873" lon="12.728938004617925"><ele>940.5714285714284</ele><time>2026-04-26T12:49:08.452Z</time></trkpt><trkpt lat="42.47091300365389" lon="12.728861662332271"><ele>940.8571428571429</ele><time>2026-04-26T12:49:09.451Z</time></trkpt><trkpt lat="42.4709444408913" lon="12.728784109857536"><ele>941.1428571428571</ele><time>2026-04-26T12:49:10.451Z</time></trkpt><trkpt lat="42.470974706241655" lon="12.728706307388347"><ele>941.4285714285714</ele><time>2026-04-26T12:49:11.451Z</time></trkpt><trkpt lat="42.47101967552305" lon="12.728581228618431"><ele>941.7142857142858</ele><time>2026-04-26T12:49:13.451Z</time></trkpt><trkpt lat="42.47104707039951" lon="12.728503343725386"><ele>942.0000000000001</ele><time>2026-04-26T12:49:14.451Z</time></trkpt><trkpt lat="42.47107665037656" lon="12.728419246460824"><ele>942.5</ele><time>2026-04-26T12:49:15.451Z</time></trkpt><trkpt lat="42.47110380661241" lon="12.728342039956352"><ele>943.0</ele><time>2026-04-26T12:49:16.451Z</time></trkpt><trkpt lat="42.47110661651076" lon="12.728236519272375"><ele>943.5</ele><time>2026-04-26T12:49:17.451Z</time></trkpt><trkpt lat="42.471134939019315" lon="12.728138986619422"><ele>944.0</ele><time>2026-04-26T12:49:18.451Z</time></trkpt><trkpt lat="42.471179327911294" lon="12.728038592963108"><ele>944.5</ele><time>2026-04-26T12:49:19.451Z</time></trkpt><trkpt lat="42.471214768391846" lon="12.727941983680008"><ele>945.0</ele><time>2026-04-26T12:49:20.451Z</time></trkpt><trkpt lat="42.47125656436761" lon="12.727841255524094"><ele>944.5</ele><time>2026-04-26T12:49:21.451Z</time></trkpt><trkpt lat="42.471293173135585" lon="12.727736377458177"><ele>944.0</ele><time>2026-04-26T12:49:22.451Z</time></trkpt><trkpt lat="42.47133498169352" lon="12.7276377699735"><ele>943.5</ele><time>2026-04-26T12:49:23.451Z</time></trkpt><trkpt lat="42.471367760459046" lon="12.727534230035069"><ele>943.0</ele><time>2026-04-26T12:49:24.451Z</time></trkpt><trkpt lat="42.47139435893421" lon="12.727429812610646"><ele>942.5</ele><time>2026-04-26T12:49:25.451Z</time></trkpt><trkpt lat="42.471416245971916" lon="12.727317215822868"><ele>942.0</ele><time>2026-04-26T12:49:26.451Z</time></trkpt><trkpt lat="42.471433898314416" lon="12.7272025014093"><ele>941.75</ele><time>2026-04-26T12:49:27.451Z</time></trkpt><trkpt lat="42.47146027143904" lon="12.72706737574702"><ele>941.5</ele><time>2026-04-26T12:49:28.451Z</time></trkpt><trkpt lat="42.47147425261957" lon="12.726915128218211"><ele>941.25</ele><time>2026-04-26T12:49:29.45Z</time></trkpt><trkpt lat="42.47148624679032" lon="12.726764888789175"><ele>941.0</ele><time>2026-04-26T12:49:30.45Z</time></trkpt><trkpt lat="42.471486299396645" lon="12.726596137353827"><ele>941.4</ele><time>2026-04-26T12:49:31.45Z</time></trkpt><trkpt lat="42.47148087990107" lon="12.726431942490617"><ele>941.8</ele><time>2026-04-26T12:49:32.452Z</time></trkpt><trkpt lat="42.47148091457816" lon="12.726279033213958"><ele>942.1999999999999</ele><time>2026-04-26T12:49:33.452Z</time></trkpt><trkpt lat="42.47148883709695" lon="12.726135218336701"><ele>942.5999999999999</ele><time>2026-04-26T12:49:34.452Z</time></trkpt><trkpt lat="42.4715145166412" lon="12.726009724701752"><ele>943.0</ele><time>2026-04-26T12:49:35.452Z</time></trkpt><trkpt lat="42.4715715911061" lon="12.725897748012402"><ele>944.2</ele><time>2026-04-26T12:49:36.451Z</time></trkpt><trkpt lat="42.47163556760891" lon="12.725793599822161"><ele>945.4</ele><time>2026-04-26T12:49:37.451Z</time></trkpt><trkpt lat="42.471684390836906" lon="12.725693739208907"><ele>946.6000000000001</ele><time>2026-04-26T12:49:38.451Z</time></trkpt><trkpt lat="42.47174625024142" lon="12.725601882093677"><ele>947.8000000000001</ele><time>2026-04-26T12:49:39.451Z</time></trkpt><trkpt lat="42.47179840115405" lon="12.72550332102973"><ele>949.0</ele><time>2026-04-26T12:49:40.451Z</time></trkpt><trkpt lat="42.47186087466592" lon="12.725427452641398"><ele>949.0</ele><time>2026-04-26T12:49:41.451Z</time></trkpt><trkpt lat="42.47192985686633" lon="12.725348175434231"><ele>949.0000000000001</ele><time>2026-04-26T12:49:42.451Z</time></trkpt><trkpt lat="42.471994455451885" lon="12.725272247057989"><ele>949.0000000000001</ele><time>2026-04-26T12:49:43.451Z</time></trkpt><trkpt lat="42.472079391446094" lon="12.725190800584558"><ele>949.0</ele><time>2026-04-26T12:49:44.451Z</time></trkpt><trkpt lat="42.47215840979769" lon="12.72510067308795"><ele>949.0</ele><time>2026-04-26T12:49:45.45Z</time></trkpt><trkpt lat="42.47223225550818" lon="12.724982767635133"><ele>947.4000000000001</ele><time>2026-04-26T12:49:46.45Z</time></trkpt><trkpt lat="42.47229975045857" lon="12.724872253604675"><ele>945.8000000000001</ele><time>2026-04-26T12:49:47.45Z</time></trkpt><trkpt lat="42.47235957353759" lon="12.724770464393297"><ele>944.1999999999999</ele><time>2026-04-26T12:49:48.45Z</time></trkpt><trkpt lat="42.47242213025649" lon="12.72467127291234"><ele>942.5999999999999</ele><time>2026-04-26T12:49:49.45Z</time></trkpt><trkpt lat="42.47248159593292" lon="12.724573167647236"><ele>941.0</ele><time>2026-04-26T12:49:50.45Z</time></trkpt><trkpt lat="42.472547477126206" lon="12.72447852398268"><ele>941.0000000000001</ele><time>2026-04-26T12:49:51.45Z</time></trkpt><trkpt lat="42.47261798434649" lon="12.724374875756478"><ele>941.0</ele><time>2026-04-26T12:49:52.45Z</time></trkpt><trkpt lat="42.47268681180779" lon="12.724278393581436"><ele>941.0</ele><time>2026-04-26T12:49:53.45Z</time></trkpt><trkpt lat="42.472750778309376" lon="12.724191426495524"><ele>941.0</ele><time>2026-04-26T12:49:54.45Z</time></trkpt><trkpt lat="42.47280288229639" lon="12.724112666847331"><ele>941.0000000000001</ele><time>2026-04-26T12:49:55.45Z</time></trkpt><trkpt lat="42.47285056962793" lon="12.724047214274115"><ele>941.0</ele><time>2026-04-26T12:49:56.45Z</time></trkpt><trkpt lat="42.472895503193264" lon="12.723980576890598"><ele>940.3333333333334</ele><time>2026-04-26T12:49:57.45Z</time></trkpt><trkpt lat="42.472946992853" lon="12.7239093903518"><ele>939.6666666666667</ele><time>2026-04-26T12:49:58.45Z</time></trkpt><trkpt lat="42.47299455330509" lon="12.723836245832782"><ele>939.0</ele><time>2026-04-26T12:49:59.45Z</time></trkpt><trkpt lat="42.473039543504115" lon="12.723763444598944"><ele>938.3333333333333</ele><time>2026-04-26T12:50:00.45Z</time></trkpt><trkpt lat="42.47308476705309" lon="12.723702347352775"><ele>937.6666666666666</ele><time>2026-04-26T12:50:01.45Z</time></trkpt><trkpt lat="42.473165853145616" lon="12.723572675999463"><ele>937.0</ele><time>2026-04-26T12:50:03.45Z</time></trkpt><trkpt lat="42.47321070177558" lon="12.723495371335941"><ele>936.6</ele><time>2026-04-26T12:50:04.449Z</time></trkpt><trkpt lat="42.47326217387979" lon="12.723407230478735"><ele>936.2</ele><time>2026-04-26T12:50:05.449Z</time></trkpt><trkpt lat="42.473318514286554" lon="12.723315597945968"><ele>935.8</ele><time>2026-04-26T12:50:06.449Z</time></trkpt><trkpt lat="42.47337466311445" lon="12.7232166420687"><ele>935.4</ele><time>2026-04-26T12:50:07.449Z</time></trkpt><trkpt lat="42.47341136230985" lon="12.723099367147066"><ele>935.0</ele><time>2026-04-26T12:50:08.449Z</time></trkpt><trkpt lat="42.473447305226586" lon="12.722956190087517"><ele>935.0</ele><time>2026-04-26T12:50:09.449Z</time></trkpt><trkpt lat="42.473471376581195" lon="12.72281514698457"><ele>935.0</ele><time>2026-04-26T12:50:10.449Z</time></trkpt><trkpt lat="42.47347840810285" lon="12.722659265148069"><ele>935.0</ele><time>2026-04-26T12:50:11.449Z</time></trkpt><trkpt lat="42.47348550078017" lon="12.722509178357015"><ele>935.0</ele><time>2026-04-26T12:50:12.449Z</time></trkpt><trkpt lat="42.47350799399891" lon="12.722363043430512"><ele>935.0</ele><time>2026-04-26T12:50:13.449Z</time></trkpt><trkpt lat="42.47354554480367" lon="12.722240245276096"><ele>934.6</ele><time>2026-04-26T12:50:14.449Z</time></trkpt><trkpt lat="42.473590025085635" lon="12.722135145144186"><ele>934.2</ele><time>2026-04-26T12:50:15.449Z</time></trkpt><trkpt lat="42.47363979651442" lon="12.722037033258129"><ele>933.8</ele><time>2026-04-26T12:50:16.449Z</time></trkpt><trkpt lat="42.47370272234595" lon="12.721941954854243"><ele>933.4</ele><time>2026-04-26T12:50:17.449Z</time></trkpt><trkpt lat="42.47376701126073" lon="12.721845369701935"><ele>933.0</ele><time>2026-04-26T12:50:18.449Z</time></trkpt><trkpt lat="42.473836434219876" lon="12.721744241711352"><ele>932.6666666666666</ele><time>2026-04-26T12:50:19.449Z</time></trkpt><trkpt lat="42.473901745267995" lon="12.721653328484457"><ele>932.3333333333333</ele><time>2026-04-26T12:50:20.449Z</time></trkpt><trkpt lat="42.47397388569125" lon="12.721584545295851"><ele>932.0</ele><time>2026-04-26T12:50:21.449Z</time></trkpt><trkpt lat="42.47404453144881" lon="12.721518228797882"><ele>931.6666666666666</ele><time>2026-04-26T12:50:22.449Z</time></trkpt><trkpt lat="42.474113390203996" lon="12.721435386943517"><ele>931.3333333333333</ele><time>2026-04-26T12:50:23.449Z</time></trkpt><trkpt lat="42.47417641457035" lon="12.721352912913973"><ele>931.0</ele><time>2026-04-26T12:50:24.448Z</time></trkpt><trkpt lat="42.47423353121975" lon="12.721274736502004"><ele>930.9999999999999</ele><time>2026-04-26T12:50:25.448Z</time></trkpt><trkpt lat="42.474297458192616" lon="12.721201111768552"><ele>931.0</ele><time>2026-04-26T12:50:26.448Z</time></trkpt><trkpt lat="42.47436369896809" lon="12.721134715955124"><ele>931.0</ele><time>2026-04-26T12:50:27.448Z</time></trkpt><trkpt lat="42.47442388299905" lon="12.721053612910623"><ele>931.0</ele><time>2026-04-26T12:50:28.448Z</time></trkpt><trkpt lat="42.47448509228351" lon="12.720974450563094"><ele>930.9999999999999</ele><time>2026-04-26T12:50:29.448Z</time></trkpt><trkpt lat="42.474532350382155" lon="12.720893232538323"><ele>931.0</ele><time>2026-04-26T12:50:30.448Z</time></trkpt><trkpt lat="42.474590667419136" lon="12.720807419983903"><ele>930.9999999999999</ele><time>2026-04-26T12:50:31.448Z</time></trkpt><trkpt lat="42.47464214900883" lon="12.720725740041095"><ele>931.0</ele><time>2026-04-26T12:50:32.448Z</time></trkpt><trkpt lat="42.4746859812987" lon="12.72062850857293"><ele>931.0</ele><time>2026-04-26T12:50:33.448Z</time></trkpt><trkpt lat="42.4747438431299" lon="12.720514922830398"><ele>931.0</ele><time>2026-04-26T12:50:34.448Z</time></trkpt><trkpt lat="42.47481327002559" lon="12.720427659713552"><ele>930.9999999999999</ele><time>2026-04-26T12:50:35.448Z</time></trkpt><trkpt lat="42.474871655481074" lon="12.720361113442742"><ele>931.0</ele><time>2026-04-26T12:50:36.448Z</time></trkpt><trkpt lat="42.47492831966856" lon="12.720288179772645"><ele>931.8333333333333</ele><time>2026-04-26T12:50:37.448Z</time></trkpt><trkpt lat="42.47497839309467" lon="12.720219172754248"><ele>932.6666666666666</ele><time>2026-04-26T12:50:38.448Z</time></trkpt><trkpt lat="42.47503377753185" lon="12.720148937307787"><ele>933.5</ele><time>2026-04-26T12:50:39.448Z</time></trkpt><trkpt lat="42.47508900910879" lon="12.720082573653976"><ele>934.3333333333333</ele><time>2026-04-26T12:50:40.448Z</time></trkpt><trkpt lat="42.4751440935806" lon="12.719999856017662"><ele>935.1666666666666</ele><time>2026-04-26T12:50:41.448Z</time></trkpt><trkpt lat="42.4751916412099" lon="12.7198928054932"><ele>936.0</ele><time>2026-04-26T12:50:42.448Z</time></trkpt><trkpt lat="42.47525418069199" lon="12.719787123921883"><ele>936.0</ele><time>2026-04-26T12:50:43.448Z</time></trkpt><trkpt lat="42.475319027333505" lon="12.71968102800079"><ele>935.9999999999999</ele><time>2026-04-26T12:50:44.447Z</time></trkpt><trkpt lat="42.47538036076666" lon="12.719564848086792"><ele>935.9999999999999</ele><time>2026-04-26T12:50:45.447Z</time></trkpt><trkpt lat="42.47545128346161" lon="12.719441649999984"><ele>936.0</ele><time>2026-04-26T12:50:46.447Z</time></trkpt><trkpt lat="42.475520918367636" lon="12.719320262556584"><ele>936.0</ele><time>2026-04-26T12:50:47.447Z</time></trkpt><trkpt lat="42.4755848971617" lon="12.719196846740713"><ele>936.0</ele><time>2026-04-26T12:50:48.447Z</time></trkpt><trkpt lat="42.47564243748242" lon="12.719103338741865"><ele>936.0</ele><time>2026-04-26T12:50:49.447Z</time></trkpt><trkpt lat="42.475702891803934" lon="12.719026803335815"><ele>936.0</ele><time>2026-04-26T12:50:50.447Z</time></trkpt><trkpt lat="42.47575920337697" lon="12.718952246945863"><ele>936.0</ele><time>2026-04-26T12:50:51.447Z</time></trkpt><trkpt lat="42.475812340548664" lon="12.71886714980234"><ele>936.0</ele><time>2026-04-26T12:50:52.447Z</time></trkpt><trkpt lat="42.47586270466186" lon="12.718785480064925"><ele>936.0</ele><time>2026-04-26T12:50:53.447Z</time></trkpt><trkpt lat="42.475915492309404" lon="12.718714313156264"><ele>936.0</ele><time>2026-04-26T12:50:54.447Z</time></trkpt><trkpt lat="42.4759859945798" lon="12.7186552392166"><ele>935.9999999999999</ele><time>2026-04-26T12:50:55.447Z</time></trkpt><trkpt lat="42.476119412034805" lon="12.718587219144057"><ele>935.9999999999999</ele><time>2026-04-26T12:50:57.447Z</time></trkpt><trkpt lat="42.476227746969016" lon="12.718546056869132"><ele>936.0</ele><time>2026-04-26T12:50:58.447Z</time></trkpt><trkpt lat="42.476316812407724" lon="12.718531624654801"><ele>936.0</ele><time>2026-04-26T12:50:59.447Z</time></trkpt><trkpt lat="42.47639682161289" lon="12.718534639360605"><ele>936.0</ele><time>2026-04-26T12:51:00.447Z</time></trkpt><trkpt lat="42.47647203899737" lon="12.718546483643976"><ele>936.0</ele><time>2026-04-26T12:51:01.447Z</time></trkpt><trkpt lat="42.47655889820398" lon="12.718593342070166"><ele>936.0</ele><time>2026-04-26T12:51:02.447Z</time></trkpt><trkpt lat="42.4766377086094" lon="12.718629392631437"><ele>936.0</ele><time>2026-04-26T12:51:03.446Z</time></trkpt><trkpt lat="42.4767231135434" lon="12.718618808732106"><ele>936.0</ele><time>2026-04-26T12:51:04.446Z</time></trkpt><trkpt lat="42.47680630635312" lon="12.71856922463785"><ele>936.0</ele><time>2026-04-26T12:51:05.446Z</time></trkpt><trkpt lat="42.476894562361295" lon="12.718493075193905"><ele>936.0</ele><time>2026-04-26T12:51:06.446Z</time></trkpt><trkpt lat="42.47698638440876" lon="12.718408836949115"><ele>935.9999999999999</ele><time>2026-04-26T12:51:07.446Z</time></trkpt><trkpt lat="42.477078969898194" lon="12.718322501414875"><ele>935.9999999999999</ele><time>2026-04-26T12:51:08.446Z</time></trkpt><trkpt lat="42.4771671620889" lon="12.718242003805928"><ele>936.0</ele><time>2026-04-26T12:51:09.446Z</time></trkpt><trkpt lat="42.47725579330065" lon="12.718160950159215"><ele>936.0</ele><time>2026-04-26T12:51:10.446Z</time></trkpt><trkpt lat="42.477338144055814" lon="12.718090791373358"><ele>937.1666666666666</ele><time>2026-04-26T12:51:11.446Z</time></trkpt><trkpt lat="42.47740346604497" lon="12.718035042394378"><ele>938.3333333333333</ele><time>2026-04-26T12:51:12.446Z</time></trkpt><trkpt lat="42.477467292516785" lon="12.717981215857318"><ele>939.5</ele><time>2026-04-26T12:51:13.446Z</time></trkpt><trkpt lat="42.477541854554346" lon="12.717921143697186"><ele>940.6666666666666</ele><time>2026-04-26T12:51:14.446Z</time></trkpt><trkpt lat="42.47762108847157" lon="12.71786741307907"><ele>941.8333333333333</ele><time>2026-04-26T12:51:15.446Z</time></trkpt><trkpt lat="42.47770337101801" lon="12.717816800944796"><ele>943.0</ele><time>2026-04-26T12:51:16.446Z</time></trkpt><trkpt lat="42.477789666166366" lon="12.717785267779805"><ele>943.0</ele><time>2026-04-26T12:51:17.446Z</time></trkpt><trkpt lat="42.47789393783551" lon="12.717760552554582"><ele>943.0</ele><time>2026-04-26T12:51:18.446Z</time></trkpt><trkpt lat="42.478000373557535" lon="12.717737339441346"><ele>943.0</ele><time>2026-04-26T12:51:19.446Z</time></trkpt><trkpt lat="42.478113086396455" lon="12.71773132615796"><ele>943.0</ele><time>2026-04-26T12:51:20.446Z</time></trkpt><trkpt lat="42.4782187848047" lon="12.717718379258425"><ele>943.0</ele><time>2026-04-26T12:51:21.446Z</time></trkpt><trkpt lat="42.47831270982152" lon="12.71770700654215"><ele>942.4999999999999</ele><time>2026-04-26T12:51:22.446Z</time></trkpt><trkpt lat="42.4784065210882" lon="12.717697612212595"><ele>942.0</ele><time>2026-04-26T12:51:23.445Z</time></trkpt><trkpt lat="42.47849003102047" lon="12.717688235664248"><ele>941.5</ele><time>2026-04-26T12:51:24.445Z</time></trkpt><trkpt lat="42.47858206692958" lon="12.71768674284045"><ele>941.0</ele><time>2026-04-26T12:51:25.445Z</time></trkpt><trkpt lat="42.478664347326216" lon="12.717687331391286"><ele>940.4999999999999</ele><time>2026-04-26T12:51:26.445Z</time></trkpt><trkpt lat="42.478737105485486" lon="12.71767166559138"><ele>940.0</ele><time>2026-04-26T12:51:27.445Z</time></trkpt><trkpt lat="42.47880157977283" lon="12.717654341563552"><ele>939.3333333333333</ele><time>2026-04-26T12:51:28.445Z</time></trkpt><trkpt lat="42.47890071350227" lon="12.71760158056323"><ele>938.6666666666666</ele><time>2026-04-26T12:51:30.445Z</time></trkpt><trkpt lat="42.478964099452874" lon="12.717578876084769"><ele>938.0</ele><time>2026-04-26T12:51:31.445Z</time></trkpt><trkpt lat="42.479033130497996" lon="12.717551280047296"><ele>937.3333333333333</ele><time>2026-04-26T12:51:32.445Z</time></trkpt><trkpt lat="42.47910993622826" lon="12.717529997160023"><ele>936.6666666666666</ele><time>2026-04-26T12:51:33.445Z</time></trkpt><trkpt lat="42.479183693761435" lon="12.717509455447065"><ele>936.0</ele><time>2026-04-26T12:51:34.445Z</time></trkpt><trkpt lat="42.47927020169345" lon="12.717493388492818"><ele>936.0</ele><time>2026-04-26T12:51:35.445Z</time></trkpt><trkpt lat="42.479367778304024" lon="12.71747072020783"><ele>935.9999999999999</ele><time>2026-04-26T12:51:36.445Z</time></trkpt><trkpt lat="42.47947654210469" lon="12.717440320806427"><ele>935.9999999999999</ele><time>2026-04-26T12:51:37.447Z</time></trkpt><trkpt lat="42.47958254615238" lon="12.717410625292162"><ele>936.0</ele><time>2026-04-26T12:51:38.446Z</time></trkpt><trkpt lat="42.47968492951747" lon="12.717382953235733"><ele>936.0</ele><time>2026-04-26T12:51:39.446Z</time></trkpt><trkpt lat="42.47977946604454" lon="12.717342760465476"><ele>934.8333333333334</ele><time>2026-04-26T12:51:40.446Z</time></trkpt><trkpt lat="42.479862049186906" lon="12.717315957589362"><ele>933.6666666666667</ele><time>2026-04-26T12:51:41.446Z</time></trkpt><trkpt lat="42.47993892660213" lon="12.717277377585399"><ele>932.5</ele><time>2026-04-26T12:51:42.446Z</time></trkpt><trkpt lat="42.4800074474811" lon="12.717244673516891"><ele>931.3333333333334</ele><time>2026-04-26T12:51:43.445Z</time></trkpt><trkpt lat="42.48007458127827" lon="12.717235583788712"><ele>930.1666666666667</ele><time>2026-04-26T12:51:44.445Z</time></trkpt><trkpt lat="42.48019639566318" lon="12.717237799604128"><ele>929.0</ele><time>2026-04-26T12:51:46.445Z</time></trkpt><trkpt lat="42.48030211401328" lon="12.717297850828539"><ele>929.0000000000001</ele><time>2026-04-26T12:51:48.446Z</time></trkpt><trkpt lat="42.48039052926858" lon="12.7173087041164"><ele>929.0</ele><time>2026-04-26T12:51:49.446Z</time></trkpt><trkpt lat="42.4804675188968" lon="12.717279451803673"><ele>929.0</ele><time>2026-04-26T12:51:50.446Z</time></trkpt><trkpt lat="42.48053146803427" lon="12.717214041969376"><ele>929.0</ele><time>2026-04-26T12:51:51.446Z</time></trkpt><trkpt lat="42.48057120046826" lon="12.717106979526797"><ele>929.0000000000001</ele><time>2026-04-26T12:51:52.446Z</time></trkpt><trkpt lat="42.48061515449545" lon="12.716976742739051"><ele>929.0</ele><time>2026-04-26T12:51:53.446Z</time></trkpt><trkpt lat="42.48066590692324" lon="12.71684499407081"><ele>926.0</ele><time>2026-04-26T12:51:54.445Z</time></trkpt><trkpt lat="42.4807102553093" lon="12.716718477467992"><ele>923.0000000000001</ele><time>2026-04-26T12:51:55.445Z</time></trkpt><trkpt lat="42.4807736471561" lon="12.716600049726125"><ele>920.0000000000001</ele><time>2026-04-26T12:51:56.445Z</time></trkpt><trkpt lat="42.48084708479678" lon="12.716483623489738"><ele>917.0</ele><time>2026-04-26T12:51:57.445Z</time></trkpt><trkpt lat="42.48093556359277" lon="12.716381771856025"><ele>914.0</ele><time>2026-04-26T12:51:58.445Z</time></trkpt><trkpt lat="42.48102029886491" lon="12.716287030879663"><ele>914.0</ele><time>2026-04-26T12:51:59.445Z</time></trkpt><trkpt lat="42.48108724070277" lon="12.71618740468091"><ele>914.0000000000001</ele><time>2026-04-26T12:52:00.445Z</time></trkpt><trkpt lat="42.48117384456474" lon="12.716096639945254"><ele>914.0000000000001</ele><time>2026-04-26T12:52:01.445Z</time></trkpt><trkpt lat="42.48124945182373" lon="12.715993586949745"><ele>914.0</ele><time>2026-04-26T12:52:02.445Z</time></trkpt><trkpt lat="42.481313776313236" lon="12.715885249602627"><ele>914.0</ele><time>2026-04-26T12:52:03.445Z</time></trkpt><trkpt lat="42.48137380907425" lon="12.715774944976637"><ele>913.2</ele><time>2026-04-26T12:52:04.445Z</time></trkpt><trkpt lat="42.48144884648901" lon="12.715658758971234"><ele>912.4000000000001</ele><time>2026-04-26T12:52:05.445Z</time></trkpt><trkpt lat="42.481507672769666" lon="12.71557278047066"><ele>911.6</ele><time>2026-04-26T12:52:06.445Z</time></trkpt><trkpt lat="42.48157898147601" lon="12.715488283395105"><ele>910.8</ele><time>2026-04-26T12:52:08.445Z</time></trkpt><trkpt lat="42.481647557564415" lon="12.715397487865271"><ele>910.0</ele><time>2026-04-26T12:52:10.445Z</time></trkpt><trkpt lat="42.481738668816405" lon="12.715291616417685"><ele>909.8</ele><time>2026-04-26T12:52:12.445Z</time></trkpt><trkpt lat="42.481814324782135" lon="12.71520807085336"><ele>909.6</ele><time>2026-04-26T12:52:14.444Z</time></trkpt><trkpt lat="42.48187178570361" lon="12.71512025867505"><ele>909.4000000000001</ele><time>2026-04-26T12:52:17.444Z</time></trkpt><trkpt lat="42.48193340092146" lon="12.714997699222357"><ele>909.2</ele><time>2026-04-26T12:52:19.444Z</time></trkpt><trkpt lat="42.48197027072118" lon="12.714896097886987"><ele>909.0</ele><time>2026-04-26T12:52:20.444Z</time></trkpt><trkpt lat="42.48202333247768" lon="12.714807652823662"><ele>909.0</ele><time>2026-04-26T12:52:21.444Z</time></trkpt><trkpt lat="42.48208067032976" lon="12.714725431162393"><ele>909.0000000000001</ele><time>2026-04-26T12:52:22.444Z</time></trkpt><trkpt lat="42.482161965548066" lon="12.714632550900996"><ele>909.0000000000001</ele><time>2026-04-26T12:52:23.444Z</time></trkpt><trkpt lat="42.4822441872105" lon="12.714560270035012"><ele>909.0</ele><time>2026-04-26T12:52:24.444Z</time></trkpt><trkpt lat="42.48235250284514" lon="12.714504323936598"><ele>909.0</ele><time>2026-04-26T12:52:25.444Z</time></trkpt><trkpt lat="42.48248569238492" lon="12.714486604029917"><ele>909.0</ele><time>2026-04-26T12:52:26.444Z</time></trkpt><trkpt lat="42.48261866610176" lon="12.714491762430942"><ele>909.0000000000001</ele><time>2026-04-26T12:52:27.444Z</time></trkpt><trkpt lat="42.48272242597966" lon="12.7144889809859"><ele>909.0000000000001</ele><time>2026-04-26T12:52:28.444Z</time></trkpt><trkpt lat="42.482813885397846" lon="12.714475179021353"><ele>909.0</ele><time>2026-04-26T12:52:29.444Z</time></trkpt><trkpt lat="42.482906891418665" lon="12.714438763656103"><ele>909.0</ele><time>2026-04-26T12:52:30.444Z</time></trkpt><trkpt lat="42.48300130717107" lon="12.714388526199917"><ele>908.0</ele><time>2026-04-26T12:52:31.444Z</time></trkpt><trkpt lat="42.48311141930054" lon="12.714306915932795"><ele>907.0</ele><time>2026-04-26T12:52:32.444Z</time></trkpt><trkpt lat="42.48323340874422" lon="12.714211267560744"><ele>906.0</ele><time>2026-04-26T12:52:33.443Z</time></trkpt><trkpt lat="42.4833369616284" lon="12.714069850324682"><ele>905.0</ele><time>2026-04-26T12:52:34.443Z</time></trkpt><trkpt lat="42.4834257207531" lon="12.713883224182325"><ele>905.0</ele><time>2026-04-26T12:52:35.443Z</time></trkpt><trkpt lat="42.48350921295142" lon="12.713687670377787"><ele>905.0</ele><time>2026-04-26T12:52:36.443Z</time></trkpt><trkpt lat="42.48359116981638" lon="12.713488970214073"><ele>905.0</ele><time>2026-04-26T12:52:37.443Z</time></trkpt><trkpt lat="42.48366166306416" lon="12.713276231244459"><ele>905.3333333333334</ele><time>2026-04-26T12:52:38.443Z</time></trkpt><trkpt lat="42.483728263412225" lon="12.713073580729779"><ele>905.6666666666667</ele><time>2026-04-26T12:52:39.443Z</time></trkpt><trkpt lat="42.483800714703406" lon="12.712866503266318"><ele>906.0</ele><time>2026-04-26T12:52:40.443Z</time></trkpt><trkpt lat="42.48387233968034" lon="12.712654051831132"><ele>905.3333333333333</ele><time>2026-04-26T12:52:41.443Z</time></trkpt><trkpt lat="42.48395163481333" lon="12.712435781443615"><ele>904.6666666666666</ele><time>2026-04-26T12:52:42.443Z</time></trkpt><trkpt lat="42.484040343588944" lon="12.712229551684157"><ele>904.0</ele><time>2026-04-26T12:52:43.443Z</time></trkpt><trkpt lat="42.48414221252957" lon="12.71204122321565"><ele>904.3333333333333</ele><time>2026-04-26T12:52:44.443Z</time></trkpt><trkpt lat="42.48425042684815" lon="12.71185409922675"><ele>904.6666666666667</ele><time>2026-04-26T12:52:45.443Z</time></trkpt><trkpt lat="42.484375683127375" lon="12.711655320006958"><ele>905.0</ele><time>2026-04-26T12:52:46.443Z</time></trkpt><trkpt lat="42.4844938116846" lon="12.711482677239227"><ele>906.6666666666667</ele><time>2026-04-26T12:52:47.443Z</time></trkpt><trkpt lat="42.48461279912568" lon="12.711313986711405"><ele>908.3333333333333</ele><time>2026-04-26T12:52:48.443Z</time></trkpt><trkpt lat="42.48473937688189" lon="12.711154152374506"><ele>910.0</ele><time>2026-04-26T12:52:49.443Z</time></trkpt><trkpt lat="42.484856370551825" lon="12.710995034546215"><ele>910.0</ele><time>2026-04-26T12:52:50.443Z</time></trkpt><trkpt lat="42.48497711479009" lon="12.710846644041226"><ele>910.0</ele><time>2026-04-26T12:52:51.443Z</time></trkpt><trkpt lat="42.484629825413" lon="12.71040998359775"><ele>909.25</ele><time>2026-04-26T12:52:52.443Z</time></trkpt><trkpt lat="42.48467605494482" lon="12.710220280768924"><ele>908.5</ele><time>2026-04-26T12:52:53.442Z</time></trkpt><trkpt lat="42.48470269500421" lon="12.710026770119049"><ele>907.75</ele><time>2026-04-26T12:52:54.442Z</time></trkpt><trkpt lat="42.48469655661722" lon="12.709833040694562"><ele>907.0</ele><time>2026-04-26T12:52:55.442Z</time></trkpt><trkpt lat="42.48466980550969" lon="12.709628087214812"><ele>907.0</ele><time>2026-04-26T12:52:56.442Z</time></trkpt><trkpt lat="42.484610190234655" lon="12.709426214775236"><ele>907.0</ele><time>2026-04-26T12:52:57.442Z</time></trkpt><trkpt lat="42.48453906388514" lon="12.709212749071876"><ele>907.0</ele><time>2026-04-26T12:52:58.442Z</time></trkpt><trkpt lat="42.48445960267333" lon="12.708997860694872"><ele>906.0</ele><time>2026-04-26T12:52:59.442Z</time></trkpt><trkpt lat="42.484378045093585" lon="12.708779772025201"><ele>905.0</ele><time>2026-04-26T12:53:00.442Z</time></trkpt><trkpt lat="42.4843012449349" lon="12.708552326564623"><ele>904.0</ele><time>2026-04-26T12:53:01.442Z</time></trkpt><trkpt lat="42.484229839712356" lon="12.708340618638625"><ele>903.6666666666666</ele><time>2026-04-26T12:53:02.442Z</time></trkpt><trkpt lat="42.484163030281714" lon="12.708133081613646"><ele>903.3333333333333</ele><time>2026-04-26T12:53:03.442Z</time></trkpt><trkpt lat="42.484099395034974" lon="12.707930485767335"><ele>903.0</ele><time>2026-04-26T12:53:04.442Z</time></trkpt><trkpt lat="42.48403686454836" lon="12.707727417962422"><ele>903.0</ele><time>2026-04-26T12:53:05.442Z</time></trkpt><trkpt lat="42.48397001305026" lon="12.707528215248702"><ele>903.0</ele><time>2026-04-26T12:53:06.442Z</time></trkpt><trkpt lat="42.483912593880675" lon="12.707323171796517"><ele>903.0</ele><time>2026-04-26T12:53:07.442Z</time></trkpt><trkpt lat="42.48385009714507" lon="12.707114070254883"><ele>903.6666666666667</ele><time>2026-04-26T12:53:08.442Z</time></trkpt><trkpt lat="42.48378652169461" lon="12.706901018154309"><ele>904.3333333333334</ele><time>2026-04-26T12:53:09.442Z</time></trkpt><trkpt lat="42.48373120125348" lon="12.706683201029435"><ele>905.0</ele><time>2026-04-26T12:53:10.442Z</time></trkpt><trkpt lat="42.48367270201149" lon="12.706474459830142"><ele>905.6666666666667</ele><time>2026-04-26T12:53:11.442Z</time></trkpt><trkpt lat="42.48361358527871" lon="12.706265630845065"><ele>906.3333333333333</ele><time>2026-04-26T12:53:12.442Z</time></trkpt><trkpt lat="42.48356911284125" lon="12.706065851461773"><ele>907.0</ele><time>2026-04-26T12:53:13.441Z</time></trkpt><trkpt lat="42.48352506171129" lon="12.705876088997197"><ele>907.0</ele><time>2026-04-26T12:53:14.441Z</time></trkpt><trkpt lat="42.48349152771109" lon="12.70568772655019"><ele>907.0</ele><time>2026-04-26T12:53:15.441Z</time></trkpt><trkpt lat="42.48342350431294" lon="12.7054875669354"><ele>907.0</ele><time>2026-04-26T12:53:16.441Z</time></trkpt><trkpt lat="42.4833291799132" lon="12.705316284499524"><ele>907.0</ele><time>2026-04-26T12:53:17.441Z</time></trkpt><trkpt lat="42.483228194832826" lon="12.705158556211034"><ele>907.0</ele><time>2026-04-26T12:53:18.441Z</time></trkpt><trkpt lat="42.48314082399271" lon="12.70500977875319"><ele>907.0</ele><time>2026-04-26T12:53:19.441Z</time></trkpt><trkpt lat="42.48307240072965" lon="12.70482689385722"><ele>907.0</ele><time>2026-04-26T12:53:20.441Z</time></trkpt><trkpt lat="42.48303797639885" lon="12.704633332474456"><ele>907.0</ele><time>2026-04-26T12:53:21.441Z</time></trkpt><trkpt lat="42.48301981012427" lon="12.704439399332315"><ele>907.0</ele><time>2026-04-26T12:53:22.441Z</time></trkpt><trkpt lat="42.48300897919811" lon="12.704272176420124"><ele>907.0</ele><time>2026-04-26T12:53:23.441Z</time></trkpt><trkpt lat="42.483017991066376" lon="12.704114472664072"><ele>907.0</ele><time>2026-04-26T12:53:24.441Z</time></trkpt><trkpt lat="42.48308162639993" lon="12.703976824813086"><ele>906.25</ele><time>2026-04-26T12:53:25.441Z</time></trkpt><trkpt lat="42.48319535022848" lon="12.703878448598585"><ele>905.5</ele><time>2026-04-26T12:53:26.441Z</time></trkpt><trkpt lat="42.48332245635658" lon="12.703818262855709"><ele>904.75</ele><time>2026-04-26T12:53:27.441Z</time></trkpt><trkpt lat="42.48342656185173" lon="12.70376658168672"><ele>904.0</ele><time>2026-04-26T12:53:28.441Z</time></trkpt><trkpt lat="42.48351511501781" lon="12.703701186152264"><ele>903.0</ele><time>2026-04-26T12:53:29.441Z</time></trkpt><trkpt lat="42.48356750021446" lon="12.703567615044587"><ele>902.0</ele><time>2026-04-26T12:53:30.441Z</time></trkpt><trkpt lat="42.48358461825945" lon="12.7033880051819"><ele>901.0</ele><time>2026-04-26T12:53:31.441Z</time></trkpt><trkpt lat="42.48357225246642" lon="12.703199753332607"><ele>900.0</ele><time>2026-04-26T12:53:32.44Z</time></trkpt><trkpt lat="42.483543319593515" lon="12.703029676411614"><ele>900.0</ele><time>2026-04-26T12:53:33.44Z</time></trkpt><trkpt lat="42.48350172394674" lon="12.702873459830638"><ele>900.0</ele><time>2026-04-26T12:53:34.44Z</time></trkpt><trkpt lat="42.48342149714184" lon="12.702728289437445"><ele>900.0</ele><time>2026-04-26T12:53:35.44Z</time></trkpt><trkpt lat="42.48331523568476" lon="12.702594723889238"><ele>900.0</ele><time>2026-04-26T12:53:36.44Z</time></trkpt><trkpt lat="42.48320649642946" lon="12.702495375424839"><ele>897.0</ele><time>2026-04-26T12:53:37.44Z</time></trkpt><trkpt lat="42.483114605372705" lon="12.702354931179771"><ele>894.0</ele><time>2026-04-26T12:53:38.44Z</time></trkpt><trkpt lat="42.48304693813987" lon="12.702190525951984"><ele>891.0</ele><time>2026-04-26T12:53:39.44Z</time></trkpt><trkpt lat="42.48299728742424" lon="12.701991079688913"><ele>888.0</ele><time>2026-04-26T12:53:40.44Z</time></trkpt><trkpt lat="42.48295546180759" lon="12.701793398703105"><ele>893.75</ele><time>2026-04-26T12:53:41.44Z</time></trkpt><trkpt lat="42.4829207468053" lon="12.701617265786492"><ele>899.5</ele><time>2026-04-26T12:53:42.44Z</time></trkpt><trkpt lat="42.482893783928645" lon="12.701420232976798"><ele>905.25</ele><time>2026-04-26T12:53:43.441Z</time></trkpt><trkpt lat="42.482887067513" lon="12.701209542350046"><ele>911.0</ele><time>2026-04-26T12:53:44.441Z</time></trkpt><trkpt lat="42.48289842105473" lon="12.700984982241584"><ele>901.0</ele><time>2026-04-26T12:53:45.441Z</time></trkpt><trkpt lat="42.482938871991685" lon="12.700759813586586"><ele>891.0</ele><time>2026-04-26T12:53:46.441Z</time></trkpt><trkpt lat="42.48300150381295" lon="12.700520768375483"><ele>881.0</ele><time>2026-04-26T12:53:47.44Z</time></trkpt><trkpt lat="42.483039968625334" lon="12.700285729834416"><ele>876.6666666666667</ele><time>2026-04-26T12:53:48.44Z</time></trkpt><trkpt lat="42.48308971311617" lon="12.700055047444796"><ele>872.3333333333333</ele><time>2026-04-26T12:53:49.44Z</time></trkpt><trkpt lat="42.48315470936901" lon="12.699840704874742"><ele>868.0</ele><time>2026-04-26T12:53:50.44Z</time></trkpt><trkpt lat="42.48324188448215" lon="12.699605059563979"><ele>867.3333333333333</ele><time>2026-04-26T12:53:51.44Z</time></trkpt><trkpt lat="42.48335795328084" lon="12.699382900458664"><ele>866.6666666666667</ele><time>2026-04-26T12:53:52.44Z</time></trkpt><trkpt lat="42.48347703437881" lon="12.699177801188089"><ele>866.0</ele><time>2026-04-26T12:53:53.44Z</time></trkpt><trkpt lat="42.48358813610253" lon="12.698980378274534"><ele>866.0</ele><time>2026-04-26T12:53:54.44Z</time></trkpt><trkpt lat="42.483691194321985" lon="12.698783407778718"><ele>866.0</ele><time>2026-04-26T12:53:55.44Z</time></trkpt><trkpt lat="42.48378191061557" lon="12.698575847112506"><ele>866.0</ele><time>2026-04-26T12:53:56.44Z</time></trkpt><trkpt lat="42.48386268229024" lon="12.698371735041848"><ele>859.0</ele><time>2026-04-26T12:53:57.44Z</time></trkpt><trkpt lat="42.48396592549716" lon="12.69817717201148"><ele>852.0</ele><time>2026-04-26T12:53:58.44Z</time></trkpt><trkpt lat="42.484102196862196" lon="12.698007259468634"><ele>845.0</ele><time>2026-04-26T12:53:59.44Z</time></trkpt><trkpt lat="42.48427091030403" lon="12.697847730466249"><ele>844.6666666666667</ele><time>2026-04-26T12:54:00.44Z</time></trkpt><trkpt lat="42.48444510538757" lon="12.6976999665047"><ele>844.3333333333333</ele><time>2026-04-26T12:54:01.44Z</time></trkpt><trkpt lat="42.48460159008263" lon="12.697564822129376"><ele>844.0</ele><time>2026-04-26T12:54:02.44Z</time></trkpt><trkpt lat="42.48474679352228" lon="12.697420132712308"><ele>844.0</ele><time>2026-04-26T12:54:03.44Z</time></trkpt><trkpt lat="42.48488859209487" lon="12.697276654049569"><ele>844.0</ele><time>2026-04-26T12:54:04.439Z</time></trkpt><trkpt lat="42.48503067516235" lon="12.697129117067668"><ele>844.0</ele><time>2026-04-26T12:54:05.439Z</time></trkpt><trkpt lat="42.48517273326068" lon="12.69696273182491"><ele>844.6666666666666</ele><time>2026-04-26T12:54:06.439Z</time></trkpt><trkpt lat="42.48531051554072" lon="12.696773811581544"><ele>845.3333333333333</ele><time>2026-04-26T12:54:07.439Z</time></trkpt><trkpt lat="42.48544128163959" lon="12.69657650841212"><ele>846.0</ele><time>2026-04-26T12:54:08.439Z</time></trkpt><trkpt lat="42.48556913024804" lon="12.696383387358665"><ele>846.0</ele><time>2026-04-26T12:54:09.439Z</time></trkpt><trkpt lat="42.48569584428335" lon="12.696193518833981"><ele>846.0</ele><time>2026-04-26T12:54:10.439Z</time></trkpt><trkpt lat="42.48582351439944" lon="12.695999877853007"><ele>846.0</ele><time>2026-04-26T12:54:11.439Z</time></trkpt><trkpt lat="42.485944246767225" lon="12.695804755947837"><ele>846.3333333333333</ele><time>2026-04-26T12:54:12.439Z</time></trkpt><trkpt lat="42.48604759775249" lon="12.695633401919189"><ele>846.6666666666666</ele><time>2026-04-26T12:54:13.439Z</time></trkpt><trkpt lat="42.48616726541476" lon="12.695460526878627"><ele>847.0</ele><time>2026-04-26T12:54:14.439Z</time></trkpt><trkpt lat="42.486275578776336" lon="12.695279162952163"><ele>844.3333333333333</ele><time>2026-04-26T12:54:15.439Z</time></trkpt><trkpt lat="42.4863770336711" lon="12.695079651502095"><ele>841.6666666666667</ele><time>2026-04-26T12:54:16.439Z</time></trkpt><trkpt lat="42.48645047958507" lon="12.694853727536518"><ele>839.0</ele><time>2026-04-26T12:54:17.439Z</time></trkpt><trkpt lat="42.48653843733757" lon="12.694633379166012"><ele>839.0</ele><time>2026-04-26T12:54:18.439Z</time></trkpt><trkpt lat="42.486630458527934" lon="12.694423593004693"><ele>839.0</ele><time>2026-04-26T12:54:19.439Z</time></trkpt><trkpt lat="42.48672123463724" lon="12.694208703508451"><ele>839.0</ele><time>2026-04-26T12:54:20.439Z</time></trkpt><trkpt lat="42.48682444111307" lon="12.694009000390084"><ele>840.3333333333334</ele><time>2026-04-26T12:54:21.439Z</time></trkpt><trkpt lat="42.48691134702728" lon="12.693821168979744"><ele>841.6666666666667</ele><time>2026-04-26T12:54:22.439Z</time></trkpt><trkpt lat="42.48699856790951" lon="12.693640082229138"><ele>843.0</ele><time>2026-04-26T12:54:23.439Z</time></trkpt><trkpt lat="42.487100749707366" lon="12.693450053893082"><ele>840.0</ele><time>2026-04-26T12:54:24.438Z</time></trkpt><trkpt lat="42.487191572303566" lon="12.693261359222639"><ele>837.0</ele><time>2026-04-26T12:54:25.438Z</time></trkpt><trkpt lat="42.487277698749" lon="12.693079896450529"><ele>834.0</ele><time>2026-04-26T12:54:26.438Z</time></trkpt><trkpt lat="42.48734548153606" lon="12.692866520457624"><ele>833.6666666666667</ele><time>2026-04-26T12:54:27.438Z</time></trkpt><trkpt lat="42.487379286144616" lon="12.692629268627103"><ele>833.3333333333334</ele><time>2026-04-26T12:54:28.438Z</time></trkpt><trkpt lat="42.4873927027404" lon="12.69237272608085"><ele>833.0</ele><time>2026-04-26T12:54:29.438Z</time></trkpt><trkpt lat="42.48739502130232" lon="12.692112139647987"><ele>833.0</ele><time>2026-04-26T12:54:30.438Z</time></trkpt><trkpt lat="42.48740406131227" lon="12.69188373848861"><ele>833.0</ele><time>2026-04-26T12:54:31.438Z</time></trkpt><trkpt lat="42.48741431361017" lon="12.691667332609914"><ele>833.0</ele><time>2026-04-26T12:54:32.438Z</time></trkpt><trkpt lat="42.4874319659098" lon="12.69147449185071"><ele>833.0</ele><time>2026-04-26T12:54:33.438Z</time></trkpt><trkpt lat="42.48742416678477" lon="12.691324038121758"><ele>833.0</ele><time>2026-04-26T12:54:34.438Z</time></trkpt><trkpt lat="42.48738155090666" lon="12.691176806319806"><ele>833.0</ele><time>2026-04-26T12:54:35.438Z</time></trkpt><trkpt lat="42.4872890937706" lon="12.691018333540315"><ele>833.0</ele><time>2026-04-26T12:54:36.438Z</time></trkpt><trkpt lat="42.487201977732944" lon="12.690859660272636"><ele>832.3333333333334</ele><time>2026-04-26T12:54:37.438Z</time></trkpt><trkpt lat="42.48715021700743" lon="12.690667724530506"><ele>831.6666666666667</ele><time>2026-04-26T12:54:38.438Z</time></trkpt><trkpt lat="42.487113319437086" lon="12.69047058026875"><ele>831.0</ele><time>2026-04-26T12:54:39.438Z</time></trkpt><trkpt lat="42.487090286609465" lon="12.690247925963252"><ele>838.75</ele><time>2026-04-26T12:54:40.438Z</time></trkpt><trkpt lat="42.48704737798958" lon="12.690040659185652"><ele>846.5</ele><time>2026-04-26T12:54:41.438Z</time></trkpt><trkpt lat="42.48701507282584" lon="12.689851699243313"><ele>854.25</ele><time>2026-04-26T12:54:42.438Z</time></trkpt><trkpt lat="42.486985513553186" lon="12.689679738285276"><ele>862.0</ele><time>2026-04-26T12:54:43.438Z</time></trkpt><trkpt lat="42.48697861329613" lon="12.68950956901664"><ele>859.25</ele><time>2026-04-26T12:54:44.437Z</time></trkpt><trkpt lat="42.487024110906646" lon="12.689333606844423"><ele>856.5</ele><time>2026-04-26T12:54:45.437Z</time></trkpt><trkpt lat="42.487101643869906" lon="12.689153552400665"><ele>853.75</ele><time>2026-04-26T12:54:46.437Z</time></trkpt><trkpt lat="42.48719347970399" lon="12.68901735381161"><ele>851.0</ele><time>2026-04-26T12:54:47.437Z</time></trkpt><trkpt lat="42.48726362593289" lon="12.68886745708616"><ele>845.75</ele><time>2026-04-26T12:54:48.437Z</time></trkpt><trkpt lat="42.487305567018176" lon="12.688710043566799"><ele>840.5</ele><time>2026-04-26T12:54:49.437Z</time></trkpt><trkpt lat="42.48730741132755" lon="12.6885223914175"><ele>835.25</ele><time>2026-04-26T12:54:50.437Z</time></trkpt><trkpt lat="42.48726361389005" lon="12.68833338190727"><ele>830.0</ele><time>2026-04-26T12:54:51.437Z</time></trkpt><trkpt lat="42.48719262558066" lon="12.688130804795696"><ele>829.3333333333334</ele><time>2026-04-26T12:54:52.437Z</time></trkpt><trkpt lat="42.487093704843545" lon="12.687932511374392"><ele>828.6666666666667</ele><time>2026-04-26T12:54:53.437Z</time></trkpt><trkpt lat="42.48697257927992" lon="12.687734003553688"><ele>828.0</ele><time>2026-04-26T12:54:54.437Z</time></trkpt><trkpt lat="42.486846473302606" lon="12.687523719973978"><ele>828.0</ele><time>2026-04-26T12:54:55.437Z</time></trkpt><trkpt lat="42.4867267134263" lon="12.687322859505722"><ele>828.0</ele><time>2026-04-26T12:54:56.437Z</time></trkpt><trkpt lat="42.486610365983466" lon="12.687127320430262"><ele>828.0</ele><time>2026-04-26T12:54:57.437Z</time></trkpt><trkpt lat="42.486504496344494" lon="12.68693239796163"><ele>827.25</ele><time>2026-04-26T12:54:58.437Z</time></trkpt><trkpt lat="42.486396608502304" lon="12.686760678409986"><ele>826.5</ele><time>2026-04-26T12:54:59.437Z</time></trkpt><trkpt lat="42.486309270546194" lon="12.686603986066789"><ele>825.75</ele><time>2026-04-26T12:55:00.437Z</time></trkpt><trkpt lat="42.48624784785374" lon="12.686469774032082"><ele>825.0</ele><time>2026-04-26T12:55:01.437Z</time></trkpt><trkpt lat="42.4861650238344" lon="12.686365763678213"><ele>825.0</ele><time>2026-04-26T12:55:02.437Z</time></trkpt><trkpt lat="42.48605174347405" lon="12.686299103747205"><ele>825.0</ele><time>2026-04-26T12:55:03.436Z</time></trkpt><trkpt lat="42.4858944787257" lon="12.686297355338251"><ele>825.0</ele><time>2026-04-26T12:55:04.436Z</time></trkpt><trkpt lat="42.485727951237024" lon="12.686338728041978"><ele>825.0</ele><time>2026-04-26T12:55:05.436Z</time></trkpt><trkpt lat="42.4855553471991" lon="12.686405566342703"><ele>825.0</ele><time>2026-04-26T12:55:06.436Z</time></trkpt><trkpt lat="42.48538697535042" lon="12.686462676326704"><ele>825.0</ele><time>2026-04-26T12:55:07.436Z</time></trkpt><trkpt lat="42.48520971204264" lon="12.686496801654128"><ele>822.6666666666667</ele><time>2026-04-26T12:55:08.436Z</time></trkpt><trkpt lat="42.48504192980731" lon="12.68651863623993"><ele>820.3333333333334</ele><time>2026-04-26T12:55:09.436Z</time></trkpt><trkpt lat="42.48488625038785" lon="12.686552280971952"><ele>818.0</ele><time>2026-04-26T12:55:10.436Z</time></trkpt><trkpt lat="42.48474408987654" lon="12.686631520010552"><ele>818.0</ele><time>2026-04-26T12:55:11.436Z</time></trkpt><trkpt lat="42.48462618562593" lon="12.686745752513543"><ele>818.0</ele><time>2026-04-26T12:55:12.436Z</time></trkpt><trkpt lat="42.48452359985482" lon="12.68687928246427"><ele>818.0</ele><time>2026-04-26T12:55:13.436Z</time></trkpt><trkpt lat="42.484445077113946" lon="12.687055194399134"><ele>818.0</ele><time>2026-04-26T12:55:14.436Z</time></trkpt><trkpt lat="42.48436812462568" lon="12.687265105674403"><ele>818.75</ele><time>2026-04-26T12:55:15.436Z</time></trkpt><trkpt lat="42.4842929573617" lon="12.687457800612272"><ele>819.5</ele><time>2026-04-26T12:55:16.436Z</time></trkpt><trkpt lat="42.48422018600524" lon="12.687625880423731"><ele>820.25</ele><time>2026-04-26T12:55:17.436Z</time></trkpt><trkpt lat="42.48415055108931" lon="12.687766152856273"><ele>821.0</ele><time>2026-04-26T12:55:18.436Z</time></trkpt><trkpt lat="42.484095231106245" lon="12.68788181282687"><ele>826.0</ele><time>2026-04-26T12:55:19.436Z</time></trkpt><trkpt lat="42.48403896210096" lon="12.687975406650438"><ele>831.0</ele><time>2026-04-26T12:55:20.436Z</time></trkpt><trkpt lat="42.48397485051364" lon="12.688034338164151"><ele>836.0</ele><time>2026-04-26T12:55:21.436Z</time></trkpt><trkpt lat="42.48389616965074" lon="12.688058859936104"><ele>841.0</ele><time>2026-04-26T12:55:22.436Z</time></trkpt><trkpt lat="42.483778454640415" lon="12.687974344670065"><ele>846.0</ele><time>2026-04-26T12:55:23.435Z</time></trkpt><trkpt lat="42.483646817137206" lon="12.6878004985384"><ele>839.0</ele><time>2026-04-26T12:55:24.435Z</time></trkpt><trkpt lat="42.48353965477309" lon="12.687622684739718"><ele>832.0</ele><time>2026-04-26T12:55:25.435Z</time></trkpt><trkpt lat="42.48343787380514" lon="12.687473386373847"><ele>825.0</ele><time>2026-04-26T12:55:26.435Z</time></trkpt><trkpt lat="42.48333224051668" lon="12.687317629717299"><ele>825.0</ele><time>2026-04-26T12:55:27.435Z</time></trkpt><trkpt lat="42.48323218186295" lon="12.687181723229246"><ele>825.0</ele><time>2026-04-26T12:55:28.435Z</time></trkpt><trkpt lat="42.483142205326686" lon="12.687057051774218"><ele>825.0</ele><time>2026-04-26T12:55:29.435Z</time></trkpt><trkpt lat="42.48306082454933" lon="12.686949687322427"><ele>825.0</ele><time>2026-04-26T12:55:30.435Z</time></trkpt><trkpt lat="42.48296941374971" lon="12.686871617778364"><ele>820.25</ele><time>2026-04-26T12:55:31.435Z</time></trkpt><trkpt lat="42.48284655034093" lon="12.686840157415913"><ele>815.5</ele><time>2026-04-26T12:55:32.435Z</time></trkpt><trkpt lat="42.4827111754591" lon="12.686841103625218"><ele>810.75</ele><time>2026-04-26T12:55:33.435Z</time></trkpt><trkpt lat="42.482558293520874" lon="12.686858829162684"><ele>806.0</ele><time>2026-04-26T12:55:34.435Z</time></trkpt><trkpt lat="42.48238223036804" lon="12.686888971046779"><ele>806.0</ele><time>2026-04-26T12:55:35.435Z</time></trkpt><trkpt lat="42.482215072664246" lon="12.686907336617427"><ele>806.0</ele><time>2026-04-26T12:55:36.435Z</time></trkpt><trkpt lat="42.48204526354202" lon="12.686944772475265"><ele>806.0</ele><time>2026-04-26T12:55:37.435Z</time></trkpt><trkpt lat="42.48187527432158" lon="12.686989813255323"><ele>816.3333333333334</ele><time>2026-04-26T12:55:38.435Z</time></trkpt><trkpt lat="42.48168795464117" lon="12.687041194689401"><ele>826.6666666666667</ele><time>2026-04-26T12:55:39.435Z</time></trkpt><trkpt lat="42.48150553310676" lon="12.687105888788798"><ele>837.0</ele><time>2026-04-26T12:55:40.435Z</time></trkpt><trkpt lat="42.48131720884217" lon="12.687191561098956"><ele>831.6666666666667</ele><time>2026-04-26T12:55:41.435Z</time></trkpt><trkpt lat="42.481119697306454" lon="12.687267292258067"><ele>826.3333333333334</ele><time>2026-04-26T12:55:42.435Z</time></trkpt><trkpt lat="42.48094275349678" lon="12.687317709181592"><ele>821.0</ele><time>2026-04-26T12:55:43.434Z</time></trkpt><trkpt lat="42.480770485479326" lon="12.687399500732445"><ele>821.0</ele><time>2026-04-26T12:55:44.434Z</time></trkpt><trkpt lat="42.48060509267613" lon="12.687470352794772"><ele>821.0</ele><time>2026-04-26T12:55:45.434Z</time></trkpt><trkpt lat="42.48042800858336" lon="12.687488983489432"><ele>821.0</ele><time>2026-04-26T12:55:46.434Z</time></trkpt><trkpt lat="42.480253371168054" lon="12.687495899268749"><ele>819.6666666666667</ele><time>2026-04-26T12:55:47.434Z</time></trkpt><trkpt lat="42.480080607673074" lon="12.687498485768105"><ele>818.3333333333333</ele><time>2026-04-26T12:55:48.434Z</time></trkpt><trkpt lat="42.47991318834064" lon="12.687533836592152"><ele>817.0</ele><time>2026-04-26T12:55:49.436Z</time></trkpt><trkpt lat="42.47976231732933" lon="12.687577063723982"><ele>817.0</ele><time>2026-04-26T12:55:50.435Z</time></trkpt><trkpt lat="42.479637510849805" lon="12.68764113108346"><ele>817.0</ele><time>2026-04-26T12:55:51.435Z</time></trkpt><trkpt lat="42.47948850076412" lon="12.68771127134902"><ele>817.0</ele><time>2026-04-26T12:55:52.435Z</time></trkpt><trkpt lat="42.479345552886386" lon="12.687834434373015"><ele>820.3333333333333</ele><time>2026-04-26T12:55:53.436Z</time></trkpt><trkpt lat="42.479212241339546" lon="12.68799077632794"><ele>823.6666666666667</ele><time>2026-04-26T12:55:54.436Z</time></trkpt><trkpt lat="42.47909903353833" lon="12.68813527514971"><ele>827.0</ele><time>2026-04-26T12:55:55.435Z</time></trkpt><trkpt lat="42.4790087658668" lon="12.688250504303065"><ele>827.0000000000001</ele><time>2026-04-26T12:55:56.435Z</time></trkpt><trkpt lat="42.47892907191969" lon="12.68834965642101"><ele>827.0</ele><time>2026-04-26T12:55:57.435Z</time></trkpt><trkpt lat="42.4788646673661" lon="12.68841306383937"><ele>827.0</ele><time>2026-04-26T12:55:58.436Z</time></trkpt><trkpt lat="42.478789200667045" lon="12.688431195066322"><ele>827.0</ele><time>2026-04-26T12:55:59.435Z</time></trkpt><trkpt lat="42.47871698935671" lon="12.68839095571154"><ele>827.0000000000001</ele><time>2026-04-26T12:56:00.435Z</time></trkpt><trkpt lat="42.478659552865295" lon="12.688304695032777"><ele>827.0</ele><time>2026-04-26T12:56:01.435Z</time></trkpt><trkpt lat="42.47863666638575" lon="12.688189513913803"><ele>824.75</ele><time>2026-04-26T12:56:02.435Z</time></trkpt><trkpt lat="42.47865362427052" lon="12.688039747871114"><ele>822.5</ele><time>2026-04-26T12:56:03.435Z</time></trkpt><trkpt lat="42.47870370992809" lon="12.687885235134685"><ele>820.25</ele><time>2026-04-26T12:56:04.435Z</time></trkpt><trkpt lat="42.47876766265709" lon="12.687727948031254"><ele>818.0</ele><time>2026-04-26T12:56:05.435Z</time></trkpt><trkpt lat="42.47882776122898" lon="12.687553896631542"><ele>818.0</ele><time>2026-04-26T12:56:06.435Z</time></trkpt><trkpt lat="42.47888213885888" lon="12.687351932424361"><ele>818.0</ele><time>2026-04-26T12:56:07.435Z</time></trkpt><trkpt lat="42.47895284213515" lon="12.68713904014116"><ele>818.0</ele><time>2026-04-26T12:56:08.434Z</time></trkpt><trkpt lat="42.479024455200374" lon="12.686932412968646"><ele>822.3333333333334</ele><time>2026-04-26T12:56:09.434Z</time></trkpt><trkpt lat="42.47909902454139" lon="12.686732594764177"><ele>826.6666666666667</ele><time>2026-04-26T12:56:10.434Z</time></trkpt><trkpt lat="42.47919615413456" lon="12.686533726424376"><ele>831.0</ele><time>2026-04-26T12:56:11.434Z</time></trkpt><trkpt lat="42.47934184449562" lon="12.686352885773406"><ele>831.0</ele><time>2026-04-26T12:56:12.434Z</time></trkpt><trkpt lat="42.47950887843002" lon="12.686196782651807"><ele>831.0</ele><time>2026-04-26T12:56:13.434Z</time></trkpt><trkpt lat="42.479737722839474" lon="12.686007595772821"><ele>827.0</ele><time>2026-04-26T12:56:14.434Z</time></trkpt><trkpt lat="42.47989977147422" lon="12.685832767409808"><ele>823.0</ele><time>2026-04-26T12:56:15.434Z</time></trkpt><trkpt lat="42.48005873159061" lon="12.68563827774818"><ele>819.0</ele><time>2026-04-26T12:56:16.434Z</time></trkpt><trkpt lat="42.480206933085896" lon="12.685443900279223"><ele>815.0</ele><time>2026-04-26T12:56:17.434Z</time></trkpt><trkpt lat="42.48035264282147" lon="12.685259778561418"><ele>811.0</ele><time>2026-04-26T12:56:18.434Z</time></trkpt><trkpt lat="42.48047942552099" lon="12.685093967678613"><ele>807.0</ele><time>2026-04-26T12:56:19.434Z</time></trkpt><trkpt lat="42.480604161853655" lon="12.684940151416061"><ele>807.0</ele><time>2026-04-26T12:56:20.434Z</time></trkpt><trkpt lat="42.48070995302171" lon="12.684804584652914"><ele>807.0</ele><time>2026-04-26T12:56:21.434Z</time></trkpt><trkpt lat="42.48080577780808" lon="12.684666094940866"><ele>807.0</ele><time>2026-04-26T12:56:22.434Z</time></trkpt><trkpt lat="42.48088297525888" lon="12.684524593940047"><ele>807.0</ele><time>2026-04-26T12:56:23.434Z</time></trkpt><trkpt lat="42.48091293399665" lon="12.684344567234785"><ele>814.0</ele><time>2026-04-26T12:56:24.434Z</time></trkpt><trkpt lat="42.48093332790676" lon="12.684122056038241"><ele>821.0</ele><time>2026-04-26T12:56:25.434Z</time></trkpt><trkpt lat="42.480939695557645" lon="12.683869244748777"><ele>828.0</ele><time>2026-04-26T12:56:26.434Z</time></trkpt><trkpt lat="42.48098129397507" lon="12.683621444013745"><ele>832.0</ele><time>2026-04-26T12:56:27.433Z</time></trkpt><trkpt lat="42.481025280606744" lon="12.683387062073697"><ele>836.0</ele><time>2026-04-26T12:56:28.433Z</time></trkpt><trkpt lat="42.48106155580179" lon="12.683161208793146"><ele>840.0</ele><time>2026-04-26T12:56:29.433Z</time></trkpt><trkpt lat="42.48109230108805" lon="12.682948579763188"><ele>840.25</ele><time>2026-04-26T12:56:30.433Z</time></trkpt><trkpt lat="42.48112334563953" lon="12.68276150665529"><ele>840.5</ele><time>2026-04-26T12:56:31.433Z</time></trkpt><trkpt lat="42.48115316154404" lon="12.682578463885076"><ele>840.75</ele><time>2026-04-26T12:56:32.433Z</time></trkpt><trkpt lat="42.48115569737301" lon="12.6823944133728"><ele>841.0</ele><time>2026-04-26T12:56:33.433Z</time></trkpt><trkpt lat="42.4811391066741" lon="12.682186908349976"><ele>841.0</ele><time>2026-04-26T12:56:34.433Z</time></trkpt><trkpt lat="42.48108672430872" lon="12.681966778993608"><ele>841.0</ele><time>2026-04-26T12:56:35.433Z</time></trkpt><trkpt lat="42.48105194921441" lon="12.681744100074186"><ele>841.0</ele><time>2026-04-26T12:56:36.433Z</time></trkpt><trkpt lat="42.48104485892718" lon="12.681511824869437"><ele>840.3333333333333</ele><time>2026-04-26T12:56:37.433Z</time></trkpt><trkpt lat="42.48108371066689" lon="12.681291888439057"><ele>839.6666666666667</ele><time>2026-04-26T12:56:38.433Z</time></trkpt><trkpt lat="42.48113775410125" lon="12.6810786486913"><ele>839.0</ele><time>2026-04-26T12:56:39.433Z</time></trkpt><trkpt lat="42.48120688643124" lon="12.680902039446954"><ele>837.5</ele><time>2026-04-26T12:56:40.433Z</time></trkpt><trkpt lat="42.48125841377279" lon="12.680751251312044"><ele>836.0</ele><time>2026-04-26T12:56:41.433Z</time></trkpt><trkpt lat="42.48128270477896" lon="12.680596885374413"><ele>834.5</ele><time>2026-04-26T12:56:42.433Z</time></trkpt><trkpt lat="42.48127711439525" lon="12.680441619025327"><ele>833.0</ele><time>2026-04-26T12:56:43.433Z</time></trkpt><trkpt lat="42.4812285503247" lon="12.68028642430821"><ele>830.3333333333334</ele><time>2026-04-26T12:56:44.433Z</time></trkpt><trkpt lat="42.48113262974833" lon="12.680141421111504"><ele>827.6666666666667</ele><time>2026-04-26T12:56:45.433Z</time></trkpt><trkpt lat="42.481017038457125" lon="12.680007391214856"><ele>825.0</ele><time>2026-04-26T12:56:46.433Z</time></trkpt><trkpt lat="42.48088629843965" lon="12.679872064604057"><ele>825.0</ele><time>2026-04-26T12:56:47.432Z</time></trkpt><trkpt lat="42.480752483867846" lon="12.67972964891104"><ele>825.0</ele><time>2026-04-26T12:56:48.431Z</time></trkpt><trkpt lat="42.480615919406134" lon="12.679586506984077"><ele>825.0</ele><time>2026-04-26T12:56:49.431Z</time></trkpt><trkpt lat="42.48045867828446" lon="12.679441677920803"><ele>823.6666666666667</ele><time>2026-04-26T12:56:50.431Z</time></trkpt><trkpt lat="42.48031278275693" lon="12.679268480034473"><ele>822.3333333333334</ele><time>2026-04-26T12:56:51.431Z</time></trkpt><trkpt lat="42.48018067447572" lon="12.679115987224304"><ele>821.0</ele><time>2026-04-26T12:56:52.431Z</time></trkpt><trkpt lat="42.48005552875908" lon="12.67897387683443"><ele>821.0</ele><time>2026-04-26T12:56:53.431Z</time></trkpt><trkpt lat="42.47991770131361" lon="12.678857445643995"><ele>821.0</ele><time>2026-04-26T12:56:54.431Z</time></trkpt><trkpt lat="42.47977990523674" lon="12.678756979841824"><ele>821.0</ele><time>2026-04-26T12:56:55.431Z</time></trkpt><trkpt lat="42.47964355355325" lon="12.678663119590555"><ele>820.5</ele><time>2026-04-26T12:56:56.431Z</time></trkpt><trkpt lat="42.47949718295567" lon="12.678598705139477"><ele>820.0</ele><time>2026-04-26T12:56:57.431Z</time></trkpt><trkpt lat="42.479349743961606" lon="12.678572682438118"><ele>819.5</ele><time>2026-04-26T12:56:58.431Z</time></trkpt><trkpt lat="42.479205746801696" lon="12.678587611952064"><ele>819.0</ele><time>2026-04-26T12:56:59.431Z</time></trkpt><trkpt lat="42.47905854759876" lon="12.678628226364212"><ele>819.0</ele><time>2026-04-26T12:57:00.431Z</time></trkpt><trkpt lat="42.478922425995066" lon="12.678728452269855"><ele>819.0</ele><time>2026-04-26T12:57:01.431Z</time></trkpt><trkpt lat="42.478799061250655" lon="12.678939493307862"><ele>819.0</ele><time>2026-04-26T12:57:02.431Z</time></trkpt><trkpt lat="42.478697819193286" lon="12.679143253808016"><ele>813.3333333333333</ele><time>2026-04-26T12:57:03.431Z</time></trkpt><trkpt lat="42.47859817936576" lon="12.679376887769696"><ele>807.6666666666666</ele><time>2026-04-26T12:57:04.431Z</time></trkpt><trkpt lat="42.478501026074674" lon="12.679603354936248"><ele>802.0</ele><time>2026-04-26T12:57:05.431Z</time></trkpt><trkpt lat="42.478390185564976" lon="12.679828390648565"><ele>802.0</ele><time>2026-04-26T12:57:06.431Z</time></trkpt><trkpt lat="42.47827272379405" lon="12.680053592373163"><ele>802.0</ele><time>2026-04-26T12:57:07.43Z</time></trkpt><trkpt lat="42.478157933352705" lon="12.680277899555554"><ele>802.0</ele><time>2026-04-26T12:57:08.43Z</time></trkpt><trkpt lat="42.478049475267916" lon="12.68050328137758"><ele>800.3333333333333</ele><time>2026-04-26T12:57:09.43Z</time></trkpt><trkpt lat="42.47794779190095" lon="12.68071895467099"><ele>798.6666666666667</ele><time>2026-04-26T12:57:10.43Z</time></trkpt><trkpt lat="42.477854888919936" lon="12.680908959794177"><ele>797.0</ele><time>2026-04-26T12:57:11.43Z</time></trkpt><trkpt lat="42.4777718895418" lon="12.681079678320579"><ele>800.25</ele><time>2026-04-26T12:57:12.43Z</time></trkpt><trkpt lat="42.47768491207259" lon="12.681240965834403"><ele>803.5</ele><time>2026-04-26T12:57:13.43Z</time></trkpt><trkpt lat="42.477615482724424" lon="12.681375341238857"><ele>806.75</ele><time>2026-04-26T12:57:14.43Z</time></trkpt><trkpt lat="42.47756054243211" lon="12.681497718094299"><ele>810.0</ele><time>2026-04-26T12:57:15.43Z</time></trkpt><trkpt lat="42.47748726580391" lon="12.681597476120713"><ele>810.0</ele><time>2026-04-26T12:57:16.43Z</time></trkpt><trkpt lat="42.47739827100384" lon="12.681654046041212"><ele>810.0</ele><time>2026-04-26T12:57:17.43Z</time></trkpt><trkpt lat="42.477298981197734" lon="12.681652123652972"><ele>810.0</ele><time>2026-04-26T12:57:18.43Z</time></trkpt><trkpt lat="42.47722148648442" lon="12.681583591928737"><ele>810.0</ele><time>2026-04-26T12:57:19.43Z</time></trkpt><trkpt lat="42.477170980120206" lon="12.681446705831396"><ele>810.0</ele><time>2026-04-26T12:57:20.43Z</time></trkpt><trkpt lat="42.477154101686914" lon="12.681261049549658"><ele>805.6666666666667</ele><time>2026-04-26T12:57:21.43Z</time></trkpt><trkpt lat="42.4771632845413" lon="12.68105070155128"><ele>801.3333333333334</ele><time>2026-04-26T12:57:22.43Z</time></trkpt><trkpt lat="42.47718001002773" lon="12.68081417868755"><ele>797.0</ele><time>2026-04-26T12:57:23.43Z</time></trkpt><trkpt lat="42.477159067140605" lon="12.680579333099796"><ele>797.0</ele><time>2026-04-26T12:57:24.43Z</time></trkpt><trkpt lat="42.47713888366804" lon="12.680309832627183"><ele>797.0</ele><time>2026-04-26T12:57:25.43Z</time></trkpt><trkpt lat="42.47712922461664" lon="12.680022720583928"><ele>797.0</ele><time>2026-04-26T12:57:26.429Z</time></trkpt><trkpt lat="42.47712178420734" lon="12.679726111380607"><ele>793.6666666666667</ele><time>2026-04-26T12:57:27.429Z</time></trkpt><trkpt lat="42.47712203399586" lon="12.679454982222175"><ele>790.3333333333333</ele><time>2026-04-26T12:57:28.429Z</time></trkpt><trkpt lat="42.47711545485371" lon="12.679189577238567"><ele>787.0</ele><time>2026-04-26T12:57:29.429Z</time></trkpt><trkpt lat="42.47709174777711" lon="12.678933474012506"><ele>794.6666666666666</ele><time>2026-04-26T12:57:30.429Z</time></trkpt><trkpt lat="42.4770850190685" lon="12.67869324657023"><ele>802.3333333333333</ele><time>2026-04-26T12:57:31.429Z</time></trkpt><trkpt lat="42.47707355419316" lon="12.67845314572084"><ele>810.0</ele><time>2026-04-26T12:57:32.429Z</time></trkpt><trkpt lat="42.4770918977447" lon="12.678223476080646"><ele>795.0</ele><time>2026-04-26T12:57:33.429Z</time></trkpt><trkpt lat="42.47713031695979" lon="12.67800316578729"><ele>780.0</ele><time>2026-04-26T12:57:34.429Z</time></trkpt><trkpt lat="42.47715310039627" lon="12.67781349965004"><ele>765.0</ele><time>2026-04-26T12:57:35.429Z</time></trkpt><trkpt lat="42.477158345657195" lon="12.677620744566578"><ele>763.75</ele><time>2026-04-26T12:57:36.429Z</time></trkpt><trkpt lat="42.47712692775642" lon="12.67744242445414"><ele>762.5</ele><time>2026-04-26T12:57:37.429Z</time></trkpt><trkpt lat="42.47706658809345" lon="12.677277194562743"><ele>761.25</ele><time>2026-04-26T12:57:38.429Z</time></trkpt><trkpt lat="42.47699164983769" lon="12.67712910232508"><ele>760.0</ele><time>2026-04-26T12:57:39.429Z</time></trkpt><trkpt lat="42.47693144732454" lon="12.676997874268697"><ele>760.0</ele><time>2026-04-26T12:57:40.429Z</time></trkpt><trkpt lat="42.47691411062139" lon="12.676861277104322"><ele>760.0</ele><time>2026-04-26T12:57:41.429Z</time></trkpt><trkpt lat="42.47693898733283" lon="12.676712096693338"><ele>760.0</ele><time>2026-04-26T12:57:42.429Z</time></trkpt><trkpt lat="42.477006446936365" lon="12.676572782688881"><ele>760.0</ele><time>2026-04-26T12:57:43.429Z</time></trkpt><trkpt lat="42.47712113447465" lon="12.676454755522293"><ele>760.0</ele><time>2026-04-26T12:57:44.429Z</time></trkpt><trkpt lat="42.47726430689173" lon="12.676343241224703"><ele>760.0</ele><time>2026-04-26T12:57:45.429Z</time></trkpt><trkpt lat="42.47739208899561" lon="12.676193338811657"><ele>760.0</ele><time>2026-04-26T12:57:46.428Z</time></trkpt><trkpt lat="42.47750133032279" lon="12.676044091216314"><ele>762.25</ele><time>2026-04-26T12:57:47.428Z</time></trkpt><trkpt lat="42.477591237536245" lon="12.675900938647308"><ele>764.5</ele><time>2026-04-26T12:57:48.428Z</time></trkpt><trkpt lat="42.47769681515696" lon="12.675779400616833"><ele>766.75</ele><time>2026-04-26T12:57:49.428Z</time></trkpt><trkpt lat="42.477788886255816" lon="12.675645171412738"><ele>769.0</ele><time>2026-04-26T12:57:50.428Z</time></trkpt><trkpt lat="42.47785543424716" lon="12.675497489977895"><ele>769.0</ele><time>2026-04-26T12:57:51.428Z</time></trkpt><trkpt lat="42.47789889765285" lon="12.67532148473329"><ele>769.0</ele><time>2026-04-26T12:57:52.428Z</time></trkpt><trkpt lat="42.477918239857146" lon="12.675165657785357"><ele>769.0</ele><time>2026-04-26T12:57:53.428Z</time></trkpt><trkpt lat="42.477931338097775" lon="12.675017970076732"><ele>769.0</ele><time>2026-04-26T12:57:54.428Z</time></trkpt><trkpt lat="42.47790500328259" lon="12.674873293270139"><ele>768.6666666666666</ele><time>2026-04-26T12:57:55.429Z</time></trkpt><trkpt lat="42.47784139757448" lon="12.674703213981857"><ele>768.3333333333333</ele><time>2026-04-26T12:57:56.429Z</time></trkpt><trkpt lat="42.47776174493891" lon="12.674522299950867"><ele>768.0</ele><time>2026-04-26T12:57:57.429Z</time></trkpt><trkpt lat="42.477660617960176" lon="12.674344071525068"><ele>764.0</ele><time>2026-04-26T12:57:58.429Z</time></trkpt><trkpt lat="42.47754331652804" lon="12.674202751547119"><ele>760.0</ele><time>2026-04-26T12:57:59.429Z</time></trkpt><trkpt lat="42.477434462600364" lon="12.674081655437638"><ele>756.0</ele><time>2026-04-26T12:58:00.429Z</time></trkpt><trkpt lat="42.47735492608363" lon="12.673938353215208"><ele>752.0</ele><time>2026-04-26T12:58:01.43Z</time></trkpt><trkpt lat="42.477291611753195" lon="12.673773191950485"><ele>749.5</ele><time>2026-04-26T12:58:02.429Z</time></trkpt><trkpt lat="42.477234872952536" lon="12.673600360271875"><ele>747.0</ele><time>2026-04-26T12:58:03.429Z</time></trkpt><trkpt lat="42.47719358378449" lon="12.673436286680426"><ele>744.5</ele><time>2026-04-26T12:58:04.429Z</time></trkpt><trkpt lat="42.47718025110634" lon="12.673264264744752"><ele>742.0</ele><time>2026-04-26T12:58:05.428Z</time></trkpt><trkpt lat="42.477199513540675" lon="12.673070081618775"><ele>742.0</ele><time>2026-04-26T12:58:06.428Z</time></trkpt><trkpt lat="42.477251311435275" lon="12.672901090958563"><ele>742.0</ele><time>2026-04-26T12:58:07.429Z</time></trkpt><trkpt lat="42.47730648154999" lon="12.672755437624874"><ele>742.0</ele><time>2026-04-26T12:58:08.428Z</time></trkpt><trkpt lat="42.47739699578735" lon="12.672620459688707"><ele>742.0</ele><time>2026-04-26T12:58:09.428Z</time></trkpt><trkpt lat="42.47751431555406" lon="12.67251431917322"><ele>741.5</ele><time>2026-04-26T12:58:10.428Z</time></trkpt><trkpt lat="42.47761122969828" lon="12.672417042054763"><ele>741.0</ele><time>2026-04-26T12:58:11.428Z</time></trkpt><trkpt lat="42.477691022424665" lon="12.672290030081633"><ele>740.5</ele><time>2026-04-26T12:58:12.428Z</time></trkpt><trkpt lat="42.4777461751223" lon="12.672115052160155"><ele>740.0</ele><time>2026-04-26T12:58:13.428Z</time></trkpt><trkpt lat="42.47776724353428" lon="12.671888430359658"><ele>740.0</ele><time>2026-04-26T12:58:14.428Z</time></trkpt><trkpt lat="42.47777516363885" lon="12.671648041766828"><ele>740.0</ele><time>2026-04-26T12:58:15.428Z</time></trkpt><trkpt lat="42.4777789887654" lon="12.671404179576438"><ele>740.0</ele><time>2026-04-26T12:58:16.428Z</time></trkpt><trkpt lat="42.477784771282224" lon="12.67114769347311"><ele>738.6666666666666</ele><time>2026-04-26T12:58:17.428Z</time></trkpt><trkpt lat="42.47778208709435" lon="12.670886506295824"><ele>737.3333333333334</ele><time>2026-04-26T12:58:18.428Z</time></trkpt><trkpt lat="42.47777116293587" lon="12.670618830800041"><ele>736.0</ele><time>2026-04-26T12:58:19.428Z</time></trkpt><trkpt lat="42.47775591383625" lon="12.67035237227844"><ele>736.3333333333334</ele><time>2026-04-26T12:58:20.428Z</time></trkpt><trkpt lat="42.47773965105453" lon="12.670102798644429"><ele>736.6666666666666</ele><time>2026-04-26T12:58:21.428Z</time></trkpt><trkpt lat="42.477725965807686" lon="12.669867324941427"><ele>737.0</ele><time>2026-04-26T12:58:22.428Z</time></trkpt><trkpt lat="42.47772557828605" lon="12.66962342309723"><ele>737.0</ele><time>2026-04-26T12:58:23.428Z</time></trkpt><trkpt lat="42.47773325980419" lon="12.669366046896183"><ele>737.0</ele><time>2026-04-26T12:58:24.428Z</time></trkpt><trkpt lat="42.477738409736546" lon="12.66910688734927"><ele>737.0</ele><time>2026-04-26T12:58:25.427Z</time></trkpt><trkpt lat="42.47774189494256" lon="12.668860771808022"><ele>737.0</ele><time>2026-04-26T12:58:26.427Z</time></trkpt><trkpt lat="42.477742042257965" lon="12.668624007470608"><ele>737.0</ele><time>2026-04-26T12:58:27.427Z</time></trkpt><trkpt lat="42.47773781263229" lon="12.668399852533682"><ele>737.0</ele><time>2026-04-26T12:58:28.427Z</time></trkpt><trkpt lat="42.47773138037005" lon="12.668190807737952"><ele>736.0</ele><time>2026-04-26T12:58:29.427Z</time></trkpt><trkpt lat="42.4777297125762" lon="12.668001938136412"><ele>735.0</ele><time>2026-04-26T12:58:30.427Z</time></trkpt><trkpt lat="42.47774025605193" lon="12.667829138834866"><ele>734.0</ele><time>2026-04-26T12:58:31.427Z</time></trkpt><trkpt lat="42.477766044701134" lon="12.667670827302956"><ele>733.0</ele><time>2026-04-26T12:58:32.427Z</time></trkpt><trkpt lat="42.47782284700188" lon="12.667526909824971"><ele>733.0</ele><time>2026-04-26T12:58:33.427Z</time></trkpt><trkpt lat="42.477914635718854" lon="12.667409979535243"><ele>733.0</ele><time>2026-04-26T12:58:34.427Z</time></trkpt><trkpt lat="42.478031467570105" lon="12.66734550181876"><ele>733.0</ele><time>2026-04-26T12:58:35.427Z</time></trkpt><trkpt lat="42.47815031039928" lon="12.667348008138648"><ele>733.0</ele><time>2026-04-26T12:58:36.427Z</time></trkpt><trkpt lat="42.478264123927616" lon="12.667410768382524"><ele>733.0</ele><time>2026-04-26T12:58:37.427Z</time></trkpt><trkpt lat="42.47836140225755" lon="12.6675108409719"><ele>733.0</ele><time>2026-04-26T12:58:38.427Z</time></trkpt><trkpt lat="42.47844223379352" lon="12.667666954667222"><ele>733.0</ele><time>2026-04-26T12:58:39.427Z</time></trkpt><trkpt lat="42.478514264603675" lon="12.66785928618045"><ele>733.0</ele><time>2026-04-26T12:58:40.427Z</time></trkpt><trkpt lat="42.47861399963237" lon="12.668030562580055"><ele>733.0</ele><time>2026-04-26T12:58:41.427Z</time></trkpt><trkpt lat="42.47874941962445" lon="12.668186108003537"><ele>733.0</ele><time>2026-04-26T12:58:42.427Z</time></trkpt><trkpt lat="42.478896270827896" lon="12.668333917325782"><ele>733.0</ele><time>2026-04-26T12:58:43.427Z</time></trkpt><trkpt lat="42.47905707581331" lon="12.66848159409223"><ele>726.6666666666667</ele><time>2026-04-26T12:58:44.427Z</time></trkpt><trkpt lat="42.479225782679094" lon="12.668633270312764"><ele>720.3333333333334</ele><time>2026-04-26T12:58:45.426Z</time></trkpt><trkpt lat="42.47938877414122" lon="12.668798997893367"><ele>714.0</ele><time>2026-04-26T12:58:46.426Z</time></trkpt><trkpt lat="42.47954572975815" lon="12.668965695588637"><ele>719.0</ele><time>2026-04-26T12:58:47.426Z</time></trkpt><trkpt lat="42.47969979851505" lon="12.66911164621111"><ele>724.0</ele><time>2026-04-26T12:58:48.426Z</time></trkpt><trkpt lat="42.47986044592497" lon="12.669272248333264"><ele>729.0</ele><time>2026-04-26T12:58:49.426Z</time></trkpt><trkpt lat="42.48001239288612" lon="12.669384742248091"><ele>720.3333333333334</ele><time>2026-04-26T12:58:50.426Z</time></trkpt><trkpt lat="42.480178354375916" lon="12.669483405714319"><ele>711.6666666666667</ele><time>2026-04-26T12:58:51.426Z</time></trkpt><trkpt lat="42.48034597520028" lon="12.669555225484382"><ele>703.0</ele><time>2026-04-26T12:58:52.426Z</time></trkpt><trkpt lat="42.48053250496314" lon="12.669599772555573"><ele>703.0</ele><time>2026-04-26T12:58:53.426Z</time></trkpt><trkpt lat="42.480723639500624" lon="12.669620286564186"><ele>703.0</ele><time>2026-04-26T12:58:54.426Z</time></trkpt><trkpt lat="42.480907427580476" lon="12.669633904957095"><ele>703.0</ele><time>2026-04-26T12:58:55.426Z</time></trkpt><trkpt lat="42.48107930213265" lon="12.669615254399094"><ele>703.0</ele><time>2026-04-26T12:58:56.426Z</time></trkpt><trkpt lat="42.48125101149849" lon="12.669590164435503"><ele>703.0</ele><time>2026-04-26T12:58:57.426Z</time></trkpt><trkpt lat="42.48142621456735" lon="12.66957915625483"><ele>703.0</ele><time>2026-04-26T12:58:58.426Z</time></trkpt><trkpt lat="42.48159627429259" lon="12.669625899251104"><ele>703.75</ele><time>2026-04-26T12:58:59.426Z</time></trkpt><trkpt lat="42.48174543013395" lon="12.66969259710527"><ele>704.5</ele><time>2026-04-26T12:59:00.426Z</time></trkpt><trkpt lat="42.48187719841392" lon="12.66976826864866"><ele>705.25</ele><time>2026-04-26T12:59:01.426Z</time></trkpt><trkpt lat="42.48199647773662" lon="12.66985073936715"><ele>706.0</ele><time>2026-04-26T12:59:02.426Z</time></trkpt><trkpt lat="42.48210871000659" lon="12.669897003452027"><ele>703.5999999999999</ele><time>2026-04-26T12:59:03.426Z</time></trkpt><trkpt lat="42.48219677373321" lon="12.669936806752226"><ele>701.2</ele><time>2026-04-26T12:59:04.425Z</time></trkpt><trkpt lat="42.48228027901591" lon="12.669930560713746"><ele>698.8</ele><time>2026-04-26T12:59:05.425Z</time></trkpt><trkpt lat="42.48236511107692" lon="12.669869269433681"><ele>696.4000000000001</ele><time>2026-04-26T12:59:06.425Z</time></trkpt><trkpt lat="42.48242538166443" lon="12.669751012354977"><ele>694.0</ele><time>2026-04-26T12:59:07.425Z</time></trkpt><trkpt lat="42.482446959816556" lon="12.669563576687374"><ele>698.6666666666667</ele><time>2026-04-26T12:59:08.425Z</time></trkpt><trkpt lat="42.482441747414754" lon="12.669348307450287"><ele>703.3333333333334</ele><time>2026-04-26T12:59:09.425Z</time></trkpt><trkpt lat="42.48244019587617" lon="12.669129044029217"><ele>708.0</ele><time>2026-04-26T12:59:10.425Z</time></trkpt><trkpt lat="42.482469205061896" lon="12.668912357690765"><ele>708.0</ele><time>2026-04-26T12:59:11.425Z</time></trkpt><trkpt lat="42.48251907076581" lon="12.668694852120279"><ele>708.0</ele><time>2026-04-26T12:59:12.425Z</time></trkpt><trkpt lat="42.48259923667824" lon="12.668471191247512"><ele>708.0</ele><time>2026-04-26T12:59:13.425Z</time></trkpt><trkpt lat="42.48269002641349" lon="12.668272146045155"><ele>711.6666666666666</ele><time>2026-04-26T12:59:14.425Z</time></trkpt><trkpt lat="42.482773768487206" lon="12.66807305495751"><ele>715.3333333333333</ele><time>2026-04-26T12:59:15.425Z</time></trkpt><trkpt lat="42.482850705383555" lon="12.667880790809363"><ele>719.0</ele><time>2026-04-26T12:59:16.425Z</time></trkpt><trkpt lat="42.48293058574792" lon="12.667696090904515"><ele>706.3333333333333</ele><time>2026-04-26T12:59:17.425Z</time></trkpt><trkpt lat="42.48302229810079" lon="12.667506182832026"><ele>693.6666666666666</ele><time>2026-04-26T12:59:18.425Z</time></trkpt><trkpt lat="42.483125136312" lon="12.667313045314517"><ele>681.0</ele><time>2026-04-26T12:59:19.425Z</time></trkpt><trkpt lat="42.4832502896465" lon="12.667126285101077"><ele>681.0</ele><time>2026-04-26T12:59:20.425Z</time></trkpt><trkpt lat="42.48338533555981" lon="12.666968453280427"><ele>681.0</ele><time>2026-04-26T12:59:21.425Z</time></trkpt><trkpt lat="42.48350226381692" lon="12.666801918867623"><ele>681.0</ele><time>2026-04-26T12:59:22.425Z</time></trkpt><trkpt lat="42.48362056321754" lon="12.666641571555447"><ele>674.6666666666666</ele><time>2026-04-26T12:59:23.425Z</time></trkpt><trkpt lat="42.48374013579122" lon="12.666486598195775"><ele>668.3333333333333</ele><time>2026-04-26T12:59:24.424Z</time></trkpt><trkpt lat="42.48386170235969" lon="12.666342423020755"><ele>662.0</ele><time>2026-04-26T12:59:25.424Z</time></trkpt><trkpt lat="42.48398938343115" lon="12.666194464867857"><ele>673.3333333333333</ele><time>2026-04-26T12:59:26.424Z</time></trkpt><trkpt lat="42.484144121372076" lon="12.666081165286377"><ele>684.6666666666666</ele><time>2026-04-26T12:59:27.424Z</time></trkpt><trkpt lat="42.48432355360837" lon="12.666007383247845"><ele>696.0</ele><time>2026-04-26T12:59:28.424Z</time></trkpt><trkpt lat="42.48449075542001" lon="12.665933441952523"><ele>687.3333333333334</ele><time>2026-04-26T12:59:29.424Z</time></trkpt><trkpt lat="42.4846705558912" lon="12.665865035473217"><ele>678.6666666666667</ele><time>2026-04-26T12:59:30.424Z</time></trkpt><trkpt lat="42.48482420123531" lon="12.665807218493423"><ele>670.0</ele><time>2026-04-26T12:59:31.424Z</time></trkpt><trkpt lat="42.48497423648344" lon="12.665742920919312"><ele>670.0</ele><time>2026-04-26T12:59:32.424Z</time></trkpt><trkpt lat="42.48510920348686" lon="12.665682208104332"><ele>670.0</ele><time>2026-04-26T12:59:33.424Z</time></trkpt><trkpt lat="42.48523294533185" lon="12.665619862218385"><ele>670.0</ele><time>2026-04-26T12:59:34.424Z</time></trkpt><trkpt lat="42.485350788363355" lon="12.665562986109686"><ele>670.0</ele><time>2026-04-26T12:59:35.424Z</time></trkpt><trkpt lat="42.48545789140243" lon="12.665497989029559"><ele>667.6</ele><time>2026-04-26T12:59:36.424Z</time></trkpt><trkpt lat="42.48555696879896" lon="12.665433387604796"><ele>665.2</ele><time>2026-04-26T12:59:37.424Z</time></trkpt><trkpt lat="42.48563371680711" lon="12.66535583535199"><ele>662.8</ele><time>2026-04-26T12:59:38.424Z</time></trkpt><trkpt lat="42.485683966059455" lon="12.665256240993672"><ele>660.4</ele><time>2026-04-26T12:59:39.424Z</time></trkpt><trkpt lat="42.485694629158324" lon="12.665135189581072"><ele>658.0</ele><time>2026-04-26T12:59:40.424Z</time></trkpt><trkpt lat="42.48568374792229" lon="12.665027081365515"><ele>658.0</ele><time>2026-04-26T12:59:41.424Z</time></trkpt><trkpt lat="42.48564647232022" lon="12.664928487878347"><ele>658.0</ele><time>2026-04-26T12:59:42.424Z</time></trkpt><trkpt lat="42.48561370702096" lon="12.664824784738148"><ele>658.0</ele><time>2026-04-26T12:59:43.424Z</time></trkpt><trkpt lat="42.4855852711379" lon="12.66469379687631"><ele>658.0</ele><time>2026-04-26T12:59:44.423Z</time></trkpt><trkpt lat="42.485547583439235" lon="12.66452112047732"><ele>658.0</ele><time>2026-04-26T12:59:45.423Z</time></trkpt><trkpt lat="42.48551686664288" lon="12.664341559323507"><ele>659.75</ele><time>2026-04-26T12:59:46.423Z</time></trkpt><trkpt lat="42.48548219368986" lon="12.66416400426301"><ele>661.5</ele><time>2026-04-26T12:59:47.423Z</time></trkpt><trkpt lat="42.485434275402135" lon="12.663973004084864"><ele>663.25</ele><time>2026-04-26T12:59:48.423Z</time></trkpt><trkpt lat="42.48539445593733" lon="12.663785272176504"><ele>665.0</ele><time>2026-04-26T12:59:49.423Z</time></trkpt><trkpt lat="42.485357526891626" lon="12.663606967432916"><ele>665.0</ele><time>2026-04-26T12:59:50.423Z</time></trkpt><trkpt lat="42.48531905507096" lon="12.663444307901765"><ele>665.0</ele><time>2026-04-26T12:59:51.423Z</time></trkpt><trkpt lat="42.4852773715258" lon="12.663290163249531"><ele>665.0</ele><time>2026-04-26T12:59:52.423Z</time></trkpt><trkpt lat="42.485250935066055" lon="12.663138105350603"><ele>665.0</ele><time>2026-04-26T12:59:53.423Z</time></trkpt><trkpt lat="42.485229537184615" lon="12.662988826017216"><ele>665.0</ele><time>2026-04-26T12:59:54.423Z</time></trkpt><trkpt lat="42.485199532520255" lon="12.662849083741406"><ele>665.0</ele><time>2026-04-26T12:59:55.423Z</time></trkpt><trkpt lat="42.48516523194977" lon="12.662717131240312"><ele>665.0</ele><time>2026-04-26T12:59:56.423Z</time></trkpt><trkpt lat="42.4851077151825" lon="12.662608410063052"><ele>665.0</ele><time>2026-04-26T12:59:57.423Z</time></trkpt><trkpt lat="42.48503934579407" lon="12.662505781193408"><ele>665.0</ele><time>2026-04-26T12:59:58.423Z</time></trkpt><trkpt lat="42.48496359843026" lon="12.662418369587382"><ele>662.0</ele><time>2026-04-26T12:59:59.423Z</time></trkpt><trkpt lat="42.4848719284711" lon="12.662354635876758"><ele>659.0</ele><time>2026-04-26T13:00:00.423Z</time></trkpt><trkpt lat="42.4847695842857" lon="12.662319979430288"><ele>656.0</ele><time>2026-04-26T13:00:01.424Z</time></trkpt><trkpt lat="42.48467201092287" lon="12.662311283436782"><ele>653.0</ele><time>2026-04-26T13:00:02.424Z</time></trkpt><trkpt lat="42.48458002602622" lon="12.662325827983613"><ele>650.0</ele><time>2026-04-26T13:00:03.424Z</time></trkpt><trkpt lat="42.4844938909213" lon="12.662345225687007"><ele>649.5</ele><time>2026-04-26T13:00:04.424Z</time></trkpt><trkpt lat="42.48441206657095" lon="12.662359487590932"><ele>649.0</ele><time>2026-04-26T13:00:05.424Z</time></trkpt><trkpt lat="42.48434467402807" lon="12.66235290641751"><ele>648.5</ele><time>2026-04-26T13:00:06.424Z</time></trkpt><trkpt lat="42.48428808008189" lon="12.662199776382154"><ele>648.0</ele><time>2026-04-26T13:00:08.424Z</time></trkpt><trkpt lat="42.484303904454855" lon="12.662088011051564"><ele>647.5</ele><time>2026-04-26T13:00:09.424Z</time></trkpt><trkpt lat="42.484357593022374" lon="12.662001819964146"><ele>647.0</ele><time>2026-04-26T13:00:10.424Z</time></trkpt><trkpt lat="42.48442583061028" lon="12.661943063685861"><ele>647.6</ele><time>2026-04-26T13:00:11.424Z</time></trkpt><trkpt lat="42.48450850484893" lon="12.661918628084878"><ele>648.2</ele><time>2026-04-26T13:00:12.424Z</time></trkpt><trkpt lat="42.48461287975296" lon="12.661928085142186"><ele>648.8</ele><time>2026-04-26T13:00:13.423Z</time></trkpt><trkpt lat="42.48472613116779" lon="12.66196755729707"><ele>649.4</ele><time>2026-04-26T13:00:14.424Z</time></trkpt><trkpt lat="42.48484642627905" lon="12.661996400255484"><ele>650.0</ele><time>2026-04-26T13:00:15.424Z</time></trkpt><trkpt lat="42.48497925824203" lon="12.662046314520316"><ele>650.0</ele><time>2026-04-26T13:00:16.424Z</time></trkpt><trkpt lat="42.485103569271985" lon="12.662118763403516"><ele>650.0</ele><time>2026-04-26T13:00:17.424Z</time></trkpt><trkpt lat="42.485213009822246" lon="12.66219400804836"><ele>650.0</ele><time>2026-04-26T13:00:18.424Z</time></trkpt><trkpt lat="42.485316338221104" lon="12.662269472273701"><ele>650.0</ele><time>2026-04-26T13:00:19.424Z</time></trkpt><trkpt lat="42.48541135371858" lon="12.662364369028754"><ele>645.75</ele><time>2026-04-26T13:00:20.424Z</time></trkpt><trkpt lat="42.48549865377858" lon="12.6624813964677"><ele>641.5</ele><time>2026-04-26T13:00:21.424Z</time></trkpt><trkpt lat="42.48557260946947" lon="12.662598028042034"><ele>637.25</ele><time>2026-04-26T13:00:22.424Z</time></trkpt><trkpt lat="42.485650936790535" lon="12.662733947118458"><ele>633.0</ele><time>2026-04-26T13:00:23.424Z</time></trkpt><trkpt lat="42.485706868187634" lon="12.662889410350225"><ele>633.0</ele><time>2026-04-26T13:00:24.424Z</time></trkpt><trkpt lat="42.48574319649537" lon="12.663046678576949"><ele>633.0</ele><time>2026-04-26T13:00:25.423Z</time></trkpt><trkpt lat="42.48577963109831" lon="12.663195519907601"><ele>633.0</ele><time>2026-04-26T13:00:26.423Z</time></trkpt><trkpt lat="42.48580442143228" lon="12.663361133978947"><ele>633.0</ele><time>2026-04-26T13:00:27.423Z</time></trkpt><trkpt lat="42.48583675562384" lon="12.663533742754508"><ele>636.6666666666666</ele><time>2026-04-26T13:00:28.423Z</time></trkpt><trkpt lat="42.48589508845879" lon="12.663721213331014"><ele>640.3333333333333</ele><time>2026-04-26T13:00:29.423Z</time></trkpt><trkpt lat="42.485982039242764" lon="12.663907506942083"><ele>644.0</ele><time>2026-04-26T13:00:30.423Z</time></trkpt><trkpt lat="42.486095194012975" lon="12.664126758587066"><ele>644.0</ele><time>2026-04-26T13:00:31.423Z</time></trkpt><trkpt lat="42.48620882074839" lon="12.664356721502626"><ele>644.0</ele><time>2026-04-26T13:00:32.423Z</time></trkpt><trkpt lat="42.486333643590704" lon="12.66460773265228"><ele>644.0</ele><time>2026-04-26T13:00:33.423Z</time></trkpt><trkpt lat="42.486441000663746" lon="12.664843640536821"><ele>637.0</ele><time>2026-04-26T13:00:34.423Z</time></trkpt><trkpt lat="42.48651349573718" lon="12.6650611533596"><ele>630.0</ele><time>2026-04-26T13:00:35.423Z</time></trkpt><trkpt lat="42.48659340222406" lon="12.665239376087149"><ele>623.0</ele><time>2026-04-26T13:00:36.423Z</time></trkpt><trkpt lat="42.48666964461251" lon="12.66540855070755"><ele>623.0</ele><time>2026-04-26T13:00:37.423Z</time></trkpt><trkpt lat="42.48673992589672" lon="12.665557192501362"><ele>623.0</ele><time>2026-04-26T13:00:38.423Z</time></trkpt><trkpt lat="42.486798857978094" lon="12.665689633620712"><ele>623.0</ele><time>2026-04-26T13:00:39.423Z</time></trkpt><trkpt lat="42.48685694958441" lon="12.665798819305383"><ele>623.0</ele><time>2026-04-26T13:00:40.423Z</time></trkpt><trkpt lat="42.48691494155855" lon="12.665864024903891"><ele>623.0</ele><time>2026-04-26T13:00:41.423Z</time></trkpt><trkpt lat="42.487008218475225" lon="12.665865435203981"><ele>615.0</ele><time>2026-04-26T13:00:42.423Z</time></trkpt><trkpt lat="42.48714294866942" lon="12.665759022469866"><ele>607.0</ele><time>2026-04-26T13:00:43.423Z</time></trkpt><trkpt lat="42.487261909853835" lon="12.665609284698188"><ele>599.0</ele><time>2026-04-26T13:00:44.422Z</time></trkpt><trkpt lat="42.48738914826037" lon="12.66547172696172"><ele>599.0</ele><time>2026-04-26T13:00:45.422Z</time></trkpt><trkpt lat="42.48754523914896" lon="12.66535038768307"><ele>599.0</ele><time>2026-04-26T13:00:46.422Z</time></trkpt><trkpt lat="42.4877061991074" lon="12.66523315410984"><ele>599.0</ele><time>2026-04-26T13:00:47.422Z</time></trkpt><trkpt lat="42.487869841854156" lon="12.66511293742441"><ele>600.3333333333333</ele><time>2026-04-26T13:00:48.422Z</time></trkpt><trkpt lat="42.488044707826084" lon="12.665004545800093"><ele>601.6666666666666</ele><time>2026-04-26T13:00:49.422Z</time></trkpt><trkpt lat="42.48822282463976" lon="12.664902920161593"><ele>603.0</ele><time>2026-04-26T13:00:50.422Z</time></trkpt><trkpt lat="42.48838837727925" lon="12.66480051084207"><ele>603.0</ele><time>2026-04-26T13:00:51.422Z</time></trkpt><trkpt lat="42.48854908888624" lon="12.664697706951463"><ele>603.0</ele><time>2026-04-26T13:00:52.422Z</time></trkpt><trkpt lat="42.48871302252328" lon="12.664588080002801"><ele>603.0</ele><time>2026-04-26T13:00:53.422Z</time></trkpt><trkpt lat="42.488873617071896" lon="12.664485755213416"><ele>601.3333333333334</ele><time>2026-04-26T13:00:54.422Z</time></trkpt><trkpt lat="42.48903281006864" lon="12.66439148421916"><ele>599.6666666666667</ele><time>2026-04-26T13:00:55.422Z</time></trkpt><trkpt lat="42.48918310498901" lon="12.664288271030465"><ele>598.0</ele><time>2026-04-26T13:00:56.422Z</time></trkpt><trkpt lat="42.48932464217194" lon="12.664175409448646"><ele>598.0</ele><time>2026-04-26T13:00:57.422Z</time></trkpt><trkpt lat="42.48945944025978" lon="12.6640176563313"><ele>598.0</ele><time>2026-04-26T13:00:58.422Z</time></trkpt><trkpt lat="42.48956927121457" lon="12.663804293951609"><ele>598.0</ele><time>2026-04-26T13:00:59.422Z</time></trkpt><trkpt lat="42.48965343101361" lon="12.663604210863319"><ele>597.25</ele><time>2026-04-26T13:01:00.422Z</time></trkpt><trkpt lat="42.48972316261059" lon="12.663419794531833"><ele>596.5</ele><time>2026-04-26T13:01:01.422Z</time></trkpt><trkpt lat="42.48980726245682" lon="12.663261840064571"><ele>595.75</ele><time>2026-04-26T13:01:02.422Z</time></trkpt><trkpt lat="42.489891735406964" lon="12.663125408791455"><ele>595.0</ele><time>2026-04-26T13:01:03.422Z</time></trkpt><trkpt lat="42.48998752996573" lon="12.663014003626303"><ele>595.0</ele><time>2026-04-26T13:01:04.421Z</time></trkpt><trkpt lat="42.49009242803954" lon="12.662930066907425"><ele>595.0</ele><time>2026-04-26T13:01:05.421Z</time></trkpt><trkpt lat="42.49020216835258" lon="12.66291478275851"><ele>595.0</ele><time>2026-04-26T13:01:06.421Z</time></trkpt><trkpt lat="42.49032725016658" lon="12.662926424712113"><ele>595.0</ele><time>2026-04-26T13:01:07.421Z</time></trkpt><trkpt lat="42.490437971229625" lon="12.66299672200343"><ele>592.6</ele><time>2026-04-26T13:01:08.421Z</time></trkpt><trkpt lat="42.49051479963862" lon="12.663096969660582"><ele>590.2</ele><time>2026-04-26T13:01:09.421Z</time></trkpt><trkpt lat="42.4905688709487" lon="12.663217915950467"><ele>587.8</ele><time>2026-04-26T13:01:10.421Z</time></trkpt><trkpt lat="42.49058067891479" lon="12.663331862048016"><ele>585.4</ele><time>2026-04-26T13:01:11.421Z</time></trkpt><trkpt lat="42.490544113257336" lon="12.663444985266318"><ele>583.0</ele><time>2026-04-26T13:01:12.421Z</time></trkpt><trkpt lat="42.49047622784738" lon="12.663557909914031"><ele>584.25</ele><time>2026-04-26T13:01:13.421Z</time></trkpt><trkpt lat="42.490388068172315" lon="12.663664274635627"><ele>585.5</ele><time>2026-04-26T13:01:14.421Z</time></trkpt><trkpt lat="42.490277355389885" lon="12.663758010878393"><ele>586.75</ele><time>2026-04-26T13:01:15.421Z</time></trkpt><trkpt lat="42.49014974872713" lon="12.663860771329619"><ele>588.0</ele><time>2026-04-26T13:01:16.421Z</time></trkpt><trkpt lat="42.490005356240154" lon="12.663967199264388"><ele>588.0</ele><time>2026-04-26T13:01:17.421Z</time></trkpt><trkpt lat="42.48985620932777" lon="12.664081218395104"><ele>588.0</ele><time>2026-04-26T13:01:18.421Z</time></trkpt><trkpt lat="42.48970859401213" lon="12.664191725336071"><ele>588.0</ele><time>2026-04-26T13:01:19.421Z</time></trkpt><trkpt lat="42.48956652983029" lon="12.664300791837531"><ele>587.3333333333334</ele><time>2026-04-26T13:01:20.421Z</time></trkpt><trkpt lat="42.489426108800956" lon="12.6644120903588"><ele>586.6666666666667</ele><time>2026-04-26T13:01:21.421Z</time></trkpt><trkpt lat="42.48929433394835" lon="12.66454853815806"><ele>586.0</ele><time>2026-04-26T13:01:22.421Z</time></trkpt><trkpt lat="42.489160688138746" lon="12.66469475738904"><ele>586.0</ele><time>2026-04-26T13:01:23.421Z</time></trkpt><trkpt lat="42.4890279488517" lon="12.664839487195175"><ele>586.0</ele><time>2026-04-26T13:01:24.42Z</time></trkpt><trkpt lat="42.488898785820325" lon="12.664978273654922"><ele>586.0</ele><time>2026-04-26T13:01:25.42Z</time></trkpt><trkpt lat="42.48877994681019" lon="12.665113644162169"><ele>584.3333333333334</ele><time>2026-04-26T13:01:26.42Z</time></trkpt><trkpt lat="42.488661114803925" lon="12.665255458624806"><ele>582.6666666666666</ele><time>2026-04-26T13:01:27.42Z</time></trkpt><trkpt lat="42.488535633979566" lon="12.665399198248554"><ele>581.0</ele><time>2026-04-26T13:01:28.42Z</time></trkpt><trkpt lat="42.488419248626315" lon="12.665524874693329"><ele>581.0</ele><time>2026-04-26T13:01:29.42Z</time></trkpt><trkpt lat="42.48829754875382" lon="12.6656315975431"><ele>581.0</ele><time>2026-04-26T13:01:30.42Z</time></trkpt><trkpt lat="42.48816261395396" lon="12.665733007020922"><ele>581.0</ele><time>2026-04-26T13:01:31.42Z</time></trkpt><trkpt lat="42.48800727828955" lon="12.665820716105083"><ele>578.25</ele><time>2026-04-26T13:01:32.42Z</time></trkpt><trkpt lat="42.48786283638343" lon="12.6658883621091"><ele>575.5</ele><time>2026-04-26T13:01:33.42Z</time></trkpt><trkpt lat="42.48772630314221" lon="12.665959878508334"><ele>572.75</ele><time>2026-04-26T13:01:34.42Z</time></trkpt><trkpt lat="42.48760202153036" lon="12.666051067826109"><ele>570.0</ele><time>2026-04-26T13:01:35.42Z</time></trkpt><trkpt lat="42.487481462126105" lon="12.666199548816005"><ele>570.0</ele><time>2026-04-26T13:01:36.42Z</time></trkpt><trkpt lat="42.487362969755196" lon="12.666382878079546"><ele>570.0</ele><time>2026-04-26T13:01:37.42Z</time></trkpt><trkpt lat="42.487266678084836" lon="12.666565009799404"><ele>570.0</ele><time>2026-04-26T13:01:38.42Z</time></trkpt><trkpt lat="42.4871578178948" lon="12.666727544561065"><ele>569.0</ele><time>2026-04-26T13:01:39.42Z</time></trkpt><trkpt lat="42.48704135408791" lon="12.666857387337632"><ele>568.0</ele><time>2026-04-26T13:01:40.42Z</time></trkpt><trkpt lat="42.48690813625999" lon="12.666984368071743"><ele>567.0</ele><time>2026-04-26T13:01:41.42Z</time></trkpt><trkpt lat="42.48674781204398" lon="12.66711337535001"><ele>567.0</ele><time>2026-04-26T13:01:42.42Z</time></trkpt><trkpt lat="42.486577883790574" lon="12.66722292668186"><ele>567.0</ele><time>2026-04-26T13:01:43.419Z</time></trkpt><trkpt lat="42.48641905510551" lon="12.667315757805822"><ele>567.0</ele><time>2026-04-26T13:01:44.419Z</time></trkpt><trkpt lat="42.48626670560529" lon="12.667401699238969"><ele>571.5</ele><time>2026-04-26T13:01:45.419Z</time></trkpt><trkpt lat="42.486120975503475" lon="12.667473299652503"><ele>576.0</ele><time>2026-04-26T13:01:46.419Z</time></trkpt><trkpt lat="42.48598333996661" lon="12.667550905217286"><ele>580.5</ele><time>2026-04-26T13:01:47.419Z</time></trkpt><trkpt lat="42.485852585516" lon="12.66763144415969"><ele>585.0</ele><time>2026-04-26T13:01:48.419Z</time></trkpt><trkpt lat="42.485729700277865" lon="12.667713903831228"><ele>585.0</ele><time>2026-04-26T13:01:49.419Z</time></trkpt><trkpt lat="42.485620450157846" lon="12.667774206705149"><ele>585.0</ele><time>2026-04-26T13:01:50.419Z</time></trkpt><trkpt lat="42.4855338069709" lon="12.667844529923876"><ele>585.0</ele><time>2026-04-26T13:01:51.419Z</time></trkpt><trkpt lat="42.48547346663944" lon="12.667957965719255"><ele>585.0</ele><time>2026-04-26T13:01:52.419Z</time></trkpt><trkpt lat="42.48544982744863" lon="12.66806112951895"><ele>585.0</ele><time>2026-04-26T13:01:53.419Z</time></trkpt><trkpt lat="42.4855289133335" lon="12.668341202328374"><ele>581.0</ele><time>2026-04-26T13:01:55.419Z</time></trkpt><trkpt lat="42.48562105582422" lon="12.668410020477054"><ele>577.0</ele><time>2026-04-26T13:01:56.419Z</time></trkpt><trkpt lat="42.48573080749674" lon="12.668409942758668"><ele>573.0</ele><time>2026-04-26T13:01:57.419Z</time></trkpt><trkpt lat="42.48583787441108" lon="12.668361161048736"><ele>569.0</ele><time>2026-04-26T13:01:58.419Z</time></trkpt><trkpt lat="42.48593683126799" lon="12.668253549941475"><ele>569.0</ele><time>2026-04-26T13:01:59.419Z</time></trkpt><trkpt lat="42.486045302664756" lon="12.668121217405812"><ele>569.0</ele><time>2026-04-26T13:02:00.419Z</time></trkpt><trkpt lat="42.486175498750804" lon="12.667986011081767"><ele>569.0</ele><time>2026-04-26T13:02:01.419Z</time></trkpt><trkpt lat="42.48635878910088" lon="12.667886069215388"><ele>568.3333333333333</ele><time>2026-04-26T13:02:02.419Z</time></trkpt><trkpt lat="42.48656079737859" lon="12.667810535483936"><ele>567.6666666666666</ele><time>2026-04-26T13:02:03.418Z</time></trkpt><trkpt lat="42.48677271837973" lon="12.667751286909217"><ele>567.0</ele><time>2026-04-26T13:02:04.418Z</time></trkpt><trkpt lat="42.48698880166885" lon="12.667754293408306"><ele>542.3333333333334</ele><time>2026-04-26T13:02:05.418Z</time></trkpt><trkpt lat="42.48719613228242" lon="12.667787853343864"><ele>517.6666666666667</ele><time>2026-04-26T13:02:06.418Z</time></trkpt><trkpt lat="42.48739487915594" lon="12.667810991757799"><ele>493.0</ele><time>2026-04-26T13:02:07.419Z</time></trkpt><trkpt lat="42.48752278799403" lon="12.667846583359761"><ele>493.0</ele><time>2026-04-26T13:02:08.419Z</time></trkpt><trkpt lat="42.48769518159608" lon="12.667905837760822"><ele>493.0</ele><time>2026-04-26T13:02:09.419Z</time></trkpt><trkpt lat="42.487908236214494" lon="12.668027598702938"><ele>493.0</ele><time>2026-04-26T13:02:10.419Z</time></trkpt><trkpt lat="42.487584720887554" lon="12.666856400787392"><ele>510.6666666666667</ele><time>2026-04-26T13:02:11.419Z</time></trkpt><trkpt lat="42.487732597004644" lon="12.66677596797854"><ele>528.3333333333334</ele><time>2026-04-26T13:02:12.419Z</time></trkpt><trkpt lat="42.48788437147788" lon="12.66671640085759"><ele>546.0</ele><time>2026-04-26T13:02:13.419Z</time></trkpt><trkpt lat="42.48805174386456" lon="12.666679812923988"><ele>546.0</ele><time>2026-04-26T13:02:14.418Z</time></trkpt><trkpt lat="42.48820890193584" lon="12.666665134046424"><ele>546.0</ele><time>2026-04-26T13:02:15.418Z</time></trkpt><trkpt lat="42.488363915236114" lon="12.666651487955336"><ele>546.0</ele><time>2026-04-26T13:02:16.418Z</time></trkpt><trkpt lat="42.48853365162565" lon="12.666616691932184"><ele>546.0</ele><time>2026-04-26T13:02:17.419Z</time></trkpt><trkpt lat="42.48871053064677" lon="12.666529221750517"><ele>546.0</ele><time>2026-04-26T13:02:18.419Z</time></trkpt><trkpt lat="42.48889037289858" lon="12.666415547436491"><ele>546.0</ele><time>2026-04-26T13:02:19.419Z</time></trkpt><trkpt lat="42.48906965411423" lon="12.666305981803886"><ele>548.6666666666666</ele><time>2026-04-26T13:02:20.418Z</time></trkpt><trkpt lat="42.48923510835469" lon="12.666201711589673"><ele>551.3333333333333</ele><time>2026-04-26T13:02:21.418Z</time></trkpt><trkpt lat="42.48940200594236" lon="12.666098737460903"><ele>554.0</ele><time>2026-04-26T13:02:22.418Z</time></trkpt><trkpt lat="42.48957364378648" lon="12.666003777291207"><ele>543.6666666666666</ele><time>2026-04-26T13:02:23.418Z</time></trkpt><trkpt lat="42.48972719785263" lon="12.66590308899037"><ele>533.3333333333334</ele><time>2026-04-26T13:02:24.418Z</time></trkpt><trkpt lat="42.4898780699393" lon="12.665791712450684"><ele>523.0</ele><time>2026-04-26T13:02:25.418Z</time></trkpt><trkpt lat="42.49000815571392" lon="12.665672658288122"><ele>523.0</ele><time>2026-04-26T13:02:26.418Z</time></trkpt><trkpt lat="42.49013048814243" lon="12.665510047564071"><ele>523.0</ele><time>2026-04-26T13:02:27.418Z</time></trkpt><trkpt lat="42.49022394022645" lon="12.665335979503896"><ele>523.0</ele><time>2026-04-26T13:02:28.418Z</time></trkpt><trkpt lat="42.49031821040147" lon="12.665186982865228"><ele>523.0</ele><time>2026-04-26T13:02:29.417Z</time></trkpt><trkpt lat="42.49044939430166" lon="12.665084824341053"><ele>523.0</ele><time>2026-04-26T13:02:30.417Z</time></trkpt><trkpt lat="42.49059035580814" lon="12.66500070090866"><ele>523.0</ele><time>2026-04-26T13:02:31.417Z</time></trkpt><trkpt lat="42.490750623637894" lon="12.664924699211882"><ele>523.0</ele><time>2026-04-26T13:02:32.417Z</time></trkpt><trkpt lat="42.49093111854433" lon="12.66487265504305"><ele>523.0</ele><time>2026-04-26T13:02:33.417Z</time></trkpt><trkpt lat="42.491113782857994" lon="12.664842085363784"><ele>523.0</ele><time>2026-04-26T13:02:34.417Z</time></trkpt><trkpt lat="42.49129289573459" lon="12.664797142247469"><ele>515.3333333333334</ele><time>2026-04-26T13:02:35.417Z</time></trkpt><trkpt lat="42.49146672377156" lon="12.664747764803726"><ele>507.66666666666663</ele><time>2026-04-26T13:02:36.417Z</time></trkpt><trkpt lat="42.49163115348223" lon="12.66467134978784"><ele>500.0</ele><time>2026-04-26T13:02:37.417Z</time></trkpt><trkpt lat="42.49179681979878" lon="12.664608983089071"><ele>500.0</ele><time>2026-04-26T13:02:38.417Z</time></trkpt><trkpt lat="42.4919501760867" lon="12.66452839945076"><ele>500.0</ele><time>2026-04-26T13:02:39.417Z</time></trkpt><trkpt lat="42.4920902239657" lon="12.664413770331969"><ele>500.0</ele><time>2026-04-26T13:02:40.417Z</time></trkpt><trkpt lat="42.49224109766461" lon="12.664286935554596"><ele>500.0</ele><time>2026-04-26T13:02:41.417Z</time></trkpt><trkpt lat="42.49238984027646" lon="12.66409825082725"><ele>500.0</ele><time>2026-04-26T13:02:42.417Z</time></trkpt><trkpt lat="42.492533306285466" lon="12.663908249504134"><ele>500.0</ele><time>2026-04-26T13:02:43.417Z</time></trkpt><trkpt lat="42.49269266108131" lon="12.663718286916714"><ele>494.0</ele><time>2026-04-26T13:02:44.417Z</time></trkpt><trkpt lat="42.492902019202496" lon="12.66356588846027"><ele>488.0</ele><time>2026-04-26T13:02:45.417Z</time></trkpt><trkpt lat="42.49308858820162" lon="12.663397632802935"><ele>488.0</ele><time>2026-04-26T13:02:46.417Z</time></trkpt><trkpt lat="42.49325321451124" lon="12.663221072850813"><ele>488.0</ele><time>2026-04-26T13:02:47.417Z</time></trkpt><trkpt lat="42.493399298226834" lon="12.66305585410426"><ele>488.0</ele><time>2026-04-26T13:02:48.417Z</time></trkpt><trkpt lat="42.49351970696187" lon="12.662893530689171"><ele>484.0</ele><time>2026-04-26T13:02:49.416Z</time></trkpt><trkpt lat="42.49362638446793" lon="12.662749637991023"><ele>480.0</ele><time>2026-04-26T13:02:50.416Z</time></trkpt><trkpt lat="42.49372094376152" lon="12.662616739329017"><ele>476.0</ele><time>2026-04-26T13:02:51.416Z</time></trkpt><trkpt lat="42.493811615851904" lon="12.662495020561693"><ele>472.0</ele><time>2026-04-26T13:02:52.416Z</time></trkpt><trkpt lat="42.493885055329265" lon="12.66239076856362"><ele>472.0</ele><time>2026-04-26T13:02:53.416Z</time></trkpt><trkpt lat="42.493936225445275" lon="12.662300542670803"><ele>472.00000000000006</ele><time>2026-04-26T13:02:54.416Z</time></trkpt><trkpt lat="42.49398568724348" lon="12.662203176618755"><ele>472.00000000000006</ele><time>2026-04-26T13:02:55.416Z</time></trkpt><trkpt lat="42.49398929170028" lon="12.66208122562959"><ele>472.0</ele><time>2026-04-26T13:02:56.416Z</time></trkpt><trkpt lat="42.49395917204822" lon="12.661943010461583"><ele>472.0</ele><time>2026-04-26T13:02:57.416Z</time></trkpt><trkpt lat="42.49386855640731" lon="12.661816914267723"><ele>480.0</ele><time>2026-04-26T13:02:58.416Z</time></trkpt><trkpt lat="42.49375299673163" lon="12.661693007509413"><ele>488.0</ele><time>2026-04-26T13:02:59.416Z</time></trkpt><trkpt lat="42.49362636209516" lon="12.661548796083906"><ele>496.0</ele><time>2026-04-26T13:03:00.416Z</time></trkpt><trkpt lat="42.493509980394876" lon="12.661358030570938"><ele>496.0</ele><time>2026-04-26T13:03:01.416Z</time></trkpt><trkpt lat="42.493391805324755" lon="12.66116007754792"><ele>496.0</ele><time>2026-04-26T13:03:02.416Z</time></trkpt><trkpt lat="42.49330029920793" lon="12.660960388067036"><ele>496.0</ele><time>2026-04-26T13:03:03.416Z</time></trkpt><trkpt lat="42.49323146814505" lon="12.660778550056527"><ele>490.75</ele><time>2026-04-26T13:03:04.416Z</time></trkpt><trkpt lat="42.4931544862423" lon="12.660599077273147"><ele>485.5</ele><time>2026-04-26T13:03:05.416Z</time></trkpt><trkpt lat="42.49307770434054" lon="12.66042510256759"><ele>480.25</ele><time>2026-04-26T13:03:06.416Z</time></trkpt><trkpt lat="42.493005758826435" lon="12.660265791822033"><ele>475.0</ele><time>2026-04-26T13:03:07.416Z</time></trkpt><trkpt lat="42.49295982634463" lon="12.66008324439037"><ele>471.0</ele><time>2026-04-26T13:03:08.415Z</time></trkpt><trkpt lat="42.492957855266845" lon="12.659874612689554"><ele>467.0</ele><time>2026-04-26T13:03:09.415Z</time></trkpt><trkpt lat="42.49296687155437" lon="12.659671773946334"><ele>463.0</ele><time>2026-04-26T13:03:10.415Z</time></trkpt><trkpt lat="42.49300049368822" lon="12.659456921175803"><ele>461.33333333333337</ele><time>2026-04-26T13:03:11.415Z</time></trkpt><trkpt lat="42.493053883386864" lon="12.659250343057261"><ele>459.66666666666663</ele><time>2026-04-26T13:03:12.415Z</time></trkpt><trkpt lat="42.49310336955883" lon="12.659042924531224"><ele>458.0</ele><time>2026-04-26T13:03:13.415Z</time></trkpt><trkpt lat="42.493144249811756" lon="12.658826500522263"><ele>458.0</ele><time>2026-04-26T13:03:14.415Z</time></trkpt><trkpt lat="42.49317595416693" lon="12.658620719666565"><ele>458.0</ele><time>2026-04-26T13:03:15.415Z</time></trkpt><trkpt lat="42.49319655737465" lon="12.658427280658401"><ele>458.0</ele><time>2026-04-26T13:03:16.415Z</time></trkpt><trkpt lat="42.493218880838405" lon="12.658244192451257"><ele>458.0</ele><time>2026-04-26T13:03:17.415Z</time></trkpt><trkpt lat="42.493239411143136" lon="12.6580664900568"><ele>457.25</ele><time>2026-04-26T13:03:18.415Z</time></trkpt><trkpt lat="42.49325609125036" lon="12.657895632711094"><ele>456.5</ele><time>2026-04-26T13:03:19.415Z</time></trkpt><trkpt lat="42.493275508375724" lon="12.657733827941081"><ele>455.75</ele><time>2026-04-26T13:03:20.415Z</time></trkpt><trkpt lat="42.493310946849" lon="12.65759059006002"><ele>455.0</ele><time>2026-04-26T13:03:21.415Z</time></trkpt><trkpt lat="42.493362843615486" lon="12.657462709383587"><ele>454.0</ele><time>2026-04-26T13:03:22.415Z</time></trkpt><trkpt lat="42.49343289338508" lon="12.657351048773013"><ele>453.0</ele><time>2026-04-26T13:03:23.415Z</time></trkpt><trkpt lat="42.49352626709481" lon="12.65728028404913"><ele>452.0</ele><time>2026-04-26T13:03:24.415Z</time></trkpt><trkpt lat="42.49363776738223" lon="12.657258423106098"><ele>451.0</ele><time>2026-04-26T13:03:25.415Z</time></trkpt><trkpt lat="42.49374238199271" lon="12.657289109655894"><ele>450.0</ele><time>2026-04-26T13:03:26.415Z</time></trkpt><trkpt lat="42.493826226113036" lon="12.657367038835782"><ele>449.25</ele><time>2026-04-26T13:03:27.415Z</time></trkpt><trkpt lat="42.49389803601677" lon="12.657507286848526"><ele>448.5</ele><time>2026-04-26T13:03:28.414Z</time></trkpt><trkpt lat="42.493931719630524" lon="12.657682743196087"><ele>447.75</ele><time>2026-04-26T13:03:29.414Z</time></trkpt><trkpt lat="42.49393879680122" lon="12.657878512112273"><ele>447.0</ele><time>2026-04-26T13:03:30.414Z</time></trkpt><trkpt lat="42.493953511794906" lon="12.658081326507851"><ele>445.75</ele><time>2026-04-26T13:03:31.414Z</time></trkpt><trkpt lat="42.49397757471552" lon="12.658268915625316"><ele>444.5</ele><time>2026-04-26T13:03:32.414Z</time></trkpt><trkpt lat="42.49399816050682" lon="12.658441724487192"><ele>443.25</ele><time>2026-04-26T13:03:33.414Z</time></trkpt><trkpt lat="42.494015430039425" lon="12.658607936795761"><ele>442.0</ele><time>2026-04-26T13:03:34.414Z</time></trkpt><trkpt lat="42.49402337940418" lon="12.658782247337523"><ele>441.25</ele><time>2026-04-26T13:03:35.414Z</time></trkpt><trkpt lat="42.494006655535685" lon="12.658964276142347"><ele>440.5</ele><time>2026-04-26T13:03:36.414Z</time></trkpt><trkpt lat="42.49398243969687" lon="12.659138812167116"><ele>439.75</ele><time>2026-04-26T13:03:37.414Z</time></trkpt><trkpt lat="42.49396301310591" lon="12.659298669926192"><ele>439.0</ele><time>2026-04-26T13:03:38.414Z</time></trkpt><trkpt lat="42.49394144948295" lon="12.659446219608123"><ele>440.6</ele><time>2026-04-26T13:03:39.414Z</time></trkpt><trkpt lat="42.49391880259143" lon="12.659573222987012"><ele>442.2</ele><time>2026-04-26T13:03:40.414Z</time></trkpt><trkpt lat="42.493912495478206" lon="12.659683377032273"><ele>443.80000000000007</ele><time>2026-04-26T13:03:41.414Z</time></trkpt><trkpt lat="42.49392998908235" lon="12.659790493378473"><ele>445.40000000000003</ele><time>2026-04-26T13:03:42.414Z</time></trkpt><trkpt lat="42.4940063848822" lon="12.659882017363008"><ele>447.0</ele><time>2026-04-26T13:03:43.414Z</time></trkpt><trkpt lat="42.49410726334545" lon="12.659913270235684"><ele>447.0</ele><time>2026-04-26T13:03:44.414Z</time></trkpt><trkpt lat="42.494239870483874" lon="12.659894733551214"><ele>447.0</ele><time>2026-04-26T13:03:45.414Z</time></trkpt><trkpt lat="42.494397047123066" lon="12.659853068982315"><ele>447.0</ele><time>2026-04-26T13:03:46.414Z</time></trkpt><trkpt lat="42.49454809182552" lon="12.659809924788735"><ele>447.0</ele><time>2026-04-26T13:03:47.414Z</time></trkpt><trkpt lat="42.494687248078414" lon="12.659748971865435"><ele>444.25</ele><time>2026-04-26T13:03:48.413Z</time></trkpt><trkpt lat="42.49484503317626" lon="12.65970928686486"><ele>441.5</ele><time>2026-04-26T13:03:49.413Z</time></trkpt><trkpt lat="42.49497382060031" lon="12.659705605128297"><ele>438.75</ele><time>2026-04-26T13:03:50.413Z</time></trkpt><trkpt lat="42.49509823240434" lon="12.659735987602126"><ele>436.0</ele><time>2026-04-26T13:03:51.413Z</time></trkpt><trkpt lat="42.49520993964356" lon="12.65979010559458"><ele>436.0</ele><time>2026-04-26T13:03:52.413Z</time></trkpt><trkpt lat="42.495329753646836" lon="12.659875973154657"><ele>436.0</ele><time>2026-04-26T13:03:53.413Z</time></trkpt><trkpt lat="42.49545520561886" lon="12.659988759413162"><ele>436.0</ele><time>2026-04-26T13:03:54.413Z</time></trkpt><trkpt lat="42.49556809067742" lon="12.660105413593836"><ele>436.0</ele><time>2026-04-26T13:03:55.413Z</time></trkpt><trkpt lat="42.49568404552472" lon="12.660191257720577"><ele>436.6666666666667</ele><time>2026-04-26T13:03:56.413Z</time></trkpt><trkpt lat="42.49579906685304" lon="12.660248050743489"><ele>437.33333333333337</ele><time>2026-04-26T13:03:57.413Z</time></trkpt><trkpt lat="42.49590860537465" lon="12.660277665670955"><ele>438.0</ele><time>2026-04-26T13:03:58.413Z</time></trkpt><trkpt lat="42.495994473743686" lon="12.660292941370809"><ele>438.66666666666663</ele><time>2026-04-26T13:03:59.413Z</time></trkpt><trkpt lat="42.49605749879106" lon="12.660294781642968"><ele>439.3333333333333</ele><time>2026-04-26T13:04:00.413Z</time></trkpt><trkpt lat="42.496119651564044" lon="12.660271519506784"><ele>440.0</ele><time>2026-04-26T13:04:01.413Z</time></trkpt><trkpt lat="42.496199113678074" lon="12.66021164615116"><ele>432.25</ele><time>2026-04-26T13:04:02.413Z</time></trkpt><trkpt lat="42.49629003601129" lon="12.660136271410181"><ele>424.5</ele><time>2026-04-26T13:04:03.413Z</time></trkpt><trkpt lat="42.49640031436547" lon="12.66011390362914"><ele>416.75</ele><time>2026-04-26T13:04:04.413Z</time></trkpt><trkpt lat="42.496513983639794" lon="12.660150494748526"><ele>409.0</ele><time>2026-04-26T13:04:05.413Z</time></trkpt><trkpt lat="42.496637703562875" lon="12.66026387827568"><ele>410.5</ele><time>2026-04-26T13:04:06.413Z</time></trkpt><trkpt lat="42.49675828189192" lon="12.660397129195765"><ele>412.0</ele><time>2026-04-26T13:04:07.412Z</time></trkpt><trkpt lat="42.496874121903005" lon="12.660516767904017"><ele>413.5</ele><time>2026-04-26T13:04:08.412Z</time></trkpt><trkpt lat="42.49698665842025" lon="12.660637777224517"><ele>415.0</ele><time>2026-04-26T13:04:09.412Z</time></trkpt><trkpt lat="42.49709784216986" lon="12.660731133901068"><ele>415.0</ele><time>2026-04-26T13:04:10.412Z</time></trkpt><trkpt lat="42.497195190966174" lon="12.660836495515234"><ele>415.0</ele><time>2026-04-26T13:04:11.412Z</time></trkpt><trkpt lat="42.49729352465237" lon="12.660915101779052"><ele>415.0</ele><time>2026-04-26T13:04:12.412Z</time></trkpt><trkpt lat="42.497382364668695" lon="12.660973002913666"><ele>415.0</ele><time>2026-04-26T13:04:13.414Z</time></trkpt><trkpt lat="42.49744598890743" lon="12.660996258935715"><ele>415.0</ele><time>2026-04-26T13:04:14.413Z</time></trkpt><trkpt lat="42.49753716293283" lon="12.660944710492034"><ele>415.0</ele><time>2026-04-26T13:04:15.413Z</time></trkpt><trkpt lat="42.497578638602654" lon="12.66080910329567"><ele>415.0</ele><time>2026-04-26T13:04:16.413Z</time></trkpt><trkpt lat="42.497563669118854" lon="12.660672467764206"><ele>415.0</ele><time>2026-04-26T13:04:17.414Z</time></trkpt><trkpt lat="42.49751017607375" lon="12.660479075835333"><ele>415.0</ele><time>2026-04-26T13:04:18.413Z</time></trkpt><trkpt lat="42.497437029461125" lon="12.660338891412358"><ele>412.25</ele><time>2026-04-26T13:04:19.414Z</time></trkpt><trkpt lat="42.49738116640385" lon="12.660220541233535"><ele>409.5</ele><time>2026-04-26T13:04:20.413Z</time></trkpt><trkpt lat="42.49736372973344" lon="12.660077825903988"><ele>406.75</ele><time>2026-04-26T13:04:21.413Z</time></trkpt><trkpt lat="42.49739279379475" lon="12.659929948688312"><ele>404.0</ele><time>2026-04-26T13:04:22.414Z</time></trkpt><trkpt lat="42.497477565644054" lon="12.659766799943819"><ele>404.0</ele><time>2026-04-26T13:04:23.413Z</time></trkpt><trkpt lat="42.497591697377864" lon="12.659656096135109"><ele>404.0</ele><time>2026-04-26T13:04:24.413Z</time></trkpt><trkpt lat="42.49768607232045" lon="12.65953747249715"><ele>404.0</ele><time>2026-04-26T13:04:25.413Z</time></trkpt><trkpt lat="42.49777005238832" lon="12.659427087269929"><ele>404.0</ele><time>2026-04-26T13:04:26.414Z</time></trkpt><trkpt lat="42.49785236962115" lon="12.659324661539296"><ele>401.2</ele><time>2026-04-26T13:04:27.413Z</time></trkpt><trkpt lat="42.4979364181687" lon="12.659251395714215"><ele>398.4</ele><time>2026-04-26T13:04:28.413Z</time></trkpt><trkpt lat="42.49800550292434" lon="12.659203061274715"><ele>395.6</ele><time>2026-04-26T13:04:29.413Z</time></trkpt><trkpt lat="42.498072608700824" lon="12.659198811308286"><ele>392.8</ele><time>2026-04-26T13:04:30.413Z</time></trkpt><trkpt lat="42.49815189408706" lon="12.659240274671038"><ele>390.0</ele><time>2026-04-26T13:04:31.413Z</time></trkpt><trkpt lat="42.49823263837947" lon="12.659360363700165"><ele>390.0</ele><time>2026-04-26T13:04:32.413Z</time></trkpt><trkpt lat="42.49828474322267" lon="12.659537097134264"><ele>390.0</ele><time>2026-04-26T13:04:33.413Z</time></trkpt><trkpt lat="42.49833214830936" lon="12.659724668095084"><ele>390.0</ele><time>2026-04-26T13:04:34.413Z</time></trkpt><trkpt lat="42.498379873214" lon="12.65990392702819"><ele>390.0</ele><time>2026-04-26T13:04:35.413Z</time></trkpt><trkpt lat="42.498437127448554" lon="12.6600724984124"><ele>390.0</ele><time>2026-04-26T13:04:36.413Z</time></trkpt><trkpt lat="42.498485510236115" lon="12.660243765207937"><ele>390.0</ele><time>2026-04-26T13:04:37.413Z</time></trkpt><trkpt lat="42.49854781419467" lon="12.660414026147498"><ele>390.0</ele><time>2026-04-26T13:04:38.413Z</time></trkpt><trkpt lat="42.498618113584655" lon="12.660570042366052"><ele>390.0</ele><time>2026-04-26T13:04:39.413Z</time></trkpt><trkpt lat="42.498695420372876" lon="12.66070726892978"><ele>388.8</ele><time>2026-04-26T13:04:40.413Z</time></trkpt><trkpt lat="42.49877467586985" lon="12.660831365398254"><ele>387.6</ele><time>2026-04-26T13:04:41.413Z</time></trkpt><trkpt lat="42.498853598015415" lon="12.660942466346645"><ele>386.4</ele><time>2026-04-26T13:04:42.413Z</time></trkpt><trkpt lat="42.498935237867016" lon="12.661036695599465"><ele>385.2</ele><time>2026-04-26T13:04:43.413Z</time></trkpt><trkpt lat="42.4990172647819" lon="12.661123150555886"><ele>384.0</ele><time>2026-04-26T13:04:44.413Z</time></trkpt><trkpt lat="42.49910076979308" lon="12.661184692487545"><ele>381.6</ele><time>2026-04-26T13:04:45.413Z</time></trkpt><trkpt lat="42.49920249236065" lon="12.66123228488347"><ele>379.2</ele><time>2026-04-26T13:04:46.412Z</time></trkpt><trkpt lat="42.49932065252689" lon="12.66122473075973"><ele>376.8</ele><time>2026-04-26T13:04:47.412Z</time></trkpt><trkpt lat="42.49943367790711" lon="12.66119078439128"><ele>374.40000000000003</ele><time>2026-04-26T13:04:48.412Z</time></trkpt><trkpt lat="42.4995197894013" lon="12.66115533178848"><ele>372.0</ele><time>2026-04-26T13:04:49.412Z</time></trkpt><trkpt lat="42.49958513158525" lon="12.661101731090833"><ele>372.0</ele><time>2026-04-26T13:04:50.412Z</time></trkpt><trkpt lat="42.49962299726124" lon="12.661019135077694"><ele>372.0</ele><time>2026-04-26T13:04:51.412Z</time></trkpt><trkpt lat="42.49961049280019" lon="12.6609035960176"><ele>372.0</ele><time>2026-04-26T13:04:52.412Z</time></trkpt><trkpt lat="42.49955388362068" lon="12.660792339659451"><ele>372.0</ele><time>2026-04-26T13:04:53.412Z</time></trkpt><trkpt lat="42.49949005374516" lon="12.660715942350773"><ele>372.0</ele><time>2026-04-26T13:04:54.412Z</time></trkpt><trkpt lat="42.49942663842479" lon="12.660657533945663"><ele>372.0</ele><time>2026-04-26T13:04:55.412Z</time></trkpt><trkpt lat="42.49937524131226" lon="12.660593452156771"><ele>372.0</ele><time>2026-04-26T13:04:56.412Z</time></trkpt><trkpt lat="42.499356522879665" lon="12.660498982770427"><ele>372.0</ele><time>2026-04-26T13:04:57.412Z</time></trkpt><trkpt lat="42.49938138568727" lon="12.66040111288947"><ele>372.0</ele><time>2026-04-26T13:04:58.412Z</time></trkpt><trkpt lat="42.49944402933482" lon="12.660343200751432"><ele>372.0</ele><time>2026-04-26T13:04:59.412Z</time></trkpt><trkpt lat="42.499532799605326" lon="12.660334602351684"><ele>372.0</ele><time>2026-04-26T13:05:00.412Z</time></trkpt><trkpt lat="42.49963719687618" lon="12.660385834642822"><ele>372.0</ele><time>2026-04-26T13:05:01.412Z</time></trkpt><trkpt lat="42.49974128612071" lon="12.660471010480741"><ele>372.0</ele><time>2026-04-26T13:05:02.412Z</time></trkpt><trkpt lat="42.49982240456262" lon="12.660566245759263"><ele>372.0</ele><time>2026-04-26T13:05:03.412Z</time></trkpt><trkpt lat="42.4998918635472" lon="12.660689930145821"><ele>372.0</ele><time>2026-04-26T13:05:04.412Z</time></trkpt><trkpt lat="42.499944168917935" lon="12.660823751483143"><ele>372.0</ele><time>2026-04-26T13:05:05.412Z</time></trkpt><trkpt lat="42.49998803572149" lon="12.660957923636076"><ele>372.0</ele><time>2026-04-26T13:05:06.411Z</time></trkpt><trkpt lat="42.50005058931157" lon="12.661094913540909"><ele>373.75</ele><time>2026-04-26T13:05:07.411Z</time></trkpt><trkpt lat="42.50013759060984" lon="12.6612363090808"><ele>375.5</ele><time>2026-04-26T13:05:08.411Z</time></trkpt><trkpt lat="42.50023875231274" lon="12.661365217471818"><ele>377.25</ele><time>2026-04-26T13:05:09.411Z</time></trkpt><trkpt lat="42.50030842179412" lon="12.661487059495496"><ele>379.0</ele><time>2026-04-26T13:05:10.411Z</time></trkpt><trkpt lat="42.500388088145016" lon="12.661596356045386"><ele>374.75</ele><time>2026-04-26T13:05:11.411Z</time></trkpt><trkpt lat="42.50049215237628" lon="12.661690520302413"><ele>370.5</ele><time>2026-04-26T13:05:12.411Z</time></trkpt><trkpt lat="42.50059261957549" lon="12.661767709375484"><ele>366.25</ele><time>2026-04-26T13:05:13.411Z</time></trkpt><trkpt lat="42.500691830873166" lon="12.661838211451109"><ele>362.0</ele><time>2026-04-26T13:05:14.411Z</time></trkpt><trkpt lat="42.500786433455026" lon="12.661905773372638"><ele>361.40000000000003</ele><time>2026-04-26T13:05:15.411Z</time></trkpt><trkpt lat="42.50087634435525" lon="12.661965903497125"><ele>360.8</ele><time>2026-04-26T13:05:16.411Z</time></trkpt><trkpt lat="42.50096360203683" lon="12.662009625071414"><ele>360.2</ele><time>2026-04-26T13:05:17.411Z</time></trkpt><trkpt lat="42.50107151616757" lon="12.662012928816237"><ele>359.6</ele><time>2026-04-26T13:05:18.411Z</time></trkpt><trkpt lat="42.501182173257675" lon="12.661964249721434"><ele>359.0</ele><time>2026-04-26T13:05:19.411Z</time></trkpt><trkpt lat="42.50128571388122" lon="12.661900193478981"><ele>359.0</ele><time>2026-04-26T13:05:20.411Z</time></trkpt><trkpt lat="42.5013795527112" lon="12.661839239713265"><ele>359.0</ele><time>2026-04-26T13:05:21.411Z</time></trkpt><trkpt lat="42.501466760659795" lon="12.66178127590878"><ele>359.0</ele><time>2026-04-26T13:05:22.411Z</time></trkpt><trkpt lat="42.501546704127776" lon="12.661724414328276"><ele>359.0</ele><time>2026-04-26T13:05:23.411Z</time></trkpt><trkpt lat="42.50163288442429" lon="12.66165097789442"><ele>359.0</ele><time>2026-04-26T13:05:24.411Z</time></trkpt><trkpt lat="42.50170995849768" lon="12.661583681890827"><ele>359.0</ele><time>2026-04-26T13:05:25.411Z</time></trkpt><trkpt lat="42.501807524791175" lon="12.661529983416848"><ele>359.0</ele><time>2026-04-26T13:05:26.41Z</time></trkpt><trkpt lat="42.50189826712674" lon="12.66144856107341"><ele>359.0</ele><time>2026-04-26T13:05:27.41Z</time></trkpt><trkpt lat="42.50198271032385" lon="12.661355253665665"><ele>359.0</ele><time>2026-04-26T13:05:28.41Z</time></trkpt><trkpt lat="42.50205671234036" lon="12.661240005905146"><ele>359.0</ele><time>2026-04-26T13:05:29.41Z</time></trkpt><trkpt lat="42.502122564343985" lon="12.661137754149122"><ele>359.2</ele><time>2026-04-26T13:05:30.41Z</time></trkpt><trkpt lat="42.50219121029938" lon="12.661020477060234"><ele>359.4</ele><time>2026-04-26T13:05:31.41Z</time></trkpt><trkpt lat="42.50225209354094" lon="12.66090645362335"><ele>359.6</ele><time>2026-04-26T13:05:32.41Z</time></trkpt><trkpt lat="42.50230647227159" lon="12.660806821177072"><ele>359.8</ele><time>2026-04-26T13:05:33.41Z</time></trkpt><trkpt lat="42.50237602674453" lon="12.660706192214922"><ele>360.0</ele><time>2026-04-26T13:05:34.41Z</time></trkpt><trkpt lat="42.50245863317227" lon="12.660598851009624"><ele>360.0</ele><time>2026-04-26T13:05:35.41Z</time></trkpt><trkpt lat="42.50257412739742" lon="12.660521034033355"><ele>360.0</ele><time>2026-04-26T13:05:36.41Z</time></trkpt><trkpt lat="42.502677165876" lon="12.660430787361548"><ele>360.0</ele><time>2026-04-26T13:05:37.41Z</time></trkpt><trkpt lat="42.50277820265168" lon="12.660326722221077"><ele>360.0</ele><time>2026-04-26T13:05:38.41Z</time></trkpt><trkpt lat="42.502869176680385" lon="12.660236806849538"><ele>359.2</ele><time>2026-04-26T13:05:39.41Z</time></trkpt><trkpt lat="42.502959166876174" lon="12.660146690446462"><ele>358.4</ele><time>2026-04-26T13:05:40.41Z</time></trkpt><trkpt lat="42.50305378976608" lon="12.660045306264655"><ele>357.6</ele><time>2026-04-26T13:05:41.41Z</time></trkpt><trkpt lat="42.503137863920855" lon="12.659943852062693"><ele>356.8</ele><time>2026-04-26T13:05:42.41Z</time></trkpt><trkpt lat="42.503207444600235" lon="12.659840277583706"><ele>356.0</ele><time>2026-04-26T13:05:43.41Z</time></trkpt><trkpt lat="42.50327273334811" lon="12.659730103015455"><ele>356.0</ele><time>2026-04-26T13:05:44.41Z</time></trkpt><trkpt lat="42.503331838089586" lon="12.659625062170388"><ele>356.0</ele><time>2026-04-26T13:05:45.409Z</time></trkpt><trkpt lat="42.50339023521457" lon="12.65950658692374"><ele>356.0</ele><time>2026-04-26T13:05:46.409Z</time></trkpt><trkpt lat="42.50345038547162" lon="12.659396860905243"><ele>356.0</ele><time>2026-04-26T13:05:47.409Z</time></trkpt><trkpt lat="42.50354199665823" lon="12.65929413374925"><ele>356.0</ele><time>2026-04-26T13:05:48.409Z</time></trkpt><trkpt lat="42.503648644152264" lon="12.659193855146402"><ele>353.25</ele><time>2026-04-26T13:05:49.409Z</time></trkpt><trkpt lat="42.50375343842657" lon="12.659095958130486"><ele>350.5</ele><time>2026-04-26T13:05:50.409Z</time></trkpt><trkpt lat="42.50386030586711" lon="12.658999273901816"><ele>347.75</ele><time>2026-04-26T13:05:51.409Z</time></trkpt><trkpt lat="42.50395728818047" lon="12.65889584418838"><ele>345.0</ele><time>2026-04-26T13:05:52.409Z</time></trkpt><trkpt lat="42.50404567182677" lon="12.658784459336989"><ele>345.0</ele><time>2026-04-26T13:05:53.409Z</time></trkpt><trkpt lat="42.504127238188254" lon="12.658674397263018"><ele>345.0</ele><time>2026-04-26T13:05:54.409Z</time></trkpt><trkpt lat="42.5042053324867" lon="12.658565829712986"><ele>345.0</ele><time>2026-04-26T13:05:55.409Z</time></trkpt><trkpt lat="42.5042797495067" lon="12.658466898670886"><ele>345.0</ele><time>2026-04-26T13:05:56.409Z</time></trkpt><trkpt lat="42.50434146039968" lon="12.658336187817005"><ele>345.0</ele><time>2026-04-26T13:05:57.409Z</time></trkpt><trkpt lat="42.50438608360702" lon="12.658172907692652"><ele>344.75</ele><time>2026-04-26T13:05:58.409Z</time></trkpt><trkpt lat="42.50442963385536" lon="12.658012112844578"><ele>344.5</ele><time>2026-04-26T13:05:59.409Z</time></trkpt><trkpt lat="42.50445548702572" lon="12.657855963050444"><ele>344.25</ele><time>2026-04-26T13:06:00.409Z</time></trkpt><trkpt lat="42.504480677947726" lon="12.657703890432405"><ele>344.0</ele><time>2026-04-26T13:06:01.409Z</time></trkpt><trkpt lat="42.50450896171563" lon="12.657561811680697"><ele>342.4</ele><time>2026-04-26T13:06:02.409Z</time></trkpt><trkpt lat="42.504541299717786" lon="12.657426542495353"><ele>340.79999999999995</ele><time>2026-04-26T13:06:03.409Z</time></trkpt><trkpt lat="42.50458370030596" lon="12.657294350627168"><ele>339.20000000000005</ele><time>2026-04-26T13:06:04.409Z</time></trkpt><trkpt lat="42.50463562487928" lon="12.657164028674956"><ele>337.6</ele><time>2026-04-26T13:06:05.408Z</time></trkpt><trkpt lat="42.50469717799865" lon="12.65703609916216"><ele>336.0</ele><time>2026-04-26T13:06:06.408Z</time></trkpt><trkpt lat="42.50477023133925" lon="12.65692413269068"><ele>334.8</ele><time>2026-04-26T13:06:07.408Z</time></trkpt><trkpt lat="42.504841732476145" lon="12.6568196310859"><ele>333.6</ele><time>2026-04-26T13:06:08.408Z</time></trkpt><trkpt lat="42.50492742742029" lon="12.656735584255188"><ele>332.4</ele><time>2026-04-26T13:06:09.408Z</time></trkpt><trkpt lat="42.50501302065737" lon="12.656658095519603"><ele>331.2</ele><time>2026-04-26T13:06:10.408Z</time></trkpt><trkpt lat="42.505094673944335" lon="12.656586076214403"><ele>330.0</ele><time>2026-04-26T13:06:11.408Z</time></trkpt><trkpt lat="42.50517592892579" lon="12.65653102743785"><ele>330.0</ele><time>2026-04-26T13:06:12.408Z</time></trkpt><trkpt lat="42.50525113765468" lon="12.656503476492185"><ele>330.0</ele><time>2026-04-26T13:06:13.408Z</time></trkpt><trkpt lat="42.50531607580866" lon="12.65650697948557"><ele>330.0</ele><time>2026-04-26T13:06:14.408Z</time></trkpt><trkpt lat="42.505380423633675" lon="12.656547568946902"><ele>330.0</ele><time>2026-04-26T13:06:15.408Z</time></trkpt><trkpt lat="42.50541586032655" lon="12.656624035948928"><ele>330.0</ele><time>2026-04-26T13:06:16.408Z</time></trkpt><trkpt lat="42.505414955794066" lon="12.656745418769235"><ele>330.0</ele><time>2026-04-26T13:06:17.408Z</time></trkpt><trkpt lat="42.5053690657103" lon="12.65686577627197"><ele>330.0</ele><time>2026-04-26T13:06:18.408Z</time></trkpt><trkpt lat="42.50529275302092" lon="12.65699816857044"><ele>330.0</ele><time>2026-04-26T13:06:19.408Z</time></trkpt><trkpt lat="42.50520100364537" lon="12.657136284956891"><ele>330.0</ele><time>2026-04-26T13:06:20.408Z</time></trkpt><trkpt lat="42.5051468617789" lon="12.657299304583493"><ele>330.0</ele><time>2026-04-26T13:06:21.408Z</time></trkpt><trkpt lat="42.50511986026713" lon="12.65749757479972"><ele>330.0</ele><time>2026-04-26T13:06:22.408Z</time></trkpt><trkpt lat="42.50510672800322" lon="12.657720745122473"><ele>330.0</ele><time>2026-04-26T13:06:23.408Z</time></trkpt><trkpt lat="42.50509189036234" lon="12.657925875653337"><ele>330.0</ele><time>2026-04-26T13:06:24.408Z</time></trkpt><trkpt lat="42.50505399627503" lon="12.658117510516803"><ele>329.5</ele><time>2026-04-26T13:06:25.408Z</time></trkpt><trkpt lat="42.504998379288345" lon="12.658308020319488"><ele>329.0</ele><time>2026-04-26T13:06:26.408Z</time></trkpt><trkpt lat="42.50494798422782" lon="12.658495824048703"><ele>328.5</ele><time>2026-04-26T13:06:27.408Z</time></trkpt><trkpt lat="42.50490073799782" lon="12.658664110814657"><ele>328.0</ele><time>2026-04-26T13:06:28.408Z</time></trkpt><trkpt lat="42.50486152007704" lon="12.658810522092626"><ele>327.79999999999995</ele><time>2026-04-26T13:06:29.407Z</time></trkpt><trkpt lat="42.504835837187336" lon="12.658924685643106"><ele>327.6</ele><time>2026-04-26T13:06:30.407Z</time></trkpt><trkpt lat="42.50483522588624" lon="12.659031159726059"><ele>327.4</ele><time>2026-04-26T13:06:31.408Z</time></trkpt><trkpt lat="42.50487984301687" lon="12.659143500124419"><ele>327.20000000000005</ele><time>2026-04-26T13:06:32.408Z</time></trkpt><trkpt lat="42.50494474861576" lon="12.659239607377957"><ele>327.0</ele><time>2026-04-26T13:06:33.408Z</time></trkpt><trkpt lat="42.50503823986775" lon="12.659268914297913"><ele>327.0</ele><time>2026-04-26T13:06:34.408Z</time></trkpt><trkpt lat="42.50522887656523" lon="12.659262720784024"><ele>327.0</ele><time>2026-04-26T13:06:35.407Z</time></trkpt><trkpt lat="42.50548892205033" lon="12.65920258844467"><ele>322.3333333333333</ele><time>2026-04-26T13:06:36.407Z</time></trkpt><trkpt lat="42.505659797103846" lon="12.659105082409905"><ele>317.66666666666663</ele><time>2026-04-26T13:06:37.407Z</time></trkpt><trkpt lat="42.505830430572374" lon="12.658984972101194"><ele>313.0</ele><time>2026-04-26T13:06:38.407Z</time></trkpt><trkpt lat="42.50600842181789" lon="12.658875233033804"><ele>313.0</ele><time>2026-04-26T13:06:39.407Z</time></trkpt><trkpt lat="42.50619202240043" lon="12.658764880810425"><ele>313.0</ele><time>2026-04-26T13:06:40.407Z</time></trkpt><trkpt lat="42.50637596805166" lon="12.658633110713836"><ele>313.0</ele><time>2026-04-26T13:06:41.407Z</time></trkpt><trkpt lat="42.506565865777546" lon="12.65849606590947"><ele>311.3333333333333</ele><time>2026-04-26T13:06:42.407Z</time></trkpt><trkpt lat="42.50675097469352" lon="12.658335301145863"><ele>309.6666666666667</ele><time>2026-04-26T13:06:43.407Z</time></trkpt><trkpt lat="42.506938682057324" lon="12.658181721215186"><ele>308.0</ele><time>2026-04-26T13:06:44.407Z</time></trkpt><trkpt lat="42.507122577017206" lon="12.658064002915403"><ele>305.33333333333337</ele><time>2026-04-26T13:06:45.407Z</time></trkpt><trkpt lat="42.50728967313416" lon="12.657983816655069"><ele>302.6666666666667</ele><time>2026-04-26T13:06:46.407Z</time></trkpt><trkpt lat="42.50743498380233" lon="12.657924938378049"><ele>300.0</ele><time>2026-04-26T13:06:47.407Z</time></trkpt><trkpt lat="42.50757395854515" lon="12.657805651837265"><ele>300.0</ele><time>2026-04-26T13:06:48.407Z</time></trkpt><trkpt lat="42.50772571947441" lon="12.65768601678538"><ele>300.0</ele><time>2026-04-26T13:06:49.407Z</time></trkpt><trkpt lat="42.50789571707351" lon="12.657632708925956"><ele>300.0</ele><time>2026-04-26T13:06:50.407Z</time></trkpt><trkpt lat="42.50805730641757" lon="12.65758645048062"><ele>297.3333333333333</ele><time>2026-04-26T13:06:51.407Z</time></trkpt><trkpt lat="42.50820340630728" lon="12.657482513150217"><ele>294.66666666666663</ele><time>2026-04-26T13:06:52.407Z</time></trkpt><trkpt lat="42.508342743517325" lon="12.657352470748421"><ele>292.0</ele><time>2026-04-26T13:06:53.407Z</time></trkpt><trkpt lat="42.50848112366248" lon="12.657223677103476"><ele>292.0</ele><time>2026-04-26T13:06:54.406Z</time></trkpt><trkpt lat="42.5086004749588" lon="12.657106760035228"><ele>292.0</ele><time>2026-04-26T13:06:55.406Z</time></trkpt><trkpt lat="42.508708407377284" lon="12.657002592874855"><ele>292.0</ele><time>2026-04-26T13:06:56.406Z</time></trkpt><trkpt lat="42.508814293582624" lon="12.656928291976772"><ele>292.0</ele><time>2026-04-26T13:06:57.406Z</time></trkpt><trkpt lat="42.50894257105575" lon="12.656900056917491"><ele>291.0</ele><time>2026-04-26T13:06:58.406Z</time></trkpt><trkpt lat="42.50909623908562" lon="12.656921949333402"><ele>290.0</ele><time>2026-04-26T13:06:59.406Z</time></trkpt><trkpt lat="42.50926669569861" lon="12.656954286117163"><ele>289.0</ele><time>2026-04-26T13:07:00.406Z</time></trkpt><trkpt lat="42.5094266999964" lon="12.656993316409448"><ele>287.75</ele><time>2026-04-26T13:07:01.406Z</time></trkpt><trkpt lat="42.50955899907935" lon="12.657049993926798"><ele>286.5</ele><time>2026-04-26T13:07:02.406Z</time></trkpt><trkpt lat="42.50968706094925" lon="12.657121989065002"><ele>285.25</ele><time>2026-04-26T13:07:03.406Z</time></trkpt><trkpt lat="42.50980868885116" lon="12.65716787473076"><ele>284.0</ele><time>2026-04-26T13:07:04.406Z</time></trkpt><trkpt lat="42.50992821984744" lon="12.657188498478108"><ele>283.0</ele><time>2026-04-26T13:07:05.406Z</time></trkpt><trkpt lat="42.51004948574763" lon="12.65716458028038"><ele>282.0</ele><time>2026-04-26T13:07:06.406Z</time></trkpt><trkpt lat="42.51018523316312" lon="12.657073340036726"><ele>281.0</ele><time>2026-04-26T13:07:07.406Z</time></trkpt><trkpt lat="42.51033468652002" lon="12.656949353363645"><ele>280.0</ele><time>2026-04-26T13:07:08.406Z</time></trkpt><trkpt lat="42.51049827679749" lon="12.656837280367196"><ele>276.3333333333333</ele><time>2026-04-26T13:07:09.406Z</time></trkpt><trkpt lat="42.51067746557469" lon="12.656716749931391"><ele>272.6666666666667</ele><time>2026-04-26T13:07:10.406Z</time></trkpt><trkpt lat="42.51085170665315" lon="12.656573649668545"><ele>269.0</ele><time>2026-04-26T13:07:11.406Z</time></trkpt><trkpt lat="42.51100456805514" lon="12.656419761958725"><ele>269.0</ele><time>2026-04-26T13:07:12.406Z</time></trkpt><trkpt lat="42.51114673974883" lon="12.65627524518524"><ele>269.0</ele><time>2026-04-26T13:07:13.406Z</time></trkpt><trkpt lat="42.51128302292168" lon="12.656145124694058"><ele>269.0</ele><time>2026-04-26T13:07:14.405Z</time></trkpt><trkpt lat="42.51142572589174" lon="12.656040258094919"><ele>268.0</ele><time>2026-04-26T13:07:15.405Z</time></trkpt><trkpt lat="42.51157475738813" lon="12.655924007718298"><ele>267.0</ele><time>2026-04-26T13:07:16.405Z</time></trkpt><trkpt lat="42.5117407473991" lon="12.655816188664357"><ele>266.0</ele><time>2026-04-26T13:07:17.405Z</time></trkpt><trkpt lat="42.511931486101275" lon="12.65572337562276"><ele>263.33333333333337</ele><time>2026-04-26T13:07:18.405Z</time></trkpt><trkpt lat="42.51212489558463" lon="12.655632950408508"><ele>260.6666666666667</ele><time>2026-04-26T13:07:19.405Z</time></trkpt><trkpt lat="42.51232408871019" lon="12.655530291664093"><ele>258.0</ele><time>2026-04-26T13:07:20.405Z</time></trkpt><trkpt lat="42.51250516867435" lon="12.655416803250935"><ele>258.0</ele><time>2026-04-26T13:07:21.405Z</time></trkpt><trkpt lat="42.51270750068505" lon="12.655300965761203"><ele>258.0</ele><time>2026-04-26T13:07:22.405Z</time></trkpt><trkpt lat="42.512902642959354" lon="12.655181400803405"><ele>258.0</ele><time>2026-04-26T13:07:23.405Z</time></trkpt><trkpt lat="42.51309805086016" lon="12.65508747435433"><ele>256.3333333333333</ele><time>2026-04-26T13:07:24.405Z</time></trkpt><trkpt lat="42.51328245209184" lon="12.65502115097283"><ele>254.66666666666666</ele><time>2026-04-26T13:07:25.405Z</time></trkpt><trkpt lat="42.51345545369124" lon="12.654964274623058"><ele>253.0</ele><time>2026-04-26T13:07:26.405Z</time></trkpt><trkpt lat="42.51363910409848" lon="12.654906517943559"><ele>252.0</ele><time>2026-04-26T13:07:27.405Z</time></trkpt><trkpt lat="42.51382069513166" lon="12.65485652922163"><ele>251.0</ele><time>2026-04-26T13:07:28.405Z</time></trkpt><trkpt lat="42.513986479552266" lon="12.654790045647138"><ele>250.0</ele><time>2026-04-26T13:07:29.405Z</time></trkpt><trkpt lat="42.51414891284868" lon="12.65471607876293"><ele>250.0</ele><time>2026-04-26T13:07:30.405Z</time></trkpt><trkpt lat="42.51428918879198" lon="12.654636920758627"><ele>250.0</ele><time>2026-04-26T13:07:31.405Z</time></trkpt><trkpt lat="42.51443947107243" lon="12.654557758621458"><ele>250.0</ele><time>2026-04-26T13:07:32.405Z</time></trkpt><trkpt lat="42.51458041734806" lon="12.654472305729433"><ele>250.4</ele><time>2026-04-26T13:07:33.405Z</time></trkpt><trkpt lat="42.51470487518473" lon="12.654401198257373"><ele>250.8</ele><time>2026-04-26T13:07:34.404Z</time></trkpt><trkpt lat="42.51481876419575" lon="12.654353570799787"><ele>251.2</ele><time>2026-04-26T13:07:35.404Z</time></trkpt><trkpt lat="42.51491556212472" lon="12.654333647686409"><ele>251.6</ele><time>2026-04-26T13:07:36.404Z</time></trkpt><trkpt lat="42.515009193239976" lon="12.654365691282601"><ele>252.0</ele><time>2026-04-26T13:07:37.404Z</time></trkpt><trkpt lat="42.51510831007792" lon="12.654455854958227"><ele>252.0</ele><time>2026-04-26T13:07:38.404Z</time></trkpt><trkpt lat="42.51518456885505" lon="12.65458028306615"><ele>252.0</ele><time>2026-04-26T13:07:39.404Z</time></trkpt><trkpt lat="42.51522762828156" lon="12.654704079425033"><ele>252.0</ele><time>2026-04-26T13:07:40.404Z</time></trkpt><trkpt lat="42.51529210642982" lon="12.654790116716852"><ele>252.0</ele><time>2026-04-26T13:07:41.404Z</time></trkpt><trkpt lat="42.515382627516516" lon="12.65481558498373"><ele>252.0</ele><time>2026-04-26T13:07:42.404Z</time></trkpt><trkpt lat="42.51549590281419" lon="12.654785029122113"><ele>250.25</ele><time>2026-04-26T13:07:43.404Z</time></trkpt><trkpt lat="42.515602527541205" lon="12.654687366742323"><ele>248.5</ele><time>2026-04-26T13:07:44.404Z</time></trkpt><trkpt lat="42.515716104737756" lon="12.65455139885148"><ele>246.75</ele><time>2026-04-26T13:07:45.404Z</time></trkpt><trkpt lat="42.515821300379336" lon="12.654436985636341"><ele>245.0</ele><time>2026-04-26T13:07:46.404Z</time></trkpt><trkpt lat="42.515907353930416" lon="12.654335764737887"><ele>245.0</ele><time>2026-04-26T13:07:47.404Z</time></trkpt><trkpt lat="42.515989971775376" lon="12.654246363306406"><ele>245.0</ele><time>2026-04-26T13:07:48.404Z</time></trkpt><trkpt lat="42.516064855911054" lon="12.654166790591999"><ele>245.0</ele><time>2026-04-26T13:07:49.404Z</time></trkpt><trkpt lat="42.51612357659636" lon="12.654113185783597"><ele>245.0</ele><time>2026-04-26T13:07:50.404Z</time></trkpt><trkpt lat="42.51620864895008" lon="12.654071083184512"><ele>245.0</ele><time>2026-04-26T13:07:52.404Z</time></trkpt><trkpt lat="42.516297059221166" lon="12.654043910002455"><ele>245.83333333333334</ele><time>2026-04-26T13:08:16.402Z</time></trkpt><trkpt lat="42.51636461609557" lon="12.654044046278816"><ele>246.66666666666669</ele><time>2026-04-26T13:08:17.402Z</time></trkpt><trkpt lat="42.51642995105155" lon="12.654046615749893"><ele>247.5</ele><time>2026-04-26T13:08:18.402Z</time></trkpt><trkpt lat="42.51651248072136" lon="12.654042809256179"><ele>248.33333333333331</ele><time>2026-04-26T13:08:19.402Z</time></trkpt><trkpt lat="42.5166114196232" lon="12.654045078062946"><ele>249.16666666666666</ele><time>2026-04-26T13:08:20.402Z</time></trkpt><trkpt lat="42.516706363967145" lon="12.65405004861907"><ele>250.0</ele><time>2026-04-26T13:08:21.402Z</time></trkpt><trkpt lat="42.51678936161454" lon="12.65405741387626"><ele>250.0</ele><time>2026-04-26T13:08:22.402Z</time></trkpt><trkpt lat="42.51685753802126" lon="12.654085125961473"><ele>250.0</ele><time>2026-04-26T13:08:23.402Z</time></trkpt><trkpt lat="42.516959433952294" lon="12.654143987412041"><ele>250.0</ele><time>2026-04-26T13:08:25.403Z</time></trkpt><trkpt lat="42.5170175684549" lon="12.654221089114827"><ele>250.0</ele><time>2026-04-26T13:08:26.402Z</time></trkpt><trkpt lat="42.51705770212334" lon="12.654350468811433"><ele>250.0</ele><time>2026-04-26T13:08:27.402Z</time></trkpt><trkpt lat="42.51710595504821" lon="12.65447604932888"><ele>252.6</ele><time>2026-04-26T13:08:28.402Z</time></trkpt><trkpt lat="42.51714909706267" lon="12.654610611891538"><ele>255.2</ele><time>2026-04-26T13:08:29.402Z</time></trkpt><trkpt lat="42.51721326075455" lon="12.65473394653276"><ele>257.8</ele><time>2026-04-26T13:08:30.402Z</time></trkpt><trkpt lat="42.51727052310741" lon="12.654873001883049"><ele>260.4</ele><time>2026-04-26T13:08:31.403Z</time></trkpt><trkpt lat="42.51733058355697" lon="12.655000292231804"><ele>263.0</ele><time>2026-04-26T13:08:32.403Z</time></trkpt><trkpt lat="42.51738222645025" lon="12.655113604878292"><ele>263.0</ele><time>2026-04-26T13:08:33.403Z</time></trkpt><trkpt lat="42.51742077445719" lon="12.655206002025174"><ele>263.0</ele><time>2026-04-26T13:08:34.403Z</time></trkpt><trkpt lat="42.51747109978518" lon="12.655314248077042"><ele>263.0</ele><time>2026-04-26T13:08:35.403Z</time></trkpt><trkpt lat="42.51753636156435" lon="12.655408278680921"><ele>263.0</ele><time>2026-04-26T13:08:36.403Z</time></trkpt><trkpt lat="42.51762280047058" lon="12.655503592092318"><ele>263.0</ele><time>2026-04-26T13:08:37.402Z</time></trkpt><trkpt lat="42.51771387405356" lon="12.655596479424723"><ele>263.8</ele><time>2026-04-26T13:08:38.402Z</time></trkpt><trkpt lat="42.51780750451899" lon="12.655686349502714"><ele>264.6</ele><time>2026-04-26T13:08:39.402Z</time></trkpt><trkpt lat="42.51789333974226" lon="12.655764395085622"><ele>265.4</ele><time>2026-04-26T13:08:40.402Z</time></trkpt><trkpt lat="42.517963912940075" lon="12.655838088917443"><ele>266.2</ele><time>2026-04-26T13:08:41.402Z</time></trkpt><trkpt lat="42.518026892198684" lon="12.655921073001176"><ele>267.0</ele><time>2026-04-26T13:08:42.402Z</time></trkpt><trkpt lat="42.518092318215594" lon="12.656019230202649"><ele>267.0</ele><time>2026-04-26T13:08:43.402Z</time></trkpt><trkpt lat="42.51815406021328" lon="12.656096790769283"><ele>267.0</ele><time>2026-04-26T13:08:44.402Z</time></trkpt><trkpt lat="42.51820528445731" lon="12.65616341602045"><ele>267.0</ele><time>2026-04-26T13:08:45.402Z</time></trkpt><trkpt lat="42.51828110144318" lon="12.656256876662596"><ele>267.0</ele><time>2026-04-26T13:08:47.402Z</time></trkpt><trkpt lat="42.51836102396363" lon="12.656340251899284"><ele>267.0</ele><time>2026-04-26T13:08:49.402Z</time></trkpt><trkpt lat="42.51844081857512" lon="12.656474995979663"><ele>269.6</ele><time>2026-04-26T13:08:51.402Z</time></trkpt><trkpt lat="42.518473786893715" lon="12.656597723906183"><ele>272.2</ele><time>2026-04-26T13:08:53.402Z</time></trkpt><trkpt lat="42.51853304165479" lon="12.65663632565818"><ele>274.8</ele><time>2026-04-26T13:08:55.402Z</time></trkpt><trkpt lat="42.51865013429833" lon="12.656523668397982"><ele>277.4</ele><time>2026-04-26T13:08:57.402Z</time></trkpt><trkpt lat="42.51869996989171" lon="12.6564256737467"><ele>280.0</ele><time>2026-04-26T13:08:58.401Z</time></trkpt><trkpt lat="42.518759660931345" lon="12.656327603465343"><ele>280.3333333333333</ele><time>2026-04-26T13:08:59.401Z</time></trkpt><trkpt lat="42.51883398980437" lon="12.656214234764091"><ele>280.66666666666663</ele><time>2026-04-26T13:09:00.401Z</time></trkpt><trkpt lat="42.51888643222885" lon="12.656101107861991"><ele>281.0</ele><time>2026-04-26T13:09:01.401Z</time></trkpt><trkpt lat="42.51895375006185" lon="12.656032362238015"><ele>281.3333333333333</ele><time>2026-04-26T13:09:02.401Z</time></trkpt><trkpt lat="42.51902054485813" lon="12.65601498605198"><ele>281.6666666666667</ele><time>2026-04-26T13:09:03.401Z</time></trkpt><trkpt lat="42.519101533257924" lon="12.655999315996903"><ele>282.0</ele><time>2026-04-26T13:09:04.401Z</time></trkpt><trkpt lat="42.51917349069319" lon="12.655987002204897"><ele>280.8</ele><time>2026-04-26T13:09:05.401Z</time></trkpt><trkpt lat="42.519264019826835" lon="12.65597393753818"><ele>279.6</ele><time>2026-04-26T13:09:06.401Z</time></trkpt><trkpt lat="42.51936059928898" lon="12.655977096245213"><ele>278.40000000000003</ele><time>2026-04-26T13:09:07.401Z</time></trkpt><trkpt lat="42.519438790862374" lon="12.655972032263128"><ele>277.2</ele><time>2026-04-26T13:09:08.401Z</time></trkpt><trkpt lat="42.519554303044394" lon="12.655856417067193"><ele>276.0</ele><time>2026-04-26T13:09:10.401Z</time></trkpt><trkpt lat="42.51961366017686" lon="12.655784051570084"><ele>278.1666666666667</ele><time>2026-04-26T13:09:11.401Z</time></trkpt><trkpt lat="42.51966061403357" lon="12.655711942239654"><ele>280.3333333333333</ele><time>2026-04-26T13:09:12.401Z</time></trkpt><trkpt lat="42.519688710161965" lon="12.655622090197875"><ele>282.5</ele><time>2026-04-26T13:09:13.401Z</time></trkpt><trkpt lat="42.519720296251066" lon="12.655532913987237"><ele>284.66666666666663</ele><time>2026-04-26T13:09:14.401Z</time></trkpt><trkpt lat="42.51982313076476" lon="12.655491626531862"><ele>286.8333333333333</ele><time>2026-04-26T13:09:16.401Z</time></trkpt><trkpt lat="42.51991897308338" lon="12.655564217607287"><ele>289.0</ele><time>2026-04-26T13:09:18.4Z</time></trkpt><trkpt lat="42.51997738137134" lon="12.655642698744717"><ele>289.0</ele><time>2026-04-26T13:09:19.4Z</time></trkpt><trkpt lat="42.5200273851485" lon="12.655721416156618"><ele>289.0</ele><time>2026-04-26T13:09:20.4Z</time></trkpt><trkpt lat="42.52010693844705" lon="12.655838756981764"><ele>289.0</ele><time>2026-04-26T13:09:22.4Z</time></trkpt><trkpt lat="42.52023185501322" lon="12.655849658306538"><ele>289.0</ele><time>2026-04-26T13:09:24.4Z</time></trkpt><trkpt lat="42.52029700978951" lon="12.655843610835861"><ele>289.0</ele><time>2026-04-26T13:09:25.4Z</time></trkpt><trkpt lat="42.52036657351544" lon="12.655848697478554"><ele>291.4</ele><time>2026-04-26T13:09:26.4Z</time></trkpt><trkpt lat="42.52049790011342" lon="12.655896311138692"><ele>293.79999999999995</ele><time>2026-04-26T13:09:28.4Z</time></trkpt><trkpt lat="42.520579421609405" lon="12.655930960920408"><ele>296.20000000000005</ele><time>2026-04-26T13:09:29.4Z</time></trkpt><trkpt lat="42.52066842169384" lon="12.655962020044763"><ele>298.6</ele><time>2026-04-26T13:09:30.4Z</time></trkpt><trkpt lat="42.52074533121409" lon="12.655983020781003"><ele>301.0</ele><time>2026-04-26T13:09:31.4Z</time></trkpt><trkpt lat="42.52080888732124" lon="12.655999201990516"><ele>301.0</ele><time>2026-04-26T13:09:32.4Z</time></trkpt><trkpt lat="42.52088416594388" lon="12.656016964874246"><ele>301.0</ele><time>2026-04-26T13:09:33.4Z</time></trkpt><trkpt lat="42.52095143618598" lon="12.656033416624727"><ele>301.0</ele><time>2026-04-26T13:09:34.4Z</time></trkpt><trkpt lat="42.52106206328203" lon="12.656063464539308"><ele>301.0</ele><time>2026-04-26T13:09:36.4Z</time></trkpt><trkpt lat="42.52117866968377" lon="12.656095924430765"><ele>301.0</ele><time>2026-04-26T13:09:38.399Z</time></trkpt><trkpt lat="42.52123359543962" lon="12.656151610022436"><ele>301.0</ele><time>2026-04-26T13:09:40.399Z</time></trkpt><trkpt lat="42.52123041664558" lon="12.656300122678337"><ele>302.6</ele><time>2026-04-26T13:09:42.399Z</time></trkpt><trkpt lat="42.52117160237318" lon="12.656403747279672"><ele>304.20000000000005</ele><time>2026-04-26T13:09:43.399Z</time></trkpt><trkpt lat="42.52111710415032" lon="12.65653912192388"><ele>305.79999999999995</ele><time>2026-04-26T13:09:44.399Z</time></trkpt><trkpt lat="42.5210826711161" lon="12.656666282701904"><ele>307.4</ele><time>2026-04-26T13:09:45.399Z</time></trkpt><trkpt lat="42.52105852625186" lon="12.656793034429766"><ele>309.0</ele><time>2026-04-26T13:09:46.399Z</time></trkpt><trkpt lat="42.5210379121234" lon="12.656904630166409"><ele>309.8333333333333</ele><time>2026-04-26T13:09:47.399Z</time></trkpt><trkpt lat="42.521009347209315" lon="12.657007320816733"><ele>310.6666666666667</ele><time>2026-04-26T13:09:48.399Z</time></trkpt><trkpt lat="42.52099404144742" lon="12.657139676510745"><ele>311.5</ele><time>2026-04-26T13:09:49.399Z</time></trkpt><trkpt lat="42.52098394373499" lon="12.657243997389136"><ele>312.33333333333337</ele><time>2026-04-26T13:09:50.399Z</time></trkpt><trkpt lat="42.52097584006309" lon="12.657345917379297"><ele>313.1666666666667</ele><time>2026-04-26T13:09:51.399Z</time></trkpt><trkpt lat="42.520953313868034" lon="12.657451841120494"><ele>314.0</ele><time>2026-04-26T13:09:52.399Z</time></trkpt><trkpt lat="42.52093409811985" lon="12.657560663561943"><ele>314.0</ele><time>2026-04-26T13:09:53.399Z</time></trkpt><trkpt lat="42.52093519264014" lon="12.65766168402074"><ele>314.0</ele><time>2026-04-26T13:09:54.399Z</time></trkpt><trkpt lat="42.52095752551046" lon="12.657804419426506"><ele>314.0</ele><time>2026-04-26T13:09:56.399Z</time></trkpt><trkpt lat="42.52093141281493" lon="12.657903093326798"><ele>314.0</ele><time>2026-04-26T13:09:57.398Z</time></trkpt><trkpt lat="42.52089882951867" lon="12.658002713380055"><ele>314.0</ele><time>2026-04-26T13:09:58.398Z</time></trkpt><trkpt lat="42.520866551011" lon="12.65809669724373"><ele>314.0</ele><time>2026-04-26T13:09:59.398Z</time></trkpt><trkpt lat="42.520833491250485" lon="12.658190314804186"><ele>313.83333333333337</ele><time>2026-04-26T13:10:00.398Z</time></trkpt><trkpt lat="42.520789919518755" lon="12.658277248568988"><ele>313.6666666666667</ele><time>2026-04-26T13:10:01.398Z</time></trkpt><trkpt lat="42.52075736316925" lon="12.658352348362587"><ele>313.5</ele><time>2026-04-26T13:10:02.398Z</time></trkpt><trkpt lat="42.520705085805616" lon="12.658422464178177"><ele>313.3333333333333</ele><time>2026-04-26T13:10:03.398Z</time></trkpt><trkpt lat="42.520638185093404" lon="12.658504866300941"><ele>313.16666666666663</ele><time>2026-04-26T13:10:04.398Z</time></trkpt><trkpt lat="42.52058879277022" lon="12.658583302636298"><ele>313.0</ele><time>2026-04-26T13:10:05.398Z</time></trkpt><trkpt lat="42.52054598203793" lon="12.658661171839883"><ele>313.0</ele><time>2026-04-26T13:10:06.398Z</time></trkpt><trkpt lat="42.520499548548145" lon="12.65873634115596"><ele>313.0</ele><time>2026-04-26T13:10:07.398Z</time></trkpt><trkpt lat="42.520446992232365" lon="12.658807206042342"><ele>313.0</ele><time>2026-04-26T13:10:08.398Z</time></trkpt><trkpt lat="42.52040756502782" lon="12.658887051079082"><ele>313.0</ele><time>2026-04-26T13:10:09.398Z</time></trkpt><trkpt lat="42.52037334822263" lon="12.658976727980367"><ele>313.0</ele><time>2026-04-26T13:10:10.398Z</time></trkpt><trkpt lat="42.520308297169635" lon="12.659146932793712"><ele>313.0</ele><time>2026-04-26T13:10:12.398Z</time></trkpt><trkpt lat="42.520268034322044" lon="12.659227035969595"><ele>315.66666666666663</ele><time>2026-04-26T13:10:13.398Z</time></trkpt><trkpt lat="42.520236125223065" lon="12.659316566143955"><ele>318.3333333333333</ele><time>2026-04-26T13:10:14.398Z</time></trkpt><trkpt lat="42.52018095301217" lon="12.65940537170781"><ele>321.0</ele><time>2026-04-26T13:10:15.398Z</time></trkpt><trkpt lat="42.5201348398782" lon="12.65949945824199"><ele>323.6666666666667</ele><time>2026-04-26T13:10:16.398Z</time></trkpt><trkpt lat="42.52009192695685" lon="12.659591677982057"><ele>326.33333333333337</ele><time>2026-04-26T13:10:17.397Z</time></trkpt><trkpt lat="42.5200363500874" lon="12.659668946676359"><ele>329.0</ele><time>2026-04-26T13:10:18.397Z</time></trkpt><trkpt lat="42.51999167327959" lon="12.659732717636238"><ele>330.5</ele><time>2026-04-26T13:10:19.397Z</time></trkpt><trkpt lat="42.51994903955864" lon="12.65980050931326"><ele>332.0</ele><time>2026-04-26T13:10:20.397Z</time></trkpt><trkpt lat="42.51990272162932" lon="12.659871911723823"><ele>333.5</ele><time>2026-04-26T13:10:21.397Z</time></trkpt><trkpt lat="42.51985502377345" lon="12.659958539055063"><ele>335.0</ele><time>2026-04-26T13:10:22.397Z</time></trkpt><trkpt lat="42.51981252870482" lon="12.660057861531357"><ele>336.5</ele><time>2026-04-26T13:10:23.397Z</time></trkpt><trkpt lat="42.51976877184843" lon="12.660141247801471"><ele>338.0</ele><time>2026-04-26T13:10:24.397Z</time></trkpt><trkpt lat="42.519730111873464" lon="12.660227593109743"><ele>338.7142857142857</ele><time>2026-04-26T13:10:25.397Z</time></trkpt><trkpt lat="42.519685582957266" lon="12.660300364103998"><ele>339.42857142857144</ele><time>2026-04-26T13:10:26.397Z</time></trkpt><trkpt lat="42.519640642997906" lon="12.660376018144786"><ele>340.1428571428571</ele><time>2026-04-26T13:10:27.397Z</time></trkpt><trkpt lat="42.51960780000049" lon="12.660454620660271"><ele>340.8571428571429</ele><time>2026-04-26T13:10:28.397Z</time></trkpt><trkpt lat="42.51959589122929" lon="12.660541930223555"><ele>341.57142857142856</ele><time>2026-04-26T13:10:29.397Z</time></trkpt><trkpt lat="42.5195800577421" lon="12.660632628418876"><ele>342.2857142857143</ele><time>2026-04-26T13:10:30.397Z</time></trkpt><trkpt lat="42.51955911376542" lon="12.660752930713882"><ele>343.0</ele><time>2026-04-26T13:10:31.397Z</time></trkpt><trkpt lat="42.519532127244645" lon="12.660830512701919"><ele>345.16666666666663</ele><time>2026-04-26T13:10:32.397Z</time></trkpt><trkpt lat="42.51949439870339" lon="12.660908910950793"><ele>347.3333333333333</ele><time>2026-04-26T13:10:33.397Z</time></trkpt><trkpt lat="42.51948940439313" lon="12.66104914034835"><ele>349.5</ele><time>2026-04-26T13:10:35.397Z</time></trkpt><trkpt lat="42.51945758582146" lon="12.661173865090024"><ele>351.6666666666667</ele><time>2026-04-26T13:10:37.397Z</time></trkpt><trkpt lat="42.519432108868386" lon="12.661259460677982"><ele>353.83333333333337</ele><time>2026-04-26T13:10:38.397Z</time></trkpt><trkpt lat="42.51941368460188" lon="12.661356797983704"><ele>356.0</ele><time>2026-04-26T13:10:39.397Z</time></trkpt><trkpt lat="42.51941485585068" lon="12.661444634517906"><ele>356.33333333333337</ele><time>2026-04-26T13:10:40.397Z</time></trkpt><trkpt lat="42.519425116136134" lon="12.661543974923946"><ele>356.6666666666667</ele><time>2026-04-26T13:10:41.396Z</time></trkpt><trkpt lat="42.51938592525902" lon="12.661698715076922"><ele>357.0</ele><time>2026-04-26T13:10:43.397Z</time></trkpt><trkpt lat="42.51933221801063" lon="12.661787838248348"><ele>357.3333333333333</ele><time>2026-04-26T13:10:44.396Z</time></trkpt><trkpt lat="42.51928681912582" lon="12.661876063969066"><ele>357.66666666666663</ele><time>2026-04-26T13:10:45.396Z</time></trkpt><trkpt lat="42.519244918706974" lon="12.661960620248388"><ele>358.0</ele><time>2026-04-26T13:10:46.396Z</time></trkpt><trkpt lat="42.519186352427305" lon="12.662062651888455"><ele>359.8333333333333</ele><time>2026-04-26T13:10:47.396Z</time></trkpt><trkpt lat="42.519131129816756" lon="12.662161936888962"><ele>361.66666666666663</ele><time>2026-04-26T13:10:48.396Z</time></trkpt><trkpt lat="42.51912043585633" lon="12.6622628999259"><ele>363.5</ele><time>2026-04-26T13:10:49.396Z</time></trkpt><trkpt lat="42.519105036139116" lon="12.662352512272095"><ele>365.3333333333333</ele><time>2026-04-26T13:10:50.396Z</time></trkpt><trkpt lat="42.5191004628392" lon="12.66244724562495"><ele>367.1666666666667</ele><time>2026-04-26T13:10:51.396Z</time></trkpt><trkpt lat="42.51905989255666" lon="12.662585982903805"><ele>369.0</ele><time>2026-04-26T13:10:53.396Z</time></trkpt><trkpt lat="42.51902717155344" lon="12.662664480408708"><ele>369.0</ele><time>2026-04-26T13:10:54.396Z</time></trkpt><trkpt lat="42.5189849076397" lon="12.662760108947948"><ele>369.0</ele><time>2026-04-26T13:10:55.396Z</time></trkpt><trkpt lat="42.51895679983524" lon="12.662866165324607"><ele>369.0</ele><time>2026-04-26T13:10:56.396Z</time></trkpt><trkpt lat="42.5188951796804" lon="12.663005811944583"><ele>369.0</ele><time>2026-04-26T13:10:58.395Z</time></trkpt><trkpt lat="42.51888149855926" lon="12.663141660441841"><ele>369.0</ele><time>2026-04-26T13:11:00.395Z</time></trkpt><trkpt lat="42.5189676752374" lon="12.663194227382968"><ele>371.2</ele><time>2026-04-26T13:11:03.395Z</time></trkpt><trkpt lat="42.5190914179956" lon="12.663154033692532"><ele>373.4</ele><time>2026-04-26T13:11:05.395Z</time></trkpt><trkpt lat="42.519155087691075" lon="12.663139776870915"><ele>375.6</ele><time>2026-04-26T13:11:06.395Z</time></trkpt><trkpt lat="42.51921965433063" lon="12.663161813876656"><ele>377.8</ele><time>2026-04-26T13:11:07.395Z</time></trkpt><trkpt lat="42.51934507802286" lon="12.66319347900521"><ele>380.0</ele><time>2026-04-26T13:11:09.395Z</time></trkpt><trkpt lat="42.51941468533825" lon="12.663209669436636"><ele>380.0</ele><time>2026-04-26T13:11:10.395Z</time></trkpt><trkpt lat="42.519476449151604" lon="12.663242453027467"><ele>380.0</ele><time>2026-04-26T13:11:11.395Z</time></trkpt><trkpt lat="42.51952962450829" lon="12.663289926400632"><ele>380.0</ele><time>2026-04-26T13:11:12.395Z</time></trkpt><trkpt lat="42.51960009843593" lon="12.663382062343914"><ele>380.0</ele><time>2026-04-26T13:11:14.395Z</time></trkpt><trkpt lat="42.519660316575774" lon="12.663435822285287"><ele>380.0</ele><time>2026-04-26T13:11:16.395Z</time></trkpt><trkpt lat="42.519737483896655" lon="12.663484579213696"><ele>380.0</ele><time>2026-04-26T13:11:19.394Z</time></trkpt><trkpt lat="42.5198207772651" lon="12.663528232123106"><ele>379.0</ele><time>2026-04-26T13:11:21.394Z</time></trkpt><trkpt lat="42.51992248080513" lon="12.663504211445"><ele>378.0</ele><time>2026-04-26T13:11:23.394Z</time></trkpt><trkpt lat="42.520018798421276" lon="12.663515972300914"><ele>377.0</ele><time>2026-04-26T13:11:25.394Z</time></trkpt><trkpt lat="42.520123490841584" lon="12.663557578295315"><ele>376.0</ele><time>2026-04-26T13:11:27.394Z</time></trkpt><trkpt lat="42.52018235970649" lon="12.663594858397653"><ele>375.0</ele><time>2026-04-26T13:11:28.394Z</time></trkpt><trkpt lat="42.52023297113885" lon="12.663652897683038"><ele>374.0</ele><time>2026-04-26T13:11:29.394Z</time></trkpt><trkpt lat="42.52027716555293" lon="12.663730776910116"><ele>373.1666666666667</ele><time>2026-04-26T13:11:30.394Z</time></trkpt><trkpt lat="42.520311456964514" lon="12.663813224684725"><ele>372.33333333333337</ele><time>2026-04-26T13:11:31.394Z</time></trkpt><trkpt lat="42.52035621194492" lon="12.663890640215842"><ele>371.5</ele><time>2026-04-26T13:11:32.394Z</time></trkpt><trkpt lat="42.520396423658646" lon="12.663979400194773"><ele>370.6666666666667</ele><time>2026-04-26T13:11:33.394Z</time></trkpt><trkpt lat="42.52049491405855" lon="12.66408691424584"><ele>369.8333333333333</ele><time>2026-04-26T13:11:35.394Z</time></trkpt><trkpt lat="42.520578142566976" lon="12.664153423122658"><ele>369.0</ele><time>2026-04-26T13:11:37.394Z</time></trkpt><trkpt lat="42.52066583049316" lon="12.664198629348459"><ele>369.0</ele><time>2026-04-26T13:11:39.393Z</time></trkpt><trkpt lat="42.5207599673581" lon="12.664253822247732"><ele>369.0</ele><time>2026-04-26T13:11:41.393Z</time></trkpt><trkpt lat="42.52082867882139" lon="12.664277495133375"><ele>369.0</ele><time>2026-04-26T13:11:42.393Z</time></trkpt><trkpt lat="42.52090989894794" lon="12.664326608023128"><ele>369.0</ele><time>2026-04-26T13:11:44.393Z</time></trkpt><trkpt lat="42.52099912100207" lon="12.664353622016336"><ele>369.0</ele><time>2026-04-26T13:11:46.393Z</time></trkpt><trkpt lat="42.5210922588672" lon="12.664397208209776"><ele>368.79999999999995</ele><time>2026-04-26T13:11:48.393Z</time></trkpt><trkpt lat="42.521169409028126" lon="12.664456107513336"><ele>368.59999999999997</ele><time>2026-04-26T13:11:50.393Z</time></trkpt><trkpt lat="42.52124881624252" lon="12.66453926757849"><ele>368.4</ele><time>2026-04-26T13:11:52.393Z</time></trkpt><trkpt lat="42.521330810239135" lon="12.664630029326025"><ele>368.2</ele><time>2026-04-26T13:11:54.393Z</time></trkpt><trkpt lat="42.521415553373835" lon="12.664686027015136"><ele>368.0</ele><time>2026-04-26T13:11:56.393Z</time></trkpt><trkpt lat="42.5215216638499" lon="12.66469971301137"><ele>368.0</ele><time>2026-04-26T13:11:58.392Z</time></trkpt><trkpt lat="42.521627340472456" lon="12.664692533932177"><ele>368.0</ele><time>2026-04-26T13:11:59.392Z</time></trkpt><trkpt lat="42.521693627997536" lon="12.664701960036904"><ele>368.0</ele><time>2026-04-26T13:12:00.392Z</time></trkpt><trkpt lat="42.52176212171594" lon="12.664713852962548"><ele>368.0</ele><time>2026-04-26T13:12:01.392Z</time></trkpt><trkpt lat="42.52187521576678" lon="12.664786227163367"><ele>368.0</ele><time>2026-04-26T13:12:03.392Z</time></trkpt><trkpt lat="42.52193207816945" lon="12.664828818037646"><ele>368.0</ele><time>2026-04-26T13:12:04.392Z</time></trkpt><trkpt lat="42.52204428024143" lon="12.664896931046663"><ele>367.2</ele><time>2026-04-26T13:12:06.392Z</time></trkpt><trkpt lat="42.52214000866356" lon="12.66499812060955"><ele>366.4</ele><time>2026-04-26T13:12:08.392Z</time></trkpt><trkpt lat="42.522186501299416" lon="12.665081065904698"><ele>365.59999999999997</ele><time>2026-04-26T13:12:09.392Z</time></trkpt><trkpt lat="42.522229782977945" lon="12.665184560898833"><ele>364.79999999999995</ele><time>2026-04-26T13:12:11.392Z</time></trkpt><trkpt lat="42.522312526282505" lon="12.665286511629795"><ele>364.0</ele><time>2026-04-26T13:12:26.391Z</time></trkpt><trkpt lat="42.52236730468442" lon="12.665414029406001"><ele>364.0</ele><time>2026-04-26T13:12:28.391Z</time></trkpt><trkpt lat="42.522405158620714" lon="12.665483247196093"><ele>364.0</ele><time>2026-04-26T13:12:29.391Z</time></trkpt><trkpt lat="42.52244932806301" lon="12.665575043742992"><ele>364.0</ele><time>2026-04-26T13:12:30.391Z</time></trkpt><trkpt lat="42.52247723388159" lon="12.665683047607672"><ele>364.0</ele><time>2026-04-26T13:12:31.391Z</time></trkpt><trkpt lat="42.5225058118286" lon="12.66580176458122"><ele>364.0</ele><time>2026-04-26T13:12:32.391Z</time></trkpt><trkpt lat="42.52252984662813" lon="12.665941628788092"><ele>364.0</ele><time>2026-04-26T13:12:33.391Z</time></trkpt><trkpt lat="42.52256619238453" lon="12.666073413846048"><ele>367.0</ele><time>2026-04-26T13:12:34.391Z</time></trkpt><trkpt lat="42.52261979464864" lon="12.666215840640811"><ele>370.0</ele><time>2026-04-26T13:12:35.391Z</time></trkpt><trkpt lat="42.52266855590259" lon="12.666348327319163"><ele>373.0</ele><time>2026-04-26T13:12:36.391Z</time></trkpt><trkpt lat="42.52271191110764" lon="12.666449048471717"><ele>376.0</ele><time>2026-04-26T13:12:37.391Z</time></trkpt><trkpt lat="42.522744196279056" lon="12.666523779145118"><ele>379.0</ele><time>2026-04-26T13:12:38.391Z</time></trkpt><trkpt lat="42.52271665952349" lon="12.666625721430576"><ele>379.0</ele><time>2026-04-26T13:12:40.391Z</time></trkpt><trkpt lat="42.52268381166951" lon="12.666711863855246"><ele>379.0</ele><time>2026-04-26T13:12:41.391Z</time></trkpt><trkpt lat="42.52264170397399" lon="12.66682354518548"><ele>379.0</ele><time>2026-04-26T13:12:42.391Z</time></trkpt><trkpt lat="42.522632760444864" lon="12.666933792753671"><ele>379.0</ele><time>2026-04-26T13:12:43.391Z</time></trkpt><trkpt lat="42.522678891154555" lon="12.667028394901772"><ele>379.0</ele><time>2026-04-26T13:12:45.391Z</time></trkpt><trkpt lat="42.52276509273161" lon="12.667001474057535"><ele>379.0</ele><time>2026-04-26T13:12:47.391Z</time></trkpt><trkpt lat="42.52285328989416" lon="12.667027144292131"><ele>378.5</ele><time>2026-04-26T13:12:52.39Z</time></trkpt><trkpt lat="42.52291528410202" lon="12.667067626456724"><ele>378.0</ele><time>2026-04-26T13:12:54.39Z</time></trkpt><trkpt lat="42.52301909666476" lon="12.667106119477422"><ele>377.5</ele><time>2026-04-26T13:12:56.39Z</time></trkpt><trkpt lat="42.52308836513067" lon="12.667149418404327"><ele>377.0</ele><time>2026-04-26T13:12:57.39Z</time></trkpt><trkpt lat="42.52317012201878" lon="12.66722061887204"><ele>376.5</ele><time>2026-04-26T13:12:58.39Z</time></trkpt><trkpt lat="42.523243075639556" lon="12.667282662410175"><ele>376.0</ele><time>2026-04-26T13:12:59.39Z</time></trkpt><trkpt lat="42.523299197283364" lon="12.667328927984912"><ele>376.0</ele><time>2026-04-26T13:13:00.39Z</time></trkpt><trkpt lat="42.52341489894021" lon="12.667358592516138"><ele>376.0</ele><time>2026-04-26T13:13:02.39Z</time></trkpt><trkpt lat="42.523514842269115" lon="12.667434087253827"><ele>376.0</ele><time>2026-04-26T13:13:04.39Z</time></trkpt><trkpt lat="42.5235719579034" lon="12.667496499981308"><ele>376.0</ele><time>2026-04-26T13:13:05.39Z</time></trkpt><trkpt lat="42.52363410787188" lon="12.667573867238143"><ele>376.0</ele><time>2026-04-26T13:13:06.39Z</time></trkpt><trkpt lat="42.52370345382656" lon="12.667633289309004"><ele>374.16666666666663</ele><time>2026-04-26T13:13:07.39Z</time></trkpt><trkpt lat="42.52376848049131" lon="12.667681205717535"><ele>372.3333333333333</ele><time>2026-04-26T13:13:08.39Z</time></trkpt><trkpt lat="42.5238345513846" lon="12.667734742292538"><ele>370.5</ele><time>2026-04-26T13:13:09.39Z</time></trkpt><trkpt lat="42.52389564076418" lon="12.66775963372679"><ele>368.6666666666667</ele><time>2026-04-26T13:13:10.389Z</time></trkpt><trkpt lat="42.5239594889477" lon="12.667714197732852"><ele>366.83333333333337</ele><time>2026-04-26T13:13:12.389Z</time></trkpt><trkpt lat="42.52403072015346" lon="12.667618814019162"><ele>365.0</ele><time>2026-04-26T13:13:14.389Z</time></trkpt><trkpt lat="42.524105821378" lon="12.667517499491039"><ele>365.0</ele><time>2026-04-26T13:13:16.389Z</time></trkpt><trkpt lat="42.52415186031826" lon="12.667431720286924"><ele>365.0</ele><time>2026-04-26T13:13:17.389Z</time></trkpt><trkpt lat="42.524198202767494" lon="12.667336907412622"><ele>365.0</ele><time>2026-04-26T13:13:18.389Z</time></trkpt><trkpt lat="42.52427571528262" lon="12.667217061476972"><ele>365.0</ele><time>2026-04-26T13:13:20.389Z</time></trkpt><trkpt lat="42.52432410374002" lon="12.667083854444117"><ele>365.0</ele><time>2026-04-26T13:13:22.389Z</time></trkpt><trkpt lat="42.52432091247909" lon="12.666959862545397"><ele>365.0</ele><time>2026-04-26T13:13:23.389Z</time></trkpt><trkpt lat="42.524316142247834" lon="12.666862279357913"><ele>365.0</ele><time>2026-04-26T13:13:24.389Z</time></trkpt><trkpt lat="42.524348267884605" lon="12.666732943464163"><ele>365.0</ele><time>2026-04-26T13:13:26.389Z</time></trkpt><trkpt lat="42.52441438446788" lon="12.666788265449409"><ele>365.0</ele><time>2026-04-26T13:13:44.388Z</time></trkpt><trkpt lat="42.52441891850781" lon="12.666943489978548"><ele>365.0</ele><time>2026-04-26T13:13:46.388Z</time></trkpt><trkpt lat="42.5244971810025" lon="12.667110157916056"><ele>365.0</ele><time>2026-04-26T13:13:48.388Z</time></trkpt><trkpt lat="42.52453071922658" lon="12.66718767171747"><ele>365.0</ele><time>2026-04-26T13:13:49.387Z</time></trkpt><trkpt lat="42.52456703121" lon="12.667266958048092"><ele>365.0</ele><time>2026-04-26T13:13:50.387Z</time></trkpt><trkpt lat="42.52462587611172" lon="12.667365393262726"><ele>365.0</ele><time>2026-04-26T13:13:51.387Z</time></trkpt><trkpt lat="42.5246799582402" lon="12.667454378747038"><ele>365.0</ele><time>2026-04-26T13:13:52.387Z</time></trkpt><trkpt lat="42.52473608345257" lon="12.667532970577982"><ele>365.0</ele><time>2026-04-26T13:13:53.387Z</time></trkpt><trkpt lat="42.524800500779364" lon="12.667607834145542"><ele>363.0</ele><time>2026-04-26T13:13:54.387Z</time></trkpt><trkpt lat="42.52486818440968" lon="12.667682629982778"><ele>361.0</ele><time>2026-04-26T13:13:55.387Z</time></trkpt><trkpt lat="42.52493396049332" lon="12.667759264121232"><ele>359.0</ele><time>2026-04-26T13:13:56.387Z</time></trkpt><trkpt lat="42.52499989072356" lon="12.667841885695513"><ele>357.0</ele><time>2026-04-26T13:13:57.387Z</time></trkpt><trkpt lat="42.525095547985934" lon="12.667909096442814"><ele>355.0</ele><time>2026-04-26T13:13:58.387Z</time></trkpt><trkpt lat="42.525178487022686" lon="12.667966804280239"><ele>355.0</ele><time>2026-04-26T13:13:59.387Z</time></trkpt><trkpt lat="42.5252601172016" lon="12.668014491023092"><ele>355.0</ele><time>2026-04-26T13:14:00.387Z</time></trkpt><trkpt lat="42.52534349917537" lon="12.668065894741977"><ele>355.0</ele><time>2026-04-26T13:14:01.387Z</time></trkpt><trkpt lat="42.52542511659306" lon="12.6681178151849"><ele>355.0</ele><time>2026-04-26T13:14:02.387Z</time></trkpt><trkpt lat="42.52551064602552" lon="12.668187724510597"><ele>355.0</ele><time>2026-04-26T13:14:03.387Z</time></trkpt><trkpt lat="42.525584978536955" lon="12.668260277114591"><ele>349.8</ele><time>2026-04-26T13:14:04.387Z</time></trkpt><trkpt lat="42.5256474257324" lon="12.668341703770878"><ele>344.6</ele><time>2026-04-26T13:14:05.387Z</time></trkpt><trkpt lat="42.52570240677908" lon="12.668423741226098"><ele>339.4</ele><time>2026-04-26T13:14:06.387Z</time></trkpt><trkpt lat="42.52574748847418" lon="12.668521367965077"><ele>334.2</ele><time>2026-04-26T13:14:07.387Z</time></trkpt><trkpt lat="42.525773139742995" lon="12.668658316063318"><ele>329.0</ele><time>2026-04-26T13:14:08.387Z</time></trkpt><trkpt lat="42.525808925030354" lon="12.668797677116622"><ele>329.0</ele><time>2026-04-26T13:14:09.386Z</time></trkpt><trkpt lat="42.52583615495766" lon="12.668919160424192"><ele>329.0</ele><time>2026-04-26T13:14:10.386Z</time></trkpt><trkpt lat="42.525878888384405" lon="12.669001432081208"><ele>329.0</ele><time>2026-04-26T13:14:11.386Z</time></trkpt><trkpt lat="42.52590325615322" lon="12.669164226192501"><ele>329.0</ele><time>2026-04-26T13:14:13.386Z</time></trkpt><trkpt lat="42.52589774910641" lon="12.669265193453262"><ele>329.0</ele><time>2026-04-26T13:14:14.386Z</time></trkpt><trkpt lat="42.52586491481439" lon="12.669366513296568"><ele>329.0</ele><time>2026-04-26T13:14:15.386Z</time></trkpt><trkpt lat="42.525800835839235" lon="12.66944739763522"><ele>327.1666666666667</ele><time>2026-04-26T13:14:16.386Z</time></trkpt><trkpt lat="42.52573468784237" lon="12.66951764722565"><ele>325.33333333333337</ele><time>2026-04-26T13:14:17.386Z</time></trkpt><trkpt lat="42.525667387524486" lon="12.669547591011545"><ele>323.5</ele><time>2026-04-26T13:14:18.386Z</time></trkpt><trkpt lat="42.52557952912237" lon="12.669577280019857"><ele>321.6666666666667</ele><time>2026-04-26T13:14:20.386Z</time></trkpt><trkpt lat="42.52553564488478" lon="12.669667059549548"><ele>319.8333333333333</ele><time>2026-04-26T13:14:22.386Z</time></trkpt><trkpt lat="42.525584377061" lon="12.669722281113298"><ele>318.0</ele><time>2026-04-26T13:14:23.386Z</time></trkpt><trkpt lat="42.5256639891755" lon="12.669759399896225"><ele>318.0</ele><time>2026-04-26T13:14:24.386Z</time></trkpt><trkpt lat="42.525765197634" lon="12.669766792243296"><ele>318.0</ele><time>2026-04-26T13:14:25.386Z</time></trkpt><trkpt lat="42.525879361792306" lon="12.669718647158044"><ele>318.0</ele><time>2026-04-26T13:14:26.386Z</time></trkpt><trkpt lat="42.52599273908784" lon="12.669663950973876"><ele>318.0</ele><time>2026-04-26T13:14:27.386Z</time></trkpt><trkpt lat="42.52608757730539" lon="12.669604693175259"><ele>318.0</ele><time>2026-04-26T13:14:28.385Z</time></trkpt><trkpt lat="42.526173456440105" lon="12.669567529012186"><ele>314.4</ele><time>2026-04-26T13:14:29.385Z</time></trkpt><trkpt lat="42.52626636866288" lon="12.669541909663364"><ele>310.8</ele><time>2026-04-26T13:14:30.385Z</time></trkpt><trkpt lat="42.52635434043169" lon="12.669507784838746"><ele>307.2</ele><time>2026-04-26T13:14:31.385Z</time></trkpt><trkpt lat="42.52643871647337" lon="12.669449579019405"><ele>303.6</ele><time>2026-04-26T13:14:32.385Z</time></trkpt><trkpt lat="42.52652478957214" lon="12.669401208523697"><ele>300.0</ele><time>2026-04-26T13:14:33.385Z</time></trkpt><trkpt lat="42.526636195563725" lon="12.669349275719913"><ele>299.8</ele><time>2026-04-26T13:14:34.385Z</time></trkpt><trkpt lat="42.52671686061672" lon="12.669288795490388"><ele>299.6</ele><time>2026-04-26T13:14:35.385Z</time></trkpt><trkpt lat="42.52681336638891" lon="12.669223124020606"><ele>299.4</ele><time>2026-04-26T13:14:36.385Z</time></trkpt><trkpt lat="42.52689896499876" lon="12.669154856426523"><ele>299.2</ele><time>2026-04-26T13:14:37.385Z</time></trkpt><trkpt lat="42.526992012423186" lon="12.669124507432858"><ele>299.0</ele><time>2026-04-26T13:14:38.385Z</time></trkpt><trkpt lat="42.52706807033678" lon="12.669067784097743"><ele>296.59999999999997</ele><time>2026-04-26T13:14:39.385Z</time></trkpt><trkpt lat="42.52713449634943" lon="12.669014863220927"><ele>294.2</ele><time>2026-04-26T13:14:40.385Z</time></trkpt><trkpt lat="42.52720245639015" lon="12.668934791070086"><ele>291.79999999999995</ele><time>2026-04-26T13:14:41.385Z</time></trkpt><trkpt lat="42.52727458892661" lon="12.668881694075216"><ele>289.4</ele><time>2026-04-26T13:14:42.385Z</time></trkpt><trkpt lat="42.52735223965896" lon="12.668758543995484"><ele>287.0</ele><time>2026-04-26T13:14:43.386Z</time></trkpt><trkpt lat="42.5274127780174" lon="12.668647166951605"><ele>288.25</ele><time>2026-04-26T13:14:44.385Z</time></trkpt><trkpt lat="42.52747716365746" lon="12.668519902645295"><ele>289.5</ele><time>2026-04-26T13:14:45.385Z</time></trkpt><trkpt lat="42.527533975742934" lon="12.66839445801199"><ele>290.75</ele><time>2026-04-26T13:14:46.386Z</time></trkpt><trkpt lat="42.52757360973819" lon="12.668236140832805"><ele>292.0</ele><time>2026-04-26T13:14:47.386Z</time></trkpt><trkpt lat="42.52763555582582" lon="12.668103391329366"><ele>292.0</ele><time>2026-04-26T13:14:48.386Z</time></trkpt><trkpt lat="42.52768214641032" lon="12.667967519683483"><ele>292.0</ele><time>2026-04-26T13:14:49.386Z</time></trkpt><trkpt lat="42.52772296395157" lon="12.667846543465947"><ele>292.0</ele><time>2026-04-26T13:14:50.386Z</time></trkpt><trkpt lat="42.52777188296278" lon="12.66772248587486"><ele>292.0</ele><time>2026-04-26T13:14:51.386Z</time></trkpt><trkpt lat="42.52783731155982" lon="12.667603231660603"><ele>292.0</ele><time>2026-04-26T13:14:52.386Z</time></trkpt><trkpt lat="42.52790754302226" lon="12.667493510002542"><ele>290.16666666666663</ele><time>2026-04-26T13:14:53.386Z</time></trkpt><trkpt lat="42.52796691962211" lon="12.667393524643979"><ele>288.3333333333333</ele><time>2026-04-26T13:14:54.386Z</time></trkpt><trkpt lat="42.52801891530902" lon="12.667300065784827"><ele>286.5</ele><time>2026-04-26T13:14:55.385Z</time></trkpt><trkpt lat="42.52807208558358" lon="12.667213226074798"><ele>284.6666666666667</ele><time>2026-04-26T13:14:56.385Z</time></trkpt><trkpt lat="42.52813567451486" lon="12.667128137138072"><ele>282.83333333333337</ele><time>2026-04-26T13:14:57.385Z</time></trkpt><trkpt lat="42.52820486150816" lon="12.667040049754396"><ele>281.0</ele><time>2026-04-26T13:14:58.385Z</time></trkpt><trkpt lat="42.52830270698044" lon="12.666996137374369"><ele>281.0</ele><time>2026-04-26T13:14:59.385Z</time></trkpt><trkpt lat="42.528422870506965" lon="12.666955896394237"><ele>281.0</ele><time>2026-04-26T13:15:00.385Z</time></trkpt><trkpt lat="42.52853732293971" lon="12.666945106785233"><ele>281.0</ele><time>2026-04-26T13:15:01.385Z</time></trkpt><trkpt lat="42.52865351299779" lon="12.666945373980816"><ele>281.0</ele><time>2026-04-26T13:15:02.385Z</time></trkpt><trkpt lat="42.52876857867398" lon="12.666943564650719"><ele>280.0</ele><time>2026-04-26T13:15:03.385Z</time></trkpt><trkpt lat="42.528871627644314" lon="12.666932375582368"><ele>279.0</ele><time>2026-04-26T13:15:04.385Z</time></trkpt><trkpt lat="42.52898837834628" lon="12.66691307750682"><ele>278.0</ele><time>2026-04-26T13:15:05.385Z</time></trkpt><trkpt lat="42.529090196257975" lon="12.666888501944321"><ele>277.0</ele><time>2026-04-26T13:15:06.385Z</time></trkpt><trkpt lat="42.529178196902095" lon="12.666875651780293"><ele>276.0</ele><time>2026-04-26T13:15:07.385Z</time></trkpt><trkpt lat="42.52925293092476" lon="12.666853199463159"><ele>276.0</ele><time>2026-04-26T13:15:08.385Z</time></trkpt><trkpt lat="42.529324744024244" lon="12.666815311502237"><ele>276.0</ele><time>2026-04-26T13:15:09.385Z</time></trkpt><trkpt lat="42.52939550270476" lon="12.66672853482372"><ele>276.0</ele><time>2026-04-26T13:15:10.385Z</time></trkpt><trkpt lat="42.52945433875717" lon="12.666599643945139"><ele>276.0</ele><time>2026-04-26T13:15:11.385Z</time></trkpt><trkpt lat="42.52950946123744" lon="12.666442071727525"><ele>276.0</ele><time>2026-04-26T13:15:12.385Z</time></trkpt><trkpt lat="42.529560477520846" lon="12.666277976078893"><ele>270.5</ele><time>2026-04-26T13:15:13.385Z</time></trkpt><trkpt lat="42.529624735300715" lon="12.666123398009526"><ele>265.0</ele><time>2026-04-26T13:15:14.385Z</time></trkpt><trkpt lat="42.52969801579463" lon="12.665963203731227"><ele>259.5</ele><time>2026-04-26T13:15:15.385Z</time></trkpt><trkpt lat="42.52977459615729" lon="12.66579720938153"><ele>254.0</ele><time>2026-04-26T13:15:16.384Z</time></trkpt><trkpt lat="42.52990076714173" lon="12.665553752327938"><ele>254.0</ele><time>2026-04-26T13:15:17.384Z</time></trkpt><trkpt lat="42.52994473548704" lon="12.665353349901475"><ele>253.99999999999997</ele><time>2026-04-26T13:15:18.384Z</time></trkpt><trkpt lat="42.52991095606406" lon="12.665493880857362"><ele>253.99999999999997</ele><time>2026-04-26T13:15:19.384Z</time></trkpt><trkpt lat="42.52993267854317" lon="12.665372702969231"><ele>254.0</ele><time>2026-04-26T13:15:20.384Z</time></trkpt><trkpt lat="42.52995274773904" lon="12.665261491389385"><ele>254.0</ele><time>2026-04-26T13:15:21.384Z</time></trkpt><trkpt lat="42.5299801411387" lon="12.665177635637171"><ele>254.0</ele><time>2026-04-26T13:15:22.384Z</time></trkpt><trkpt lat="42.53000374271337" lon="12.665060632006304"><ele>253.99999999999997</ele><time>2026-04-26T13:15:24.384Z</time></trkpt><trkpt lat="42.530114870335176" lon="12.665126231108498"><ele>253.99999999999997</ele><time>2026-04-26T13:15:26.384Z</time></trkpt><trkpt lat="42.53020251819219" lon="12.665194072115241"><ele>254.0</ele><time>2026-04-26T13:15:27.384Z</time></trkpt><trkpt lat="42.53029221422583" lon="12.665242759199554"><ele>254.0</ele><time>2026-04-26T13:15:28.384Z</time></trkpt><trkpt lat="42.53036194782383" lon="12.66530391342668"><ele>251.6</ele><time>2026-04-26T13:15:29.384Z</time></trkpt><trkpt lat="42.53042581037157" lon="12.665393095391714"><ele>249.2</ele><time>2026-04-26T13:15:30.384Z</time></trkpt><trkpt lat="42.53049370467812" lon="12.66548843028724"><ele>246.79999999999998</ele><time>2026-04-26T13:15:31.384Z</time></trkpt><trkpt lat="42.53057796477055" lon="12.665577182120508"><ele>244.39999999999998</ele><time>2026-04-26T13:15:32.384Z</time></trkpt><trkpt lat="42.53068979481406" lon="12.665605424944452"><ele>242.0</ele><time>2026-04-26T13:15:33.384Z</time></trkpt><trkpt lat="42.53080077245483" lon="12.665638940633425"><ele>242.00000000000003</ele><time>2026-04-26T13:15:34.384Z</time></trkpt><trkpt lat="42.53090777229245" lon="12.665669371852323"><ele>242.0</ele><time>2026-04-26T13:15:35.384Z</time></trkpt><trkpt lat="42.53100336298075" lon="12.665700817389002"><ele>242.0</ele><time>2026-04-26T13:15:36.383Z</time></trkpt><trkpt lat="42.531091826723475" lon="12.665732971090556"><ele>242.0</ele><time>2026-04-26T13:15:37.383Z</time></trkpt><trkpt lat="42.53116645541592" lon="12.665764078829335"><ele>242.00000000000003</ele><time>2026-04-26T13:15:38.383Z</time></trkpt><trkpt lat="42.531233793479075" lon="12.66579536189937"><ele>242.0</ele><time>2026-04-26T13:15:39.383Z</time></trkpt><trkpt lat="42.53131681979453" lon="12.665830363413829"><ele>244.0</ele><time>2026-04-26T13:15:41.383Z</time></trkpt></trkseg></trk></gpx>